# Wetter Temperatur Luftdruck Luftfeuchtigkeit Sichtweite Windgeschwindigkeit Windrichtung Zeit
1 Clouds 1 1015 51 16093 3.6 340 10:19 29.01.2020
2 Clouds 1 1015 51 16093 6.2 340 09:40 29.01.2020
3 Clouds 1 1015 51 16093 6.2 340 09:40 29.01.2020
4 Clouds 1 1015 51 16093 6.2 340 09:22 29.01.2020
5 Clouds 1 1015 51 16093 4.6 340 08:58 29.01.2020
6 Clouds 1 1015 51 16093 4.6 340 08:39 29.01.2020
7 Clouds 2 1015 51 16093 8.91 322 08:20 29.01.2020
8 Clouds 2 1015 51 16093 2.6 360 07:45 29.01.2020
9 Clouds 2 1015 51 16093 4.1 340 07:25 29.01.2020
10 Clouds 2 1015 51 16093 4.6 360 06:55 29.01.2020
11 Clouds 2 1015 51 16093 8.91 322 06:37 29.01.2020
12 Clouds 2 1015 51 16093 8.91 322 06:18 29.01.2020
13 Clouds 2 1014 55 16093 2.1 330 05:45 29.01.2020
14 Clouds 2 1014 51 16093 4.6 330 05:26 29.01.2020
15 Clouds 3 1014 48 16093 4.1 320 04:38 29.01.2020
16 Clouds 3 1014 51 16093 4.6 330 03:49 29.01.2020
17 Clouds 3 1012 64 16093 5.7 330 02:33 29.01.2020
18 Clouds 4 1012 55 16093 4.6 330 00:44 29.01.2020
19 Clouds 4 1012 56 0 8.59 327 00:25 29.01.2020
20 Rain 4 1012 52 16093 5.1 320 23:58 28.01.2020
21 Rain 4 1011 52 16093 4.6 310 23:37 28.01.2020
22 Rain 4 1011 52 16093 4.6 310 23:18 28.01.2020
23 Clouds 4 1011 60 16093 4.1 350 22:41 28.01.2020
24 Clouds 4 1011 48 16093 4.1 320 22:21 28.01.2020
25 Clouds 4 1011 52 16093 5.1 320 21:54 28.01.2020
26 Clouds 4 1011 48 16093 5.7 320 21:36 28.01.2020
27 Clouds 4 1011 48 16093 5.7 320 21:18 28.01.2020
28 Clouds 5 1010 48 16093 7.2 330 20:42 28.01.2020
29 Clouds 5 1010 48 16093 7.2 330 20:42 28.01.2020
30 Clouds 5 1009 45 16093 8.2 320 20:23 28.01.2020
31 Clear 5 1009 45 16093 8.7 320 19:55 28.01.2020
32 Clouds 5 1009 45 16093 6.7 320 19:36 28.01.2020
33 Clouds 5 1009 45 16093 6.7 320 19:18 28.01.2020
34 Clouds 6 1009 45 16093 7.2 330 18:41 28.01.2020
35 Clouds 6 1010 45 16093 8.2 320 18:22 28.01.2020
36 Clouds 6 1010 45 16093 6.2 340 17:59 28.01.2020
37 Clouds 5 1011 48 16093 5.7 340 17:39 28.01.2020
38 Clouds 5 1011 48 16093 5.7 340 17:21 28.01.2020
39 Clouds 5 1011 48 16093 4.1 340 16:57 28.01.2020
40 Clouds 5 1011 48 16093 4.1 340 16:39 28.01.2020
41 Clouds 4 1011 55 16093 6.2 330 16:20 28.01.2020
42 Clouds 4 1011 55 16093 6.2 330 15:45 28.01.2020
43 Clouds 4 1011 64 16093 4.1 310 15:19 28.01.2020
44 Clouds 3 1011 64 16093 5.1 310 14:57 28.01.2020
45 Clouds 3 1011 64 16093 5.1 310 14:39 28.01.2020
46 Clouds 2 1010 64 16093 6.2 310 14:18 28.01.2020
47 Clouds 2 1009 64 16093 3.6 310 13:41 28.01.2020
48 Clouds 2 1009 64 16093 3.6 310 13:23 28.01.2020
49 Clouds 2 1009 59 16093 5.7 310 12:43 28.01.2020
50 Clouds 2 1009 59 16093 5.7 310 12:24 28.01.2020
51 Clouds 2 1009 59 16093 4.1 320 11:58 28.01.2020
52 Clouds 2 1009 59 16093 4.1 320 11:39 28.01.2020
53 Clouds 2 1008 59 16093 3.6 320 11:20 28.01.2020
54 Clouds 3 1008 59 16093 4.6 320 10:42 28.01.2020
55 Clouds 3 1008 59 16093 4.1 320 10:24 28.01.2020
56 Clouds 3 1008 55 16093 5.7 310 09:58 28.01.2020
57 Clouds 3 1008 51 16093 5.1 310 09:38 28.01.2020
58 Clouds 3 1008 51 16093 5.1 310 09:19 28.01.2020
59 Clouds 3 1008 51 16093 3.6 310 08:44 28.01.2020
60 Clouds 3 1008 55 16093 4.6 320 08:25 28.01.2020
61 Clouds 3 1008 60 16093 3.1 340 07:43 28.01.2020
62 Clouds 4 1008 60 16093 3.1 340 07:23 28.01.2020
63 Clouds 4 1008 64 16093 4.6 330 06:44 28.01.2020
64 Clouds 4 1008 60 0 8.36 314 06:23 28.01.2020
65 Clouds 4 1008 60 0 1.5 0 05:35 28.01.2020
66 Clouds 4 1007 60 16093 6.93 313 04:41 28.01.2020
67 Clouds 5 1007 60 16093 2.1 330 03:46 28.01.2020
68 Clouds 5 1007 60 16093 1.5 330 02:44 28.01.2020
69 Clouds 5 1007 60 16093 1.5 330 02:44 28.01.2020
70 Clouds 5 1007 60 16093 3.1 300 02:24 28.01.2020
71 Clouds 5 1007 65 16093 2.1 330 01:52 28.01.2020
72 Clouds 5 1007 56 16093 6.89 298 01:20 28.01.2020
73 Clouds 6 1006 52 16093 3.1 310 00:41 28.01.2020
74 Clouds 6 1006 52 16093 4.1 300 00:19 28.01.2020
75 Rain 6 1006 52 16093 3.1 310 23:42 27.01.2020
76 Rain 6 1006 48 16093 7.22 279 23:19 27.01.2020
77 Clouds 6 1005 48 16093 6.7 300 22:44 27.01.2020
78 Clouds 6 1005 48 16093 6.2 310 22:20 27.01.2020
79 Clouds 6 1005 48 16093 6.2 310 22:20 27.01.2020
80 Clouds 6 1005 52 16093 4.6 310 21:57 27.01.2020
81 Clouds 6 1005 52 16093 4.6 310 21:38 27.01.2020
82 Clouds 6 1005 56 16093 7.22 279 21:19 27.01.2020
83 Clouds 6 1005 56 16093 7.22 279 21:19 27.01.2020
84 Clouds 6 1005 52 16093 4.6 300 20:56 27.01.2020
85 Clouds 6 1005 60 16093 3.6 270 20:37 27.01.2020
86 Clouds 6 1005 60 16093 3.6 270 20:19 27.01.2020
87 Clouds 6 1005 60 16093 4.6 280 19:55 27.01.2020
88 Clouds 6 1005 60 16093 5.1 280 19:37 27.01.2020
89 Clouds 6 1005 60 16093 5.1 280 19:19 27.01.2020
90 Clouds 6 1005 60 16093 4.1 270 18:39 27.01.2020
91 Clouds 6 1006 56 16093 4.6 270 18:21 27.01.2020
92 Clouds 6 1006 60 16093 4.1 270 17:57 27.01.2020
93 Clouds 6 1006 60 16093 4.1 270 17:57 27.01.2020
94 Clouds 6 1006 75 16093 4.1 230 17:37 27.01.2020
95 Clouds 5 1006 75 16093 4.1 230 17:18 27.01.2020
96 Clouds 5 1007 60 16093 3.6 280 16:55 27.01.2020
97 Clouds 5 1007 60 16093 3.6 280 16:36 27.01.2020
98 Clouds 5 1007 60 16093 3.6 280 16:18 27.01.2020
99 Clouds 4 1007 64 16093 4.1 270 15:41 27.01.2020
100 Clouds 4 1007 64 16093 4.6 270 15:20 27.01.2020
101 Clouds 3 1007 64 16093 2.1 270 14:57 27.01.2020
102 Clouds 3 1006 69 16093 3.6 270 14:39 27.01.2020
103 Clouds 2 1006 69 16093 3.6 270 14:20 27.01.2020
104 Clouds 2 1007 69 16093 2.6 270 13:42 27.01.2020
105 Clouds 2 1007 69 16093 3.6 280 13:22 27.01.2020
106 Clouds 2 1006 80 16093 3.1 230 12:57 27.01.2020
107 Clouds 2 1006 80 16093 3.1 230 12:57 27.01.2020
108 Clouds 2 1006 80 16093 3.1 230 12:57 27.01.2020
109 Clouds 2 1007 69 16093 2.6 270 12:39 27.01.2020
110 Clouds 2 1007 69 16093 2.6 270 12:20 27.01.2020
111 Clouds 2 1007 69 16093 3.1 270 11:43 27.01.2020
112 Clouds 2 1007 69 16093 3.1 270 11:22 27.01.2020
113 Clouds 2 1007 69 16093 3.6 270 10:56 27.01.2020
114 Clouds 2 1007 69 16093 3.6 280 10:37 27.01.2020
115 Clouds 2 1007 69 16093 3.6 280 10:18 27.01.2020
116 Clouds 2 1007 69 16093 8.63 262 09:39 27.01.2020
117 Clouds 2 1007 69 16093 8.63 262 09:19 27.01.2020
118 Clouds 2 1008 69 16093 3.1 270 08:55 27.01.2020
119 Clouds 2 1008 69 16093 2.6 270 08:37 27.01.2020
120 Clouds 2 1008 69 16093 2.6 270 08:18 27.01.2020
121 Clouds 1 1008 69 16093 8.09 266 07:45 27.01.2020
122 Clear 1 1008 69 16093 8.09 266 07:25 27.01.2020
123 Clear 2 1008 64 16093 8.09 266 06:37 27.01.2020
124 Clear 2 1008 64 16093 8.09 266 06:37 27.01.2020
125 Clear 2 1009 64 16093 1.5 290 05:38 27.01.2020
126 Clear 3 1009 64 16093 7.4 267 04:37 27.01.2020
127 Clear 3 1009 60 16093 7.4 267 03:35 27.01.2020
128 Clear 5 1009 56 16093 4.1 290 01:54 27.01.2020
129 Clear 5 1009 60 16093 7.86 269 01:25 27.01.2020
130 Clouds 5 1009 52 16093 5.7 300 00:41 27.01.2020
131 Clouds 6 1009 52 16093 5.7 300 00:21 27.01.2020
132 Clouds 6 1008 52 16093 4.6 300 23:43 26.01.2020
133 Clouds 6 1008 52 16093 4.6 300 23:22 26.01.2020
134 Clouds 6 1008 56 16093 3.6 310 22:58 26.01.2020
135 Clouds 7 1008 52 16093 3.6 290 22:38 26.01.2020
136 Clouds 7 1008 52 16093 3.6 290 22:20 26.01.2020
137 Clouds 7 1008 52 16093 2.6 290 21:58 26.01.2020
138 Clouds 7 1008 52 16093 2.6 290 21:58 26.01.2020
139 Clouds 7 1008 52 16093 5.7 290 21:39 26.01.2020
140 Clouds 7 1008 52 16093 5.7 290 21:21 26.01.2020
141 Clouds 7 1008 52 16093 7.81 274 20:58 26.01.2020
142 Clouds 7 1008 52 16093 6.2 310 20:38 26.01.2020
143 Clouds 7 1008 52 16093 6.2 310 20:38 26.01.2020
144 Clouds 7 1008 52 16093 6.2 310 20:38 26.01.2020
145 Clouds 7 1008 52 16093 6.2 310 20:19 26.01.2020
146 Clouds 7 1008 52 16093 6.2 310 19:58 26.01.2020
147 Clouds 7 1008 49 16093 5.7 290 19:38 26.01.2020
148 Clouds 7 1008 49 16093 5.7 290 19:38 26.01.2020
149 Clouds 7 1008 49 16093 5.7 290 19:19 26.01.2020
150 Clouds 7 1009 52 16093 6.7 310 18:56 26.01.2020
151 Clouds 7 1009 52 16093 6.2 320 18:38 26.01.2020
152 Clouds 7 1009 52 16093 6.2 320 18:20 26.01.2020
153 Clouds 7 1009 63 16093 4.1 300 17:55 26.01.2020
154 Clouds 7 1010 63 16093 6.7 310 17:37 26.01.2020
155 Clouds 6 1010 73 16093 6.7 310 17:18 26.01.2020
156 Clear 6 1010 73 16093 4.6 280 16:56 26.01.2020
157 Clear 5 1010 73 16093 4.6 280 16:38 26.01.2020
158 Clear 5 1011 73 16093 2.6 280 16:18 26.01.2020
159 Clouds 4 1011 73 16093 6.69 263 15:43 26.01.2020
160 Clouds 3 1009 100 16093 3.6 230 15:21 26.01.2020
161 Clouds 3 1009 86 16093 2.6 230 14:58 26.01.2020
162 Clouds 3 1009 86 16093 2.6 230 14:38 26.01.2020
163 Clouds 2 1009 86 16093 2.6 230 14:19 26.01.2020
164 Clouds 1 1008 78 16093 7.28 265 13:40 26.01.2020
165 Clouds 1 1008 79 16093 7.41 260 13:19 26.01.2020
166 Clear 1 1009 93 16093 1.5 250 12:56 26.01.2020
167 Clear 1 1009 93 16093 1.5 250 12:37 26.01.2020
168 Clear 1 1009 93 16093 1.5 250 12:19 26.01.2020
169 Clear 1 1009 86 16093 3.1 270 11:57 26.01.2020
170 Clear 2 1009 86 16093 2.1 280 11:36 26.01.2020
171 Clear 2 1009 86 16093 2.1 280 11:18 26.01.2020
172 Clear 2 1009 86 16093 2.1 280 11:18 26.01.2020
173 Clear 2 1009 86 16093 2.1 280 10:55 26.01.2020
174 Clear 2 1009 86 16093 2.1 280 10:37 26.01.2020
175 Clear 2 1009 86 16093 2.1 280 10:19 26.01.2020
176 Clear 2 1009 86 16093 2.1 280 10:19 26.01.2020
177 Clear 3 1009 93 16093 8.25 273 09:42 26.01.2020
178 Clear 3 1010 93 16093 8.25 273 09:23 26.01.2020
179 Clear 3 1009 86 16093 2.1 270 08:59 26.01.2020
180 Clear 3 1009 86 16093 2.1 270 08:41 26.01.2020
181 Clear 3 1009 86 16093 8.18 280 08:21 26.01.2020
182 Clear 3 1009 86 16093 8.18 280 07:50 26.01.2020
183 Clear 3 1009 86 16093 8.18 280 07:26 26.01.2020
184 Clear 4 1009 86 16093 8.18 280 06:51 26.01.2020
185 Clear 4 1009 86 16093 2.6 300 06:23 26.01.2020
186 Clear 4 1009 86 16093 8.18 280 05:28 26.01.2020
187 Clouds 6 1009 87 16093 3.6 250 03:31 26.01.2020
188 Clouds 6 1008 100 16093 2.1 320 02:38 26.01.2020
189 Clouds 7 1008 93 16093 6.6 254 01:45 26.01.2020
190 Clouds 7 1008 93 0 4.1 260 01:22 26.01.2020
191 Rain 7 1008 100 0 4.1 250 00:42 26.01.2020
192 Rain 8 1008 100 0 2.6 270 00:24 26.01.2020
193 Rain 8 1007 81 12874 5.7 180 23:39 25.01.2020
194 Rain 8 1008 91 0 2.24 150 23:21 25.01.2020
195 Rain 8 1008 87 4023 10.8 120 22:56 25.01.2020
196 Rain 8 1008 87 4023 10.8 120 22:56 25.01.2020
197 Rain 8 1008 87 4023 10.8 120 22:36 25.01.2020
198 Rain 8 1008 87 4023 10.8 120 22:18 25.01.2020
199 Rain 8 1008 87 4023 10.8 120 21:55 25.01.2020
200 Rain 9 1008 96 0 6.73 335 21:36 25.01.2020
201 Rain 8 1008 93 9656 11.3 100 21:18 25.01.2020
202 Rain 8 1009 87 4828 11.3 100 20:43 25.01.2020
203 Rain 8 1006 95 0 5.81 135 20:24 25.01.2020
204 Rain 7 1007 95 0 5.36 113 19:48 25.01.2020
205 Rain 7 1014 87 4828 8.7 100 19:20 25.01.2020
206 Rain 6 1014 87 4828 8.7 100 19:20 25.01.2020
207 Rain 7 1014 87 4828 8.7 100 18:59 25.01.2020
208 Rain 7 1014 87 4828 8.7 100 18:41 25.01.2020
209 Rain 6 1014 87 4828 8.7 100 18:21 25.01.2020
210 Rain 6 1010 94 0 5.36 113 17:56 25.01.2020
211 Rain 6 1014 87 4828 2.1 0 17:37 25.01.2020
212 Rain 5 1014 94 0 14.31 122 17:18 25.01.2020
213 Rain 5 1014 87 4828 2.1 0 16:42 25.01.2020
214 Rain 5 1013 93 4023 5.1 70 16:23 25.01.2020
215 Rain 5 1019 87 4828 5.1 70 15:56 25.01.2020
216 Rain 4 1015 93 4023 2.6 0 15:38 25.01.2020
217 Rain 4 1015 93 4023 2.6 0 15:19 25.01.2020
218 Rain 4 1016 93 3219 4.1 70 14:42 25.01.2020
219 Clouds 4 1020 80 11265 6.2 70 14:19 25.01.2020
220 Clouds 4 1020 80 11265 6.2 70 13:45 25.01.2020
221 Clouds 4 1022 71 0 3.58 360 13:26 25.01.2020
222 Clouds 4 1021 80 0 7.2 30 12:57 25.01.2020
223 Clouds 4 1021 80 0 7.2 30 12:37 25.01.2020
224 Clouds 4 1021 80 0 7.2 30 12:19 25.01.2020
225 Clouds 4 1020 80 16093 7.7 90 11:40 25.01.2020
226 Clouds 4 1020 80 16093 7.7 90 11:19 25.01.2020
227 Clouds 4 1021 80 16093 7.2 90 10:55 25.01.2020
228 Clouds 4 1021 80 16093 5.1 90 10:37 25.01.2020
229 Clouds 4 1021 80 16093 5.1 90 10:18 25.01.2020
230 Clouds 3 1022 86 16093 6.7 100 09:40 25.01.2020
231 Clouds 3 1022 86 16093 5.1 90 09:19 25.01.2020
232 Clouds 3 1023 80 16093 5.7 90 08:43 25.01.2020
233 Clouds 3 1024 86 16093 5.1 90 07:58 25.01.2020
234 Clouds 3 1024 100 16093 5.7 80 07:36 25.01.2020
235 Clouds 3 1024 80 16093 4.6 90 07:36 25.01.2020
236 Clouds 3 1025 79 14484 9.46 80 06:41 25.01.2020
237 Clear 3 1024 79 16093 3.6 90 06:22 25.01.2020
238 Clouds 3 1025 79 16093 3.6 50 05:43 25.01.2020
239 Clear 4 1025 48 16093 7.86 81 04:24 25.01.2020
240 Clear 4 1026 38 16093 7.86 81 03:50 25.01.2020
241 Clear 4 1026 52 16093 7.86 81 02:38 25.01.2020
242 Clear 4 1026 42 16093 7.38 90 01:58 25.01.2020
243 Clear 4 1026 45 16093 7.29 84 01:34 25.01.2020
244 Clear 5 1027 45 16093 7.29 84 00:41 25.01.2020
245 Clear 6 1026 48 16093 7.29 84 00:23 25.01.2020
246 Clear 6 1026 48 16093 7.29 84 23:42 24.01.2020
247 Clear 7 1027 42 16093 5.86 98 23:24 24.01.2020
248 Clear 7 1026 45 16093 5.86 98 22:56 24.01.2020
249 Clear 8 1026 45 16093 5.86 98 22:37 24.01.2020
250 Clear 8 1026 45 16093 5.86 98 22:19 24.01.2020
251 Clouds 8 1026 34 16093 2.6 160 21:41 24.01.2020
252 Clear 8 1026 31 16093 2.6 150 21:20 24.01.2020
253 Clear 9 1026 29 16093 5.86 98 20:55 24.01.2020
254 Clear 9 1026 29 16093 5.86 98 20:37 24.01.2020
255 Clear 9 1026 29 16093 4.3 86 20:18 24.01.2020
256 Clear 9 1027 32 16093 4.3 86 19:55 24.01.2020
257 Clear 9 1027 34 16093 4.3 86 19:37 24.01.2020
258 Clear 10 1027 34 16093 4.3 86 19:19 24.01.2020
259 Clear 9 1027 34 16093 4.3 86 19:19 24.01.2020
260 Clear 10 1027 34 16093 4.3 86 18:42 24.01.2020
261 Clear 10 1028 37 16093 4.3 86 18:22 24.01.2020
262 Clear 10 1028 37 16093 4.3 86 18:22 24.01.2020
263 Clear 9 1029 36 16093 4.3 86 17:45 24.01.2020
264 Clear 8 1029 36 16093 3.21 54 17:23 24.01.2020
265 Clouds 7 1029 45 16093 2.6 80 16:58 24.01.2020
266 Clear 6 1029 42 16093 3.21 54 16:39 24.01.2020
267 Clear 6 1029 42 16093 3.21 54 16:19 24.01.2020
268 Clear 6 1029 42 16093 3.21 54 16:19 24.01.2020
269 Clouds 4 1029 69 16093 3.21 54 15:42 24.01.2020
270 Clear 3 1029 55 16093 3.21 54 15:21 24.01.2020
271 Clouds 2 1029 92 16093 3.21 54 14:55 24.01.2020
272 Clear 1 1029 64 11265 3.21 54 14:37 24.01.2020
273 Clear -1 1029 64 11265 1.69 4 14:19 24.01.2020
274 Clouds -2 1029 100 16093 1.69 4 13:41 24.01.2020
275 Clear -2 1029 49 16093 1.53 348 13:22 24.01.2020
276 Clear -2 1028 49 16093 1.53 348 12:44 24.01.2020
277 Clear -2 1028 49 16093 1.53 348 12:44 24.01.2020
278 Clear -2 1028 49 16093 1.53 348 12:21 24.01.2020
279 Clouds -2 1027 69 16093 1.5 30 11:45 24.01.2020
280 Clouds -2 1027 69 16093 1.5 30 11:19 24.01.2020
281 Clouds -2 1027 69 16093 1.5 30 11:19 24.01.2020
282 Clear -2 1027 100 16093 1.86 284 10:59 24.01.2020
283 Clouds -1 1028 64 16093 1.86 284 10:40 24.01.2020
284 Clouds -1 1028 64 16093 1.86 284 10:19 24.01.2020
285 Clouds -1 1028 64 16093 1.86 284 09:42 24.01.2020
286 Clear -1 1027 92 16093 1.86 284 09:42 24.01.2020
287 Clouds 0 1028 64 16093 1.86 284 09:24 24.01.2020
288 Clear 0 1028 69 16093 1.86 284 08:59 24.01.2020
289 Clouds 0 1028 64 16093 1.42 276 08:36 24.01.2020
290 Clouds 0 1028 64 16093 2.21 271 08:18 24.01.2020
291 Clouds 0 1027 92 16093 2.21 271 07:42 24.01.2020
292 Clear 0 1028 59 16093 2.21 271 07:21 24.01.2020
293 Clear 1 1028 59 16093 2.21 271 06:43 24.01.2020
294 Clear 1 1028 59 16093 2.21 271 06:43 24.01.2020
295 Clouds 0 1028 64 16093 2.21 271 06:23 24.01.2020
296 Clear 1 1028 64 16093 3.13 257 05:21 24.01.2020
297 Clear 1 1029 64 16093 3.13 257 03:34 24.01.2020
298 Clear 1 1029 48 16093 3.13 257 02:39 24.01.2020
299 Clear 2 1029 48 16093 2.91 195 02:20 24.01.2020
300 Clear 2 1028 41 16093 2.91 195 01:38 24.01.2020
301 Clouds 3 1028 59 16093 1.5 290 00:42 24.01.2020
302 Clear 3 1028 33 16093 2.65 227 00:19 24.01.2020
303 Clear 4 1028 33 16093 2.65 227 23:42 23.01.2020
304 Clear 4 1028 48 0 2.1 260 23:22 23.01.2020
305 Clear 5 1028 30 16093 1.9 245 22:58 23.01.2020
306 Clear 6 1027 28 16093 1.9 245 22:37 23.01.2020
307 Clear 6 1027 28 16093 1.9 245 22:18 23.01.2020
308 Clear 6 1027 30 16093 1.9 245 21:55 23.01.2020
309 Clear 7 1027 28 16093 1.9 245 21:37 23.01.2020
310 Clear 7 1027 28 16093 1.9 245 21:19 23.01.2020
311 Clouds 7 1027 39 16093 3.1 200 20:55 23.01.2020
312 Clear 7 1028 30 16093 2.21 258 20:37 23.01.2020
313 Clear 7 1028 30 16093 3.71 264 20:18 23.01.2020
314 Clouds 6 1027 31 16093 2.1 250 19:42 23.01.2020
315 Clear 6 1028 33 16093 3.71 264 19:23 23.01.2020
316 Clear 6 1029 38 16093 3.71 264 18:58 23.01.2020
317 Clear 6 1030 38 16093 3.71 264 18:38 23.01.2020
318 Clear 5 1030 38 16093 3.71 264 18:20 23.01.2020
319 Clear 5 1031 51 0 3.1 250 17:56 23.01.2020
320 Clear 4 1031 51 0 3.1 250 17:37 23.01.2020
321 Clear 3 1031 51 0 3.1 250 17:18 23.01.2020
322 Clear 2 1031 55 16093 4.11 247 16:39 23.01.2020
323 Clear 2 1031 55 16093 4.11 247 16:20 23.01.2020
324 Clear 1 1030 54 16093 4.11 247 15:58 23.01.2020
325 Clear 1 1030 63 16093 4.11 247 15:39 23.01.2020
326 Clear 0 1030 63 16093 4.11 247 15:19 23.01.2020
327 Clear 0 1030 68 16093 4.11 247 14:59 23.01.2020
328 Clear -1 1030 68 16093 4.11 247 14:41 23.01.2020
329 Clear -3 1030 68 16093 3.72 252 14:22 23.01.2020
330 Clear -5 1030 73 16093 3.72 252 13:59 23.01.2020
331 Clear -6 1030 68 16093 3.72 252 13:37 23.01.2020
332 Clear -6 1030 68 16093 3.81 247 13:19 23.01.2020
333 Clouds -6 1030 100 16093 4.22 255 12:44 23.01.2020
334 Clear -5 1030 73 16093 3.81 247 12:24 23.01.2020
335 Clear -5 1030 68 16093 3.81 247 11:56 23.01.2020
336 Clear -5 1030 53 0 2.6 260 11:37 23.01.2020
337 Clear -5 1030 68 16093 3.81 247 11:37 23.01.2020
338 Clear -5 1030 67 0 2.6 260 11:18 23.01.2020
339 Clear -5 1030 73 16093 3.5 267 10:44 23.01.2020
340 Clear -5 1030 73 16093 3.76 254 10:22 23.01.2020
341 Clear -5 1030 73 16093 3.5 267 09:43 23.01.2020
342 Clear -5 1030 73 16093 3.5 267 09:25 23.01.2020
343 Clear -4 1030 68 16093 3.5 267 08:59 23.01.2020
344 Clear -4 1030 68 16093 3.76 254 08:40 23.01.2020
345 Clear -4 1030 68 16093 3.57 259 08:22 23.01.2020
346 Clear -4 1030 68 16093 3.57 259 07:45 23.01.2020
347 Clear -4 1030 68 16093 3.57 259 07:26 23.01.2020
348 Clear -3 1030 63 16093 3.57 259 06:52 23.01.2020
349 Clear -3 1030 63 16093 3.57 259 06:22 23.01.2020
350 Clear -3 1031 63 16093 3.57 259 05:57 23.01.2020
351 Clear -3 1031 63 16093 2.93 227 04:24 23.01.2020
352 Clear -3 1031 63 16093 2.93 227 04:24 23.01.2020
353 Clear -2 1031 52 16093 0.96 254 02:34 23.01.2020
354 Clear -2 1030 59 16093 1.5 210 01:33 23.01.2020
355 Clear -1 1031 43 16093 2.02 242 00:27 23.01.2020
356 Clouds 0 1031 79 16093 2.02 242 23:48 22.01.2020
357 Clear 1 1031 40 16093 2.02 242 23:30 22.01.2020
358 Clear 2 1030 38 16093 2.42 311 22:59 22.01.2020
359 Clear 3 1030 38 16093 2.42 311 22:41 22.01.2020
360 Clear 3 1030 38 16093 2.42 311 22:41 22.01.2020
361 Clear 3 1030 38 16093 2.42 311 22:22 22.01.2020
362 Clear 3 1030 38 16093 2.42 311 21:40 22.01.2020
363 Clear 3 1030 38 16093 2.42 311 21:22 22.01.2020
364 Clear 3 1030 38 16093 2.42 311 20:58 22.01.2020
365 Clear 3 1030 38 16093 2.42 311 20:39 22.01.2020
366 Clear 3 1030 40 16093 2.69 267 20:21 22.01.2020
367 Clear 3 1031 37 16093 2.69 267 19:57 22.01.2020
368 Clear 2 1031 43 16093 2.69 267 19:38 22.01.2020
369 Clear 2 1031 43 16093 2.69 267 19:18 22.01.2020
370 Clear 2 1031 43 16093 2.69 267 18:56 22.01.2020
371 Clear 2 1031 43 16093 2.69 267 18:38 22.01.2020
372 Clear 1 1032 43 16093 2.69 267 18:19 22.01.2020
373 Clear 1 1033 48 16093 2.69 267 17:54 22.01.2020
374 Clear 1 1033 48 16093 2.69 267 17:36 22.01.2020
375 Clear 0 1032 57 16093 2.16 265 17:18 22.01.2020
376 Clear 0 1033 57 16093 2.16 265 17:18 22.01.2020
377 Clear -1 1033 54 16093 2.16 265 16:43 22.01.2020
378 Clear -1 1033 54 16093 2.16 265 16:22 22.01.2020
379 Rain -2 1033 58 16093 2.16 265 15:58 22.01.2020
380 Rain -2 1033 58 16093 2.16 265 15:39 22.01.2020
381 Rain -3 1033 58 16093 2.16 265 15:21 22.01.2020
382 Rain -3 1033 58 16093 2.16 265 15:21 22.01.2020
383 Clear -4 1033 68 16093 2.16 265 14:54 22.01.2020
384 Clear -4 1033 73 16093 2.16 265 14:36 22.01.2020
385 Clear -4 1033 73 16093 2.16 265 14:36 22.01.2020
386 Clear -6 1033 73 16093 1.59 344 14:18 22.01.2020
387 Clear -7 1033 92 16093 1.59 344 13:54 22.01.2020
388 Clear -8 1032 73 16093 1.59 344 13:36 22.01.2020
389 Clear -8 1032 73 16093 1.46 357 13:18 22.01.2020
390 Clear -8 1031 92 16093 1.46 357 12:54 22.01.2020
391 Clear -8 1031 67 16093 1.46 357 12:36 22.01.2020
392 Clear -8 1031 67 16093 1.46 357 12:18 22.01.2020
393 Clear -8 1031 67 16093 1.46 357 11:54 22.01.2020
394 Clear -8 1031 67 16093 1.46 357 11:36 22.01.2020
395 Clear -8 1030 73 16093 3.78 8 11:18 22.01.2020
396 Clear -8 1031 62 16093 3.78 8 10:41 22.01.2020
397 Clear -7 1031 62 16093 3.78 8 10:19 22.01.2020
398 Clear -7 1031 62 16093 3.78 8 09:42 22.01.2020
399 Clear -7 1031 62 16093 3.78 8 09:24 22.01.2020
400 Clear -6 1031 58 16093 3.78 8 08:57 22.01.2020
401 Clear -6 1031 62 16093 3.78 8 08:39 22.01.2020
402 Clear -6 1031 62 16093 5.24 351 08:20 22.01.2020
403 Clear -6 1031 58 16093 5.24 351 07:47 22.01.2020
404 Clear -6 1031 58 16093 5.24 351 07:29 22.01.2020
405 Clear -5 1031 58 16093 5.24 351 06:46 22.01.2020
406 Clear -5 1032 49 16093 5.24 351 06:26 22.01.2020
407 Clear -5 1032 49 16093 5.24 351 05:26 22.01.2020
408 Clear -3 1032 46 16093 5.45 343 03:30 22.01.2020
409 Clear -3 1032 42 16093 5.45 343 02:57 22.01.2020
410 Clear -3 1032 36 16093 4.1 330 01:43 22.01.2020
411 Clear -2 1031 33 16093 6.17 340 00:44 22.01.2020
412 Clear -2 1031 33 16093 6.17 340 00:26 22.01.2020
413 Clear -2 1030 47 16093 6.17 340 23:38 21.01.2020
414 Clear -1 1030 40 16093 4.11 334 23:20 21.01.2020
415 Clouds -1 1030 42 16093 1.5 330 22:56 21.01.2020
416 Clouds -1 1030 42 16093 1.5 330 22:56 21.01.2020
417 Clear -1 1030 29 16093 2.6 330 22:37 21.01.2020
418 Clear -1 1030 29 16093 2.6 330 22:37 21.01.2020
419 Clear 0 1030 29 16093 2.6 330 22:19 21.01.2020
420 Clear 0 1030 29 16093 3.6 340 21:55 21.01.2020
421 Clear 0 1030 29 16093 4.1 350 21:37 21.01.2020
422 Clear 0 1030 29 16093 4.1 350 21:18 21.01.2020
423 Clear 0 1030 29 16093 3.6 350 20:55 21.01.2020
424 Clear 0 1030 27 16093 3.6 30 20:37 21.01.2020
425 Clear 0 1030 27 16093 3.6 30 20:18 21.01.2020
426 Clear 0 1030 31 16093 3.6 350 19:55 21.01.2020
427 Clear 0 1030 34 16093 4.1 330 19:36 21.01.2020
428 Clear 0 1030 34 16093 4.1 330 19:18 21.01.2020
429 Clouds -1 1030 50 16093 3.6 320 18:54 21.01.2020
430 Clear -1 1031 50 16093 2.1 330 18:36 21.01.2020
431 Clear -1 1031 50 16093 2.1 330 18:18 21.01.2020
432 Clear -2 1032 46 16093 3.6 310 17:42 21.01.2020
433 Clear -3 1032 46 16093 3.6 310 17:19 21.01.2020
434 Clear -3 1033 46 16093 4.41 329 16:57 21.01.2020
435 Clear -4 1033 49 16093 3.1 20 16:36 21.01.2020
436 Clear -4 1033 49 16093 3.1 20 16:18 21.01.2020
437 Clear -5 1032 53 16093 3.6 340 15:40 21.01.2020
438 Clear -5 1032 53 16093 3.6 340 15:20 21.01.2020
439 Clear -6 1032 62 16093 3.6 330 14:57 21.01.2020
440 Clear -6 1032 62 16093 4.41 329 14:37 21.01.2020
441 Clear -7 1032 62 16093 5.31 341 14:19 21.01.2020
442 Clear -8 1031 67 16093 2.6 280 13:39 21.01.2020
443 Clear -8 1031 67 16093 2.6 280 13:18 21.01.2020
444 Clear -8 1031 78 16093 2.1 350 12:43 21.01.2020
445 Clear -8 1031 62 16093 4.84 341 12:25 21.01.2020
446 Clear -8 1030 62 16093 4.84 341 11:57 21.01.2020
447 Clear -8 1030 62 16093 4.84 341 11:38 21.01.2020
448 Clear -8 1030 67 16093 5.85 346 11:20 21.01.2020
449 Clear -8 1030 62 16093 5.85 346 10:44 21.01.2020
450 Clear -8 1030 62 16093 5.85 346 10:23 21.01.2020
451 Clear -8 1030 62 16093 5.85 346 10:23 21.01.2020
452 Clear -7 1030 62 16093 5.85 346 09:59 21.01.2020
453 Clear -7 1030 62 16093 5.85 346 09:40 21.01.2020
454 Clear -7 1030 62 16093 5.85 346 09:22 21.01.2020
455 Clear -7 1030 57 16093 5.85 346 08:48 21.01.2020
456 Clear -7 1030 53 16093 2.1 340 08:27 21.01.2020
457 Clear -7 1030 53 16093 6.63 343 07:57 21.01.2020
458 Clear -7 1029 48 16093 6.63 343 07:38 21.01.2020
459 Clear -7 1029 48 16093 6.63 343 07:19 21.01.2020
460 Clear -7 1029 44 16093 5.7 350 06:45 21.01.2020
461 Clear -6 1030 44 16093 4.6 350 06:23 21.01.2020
462 Clear -6 1030 35 16093 4.1 340 05:41 21.01.2020
463 Clear -5 1030 38 16093 7.9 341 04:39 21.01.2020
464 Clear -4 1029 30 16093 2.6 350 02:54 21.01.2020
465 Clear -4 1029 32 16093 3.6 330 01:47 21.01.2020
466 Clear -3 1028 28 16093 3.6 330 00:54 21.01.2020
467 Clear -3 1028 28 16093 2.6 320 00:32 21.01.2020
468 Clear -3 1027 28 16093 7.79 332 23:57 20.01.2020
469 Clear -2 1027 28 16093 7.79 332 23:37 20.01.2020
470 Clear -2 1027 26 16093 5.7 320 23:18 20.01.2020
471 Clear -2 1027 23 16093 6.2 350 22:56 20.01.2020
472 Clear -2 1026 44 16093 7.2 350 22:37 20.01.2020
473 Clear -1 1026 44 16093 7.2 350 22:18 20.01.2020
474 Clear -1 1026 33 16093 4.1 320 21:57 20.01.2020
475 Clear -1 1026 44 16093 4.1 340 21:36 20.01.2020
476 Clear -1 1026 44 16093 4.1 340 21:18 20.01.2020
477 Clear -1 1026 33 16093 5.1 350 20:55 20.01.2020
478 Clear -1 1026 44 16093 7.2 350 20:36 20.01.2020
479 Clear -1 1026 42 16093 7.2 350 20:18 20.01.2020
480 Clear -1 1026 42 16093 7.2 350 20:18 20.01.2020
481 Clear -1 1026 42 16093 5.1 10 19:56 20.01.2020
482 Clear -2 1026 28 16093 6.7 330 19:37 20.01.2020
483 Clear -2 1026 28 16093 6.7 330 19:18 20.01.2020
484 Clear -2 1026 30 16093 4.6 340 18:42 20.01.2020
485 Clear -2 1026 30 16093 7.7 340 18:21 20.01.2020
486 Clear -3 1026 36 16093 6.7 330 17:40 20.01.2020
487 Clear -4 1026 36 16093 6.7 330 17:19 20.01.2020
488 Clear -4 1026 42 16093 6.2 330 16:58 20.01.2020
489 Clear -4 1026 45 16093 4.1 340 16:37 20.01.2020
490 Clear -5 1026 45 16093 4.1 340 16:18 20.01.2020
491 Clear -5 1026 45 16093 4.1 340 16:18 20.01.2020
492 Clear -5 1026 45 16093 4.1 340 16:18 20.01.2020
493 Clear -5 1025 58 0 2.1 0 15:54 20.01.2020
494 Clear -5 1025 58 0 2.1 0 15:36 20.01.2020
495 Clear -6 1025 58 0 2.1 0 15:18 20.01.2020
496 Clear -6 1025 53 16093 4.6 350 14:41 20.01.2020
497 Clear -6 1025 53 16093 4.6 350 14:41 20.01.2020
498 Clear -6 1025 53 16093 4.6 350 14:22 20.01.2020
499 Clear -7 1024 53 16093 4.1 360 13:58 20.01.2020
500 Clear -7 1024 53 16093 4.1 360 13:40 20.01.2020
501 Clear -7 1023 53 16093 9.72 339 13:21 20.01.2020
502 Clouds -7 1022 67 16093 5.7 360 12:46 20.01.2020
503 Clear -7 1022 53 16093 6.2 340 12:27 20.01.2020
504 Clear -7 1021 53 16093 4.1 340 11:57 20.01.2020
505 Clear -6 1021 53 16093 4.1 340 11:38 20.01.2020
506 Clear -6 1020 53 16093 5.7 340 11:20 20.01.2020
507 Clear -6 1020 53 16093 4.1 340 10:48 20.01.2020
508 Clear -6 1019 53 16093 4.1 330 10:22 20.01.2020
509 -273 0 0 0 0 0 10:22 20.01.2020
510 Clouds -6 1019 53 16093 8.2 350 09:57 20.01.2020
511 Clouds -6 1019 53 16093 8.2 350 09:38 20.01.2020
512 Clouds -5 1019 53 16093 7.2 340 09:19 20.01.2020
513 Clear -5 1018 49 16093 6.7 320 08:43 20.01.2020
514 Clouds -5 1018 49 16093 5.1 330 08:25 20.01.2020
515 Clear -4 1018 49 16093 6.7 330 07:45 20.01.2020
516 Clear -4 1018 45 16093 7.2 340 07:24 20.01.2020
517 Clouds -3 1017 46 16093 6.7 350 06:48 20.01.2020
518 Clouds -3 1017 50 16093 4.1 340 06:27 20.01.2020
519 Clouds -2 1017 54 16093 6.2 320 05:42 20.01.2020
520 Clouds -2 1016 50 16093 10.27 312 05:22 20.01.2020
521 Clear -1 1015 47 0 10.27 312 04:42 20.01.2020
522 Clear 0 1014 64 16093 3.1 300 02:57 20.01.2020
523 Clear 0 1014 64 16093 3.1 300 02:57 20.01.2020
524 Clear 0 1014 47 16093 6.2 320 01:54 20.01.2020
525 Clouds 1 1014 47 16093 5.7 320 01:35 20.01.2020
526 Clouds 1 1013 50 16093 6.2 310 00:44 20.01.2020
527 Clouds 2 1012 47 16093 6.2 340 00:23 20.01.2020
528 Clouds 3 1012 44 16093 5.7 350 23:39 19.01.2020
529 Clouds 2 1011 51 16093 4.1 320 23:20 19.01.2020
530 Clouds 3 1011 48 16093 7.7 310 22:57 19.01.2020
531 Clouds 3 1010 48 16093 9.8 310 22:38 19.01.2020
532 Clouds 3 1010 48 16093 9.8 310 22:20 19.01.2020
533 Clouds 4 1009 59 16093 8.2 310 21:57 19.01.2020
534 Clouds 4 1008 48 16093 6.7 300 21:38 19.01.2020
535 Clouds 4 1008 48 16093 6.7 300 21:20 19.01.2020
536 Clouds 5 1008 48 16093 7.2 290 20:57 19.01.2020
537 Clouds 5 1008 48 16093 8.7 300 20:39 19.01.2020
538 Clouds 5 1008 48 16093 8.7 300 20:20 19.01.2020
539 Clouds 5 1008 60 16093 2.6 320 19:57 19.01.2020
540 Clouds 5 1008 52 16093 8.7 290 19:39 19.01.2020
541 Clear 5 1008 56 16093 7.2 310 19:39 19.01.2020
542 Clear 5 1008 56 16093 7.2 310 19:20 19.01.2020
543 Clouds 5 1008 64 16093 6.7 310 18:59 19.01.2020
544 Clouds 5 1008 60 16093 7.7 330 18:41 19.01.2020
545 Clouds 5 1008 60 16093 7.7 330 18:21 19.01.2020
546 Clouds 5 1008 74 16093 6.2 300 17:58 19.01.2020
547 Clouds 5 1008 74 16093 6.2 300 17:40 19.01.2020
548 Clear 5 1008 60 16093 8.2 310 17:21 19.01.2020
549 Clear 5 1007 60 16093 7.2 310 16:59 19.01.2020
550 Clear 5 1007 60 16093 7.2 310 16:40 19.01.2020
551 Clouds 5 1007 60 16093 8.7 300 16:21 19.01.2020
552 Clear 5 1007 65 16093 10.3 300 15:59 19.01.2020
553 Clear 4 1006 70 0 2.6 0 15:39 19.01.2020
554 Clear 4 1006 70 0 2.6 0 15:20 19.01.2020
555 Clear 3 1006 60 16093 9.8 310 14:59 19.01.2020
556 Clear 3 1006 60 16093 9.8 310 14:39 19.01.2020
557 Clear 3 1006 64 16093 8.7 330 14:18 19.01.2020
558 Clouds 2 1007 73 16093 3.6 290 13:58 19.01.2020
559 Clouds 2 1007 73 16093 3.6 290 13:38 19.01.2020
560 Clear 2 1007 73 16093 4.6 300 13:20 19.01.2020
561 Clouds 2 1006 72 16093 2.1 250 12:56 19.01.2020
562 Clear 2 1006 72 16093 2.6 290 12:37 19.01.2020
563 Clear 2 1006 72 16093 2.6 290 12:37 19.01.2020
564 Clear 2 1006 72 16093 2.6 290 12:19 19.01.2020
565 Clouds 2 1006 93 0 3.6 260 11:56 19.01.2020
566 Clouds 2 1005 93 16093 9.9 280 11:37 19.01.2020
567 Clouds 2 1005 93 16093 10.86 256 11:18 19.01.2020
568 Rain 2 1006 93 0 4.1 260 10:39 19.01.2020
569 Rain 2 1006 93 0 4.1 260 10:19 19.01.2020
570 Rain 2 1005 100 16093 1.5 210 09:56 19.01.2020
571 Rain 2 1005 100 16093 1.5 210 09:56 19.01.2020
572 Rain 2 1006 93 11265 2.6 270 09:37 19.01.2020
573 Rain 2 1006 93 11265 2.6 270 09:19 19.01.2020
574 Drizzle 3 1006 93 8047 10.86 256 08:54 19.01.2020
575 Rain 2 1006 93 8047 10.86 256 08:30 19.01.2020
576 Rain 2 1007 93 0 5.7 260 07:49 19.01.2020
577 Rain 2 1007 93 0 5.7 260 07:28 19.01.2020
578 Rain 2 1007 93 0 5.1 260 06:55 19.01.2020
579 Rain 2 1007 93 16093 5.7 230 06:21 19.01.2020
580 Rain 2 1011 100 8047 4.6 220 03:55 19.01.2020
581 Rain 1 1014 87 11265 4.6 190 02:33 19.01.2020
582 Rain -1 1017 97 0 3.6 220 01:39 19.01.2020
583 Rain -1 1017 97 0 3.6 220 01:20 19.01.2020
584 Rain -1 1017 86 4828 4.6 180 00:44 19.01.2020
585 Rain -2 1018 92 2414 1.5 0 00:20 19.01.2020
586 Rain -2 1019 86 1207 1.5 170 23:47 18.01.2020
587 Rain -3 1021 86 1207 2.1 160 23:25 18.01.2020
588 Rain -3 1021 92 1207 3.1 170 22:59 18.01.2020
589 Rain -4 1022 86 0 1.5 0 22:41 18.01.2020
590 Rain -4 1023 86 0 2.6 170 22:21 18.01.2020
591 Rain -4 1024 74 1207 2.6 0 21:58 18.01.2020
592 Rain -4 1025 85 16093 8.48 185 21:39 18.01.2020
593 Rain -4 1025 85 16093 8.48 185 21:20 18.01.2020
594 Rain -4 1026 92 0 8.48 185 20:57 18.01.2020
595 Rain -4 1026 85 11265 8.48 185 20:39 18.01.2020
596 Rain -4 1026 92 0 8.48 185 20:39 18.01.2020
597 Rain -4 1026 85 11265 7.08 207 20:19 18.01.2020
598 Rain -4 1029 79 0 2.1 250 19:43 18.01.2020
599 Rain -4 1029 79 0 2.1 250 19:24 18.01.2020
600 Rain -3 1029 58 1207 5.1 190 18:54 18.01.2020
601 Clouds -3 1031 42 16093 3.6 260 18:36 18.01.2020
602 Clouds -3 1031 42 16093 3.6 260 18:18 18.01.2020
603 Clouds -3 1033 42 16093 7.08 207 17:41 18.01.2020
604 Clouds -4 1033 42 16093 4.55 199 17:21 18.01.2020
605 Clouds -4 1034 45 16093 4.55 199 16:57 18.01.2020
606 Clouds -5 1034 41 16093 4.55 199 16:38 18.01.2020
607 Clouds -5 1034 41 16093 4.55 199 16:19 18.01.2020
608 Clouds -5 1034 41 16093 4.55 199 16:19 18.01.2020
609 Clouds -6 1034 53 16093 2.1 230 15:47 18.01.2020
610 Clouds -6 1034 41 16093 4.55 199 15:26 18.01.2020
611 Clouds -6 1034 41 16093 4.55 199 15:26 18.01.2020
612 Clouds -6 1035 44 16093 4.55 199 15:00 18.01.2020
613 Clouds -7 1035 44 16093 4.55 199 14:41 18.01.2020
614 Clouds -7 1035 41 16093 0.98 316 14:19 18.01.2020
615 Clouds -7 1035 41 16093 0.98 316 14:19 18.01.2020
616 Clouds -7 1037 41 16093 0.98 316 13:57 18.01.2020
617 Clouds -7 1037 41 16093 0.98 316 13:36 18.01.2020
618 Clouds -7 1037 41 16093 1.53 277 13:18 18.01.2020
619 Clear -7 1038 41 16093 1.53 277 12:43 18.01.2020
620 Clear -7 1038 41 16093 1.53 277 12:22 18.01.2020
621 Clear -7 1037 44 16093 1.53 277 11:58 18.01.2020
622 Clear -7 1037 44 16093 1.53 277 11:40 18.01.2020
623 Clear -7 1038 44 16093 1.6 342 11:20 18.01.2020
624 Clear -7 1038 41 16093 1.6 342 10:43 18.01.2020
625 Clear -7 1038 41 16093 1.6 342 10:21 18.01.2020
626 Clear -7 1038 41 16093 1.6 342 09:56 18.01.2020
627 Clear -7 1038 41 16093 1.6 342 09:38 18.01.2020
628 Clear -7 1038 41 16093 1.6 342 09:19 18.01.2020
629 Clear -7 1038 41 16093 1.6 342 08:42 18.01.2020
630 Clear -7 1039 37 16093 4.56 326 08:20 18.01.2020
631 Clear -7 1039 37 16093 4.56 326 07:59 18.01.2020
632 Clear -7 1039 37 16093 4.56 326 07:39 18.01.2020
633 Clear -7 1040 37 16093 4.56 326 06:52 18.01.2020
634 Clear -7 1039 34 16093 4.1 290 06:33 18.01.2020
635 Clear -7 1039 48 16093 1.5 340 05:52 18.01.2020
636 Clear -6 1040 35 16093 6.75 340 04:25 18.01.2020
637 Clear -5 1039 32 16093 6.75 340 02:38 18.01.2020
638 Clear -5 1040 27 16093 2.6 340 01:40 18.01.2020
639 Clear -4 1039 27 16093 8.06 333 00:39 18.01.2020
640 Clear -4 1039 27 16093 8.06 333 00:20 18.01.2020
641 Clouds -4 1039 41 16093 3.1 340 23:58 17.01.2020
642 Clear -3 1039 25 16093 8.06 333 23:39 17.01.2020
643 Clear -3 1039 25 16093 5.7 320 23:18 17.01.2020
644 Clouds -3 1039 35 16093 8.42 333 22:42 17.01.2020
645 Clear -2 1038 26 16093 5.7 320 22:20 17.01.2020
646 Clouds -2 1035 36 16093 3.1 320 21:57 17.01.2020
647 Clear -2 1038 23 16093 5.7 330 21:38 17.01.2020
648 Clear -2 1038 23 16093 5.7 330 21:20 17.01.2020
649 Clear -2 1038 30 16093 4.6 350 20:55 17.01.2020
650 Clear -2 1038 26 16093 6.2 320 20:36 17.01.2020
651 Clear -2 1038 26 16093 6.2 320 20:18 17.01.2020
652 Clear -2 1038 36 16093 5.7 340 19:54 17.01.2020
653 Clear -2 1038 26 16093 7.2 340 19:36 17.01.2020
654 Clear -2 1038 26 16093 7.2 340 19:18 17.01.2020
655 Clear -3 1038 30 16093 7.2 340 18:44 17.01.2020
656 Clear -3 1038 30 16093 7.2 340 18:26 17.01.2020
657 Clear -3 1038 30 16093 6.7 340 17:56 17.01.2020
658 Clear -4 1038 30 16093 8.7 360 17:38 17.01.2020
659 Clear -4 1038 30 16093 8.7 360 17:19 17.01.2020
660 Clear -4 1038 32 16093 7.7 350 16:41 17.01.2020
661 Clear -5 1038 35 16093 3.6 340 16:20 17.01.2020
662 Clouds -5 1038 53 16093 6.7 350 15:48 17.01.2020
663 Clear -5 1037 41 16093 7.7 340 15:27 17.01.2020
664 Clear -6 1036 45 16093 5.1 340 14:56 17.01.2020
665 Clear -6 1036 45 16093 7.7 340 14:38 17.01.2020
666 Clear -6 1036 45 16093 7.7 340 14:20 17.01.2020
667 Clear -6 1035 45 16093 9.8 330 13:39 17.01.2020
668 Clear -6 1034 41 16093 5.7 300 13:21 17.01.2020
669 Clear -6 1034 41 16093 5.7 300 13:21 17.01.2020
670 Clear -5 1034 41 16093 7.2 340 12:45 17.01.2020
671 Clear -5 1032 53 0 2.6 0 12:23 17.01.2020
672 Clear -5 1032 53 0 2.6 0 12:23 17.01.2020
673 Clear -4 1031 45 16093 6.7 330 11:41 17.01.2020
674 Clear -4 1031 45 16093 6.7 330 11:20 17.01.2020
675 Clear -3 1030 46 16093 8.2 340 10:56 17.01.2020
676 Clouds -3 1029 50 16093 7.2 340 10:37 17.01.2020
677 Clouds -3 1029 50 16093 7.2 340 10:19 17.01.2020
678 Clouds -2 1028 46 16093 3.6 340 09:43 17.01.2020
679 Clouds -2 1028 42 16093 5.7 330 09:21 17.01.2020
680 Clouds -2 1027 50 16093 6.7 310 08:56 17.01.2020
681 Snow -1 1026 54 14484 8.7 300 08:38 17.01.2020
682 Snow -1 1026 54 14484 8.7 300 08:19 17.01.2020
683 Clear -1 1026 57 16093 9.3 330 07:43 17.01.2020
684 Clear 0 1025 57 16093 7.2 330 07:25 17.01.2020
685 Clear 0 1024 57 16093 11.8 330 06:51 17.01.2020
686 Clear 0 1024 43 16093 7.7 330 06:30 17.01.2020
687 Rain 1 1022 47 0 1.5 0 04:32 17.01.2020
688 Clouds 2 1020 47 16093 12.3 310 03:19 17.01.2020
689 Clear 2 1020 55 16093 4.6 330 02:39 17.01.2020
690 Clear 2 1019 55 16093 5.7 300 01:44 17.01.2020
691 Clear 3 1019 55 16093 5.7 300 01:25 17.01.2020
692 Clear 3 1017 44 16093 6.7 300 00:40 17.01.2020
693 Clear 3 1017 44 16093 6.7 300 00:19 17.01.2020
694 Clouds 4 1018 48 16093 8.2 330 23:41 16.01.2020
695 Clouds 4 1018 48 16093 8.2 330 23:22 16.01.2020
696 Clouds 4 1017 55 16093 6.7 310 22:42 16.01.2020
697 Rain 5 1016 60 16093 7.2 310 22:22 16.01.2020
698 Rain 5 1016 60 16093 7.2 310 22:22 16.01.2020
699 Rain 5 1016 54 16093 7.7 320 21:57 16.01.2020
700 Rain 5 1016 54 16093 7.7 320 21:38 16.01.2020
701 Rain 5 1016 54 16093 7.7 320 21:19 16.01.2020
702 Rain 5 1014 54 16093 11.8 300 20:58 16.01.2020
703 Rain 6 1014 54 16093 11.8 300 20:39 16.01.2020
704 Rain 6 1013 39 16093 11.3 310 20:20 16.01.2020
705 Rain 7 1013 42 16093 9.3 320 19:56 16.01.2020
706 Rain 7 1013 42 16093 9.3 320 19:38 16.01.2020
707 Rain 7 1013 42 16093 9.3 320 19:38 16.01.2020
708 Rain 8 1013 49 16093 10.8 310 19:20 16.01.2020
709 Rain 8 1014 52 16093 11.3 320 18:55 16.01.2020
710 Clouds 8 1013 42 16093 9.8 320 18:37 16.01.2020
711 Clouds 8 1013 42 16093 9.8 320 18:18 16.01.2020
712 Clouds 9 1014 49 16093 9.3 330 17:55 16.01.2020
713 Clouds 9 1014 49 16093 7.7 300 17:37 16.01.2020
714 Clouds 9 1014 49 16093 7.7 300 17:18 16.01.2020
715 Rain 9 1014 61 16093 6.7 310 16:40 16.01.2020
716 Rain 8 1014 65 16093 5.1 320 16:21 16.01.2020
717 Rain 8 1013 70 0 3.1 0 15:55 16.01.2020
718 Rain 8 1011 75 16093 9.3 310 15:37 16.01.2020
719 Rain 8 1012 71 16093 8.2 280 15:18 16.01.2020
720 Rain 8 1011 93 0 6.7 270 14:41 16.01.2020
721 Rain 8 1011 93 8047 5.1 280 14:23 16.01.2020
722 Rain 7 1011 93 11265 5.7 270 13:47 16.01.2020
723 Mist 7 1011 93 8047 6.2 290 13:28 16.01.2020
724 Clouds 7 1011 93 0 6.7 270 12:57 16.01.2020
725 Clouds 7 1011 93 0 4.6 270 12:39 16.01.2020
726 Clouds 7 1011 93 0 4.6 270 12:20 16.01.2020
727 Rain 7 1011 93 0 3.1 250 11:42 16.01.2020
728 Rain 7 1011 93 0 3.1 250 11:42 16.01.2020
729 Rain 6 1012 87 8047 3.06 221 11:24 16.01.2020
730 Rain 6 1011 87 9656 2.1 200 10:56 16.01.2020
731 Rain 6 1011 87 11265 3.06 221 10:37 16.01.2020
732 Rain 6 1011 87 11265 3.06 221 10:19 16.01.2020
733 Rain 6 1012 87 3219 3.06 221 09:43 16.01.2020
734 Rain 6 1013 87 8047 3.06 221 09:24 16.01.2020
735 Rain 6 1014 87 6437 3.1 170 08:59 16.01.2020
736 Rain 6 1013 87 8047 4.1 140 08:41 16.01.2020
737 Rain 6 1013 87 8047 4.1 140 08:20 16.01.2020
738 Rain 6 1015 93 9656 4.6 190 07:43 16.01.2020
739 Drizzle 6 1015 81 16093 5.05 187 07:24 16.01.2020
740 Rain 5 1016 93 8047 4.1 170 06:55 16.01.2020
741 Rain 5 1017 70 16093 2.1 190 06:35 16.01.2020
742 Mist 5 1017 87 8047 3.6 170 05:56 16.01.2020
743 Clouds 4 1018 81 16093 4.96 163 05:25 16.01.2020
744 Clouds 3 1019 75 16093 4.96 163 04:23 16.01.2020
745 Clear 3 1019 81 16093 4.96 163 03:27 16.01.2020
746 Clear 3 1020 81 16093 4.96 163 02:23 16.01.2020
747 Clear 5 1021 68 16093 1.85 268 00:44 16.01.2020
748 Clear 5 1021 68 16093 1.85 268 00:23 16.01.2020
749 Clear 6 1020 68 16093 1.85 268 23:46 15.01.2020
750 Clear 6 1020 68 16093 1.85 268 23:46 15.01.2020
751 Clear 7 1020 65 16093 2.44 299 23:22 15.01.2020
752 Clouds 8 1020 61 16093 2.44 299 22:57 15.01.2020
753 Clear 9 1020 65 16093 2.44 299 22:39 15.01.2020
754 Clear 9 1020 65 16093 2.44 299 22:19 15.01.2020
755 Clear 10 1021 65 16093 1.5 280 21:57 15.01.2020
756 Clouds 10 1021 40 16093 4.6 290 21:37 15.01.2020
757 Clouds 10 1021 40 16093 4.6 290 21:19 15.01.2020
758 Clear 10 1021 43 16093 2.6 280 20:56 15.01.2020
759 Clear 10 1021 43 16093 2.6 280 20:38 15.01.2020
760 Clear 10 1021 43 16093 3.6 300 20:20 15.01.2020
761 Clear 10 1021 53 16093 3.6 280 19:55 15.01.2020
762 Clear 10 1021 65 16093 3.1 340 19:37 15.01.2020
763 Clear 10 1021 65 16093 3.1 340 19:18 15.01.2020
764 Clear 10 1022 65 16093 4.1 310 18:56 15.01.2020
765 Clear 10 1022 65 16093 4.6 320 18:38 15.01.2020
766 Clear 9 1022 65 16093 4.6 320 18:19 15.01.2020
767 Clear 9 1022 65 16093 4.6 320 18:19 15.01.2020
768 Clear 9 1022 57 16093 3.1 320 17:56 15.01.2020
769 Clear 9 1023 57 16093 5.1 320 17:37 15.01.2020
770 Clear 9 1023 57 16093 5.1 320 17:18 15.01.2020
771 Clear 8 1023 65 16093 4.1 340 16:40 15.01.2020
772 Clear 8 1023 65 16093 4.1 340 16:22 15.01.2020
773 Clouds 7 1023 81 16093 2.1 310 15:57 15.01.2020
774 Clear 7 1023 87 16093 5.17 315 15:39 15.01.2020
775 Clear 6 1023 87 16093 5.17 315 15:19 15.01.2020
776 Clear 5 1023 93 11265 5.17 315 14:43 15.01.2020
777 Clear 5 1023 93 11265 6.87 297 14:20 15.01.2020
778 Clear 5 1022 93 11265 6.87 297 13:46 15.01.2020
779 Clear 5 1022 87 11265 6.38 307 13:27 15.01.2020
780 Mist 5 1022 93 2816 6.38 307 12:59 15.01.2020
781 Mist 5 1022 93 2816 6.38 307 12:40 15.01.2020
782 Clouds 5 1021 93 11265 6.38 307 12:20 15.01.2020
783 Mist 5 1021 100 4828 6.38 307 11:58 15.01.2020
784 Clouds 5 1020 93 16093 6.38 307 11:38 15.01.2020
785 Clouds 5 1020 93 16093 6.75 290 11:19 15.01.2020
786 Clouds 5 1020 93 0 2.6 260 10:46 15.01.2020
787 Clouds 5 1020 93 0 2.6 260 10:28 15.01.2020
788 Clouds 5 1020 93 14484 2.6 270 09:55 15.01.2020
789 Clouds 5 1021 93 0 3.6 250 09:37 15.01.2020
790 Clouds 5 1021 93 0 3.6 250 09:19 15.01.2020
791 Mist 5 1021 93 6437 1.5 0 08:41 15.01.2020
792 Clouds 5 1020 100 16093 4.77 266 08:23 15.01.2020
793 Mist 5 1020 93 6437 2.1 270 07:54 15.01.2020
794 Mist 5 1020 87 3219 1.5 300 07:32 15.01.2020
795 Mist 5 1020 87 1207 1.5 310 06:48 15.01.2020
796 Clouds 5 1020 93 0 1.5 0 06:26 15.01.2020
797 Rain 5 1021 93 4023 2.98 200 04:46 15.01.2020
798 Mist 5 1021 93 8047 2.98 200 02:48 15.01.2020
799 Rain 5 1021 93 8047 3.25 136 01:48 15.01.2020
800 Drizzle 5 1021 93 4828 3.6 50 01:20 15.01.2020
801 Rain 5 1021 87 11265 3.1 100 00:37 15.01.2020
802 Drizzle 5 1022 93 6437 3.72 118 00:19 15.01.2020
803 Rain 5 1022 93 8047 3.72 118 23:46 14.01.2020
804 Drizzle 5 1021 93 6437 6.97 105 23:24 14.01.2020
805 Rain 5 1022 86 4828 2.6 60 22:56 14.01.2020
806 Rain 6 1022 81 11265 6.97 105 22:38 14.01.2020
807 Rain 6 1022 81 11265 6.97 105 22:18 14.01.2020
808 Drizzle 6 1022 75 16093 6.97 105 21:56 14.01.2020
809 Clouds 6 1022 70 16093 6.97 105 21:37 14.01.2020
810 Clouds 6 1022 70 16093 6.97 105 21:19 14.01.2020
811 Clouds 7 1022 70 16093 6.97 105 20:42 14.01.2020
812 Clouds 6 1023 65 16093 2.6 100 20:22 14.01.2020
813 Clouds 6 1023 65 16093 2.6 100 19:57 14.01.2020
814 Clouds 6 1024 88 16093 6 110 19:39 14.01.2020
815 Clouds 6 1024 70 0 2.6 50 19:20 14.01.2020
816 Mist 6 1025 100 6437 1.5 350 18:59 14.01.2020
817 Mist 6 1025 100 6437 1.5 350 18:40 14.01.2020
818 Clear 6 1025 88 16093 4.6 90 18:20 14.01.2020
819 Clear 6 1026 70 16093 4.6 140 17:55 14.01.2020
820 Clouds 5 1027 75 16093 4.1 130 17:36 14.01.2020
821 Clouds 5 1027 75 16093 4.1 130 17:18 14.01.2020
822 Clouds 4 1028 86 11265 5.97 98 16:42 14.01.2020
823 Clouds 4 1028 86 11265 5.97 98 16:22 14.01.2020
824 Mist 4 1028 93 8047 5.97 98 15:56 14.01.2020
825 Mist 4 1028 93 8047 5.97 98 15:38 14.01.2020
826 Mist 3 1028 93 8047 5.97 98 15:18 14.01.2020
827 Mist 3 1028 93 4023 5.97 98 14:43 14.01.2020
828 Mist 3 1028 86 8047 3.64 61 14:20 14.01.2020
829 Mist 3 1028 93 3219 3.6 20 13:54 14.01.2020
830 Mist 3 1028 93 8047 4.1 20 13:36 14.01.2020
831 Mist 3 1028 93 8047 4.1 20 13:18 14.01.2020
832 Clouds 2 1028 86 16093 3.9 43 12:40 14.01.2020
833 Clouds 2 1028 93 16093 3.9 43 12:20 14.01.2020
834 Clouds 2 1028 93 16093 3.9 43 12:20 14.01.2020
835 Clouds 2 1028 93 16093 3.9 43 12:20 14.01.2020
836 Fog 2 1028 100 805 1.5 10 11:43 14.01.2020
837 Clouds 2 1028 86 12874 4.1 20 11:23 14.01.2020
838 Clouds 2 1028 86 12874 3.1 70 10:59 14.01.2020
839 Clouds 2 1028 87 0 4.1 50 10:40 14.01.2020
840 Clear 2 1029 93 16093 3.81 8 10:20 14.01.2020
841 Clouds 2 1029 86 11265 3.81 8 09:58 14.01.2020
842 Clear 2 1029 86 16093 3.81 8 09:40 14.01.2020
843 Clear 2 1029 86 16093 3.81 8 09:20 14.01.2020
844 Clear 2 1029 86 16093 3.81 8 08:48 14.01.2020
845 Clear 2 1029 86 16093 3.7 310 08:25 14.01.2020
846 Clouds 2 1029 87 0 3.7 310 07:53 14.01.2020
847 Clear 3 1029 77 16093 3.7 310 07:33 14.01.2020
848 Clear 3 1029 86 16093 3.7 310 06:56 14.01.2020
849 Clear 3 1029 80 16093 3.7 310 06:33 14.01.2020
850 Clear 3 1029 80 16093 3.2 307 05:27 14.01.2020
851 Clouds 4 1029 75 12874 3.2 307 03:52 14.01.2020
852 Clouds 5 1029 87 0 1.5 220 02:50 14.01.2020
853 Clouds 5 1028 75 12874 3.38 333 01:56 14.01.2020
854 Clear 6 1028 70 16093 3.25 322 00:52 14.01.2020
855 Clouds 6 1028 75 16093 3.25 322 00:33 14.01.2020
856 Clouds 6 1027 70 16093 3.25 322 23:55 13.01.2020
857 Mist 6 1027 87 1609 3.6 40 23:37 13.01.2020
858 Mist 6 1027 87 1609 3.6 40 23:18 13.01.2020
859 Mist 6 1027 87 1609 3.6 40 23:18 13.01.2020
860 Mist 7 1027 87 1609 4.1 40 22:43 13.01.2020
861 Clouds 7 1027 70 16093 1.72 35 22:22 13.01.2020
862 Clouds 7 1027 75 16093 1.72 35 21:58 13.01.2020
863 Clouds 7 1027 70 16093 1.72 35 21:38 13.01.2020
864 Clouds 7 1027 70 16093 1.72 35 21:19 13.01.2020
865 Clouds 7 1028 70 16093 1.72 35 20:59 13.01.2020
866 Clouds 7 1028 70 16093 1.72 35 20:59 13.01.2020
867 Clouds 7 1028 70 16093 1.72 35 20:41 13.01.2020
868 Clouds 7 1028 70 16093 2.89 88 20:22 13.01.2020
869 Clouds 7 1028 75 16093 1.5 10 19:59 13.01.2020
870 Clouds 7 1028 70 16093 2.89 88 19:40 13.01.2020
871 Rain 7 1027 81 6437 3.6 40 19:20 13.01.2020
872 Clouds 7 1028 75 16093 1.5 360 18:57 13.01.2020
873 Clouds 7 1029 70 16093 2.89 88 18:37 13.01.2020
874 Clouds 6 1029 70 16093 2.89 88 18:19 13.01.2020
875 Clouds 6 1030 93 16093 2.89 88 17:54 13.01.2020
876 Clouds 6 1030 93 16093 2.89 88 17:36 13.01.2020
877 Clouds 6 1030 90 16093 3.97 83 17:18 13.01.2020
878 Clouds 5 1030 75 16093 5.7 120 16:39 13.01.2020
879 Clouds 5 1030 75 16093 5.7 120 16:39 13.01.2020
880 Clouds 5 1030 69 16093 2.1 340 16:21 13.01.2020
881 Clouds 4 1029 70 16093 3.6 50 15:54 13.01.2020
882 Clouds 4 1029 70 16093 3.6 50 15:36 13.01.2020
883 Clouds 4 1029 70 16093 3.6 50 15:18 13.01.2020
884 Clouds 3 1031 76 0 1.79 55 14:40 13.01.2020
885 Clouds 2 1031 75 0 0.89 80 14:22 13.01.2020
886 Clouds 2 1032 74 0 0.45 70 13:56 13.01.2020
887 Clouds 2 1032 72 0 1.34 43 13:38 13.01.2020
888 Clouds 2 1032 71 0 1.34 134 13:20 13.01.2020
889 Clear 2 1031 64 16093 3.6 100 12:43 13.01.2020
890 Clear 2 1031 64 16093 3.6 100 12:23 13.01.2020
891 Clear 2 1031 64 16093 3.6 100 11:59 13.01.2020
892 Clear 2 1031 64 16093 3.6 90 11:39 13.01.2020
893 Clear 2 1031 64 16093 3.6 90 11:19 13.01.2020
894 Clear 2 1030 64 16093 5.91 57 10:57 13.01.2020
895 Clear 2 1031 69 0 5.7 60 10:38 13.01.2020
896 Clear 2 1031 69 0 5.7 60 10:20 13.01.2020
897 Clear 2 1031 69 0 5.7 60 10:20 13.01.2020
898 Clear 3 1030 64 16093 3.1 80 09:56 13.01.2020
899 Clear 3 1030 64 16093 3.6 50 09:38 13.01.2020
900 Clear 3 1030 69 16093 4.1 40 09:19 13.01.2020
901 Clear 3 1030 60 16093 4.1 60 08:39 13.01.2020
902 Clear 3 1030 60 16093 3.6 50 08:20 13.01.2020
903 Clear 4 1030 56 16093 3.6 50 07:46 13.01.2020
904 Clear 4 1030 60 16093 3.1 60 07:27 13.01.2020
905 Clear 5 1030 56 16093 3.6 60 06:42 13.01.2020
906 Clear 5 1030 52 16093 4.96 359 06:20 13.01.2020
907 Clear 6 1030 66 16093 2.1 10 05:22 13.01.2020
908 Clear 8 1028 66 16093 5.92 352 03:54 13.01.2020
909 Clear 8 1028 50 0 2.1 250 03:22 13.01.2020
910 Clear 11 1027 50 16093 5.92 352 02:44 13.01.2020
911 Clear 10 1026 53 16093 5.92 352 02:24 13.01.2020
912 Clear 12 1025 50 16093 3.6 320 01:20 13.01.2020
913 Clear 13 1024 50 16093 3.6 320 00:41 13.01.2020
914 Clear 13 1024 50 16093 5.7 320 00:22 13.01.2020
915 Clear 15 1023 47 16093 7.2 320 23:42 12.01.2020
916 Clear 15 1023 44 16093 5.7 310 23:24 12.01.2020
917 Clear 15 1022 41 16093 9.8 300 22:58 12.01.2020
918 Clear 16 1022 41 16093 9.8 300 22:39 12.01.2020
919 Clear 16 1022 39 16093 9.8 310 22:21 12.01.2020
920 Clear 16 1021 34 16093 9.8 310 21:56 12.01.2020
921 Clear 17 1020 34 16093 10.8 310 21:38 12.01.2020
922 Clear 17 1020 34 16093 10.8 310 21:38 12.01.2020
923 Clear 18 1020 34 16093 10.8 310 21:19 12.01.2020
924 Clouds 19 1020 45 16093 7.7 280 20:56 12.01.2020
925 Clouds 18 1020 45 16093 7.7 280 20:56 12.01.2020
926 Clear 19 1019 37 16093 8.2 300 20:38 12.01.2020
927 Clear 19 1019 37 16093 8.2 300 20:20 12.01.2020
928 Clear 19 1018 37 16093 10.3 290 19:56 12.01.2020
929 Clear 19 1018 37 16093 10.3 290 19:37 12.01.2020
930 Clear 19 1018 37 16093 10.3 290 19:18 12.01.2020
931 Clear 19 1017 42 16093 10.3 290 18:57 12.01.2020
932 Clear 19 1017 42 16093 10.3 290 18:39 12.01.2020
933 Clear 19 1017 42 16093 10.3 290 18:21 12.01.2020
934 Clear 19 1017 39 16093 11.8 280 17:54 12.01.2020
935 Clear 18 1017 42 16093 9.8 290 17:36 12.01.2020
936 Clear 18 1017 42 16093 9.8 290 17:18 12.01.2020
937 Rain 18 1016 45 16093 7.2 280 16:54 12.01.2020
938 Rain 18 1016 48 16093 9.3 280 16:36 12.01.2020
939 Clear 18 1016 48 16093 9.3 280 16:18 12.01.2020
940 Clear 18 1015 52 16093 7.7 280 15:40 12.01.2020
941 Clear 17 1015 52 16093 7.7 280 15:21 12.01.2020
942 Rain 17 1013 68 16093 10.3 280 14:55 12.01.2020
943 Rain 17 1012 77 16093 4.1 270 14:36 12.01.2020
944 Rain 17 1012 77 16093 4.1 270 14:18 12.01.2020
945 Rain 17 1011 87 0 7.7 280 13:42 12.01.2020
946 Rain 17 1011 87 0 7.7 280 13:23 12.01.2020
947 Rain 17 1011 88 16093 3.6 240 12:58 12.01.2020
948 Rain 17 1010 82 16093 5.1 240 12:38 12.01.2020
949 Rain 17 1009 82 16093 5.1 230 12:19 12.01.2020
950 Rain 17 1010 82 16093 4.6 240 11:55 12.01.2020
951 Rain 17 1010 82 16093 3.6 230 11:36 12.01.2020
952 Rain 17 1010 82 16093 3.6 230 11:18 12.01.2020
953 Rain 16 1011 88 0 6.2 270 10:41 12.01.2020
954 Rain 16 1009 82 8047 5.1 210 10:21 12.01.2020
955 Rain 16 1011 82 16093 5.1 220 09:55 12.01.2020
956 Rain 16 1011 82 16093 5.1 220 09:37 12.01.2020
957 Rain 16 1011 77 11265 5.1 200 09:18 12.01.2020
958 Rain 16 1013 93 12874 3.6 140 08:42 12.01.2020
959 Rain 16 1013 88 16093 4.6 200 08:19 12.01.2020
960 Clouds 16 1014 82 16093 5.1 190 07:39 12.01.2020
961 Clouds 16 1014 82 16093 5.1 190 07:21 12.01.2020
962 Clouds 16 1015 87 14484 5.1 180 06:43 12.01.2020
963 Clouds 16 1015 77 16093 3.1 230 06:19 12.01.2020
964 Clouds 16 1016 77 16093 3.1 230 05:23 12.01.2020
965 Clouds 16 1017 81 16093 4.6 190 03:47 12.01.2020
966 Clouds 16 1017 72 0 3.1 290 03:22 12.01.2020
967 Clouds 15 1018 72 16093 3.1 200 02:33 12.01.2020
968 Clouds 15 1018 67 16093 8.73 182 01:42 12.01.2020
969 Clouds 15 1018 67 16093 8.73 182 01:22 12.01.2020
970 Clouds 15 1018 63 16093 2.6 180 00:40 12.01.2020
971 Clouds 15 1018 63 16093 2.6 180 00:40 12.01.2020
972 Clouds 15 1018 63 16093 2.6 180 00:20 12.01.2020
973 Clouds 15 1018 63 16093 3.1 190 23:42 11.01.2020
974 Clouds 16 1018 56 16093 3.6 200 23:19 11.01.2020
975 Clouds 16 1018 68 16093 5.7 220 22:58 11.01.2020
976 Clouds 17 1019 56 16093 2.6 230 22:39 11.01.2020
977 Clouds 17 1019 56 16093 2.6 230 22:20 11.01.2020
978 Clouds 17 1019 56 16093 3.1 210 21:58 11.01.2020
979 Clouds 17 1019 56 16093 3.1 210 21:39 11.01.2020
980 Clouds 17 1019 52 16093 1.5 210 21:18 11.01.2020
981 Clouds 18 1020 56 16093 2.6 230 20:40 11.01.2020
982 Clouds 18 1020 56 16093 4.1 240 20:22 11.01.2020
983 Clouds 18 1021 52 16093 3.1 250 19:58 11.01.2020
984 Clear 18 1021 49 16093 3.1 250 19:39 11.01.2020
985 Clear 18 1021 49 16093 3.1 250 19:21 11.01.2020
986 Clouds 18 1021 63 16093 10.3 230 18:58 11.01.2020
987 Clouds 18 1022 59 16093 3.1 240 18:39 11.01.2020
988 Clouds 18 1022 59 16093 3.1 240 18:20 11.01.2020
989 Clouds 17 1024 63 16093 5.1 240 17:57 11.01.2020
990 Clouds 18 1024 63 16093 5.1 240 17:57 11.01.2020
991 Clouds 17 1024 63 16093 3.1 220 17:39 11.01.2020
992 Clouds 16 1024 63 16093 3.1 220 17:19 11.01.2020
993 Clouds 15 1025 63 16093 5.7 230 16:45 11.01.2020
994 Clouds 15 1025 63 16093 3.6 240 16:27 11.01.2020
995 Clouds 15 1025 77 16093 8.7 230 15:59 11.01.2020
996 Clouds 14 1025 77 16093 8.7 230 15:41 11.01.2020
997 Clear 14 1025 72 16093 4.1 210 15:22 11.01.2020
998 Clouds 13 1026 76 16093 2.1 200 14:57 11.01.2020
999 Clouds 12 1026 76 16093 2.1 200 14:38 11.01.2020
1000 Clouds 11 1026 76 16093 2.1 220 14:20 11.01.2020
1001 Clouds 11 1026 76 16093 2.1 210 13:41 11.01.2020
1002 Clouds 11 1026 76 16093 2.6 190 13:20 11.01.2020
1003 Clouds 11 1027 81 16093 7.53 202 12:59 11.01.2020
1004 Clouds 11 1027 81 16093 7.53 202 12:41 11.01.2020
1005 Clouds 10 1027 81 16093 7.53 202 12:23 11.01.2020
1006 Clouds 10 1027 81 16093 7.53 202 11:48 11.01.2020
1007 Clouds 10 1027 81 16093 6.6 211 11:26 11.01.2020
1008 Clouds 10 1028 81 16093 6.6 211 10:55 11.01.2020
1009 Clouds 10 1028 81 16093 6.6 211 10:36 11.01.2020
1010 Clouds 10 1028 81 16093 6.6 211 10:36 11.01.2020
1011 Clouds 10 1028 81 16093 6.6 211 10:18 11.01.2020
1012 Clouds 9 1028 87 16093 6.6 211 09:39 11.01.2020
1013 Clouds 9 1028 81 16093 6.6 211 09:20 11.01.2020
1014 Clouds 9 1028 81 16093 6.6 211 09:20 11.01.2020
1015 Clouds 9 1029 81 16093 6.6 211 08:42 11.01.2020
1016 Clear 9 1029 87 16093 5.27 225 08:22 11.01.2020
1017 Clouds 9 1029 81 16093 5.25 218 07:44 11.01.2020
1018 Clouds 9 1029 81 16093 5.25 218 07:26 11.01.2020
1019 Clouds 9 1030 87 16093 5.25 218 06:52 11.01.2020
1020 Clouds 9 1030 87 16093 5.25 218 06:52 11.01.2020
1021 Clear 8 1030 81 16093 5.25 218 05:50 11.01.2020
1022 Clouds 9 1031 76 16093 4 223 04:47 11.01.2020
1023 Clouds 9 1031 76 16093 4 223 04:29 11.01.2020
1024 Clouds 9 1031 71 16093 4 223 03:28 11.01.2020
1025 Clouds 9 1031 66 16093 4 223 02:40 11.01.2020
1026 Clouds 9 1031 66 16093 3.1 270 01:44 11.01.2020
1027 Clouds 9 1031 66 16093 3.1 270 01:20 11.01.2020
1028 Clouds 8 1031 71 0 3.1 260 00:43 11.01.2020
1029 Clouds 9 1031 71 0 3.1 260 00:19 11.01.2020
1030 Clouds 9 1031 66 16093 1.5 270 23:41 10.01.2020
1031 Clouds 9 1031 66 16093 1.5 270 23:41 10.01.2020
1032 Clouds 10 1031 66 16093 6.18 231 23:22 10.01.2020
1033 Clouds 10 1031 66 16093 6.18 231 22:59 10.01.2020
1034 Clouds 10 1031 66 16093 6.18 231 22:40 10.01.2020
1035 Clouds 11 1031 62 16093 6.18 231 22:21 10.01.2020
1036 Clouds 11 1031 58 16093 4.1 270 21:57 10.01.2020
1037 Clouds 11 1031 58 16093 2.6 270 21:38 10.01.2020
1038 Clouds 11 1031 58 16093 2.6 270 21:19 10.01.2020
1039 Clear 10 1031 62 16093 2.6 250 20:55 10.01.2020
1040 Clear 10 1031 62 16093 2.6 250 20:37 10.01.2020
1041 Clouds 9 1031 62 16093 3.1 250 20:18 10.01.2020
1042 Clouds 9 1032 61 16093 2.6 290 19:39 10.01.2020
1043 Clouds 8 1032 61 16093 2.6 290 19:20 10.01.2020
1044 Clouds 7 1033 83 16093 5.68 238 18:54 10.01.2020
1045 Clouds 7 1034 83 16093 1.5 280 18:36 10.01.2020
1046 Clouds 7 1034 83 16093 1.5 280 18:18 10.01.2020
1047 Clouds 6 1034 83 16093 1.5 290 17:55 10.01.2020
1048 Clouds 6 1034 83 16093 3.1 230 17:37 10.01.2020
1049 Clouds 5 1034 82 16093 3.1 230 17:18 10.01.2020
1050 Clouds 5 1036 65 16093 3.1 0 16:41 10.01.2020
1051 Clouds 5 1036 65 16093 3.1 0 16:21 10.01.2020
1052 Clouds 5 1036 65 16093 3.1 0 16:21 10.01.2020
1053 Clouds 5 1036 86 16093 3.6 230 15:56 10.01.2020
1054 Clouds 4 1036 74 16093 1.5 280 15:37 10.01.2020
1055 Clouds 4 1036 74 16093 1.5 280 15:19 10.01.2020
1056 Clouds 4 1036 74 16093 1.5 280 15:19 10.01.2020
1057 Clouds 3 1036 70 16093 3.1 0 14:57 10.01.2020
1058 Clouds 3 1036 80 0 4.1 270 14:38 10.01.2020
1059 Clouds 2 1036 80 0 4.1 270 14:19 10.01.2020
1060 Clouds 2 1036 74 16093 5.7 210 13:54 10.01.2020
1061 Clouds 2 1037 74 16093 8.34 214 13:36 10.01.2020
1062 Clouds 1 1037 73 16093 8.75 216 13:18 10.01.2020
1063 Clouds 1 1036 73 16093 8.75 216 12:54 10.01.2020
1064 Clouds 0 1037 74 16093 8.75 216 12:36 10.01.2020
1065 Clouds 0 1037 74 16093 8.75 216 12:18 10.01.2020
1066 Clear 0 1037 73 16093 8.75 216 11:42 10.01.2020
1067 Clear 0 1037 73 16093 8.75 216 11:42 10.01.2020
1068 Clear 0 1037 73 16093 8.75 216 11:42 10.01.2020
1069 Clear 0 1037 73 16093 8.75 216 11:42 10.01.2020
1070 Clear 0 1037 73 16093 8.75 216 11:42 10.01.2020
1071 Clear -1 1037 66 16093 8.18 211 11:21 10.01.2020
1072 Clear -1 1038 66 16093 8.18 211 10:59 10.01.2020
1073 Clear -1 1038 66 16093 8.18 211 10:38 10.01.2020
1074 Clear -1 1038 66 16093 8.18 211 10:19 10.01.2020
1075 Clear -1 1038 66 16093 8.18 211 09:48 10.01.2020
1076 Clear -1 1038 66 16093 1.5 200 09:27 10.01.2020
1077 Clear -1 1039 66 16093 8.18 211 08:59 10.01.2020
1078 Clear -1 1039 66 16093 8.18 211 08:38 10.01.2020
1079 Clear -1 1039 60 16093 6.85 202 08:20 10.01.2020
1080 Clear -1 1039 60 16093 6.85 202 07:44 10.01.2020
1081 Clear -1 1039 58 16093 6.85 202 07:22 10.01.2020
1082 Clear -1 1039 63 16093 6.85 202 06:45 10.01.2020
1083 Clear -1 1040 60 16093 6.85 202 06:25 10.01.2020
1084 Clear -1 1040 60 16093 1.5 210 05:44 10.01.2020
1085 Clear -1 1041 47 0 3.6 190 03:35 10.01.2020
1086 Clouds -1 1041 58 16093 1.5 200 02:58 10.01.2020
1087 Clear -1 1041 55 16093 6.25 190 02:37 10.01.2020
1088 Clear -1 1041 45 16093 3.81 174 01:38 10.01.2020
1089 Clouds -1 1041 46 16093 3.81 174 00:58 10.01.2020
1090 Clear -1 1041 45 16093 3.81 174 00:38 10.01.2020
1091 Clouds -1 1041 45 16093 1.5 190 23:58 09.01.2020
1092 Clear -1 1041 45 16093 3.81 174 23:38 09.01.2020
1093 Clear -1 1041 36 16093 1.4 182 23:20 09.01.2020
1094 Clouds -1 1040 36 16093 1.5 160 22:57 09.01.2020
1095 Clear 0 1041 36 16093 1.4 182 22:37 09.01.2020
1096 Clear 0 1041 29 16093 1.4 182 22:19 09.01.2020
1097 Clear 0 1040 36 16093 1.4 182 21:57 09.01.2020
1098 Clear 0 1040 29 16093 1.4 182 21:37 09.01.2020
1099 Clear 0 1040 29 16093 1.4 182 21:37 09.01.2020
1100 Clear 0 1040 29 16093 1.4 182 21:37 09.01.2020
1101 Clear 0 1040 29 16093 1.4 182 21:37 09.01.2020
1102 Clear 0 1040 29 16093 1.4 182 21:37 09.01.2020
1103 Clear 0 1040 29 16093 1.4 182 21:19 09.01.2020
1104 Clear 0 1041 29 16093 1.4 182 20:57 09.01.2020
1105 Clear 0 1041 29 16093 1.4 182 20:39 09.01.2020
1106 Clouds 0 1040 26 16093 3.04 326 20:19 09.01.2020
1107 Clear 0 1041 31 0 1.5 0 20:19 09.01.2020
1108 Clouds 0 1040 39 16093 2.1 0 19:56 09.01.2020
1109 Clear 0 1041 39 16093 3.04 326 19:37 09.01.2020
1110 Clear 0 1041 39 16093 2.6 50 19:19 09.01.2020
1111 Clouds -1 1040 33 16093 2.6 350 18:55 09.01.2020
1112 Clear -1 1041 39 16093 3.04 326 18:36 09.01.2020
1113 Clear -1 1041 39 16093 3.04 326 18:18 09.01.2020
1114 Clear -2 1042 39 16093 4.6 330 17:41 09.01.2020
1115 Clear -2 1042 54 0 3.1 0 17:18 09.01.2020
1116 Clouds -3 1042 42 16093 5.7 330 16:49 09.01.2020
1117 Clear -3 1042 39 16093 3.6 350 16:24 09.01.2020
1118 Clear -4 1042 41 16093 2.1 0 15:59 09.01.2020
1119 Clear -4 1042 45 16093 4.1 330 15:40 09.01.2020
1120 Clear -4 1041 45 16093 1.5 0 15:19 09.01.2020
1121 Clear -5 1040 49 16093 3.1 350 14:43 09.01.2020
1122 Clear -5 1040 49 16093 3.1 350 14:22 09.01.2020
1123 Clear -6 1040 49 16093 7.2 320 13:57 09.01.2020
1124 Clear -6 1039 49 16093 3.1 320 13:39 09.01.2020
1125 Clear -6 1039 49 16093 3.1 320 13:21 09.01.2020
1126 Clear -6 1038 49 16093 7.7 320 12:59 09.01.2020
1127 Clear -5 1038 45 16093 3.1 330 12:40 09.01.2020
1128 Clear -5 1038 45 16093 3.1 330 12:22 09.01.2020
1129 Clear -5 1037 49 16093 9.3 300 11:57 09.01.2020
1130 Clear -5 1036 45 16093 5.1 330 11:38 09.01.2020
1131 Clear -5 1036 45 16093 5.1 330 11:20 09.01.2020
1132 Clear -5 1035 45 16093 2.6 310 10:44 09.01.2020
1133 Clear -5 1035 45 16093 2.6 310 10:22 09.01.2020
1134 Clouds -4 1034 45 16093 9.3 300 09:59 09.01.2020
1135 Clear -4 1034 41 16093 5.7 320 09:39 09.01.2020
1136 Clear -4 1034 41 16093 5.7 320 09:21 09.01.2020
1137 Clouds -4 1033 45 16093 9.3 320 08:55 09.01.2020
1138 Clear -4 1033 38 16093 6.7 310 08:37 09.01.2020
1139 Clear -4 1033 38 16093 6.7 310 08:19 09.01.2020
1140 Clouds -3 1032 42 16093 9.3 310 07:42 09.01.2020
1141 Clouds -3 1032 42 16093 9.3 310 07:23 09.01.2020
1142 Clear -3 1030 46 16093 6.2 320 06:39 09.01.2020
1143 Clear -3 1030 46 16093 6.2 320 06:20 09.01.2020
1144 Clouds -2 1029 42 16093 12.3 310 05:49 09.01.2020
1145 Clouds -2 1028 39 16093 6.2 330 04:44 09.01.2020
1146 Clouds -1 1027 53 16093 7.2 320 03:38 09.01.2020
1147 Clouds -1 1026 53 16093 9.3 310 02:54 09.01.2020
1148 Clear -1 1026 53 16093 6.2 310 02:28 09.01.2020
1149 Clear 0 1024 52 16093 6.7 310 01:39 09.01.2020
1150 Clouds 0 1022 50 16093 8.7 310 00:43 09.01.2020
1151 Clouds 1 1022 50 16093 8.7 310 00:21 09.01.2020
1152 Clouds 1 1020 37 16093 11.3 300 23:55 08.01.2020
1153 Clouds 1 1020 43 16093 6.7 300 23:37 08.01.2020
1154 Clear 1 1019 37 16093 5.1 290 23:18 08.01.2020
1155 Clouds 2 1019 47 16093 10.3 320 22:39 08.01.2020
1156 Clouds 2 1019 47 16093 10.3 320 22:21 08.01.2020
1157 Clouds 2 1018 55 16093 6.7 280 21:58 08.01.2020
1158 Clear 3 1016 30 16093 8.7 290 21:38 08.01.2020
1159 Clouds 3 1015 44 16093 5.1 300 21:20 08.01.2020
1160 Clouds 3 1015 44 16093 5.1 300 21:20 08.01.2020
1161 Clouds 4 1014 44 16093 11.3 320 20:58 08.01.2020
1162 Clouds 4 1014 30 16093 10.8 320 20:39 08.01.2020
1163 Clouds 4 1014 30 16093 10.8 320 20:20 08.01.2020
1164 Clouds 5 1013 33 16093 9.3 270 19:57 08.01.2020
1165 Clouds 5 1013 38 16093 8.2 290 19:37 08.01.2020
1166 Clouds 5 1013 41 16093 7.7 280 19:19 08.01.2020
1167 Clouds 5 1012 41 16093 7.2 270 18:56 08.01.2020
1168 Clouds 4 1013 48 16093 10.3 290 18:37 08.01.2020
1169 Clouds 4 1013 48 16093 10.3 290 18:18 08.01.2020
1170 Clouds 4 1012 55 16093 10.8 290 17:56 08.01.2020
1171 Clouds 4 1013 56 16093 7.2 280 17:37 08.01.2020
1172 Clouds 4 1013 56 16093 7.2 280 17:18 08.01.2020
1173 Clouds 3 1014 69 16093 6.7 280 16:55 08.01.2020
1174 Clouds 3 1014 69 16093 6.7 280 16:37 08.01.2020
1175 Clouds 2 1014 80 0 5.7 250 16:18 08.01.2020
1176 Snow 1 1014 74 3219 6.7 240 15:42 08.01.2020
1177 Clouds 1 1014 62 16093 2.1 270 15:21 08.01.2020
1178 Clouds 1 1014 74 12874 2.6 240 14:57 08.01.2020
1179 Clouds 0 1014 62 16093 2.6 280 14:39 08.01.2020
1180 Clear 0 1013 74 14484 3.1 0 14:20 08.01.2020
1181 Clouds -1 1013 69 16093 3.6 280 13:40 08.01.2020
1182 Clouds -1 1013 70 14484 3.1 0 13:20 08.01.2020
1183 Clouds -1 1013 86 0 6.2 270 12:43 08.01.2020
1184 Clouds -1 1013 86 0 6.2 270 12:20 08.01.2020
1185 Clouds -1 1013 74 16093 4.6 240 11:59 08.01.2020
1186 Clear -1 1013 70 16093 3.1 270 11:41 08.01.2020
1187 Clear -1 1013 72 16093 3.1 270 11:19 08.01.2020
1188 Clouds -1 1013 86 16093 8.2 250 10:57 08.01.2020
1189 Clear -1 1013 72 16093 2.6 270 10:39 08.01.2020
1190 Clear -1 1013 74 16093 1.5 0 10:19 08.01.2020
1191 Clear -1 1013 72 16093 7.68 265 09:42 08.01.2020
1192 Clear -1 1013 80 16093 2.6 0 09:20 08.01.2020
1193 Clouds 0 1012 74 16093 5.7 270 08:57 08.01.2020
1194 Clear 0 1013 72 16093 4.6 280 08:38 08.01.2020
1195 Clear 0 1013 80 0 4.1 260 08:20 08.01.2020
1196 Clear 0 1012 86 16093 3.6 300 07:50 08.01.2020
1197 Clear 0 1012 86 16093 3.6 300 07:32 08.01.2020
1198 Clear 0 1013 80 16093 3.1 300 06:50 08.01.2020
1199 Clear 1 1013 80 16093 3.1 300 06:32 08.01.2020
1200 Clouds 1 1012 74 16093 6.2 290 05:54 08.01.2020
1201 Rain 1 1013 74 16093 2.1 290 05:18 08.01.2020
1202 Rain 2 1013 94 16093 2.6 300 04:27 08.01.2020
1203 Rain 2 1011 86 3219 2.6 70 02:45 08.01.2020
1204 Rain 2 1012 74 16093 6.16 348 02:27 08.01.2020
1205 Rain 3 1012 69 16093 2.6 60 01:52 08.01.2020
1206 Drizzle 3 1013 64 16093 6.6 48 01:26 08.01.2020
1207 Rain 3 1013 52 16093 6.6 48 00:42 08.01.2020
1208 Rain 4 1014 60 16093 2.6 40 00:21 08.01.2020
1209 Clouds 4 1013 52 16093 6.6 48 23:44 07.01.2020
1210 Clouds 4 1013 48 16093 2.1 80 23:20 07.01.2020
1211 Clouds 4 1013 52 16093 4.92 119 22:41 07.01.2020
1212 Clouds 5 1013 52 16093 4.92 119 22:21 07.01.2020
1213 Clouds 5 1013 60 16093 5.7 60 21:58 07.01.2020
1214 Clouds 5 1014 48 16093 3.6 120 21:40 07.01.2020
1215 Clouds 5 1014 48 16093 3.6 120 21:21 07.01.2020
1216 Clouds 5 1015 38 16093 3.6 120 20:57 07.01.2020
1217 Clear 6 1015 38 16093 3.6 160 20:39 07.01.2020
1218 Clear 6 1015 36 16093 2.6 80 20:21 07.01.2020
1219 Clouds 6 1015 41 16093 3.6 60 19:56 07.01.2020
1220 Clear 6 1015 38 16093 2.21 136 19:37 07.01.2020
1221 Clear 6 1016 48 0 2.21 136 19:18 07.01.2020
1222 Clear 6 1016 41 16093 2.1 350 19:18 07.01.2020
1223 Clouds 6 1016 38 16093 2.6 60 18:55 07.01.2020
1224 Clear 6 1017 38 16093 2.21 136 18:37 07.01.2020
1225 Clear 5 1018 41 16093 2.21 136 18:18 07.01.2020
1226 Clear 5 1018 41 16093 2.21 136 18:18 07.01.2020
1227 Clear 5 1018 44 16093 2.21 136 17:41 07.01.2020
1228 Clear 5 1018 44 16093 2.21 136 17:23 07.01.2020
1229 Clear 4 1019 48 16093 1.44 264 16:58 07.01.2020
1230 Clear 4 1019 48 16093 1.44 264 16:38 07.01.2020
1231 Clear 4 1019 44 16093 1.5 250 16:19 07.01.2020
1232 Clear 3 1019 44 16093 1.5 250 15:59 07.01.2020
1233 Clear 3 1019 51 16093 1.5 20 15:41 07.01.2020
1234 Clear 2 1019 51 16093 1.5 20 15:23 07.01.2020
1235 Clouds 2 1019 44 16093 2.6 250 14:57 07.01.2020
1236 Clear 1 1020 51 16093 1.44 264 14:37 07.01.2020
1237 Clear 1 1020 47 16093 2.6 230 14:19 07.01.2020
1238 Clear 1 1019 51 16093 4.99 253 13:40 07.01.2020
1239 Clear 1 1019 44 16093 2.1 0 13:20 07.01.2020
1240 Clouds 1 1019 64 16093 3.6 270 12:54 07.01.2020
1241 Clear 1 1019 51 16093 5.2 263 12:36 07.01.2020
1242 Clear 1 1019 44 16093 2.6 230 12:18 07.01.2020
1243 Clear 1 1019 51 16093 5.2 263 11:41 07.01.2020
1244 Clear 1 1019 51 16093 5.2 263 11:41 07.01.2020
1245 Clear 1 1019 51 16093 7.43 278 11:21 07.01.2020
1246 Clouds 1 1018 41 16093 3.6 250 10:55 07.01.2020
1247 Clear 2 1019 51 16093 7.43 278 10:37 07.01.2020
1248 Clear 2 1019 51 16093 7.43 278 10:19 07.01.2020
1249 Clear 2 1019 51 16093 7.43 278 09:38 07.01.2020
1250 Clear 2 1019 51 16093 7.43 278 09:20 07.01.2020
1251 Clouds 2 1018 41 16093 5.1 230 08:57 07.01.2020
1252 Clear 2 1018 44 16093 7.43 278 08:37 07.01.2020
1253 Clear 2 1018 38 16093 3.6 230 08:18 07.01.2020
1254 Clear 3 1018 47 16093 8.56 271 07:42 07.01.2020
1255 Clear 3 1018 44 16093 2.1 270 06:57 07.01.2020
1256 Clear 3 1018 41 16093 4.1 280 06:35 07.01.2020
1257 Clouds 4 1017 33 16093 7.2 260 05:59 07.01.2020
1258 Clear 4 1017 44 16093 2.6 290 05:40 07.01.2020
1259 Clear 3 1017 44 16093 1.5 280 03:45 07.01.2020
1260 Clear 3 1017 48 16093 2.1 270 02:47 07.01.2020
1261 Clear 3 1017 60 0 2.6 270 02:18 07.01.2020
1262 Clear 3 1017 52 16093 9.49 260 01:40 07.01.2020
1263 Clouds 3 1016 52 16093 3.1 220 00:57 07.01.2020
1264 Clear 4 1016 56 0 3.6 270 00:21 07.01.2020
1265 Clear 4 1016 52 16093 9.71 265 23:57 06.01.2020
1266 Clear 5 1016 52 16093 9.71 265 23:37 06.01.2020
1267 Clear 5 1016 45 16093 2.6 250 23:19 06.01.2020
1268 Clouds 6 1015 48 16093 7.8 269 22:44 06.01.2020
1269 Clouds 6 1015 52 0 6.2 270 22:25 06.01.2020
1270 Clouds 7 1015 45 16093 6.7 270 21:59 06.01.2020
1271 Clouds 7 1015 52 16093 2.1 290 21:40 06.01.2020
1272 Clouds 7 1015 48 16093 2.6 0 21:20 06.01.2020
1273 Clouds 7 1014 45 16093 10.8 260 20:57 06.01.2020
1274 Clouds 7 1014 48 16093 5.1 280 20:39 06.01.2020
1275 Clouds 7 1014 52 0 6.2 270 20:20 06.01.2020
1276 Clouds 7 1014 52 16093 2.6 260 20:20 06.01.2020
1277 Clouds 7 1014 48 16093 8.2 250 19:57 06.01.2020
1278 Clouds 6 1014 48 16093 4.6 280 19:39 06.01.2020
1279 Clouds 6 1014 48 16093 4.6 280 19:20 06.01.2020
1280 Clouds 6 1014 60 16093 4.6 290 18:48 06.01.2020
1281 Rain 6 1014 64 16093 5.1 240 18:25 06.01.2020
1282 Rain 5 1014 60 16093 6.7 260 18:00 06.01.2020
1283 Rain 4 1015 63 16093 4.6 270 17:39 06.01.2020
1284 Rain 4 1015 63 16093 4.6 270 17:39 06.01.2020
1285 Rain 4 1015 69 16093 4.1 240 17:19 06.01.2020
1286 Rain 3 1015 69 16093 5.7 230 16:55 06.01.2020
1287 Rain 2 1016 74 16093 2.6 280 16:36 06.01.2020
1288 Rain 2 1015 69 16093 4.1 260 16:18 06.01.2020
1289 Clouds 1 1015 80 16093 3.1 270 15:42 06.01.2020
1290 Clouds 1 1015 80 0 5.1 250 15:20 06.01.2020
1291 Rain 1 1015 69 16093 5.7 220 14:59 06.01.2020
1292 Rain 1 1015 86 16093 9.07 244 14:41 06.01.2020
1293 Rain 1 1015 86 16093 9.07 244 14:41 06.01.2020
1294 Rain 0 1015 86 16093 7.43 237 14:21 06.01.2020
1295 Clouds 0 1015 80 14484 7.43 237 13:58 06.01.2020
1296 Clouds 0 1015 86 0 4.6 250 13:38 06.01.2020
1297 Rain 0 1014 80 16093 2.6 0 13:20 06.01.2020
1298 Clouds 0 1015 86 0 4.6 240 12:44 06.01.2020
1299 Clouds 0 1015 86 0 4.6 240 12:21 06.01.2020
1300 Clouds 0 1014 80 16093 4.6 210 11:59 06.01.2020
1301 Clouds 0 1014 66 16093 6.65 224 11:41 06.01.2020
1302 Clouds 0 1014 76 16093 7 248 11:23 06.01.2020
1303 Clouds -1 1014 76 16093 7 248 10:57 06.01.2020
1304 Clouds -1 1014 76 16093 7 248 10:39 06.01.2020
1305 Clouds -1 1014 76 16093 7 248 10:20 06.01.2020
1306 Rain -1 1014 76 2414 2.1 180 09:39 06.01.2020
1307 Rain 0 1014 76 2414 2.1 180 09:20 06.01.2020
1308 Rain 0 1015 76 4828 7 248 08:48 06.01.2020
1309 Rain 0 1015 76 2816 4.1 290 08:48 06.01.2020
1310 Rain 0 1015 76 6437 1.5 170 08:30 06.01.2020
1311 Rain 0 1015 67 2414 4.6 270 07:56 06.01.2020
1312 Rain 0 1015 67 2414 3.6 280 07:33 06.01.2020
1313 Clouds 0 1016 69 0 5.1 270 06:46 06.01.2020
1314 Snow 1 1016 69 4023 5.7 270 06:23 06.01.2020
1315 Clouds 1 1016 51 0 2.6 260 05:45 06.01.2020
1316 Clouds 1 1015 47 16093 5.1 300 04:52 06.01.2020
1317 Clouds 0 1016 51 16093 2.6 220 04:19 06.01.2020
1318 Clouds 0 1016 47 16093 3.1 310 02:58 06.01.2020
1319 Clear 1 1016 51 16093 8.33 308 02:24 06.01.2020
1320 Clear 2 1016 51 16093 8.33 308 01:45 06.01.2020
1321 Clear 2 1016 51 16093 8.91 306 01:27 06.01.2020
1322 Clear 2 1016 44 16093 5.1 320 00:44 06.01.2020
1323 Clear 2 1016 44 16093 5.1 320 00:24 06.01.2020
1324 Clouds 3 1015 44 16093 4.1 310 23:43 05.01.2020
1325 Clouds 3 1015 44 16093 4.1 310 23:43 05.01.2020
1326 Clouds 3 1015 44 16093 2.6 0 23:23 05.01.2020
1327 Clouds 3 1015 44 16093 2.6 0 23:23 05.01.2020
1328 Clouds 3 1015 44 16093 2.6 0 22:58 05.01.2020
1329 Clouds 4 1014 41 16093 5.7 320 22:39 05.01.2020
1330 Clouds 4 1014 41 16093 5.7 320 22:20 05.01.2020
1331 Clouds 4 1013 44 16093 9.3 300 21:56 05.01.2020
1332 Clouds 4 1013 38 16093 9.8 320 21:38 05.01.2020
1333 Clouds 5 1013 38 16093 3.6 290 21:20 05.01.2020
1334 Clouds 5 1012 48 16093 9.3 310 20:56 05.01.2020
1335 Clouds 5 1012 38 16093 8.7 330 20:38 05.01.2020
1336 Clouds 5 1012 44 16093 5.7 300 20:19 05.01.2020
1337 Clouds 5 1011 48 16093 11.3 320 19:57 05.01.2020
1338 Clouds 5 1012 41 16093 9.3 320 19:38 05.01.2020
1339 Clouds 5 1011 48 16093 7.7 300 19:19 05.01.2020
1340 Clouds 5 1011 48 16093 11.8 320 18:55 05.01.2020
1341 Clouds 5 1011 48 16093 11.8 320 18:37 05.01.2020
1342 Clouds 5 1011 48 16093 11.8 320 18:37 05.01.2020
1343 Clouds 5 1011 48 16093 7.2 300 18:19 05.01.2020
1344 Clouds 4 1010 48 16093 11.8 310 17:57 05.01.2020
1345 Clouds 4 1012 44 16093 8.7 340 17:38 05.01.2020
1346 Clouds 4 1012 44 16093 8.7 340 17:19 05.01.2020
1347 Clouds 4 1010 48 16093 9.8 310 16:56 05.01.2020
1348 Clouds 4 1012 51 16093 9.3 330 16:37 05.01.2020
1349 Clouds 4 1012 51 16093 9.3 330 16:19 05.01.2020
1350 Clouds 4 1012 51 16093 9.3 330 16:19 05.01.2020
1351 Clouds 3 1011 51 16093 6.2 320 15:38 05.01.2020
1352 Clouds 3 1010 51 16093 6.2 290 15:20 05.01.2020
1353 Clouds 3 1009 59 16093 9.3 310 14:55 05.01.2020
1354 Clouds 3 1010 51 16093 6.2 330 14:37 05.01.2020
1355 Clouds 3 1010 51 16093 6.2 330 14:19 05.01.2020
1356 Clouds 3 1008 51 16093 9.8 310 13:55 05.01.2020
1357 Clouds 3 1009 55 16093 7.7 320 13:37 05.01.2020
1358 Clear 3 1008 47 16093 5.7 300 13:18 05.01.2020
1359 Clear 3 1008 47 16093 5.7 300 13:18 05.01.2020
1360 Clear 3 1008 47 16093 5.7 300 13:18 05.01.2020
1361 Rain 3 1007 51 16093 10.8 320 12:55 05.01.2020
1362 Rain 3 1007 51 0 3.6 340 12:37 05.01.2020
1363 Rain 3 1007 51 0 3.6 340 12:18 05.01.2020
1364 Rain 3 1007 51 16093 7.2 320 11:43 05.01.2020
1365 Rain 3 1006 48 16093 9.3 300 11:20 05.01.2020
1366 Rain 3 1006 48 16093 9.3 300 10:58 05.01.2020
1367 Clouds 3 1005 55 16093 7.2 320 10:39 05.01.2020
1368 Clouds 3 1005 55 16093 7.2 320 10:39 05.01.2020
1369 Clouds 3 1004 55 16093 4.6 300 10:19 05.01.2020
1370 Clouds 3 1004 55 16093 8.7 330 09:42 05.01.2020
1371 Clouds 3 1004 60 16093 6.7 290 09:22 05.01.2020
1372 Clouds 3 1003 64 16093 10.8 310 08:50 05.01.2020
1373 Rain 4 1003 64 16093 6.7 320 08:31 05.01.2020
1374 Rain 4 1002 64 16093 8.7 310 07:58 05.01.2020
1375 Rain 4 1001 75 0 2.6 0 07:39 05.01.2020
1376 Rain 4 1001 75 0 2.6 0 07:20 05.01.2020
1377 Rain 4 1001 75 0 2.1 0 06:21 05.01.2020
1378 Drizzle 5 1001 75 16093 5.7 330 05:34 05.01.2020
1379 Rain 6 1001 75 16093 3.6 300 04:48 05.01.2020
1380 Rain 6 1001 75 14484 4.1 300 04:18 05.01.2020
1381 Rain 6 1001 75 14484 4.1 300 04:18 05.01.2020
1382 Clouds 7 1000 75 16093 7.7 320 02:50 05.01.2020
1383 Rain 8 1001 76 16093 7.2 330 02:32 05.01.2020
1384 Rain 8 1000 87 16093 5.7 330 01:49 05.01.2020
1385 Rain 9 1001 87 16093 3.1 0 01:20 05.01.2020
1386 Rain 9 1000 87 16093 5.1 330 00:56 05.01.2020
1387 Clouds 9 1000 93 16093 6.54 338 00:37 05.01.2020
1388 Clouds 9 1001 87 16093 1.5 0 00:19 05.01.2020
1389 Clouds 9 1001 81 16093 2.1 270 23:40 04.01.2020
1390 Clouds 9 1000 93 16093 4.53 278 23:20 04.01.2020
1391 Clouds 9 1000 100 0 2.6 250 22:55 04.01.2020
1392 Clouds 9 1000 100 0 2.6 250 22:37 04.01.2020
1393 Clouds 9 1001 87 16093 1.5 270 22:19 04.01.2020
1394 Clouds 9 1000 93 16093 3.6 300 21:55 04.01.2020
1395 Clouds 10 1001 87 16093 2.6 270 21:36 04.01.2020
1396 Clouds 9 1000 87 16093 2.6 260 21:18 04.01.2020
1397 Mist 9 1001 93 6437 4.53 278 20:40 04.01.2020
1398 Clouds 9 1001 100 0 3.1 260 20:22 04.01.2020
1399 Rain 9 1000 93 2414 2.6 80 19:57 04.01.2020
1400 Rain 9 1001 93 2012 2.1 280 19:39 04.01.2020
1401 Drizzle 9 1001 100 101 2.6 240 19:20 04.01.2020
1402 Drizzle 9 1001 100 402 3.1 60 18:56 04.01.2020
1403 Rain 9 1002 93 4828 2.1 250 18:38 04.01.2020
1404 Drizzle 9 1001 93 402 3.1 50 18:19 04.01.2020
1405 Drizzle 8 1003 93 402 3.14 262 17:42 04.01.2020
1406 Drizzle 8 1003 93 402 3.14 262 17:42 04.01.2020
1407 Drizzle 8 1003 93 402 3.14 262 17:42 04.01.2020
1408 Drizzle 8 1003 93 402 3.14 262 17:24 04.01.2020
1409 Drizzle 8 1003 100 805 3.1 110 16:59 04.01.2020
1410 Drizzle 8 1004 100 805 2.1 130 16:40 04.01.2020
1411 Drizzle 8 1004 100 805 2.1 130 16:22 04.01.2020
1412 Drizzle 8 1005 100 805 3.6 150 15:57 04.01.2020
1413 Fog 8 1005 93 805 3.87 230 15:38 04.01.2020
1414 Fog 8 1005 100 805 3.87 230 15:19 04.01.2020
1415 Mist 8 1005 93 3219 3.1 0 14:56 04.01.2020
1416 Mist 8 1005 93 2816 1.5 100 14:37 04.01.2020
1417 Mist 7 1006 93 6437 2.1 80 14:19 04.01.2020
1418 Rain 7 1005 100 8047 2.02 206 13:55 04.01.2020
1419 Rain 7 1005 100 8047 2.02 206 13:36 04.01.2020
1420 Rain 7 1005 100 1609 2.6 80 13:18 04.01.2020
1421 Rain 7 1006 93 2414 2.6 100 12:41 04.01.2020
1422 Rain 7 1006 93 2414 2.6 100 12:19 04.01.2020
1423 Rain 7 1006 100 2414 2.6 100 11:58 04.01.2020
1424 Rain 7 1006 100 0 1.5 80 11:39 04.01.2020
1425 Rain 7 1008 100 2816 0.45 123 11:19 04.01.2020
1426 Rain 7 1007 100 6437 0.45 123 10:42 04.01.2020
1427 Rain 7 1007 93 3219 0.45 123 10:23 04.01.2020
1428 Rain 7 1007 87 1609 0.45 123 09:59 04.01.2020
1429 Rain 7 1009 93 0 2.6 290 09:41 04.01.2020
1430 Rain 7 1009 100 0 1.5 260 09:21 04.01.2020
1431 Rain 7 1009 100 3219 2.1 150 08:41 04.01.2020
1432 Rain 7 1009 100 3219 2.1 150 08:21 04.01.2020
1433 Rain 7 1008 93 8047 1.21 240 07:44 04.01.2020
1434 Rain 7 1009 100 0 1.21 240 07:20 04.01.2020
1435 Drizzle 7 1009 93 4828 1.21 240 06:33 04.01.2020
1436 Drizzle 8 1010 93 6437 1.21 240 05:39 04.01.2020
1437 Drizzle 8 1011 87 11265 2.56 256 04:44 04.01.2020
1438 Drizzle 8 1011 87 11265 2.56 256 04:25 04.01.2020
1439 Rain 8 1011 81 12874 1.5 240 03:19 04.01.2020
1440 Rain 8 1011 81 16093 3.1 240 02:23 04.01.2020
1441 Rain 8 1010 87 16093 2.76 246 02:23 04.01.2020
1442 Rain 8 1010 81 16093 2.6 230 01:57 04.01.2020
1443 Clouds 8 1010 81 16093 1.5 270 01:32 04.01.2020
1444 Clouds 8 1009 81 16093 2.87 241 00:50 04.01.2020
1445 Clouds 8 1009 81 16093 2.87 241 00:28 04.01.2020
1446 Clouds 8 1009 81 16093 1.5 310 23:52 03.01.2020
1447 Clouds 8 1010 81 16093 2.87 241 23:27 03.01.2020
1448 Clouds 8 1009 81 16093 2.56 305 22:55 03.01.2020
1449 Clouds 8 1009 87 0 1.5 260 22:37 03.01.2020
1450 Clouds 8 1009 87 16093 3.1 220 22:18 03.01.2020
1451 Clouds 8 1009 81 14484 2.6 210 21:56 03.01.2020
1452 Clouds 8 1009 81 16093 2.56 305 21:37 03.01.2020
1453 Clouds 8 1009 87 0 2.1 250 21:18 03.01.2020
1454 Rain 8 1008 87 14484 1.5 220 20:43 03.01.2020
1455 Rain 8 1009 87 8047 2.24 259 20:19 03.01.2020
1456 Rain 8 1008 81 11265 2.6 250 19:59 03.01.2020
1457 Rain 8 1009 93 0 1.5 260 19:41 03.01.2020
1458 Rain 8 1009 93 0 1.5 260 19:23 03.01.2020
1459 Rain 8 1008 87 12874 1.5 240 18:47 03.01.2020
1460 Rain 7 1008 87 16093 2.23 268 18:27 03.01.2020
1461 Rain 7 1009 87 9656 3.1 240 17:58 03.01.2020
1462 Rain 7 1009 93 0 1.5 240 17:40 03.01.2020
1463 Rain 7 1009 93 0 1.5 240 17:21 03.01.2020
1464 Rain 7 1010 93 6437 2.1 0 17:21 03.01.2020
1465 Drizzle 7 1010 100 9656 2.1 250 16:44 03.01.2020
1466 Rain 7 1010 93 6437 2.1 200 16:25 03.01.2020
1467 Rain 6 1012 93 3219 3 257 16:00 03.01.2020
1468 Drizzle 6 1010 93 2414 3 257 15:41 03.01.2020
1469 Rain 6 1010 93 2414 3.1 200 15:19 03.01.2020
1470 Rain 6 1010 93 3219 3.1 230 14:40 03.01.2020
1471 Rain 6 1010 93 3219 3.1 230 14:40 03.01.2020
1472 Drizzle 6 1011 87 11265 4.59 243 14:20 03.01.2020
1473 Rain 6 1010 81 14484 3.1 200 13:59 03.01.2020
1474 Rain 6 1010 87 9656 2.6 200 13:40 03.01.2020
1475 Drizzle 6 1010 87 16093 3.94 242 13:21 03.01.2020
1476 Rain 6 1011 81 16093 3.94 242 12:41 03.01.2020
1477 Rain 6 1011 81 16093 3.94 242 12:22 03.01.2020
1478 Rain 6 1011 75 16093 3.6 200 11:57 03.01.2020
1479 Drizzle 6 1011 75 16093 3.94 242 11:39 03.01.2020
1480 Rain 6 1010 70 16093 2.1 220 10:59 03.01.2020
1481 Drizzle 6 1010 70 16093 4.44 249 10:40 03.01.2020
1482 Drizzle 6 1010 70 16093 4.44 249 10:22 03.01.2020
1483 Clouds 6 1009 65 16093 2.6 230 09:56 03.01.2020
1484 Clouds 6 1010 65 16093 4.44 249 09:38 03.01.2020
1485 Clouds 7 1011 61 16093 3.1 250 09:20 03.01.2020
1486 Rain 7 1010 57 16093 3.6 240 08:54 03.01.2020
1487 Clouds 7 1011 70 16093 4.44 249 08:36 03.01.2020
1488 Clouds 6 1011 57 16093 2.6 0 08:18 03.01.2020
1489 Clouds 6 1009 65 16093 7.01 245 07:39 03.01.2020
1490 Clouds 6 1010 61 16093 2.1 0 07:18 03.01.2020
1491 Clouds 6 1011 65 16093 7.01 245 06:42 03.01.2020
1492 Clouds 6 1011 61 16093 2.1 0 06:23 03.01.2020
1493 Clouds 6 1012 65 0 3.6 270 05:20 03.01.2020
1494 Clouds 6 1012 74 16093 5.35 237 03:45 03.01.2020
1495 Clouds 6 1012 52 16093 3.1 220 02:55 03.01.2020
1496 Clouds 6 1012 52 16093 2.6 210 01:57 03.01.2020
1497 Clear 6 1012 73 16093 6.08 221 01:36 03.01.2020
1498 Clear 6 1013 73 16093 5.96 220 00:46 03.01.2020
1499 Clear 6 1013 73 16093 5.96 220 00:26 03.01.2020
1500 Clouds 6 1012 45 16093 4.1 210 23:55 02.01.2020
1501 Clear 7 1013 52 16093 5.96 220 23:37 02.01.2020
1502 Clear 7 1013 52 0 4.6 280 23:18 02.01.2020
1503 Clear 7 1013 45 16093 4.31 221 22:44 02.01.2020
1504 Clear 8 1013 49 0 2.1 230 22:21 02.01.2020
1505 Rain 8 1012 45 16093 3.1 170 21:57 02.01.2020
1506 Rain 8 1013 37 16093 1.5 250 21:39 02.01.2020
1507 Rain 8 1013 45 0 5.7 260 21:21 02.01.2020
1508 Rain 8 1013 36 16093 5.1 200 20:57 02.01.2020
1509 Rain 8 1013 37 16093 5.17 222 20:39 02.01.2020
1510 Rain 8 1014 45 0 3.1 0 20:20 02.01.2020
1511 Clouds 8 1013 36 16093 5.1 220 19:55 02.01.2020
1512 Clear 8 1013 36 16093 1.5 240 19:37 02.01.2020
1513 Clear 8 1013 36 16093 1.5 240 19:37 02.01.2020
1514 Clear 8 1014 49 0 4.1 270 19:19 02.01.2020
1515 Rain 8 1013 39 16093 5.1 230 18:56 02.01.2020
1516 Rain 8 1015 36 16093 1.5 260 18:37 02.01.2020
1517 Rain 8 1015 36 16093 1.5 260 18:19 02.01.2020
1518 Clouds 7 1014 42 16093 5.1 240 17:55 02.01.2020
1519 Clear 7 1015 48 16093 5.06 220 17:36 02.01.2020
1520 Clear 6 1016 48 16093 2.1 0 17:18 02.01.2020
1521 Clouds 5 1015 45 16093 4.1 230 16:56 02.01.2020
1522 Clear 5 1016 59 16093 4.74 244 16:38 02.01.2020
1523 Clouds 4 1016 64 16093 3.1 220 16:19 02.01.2020
1524 Clear 3 1016 64 16093 4.74 244 15:44 02.01.2020
1525 Clear 2 1016 51 16093 1.5 0 15:24 02.01.2020
1526 Clear 1 1016 74 16093 4.74 244 14:58 02.01.2020
1527 Clear 1 1016 74 16093 4.74 244 14:38 02.01.2020
1528 Clear -2 1016 55 16093 6.24 247 14:20 02.01.2020
1529 Clear -2 1016 74 16093 6.24 247 13:58 02.01.2020
1530 Clear -2 1016 74 16093 6.34 250 13:40 02.01.2020
1531 Clear -2 1016 59 16093 2.1 240 13:19 02.01.2020
1532 Clear -2 1016 74 16093 6.34 250 12:42 02.01.2020
1533 Clear -2 1016 74 16093 6.34 250 12:21 02.01.2020
1534 Clear -2 1015 68 16093 6.34 250 11:42 02.01.2020
1535 Clear -2 1015 59 16093 3.6 240 11:23 02.01.2020
1536 Clear -2 1014 68 16093 6.79 259 10:56 02.01.2020
1537 Clear -2 1014 68 16093 6.79 259 10:36 02.01.2020
1538 Clear -2 1015 69 0 3.1 250 10:18 02.01.2020
1539 Clear -2 1015 74 16093 6.79 259 09:41 02.01.2020
1540 Clear -2 1014 55 16093 2.6 0 09:21 02.01.2020
1541 Clear -2 1014 68 16093 6.79 259 08:41 02.01.2020
1542 Clear -2 1014 55 16093 3.6 240 08:22 02.01.2020
1543 Clear -2 1014 63 16093 7.29 280 07:47 02.01.2020
1544 Clear -2 1014 63 16093 7.29 280 07:27 02.01.2020
1545 Clear -2 1014 62 16093 7.29 280 06:43 02.01.2020
1546 Clear -1 1013 47 16093 3.6 250 05:54 02.01.2020
1547 Clear 0 1013 61 16093 8.82 285 04:38 02.01.2020
1548 Clear 0 1013 61 16093 8.82 285 04:19 02.01.2020
1549 Clouds 1 1012 51 16093 4.1 280 02:25 02.01.2020
1550 Clouds 1 1012 51 16093 4.1 280 01:57 02.01.2020
1551 Clouds 2 1012 51 16093 5.1 290 01:32 02.01.2020
1552 Clouds 2 1011 47 16093 8.2 270 00:52 02.01.2020
1553 Clouds 2 1011 47 16093 6.2 290 00:32 02.01.2020
1554 Clouds 3 1011 51 16093 8.2 270 23:48 01.01.2020
1555 Clouds 3 1011 47 16093 5.1 280 23:25 01.01.2020
1556 Clouds 3 1010 41 16093 5.1 260 22:55 01.01.2020
1557 Clouds 3 1009 47 16093 5.7 290 22:37 01.01.2020
1558 Clouds 3 1009 47 16093 4.6 280 22:18 01.01.2020
1559 Clouds 3 1008 44 16093 6.7 300 21:42 01.01.2020
1560 Clouds 3 1008 44 16093 6.7 300 21:21 01.01.2020
1561 Clouds 3 1008 47 16093 5.1 280 20:59 01.01.2020
1562 Clouds 3 1008 44 16093 8.2 300 20:39 01.01.2020
1563 Clouds 3 1008 44 16093 4.1 290 20:21 01.01.2020
1564 Clouds 3 1007 41 16093 10.3 290 19:58 01.01.2020
1565 Clouds 3 1007 41 16093 9.8 320 19:39 01.01.2020
1566 Clouds 3 1007 47 16093 3.6 270 19:20 01.01.2020
1567 Clouds 3 1007 44 16093 8.2 310 18:57 01.01.2020
1568 Clouds 3 1008 41 16093 6.7 300 18:39 01.01.2020
1569 Clouds 3 1008 41 16093 6.7 300 18:20 01.01.2020
1570 Clouds 4 1007 41 16093 10.3 270 17:59 01.01.2020
1571 Clouds 4 1008 44 16093 8.7 300 17:40 01.01.2020
1572 Clouds 3 1008 44 16093 8.7 300 17:20 01.01.2020
1573 Clouds 3 1007 41 16093 8.2 260 16:59 01.01.2020
1574 Clouds 3 1008 47 16093 5.1 280 16:59 01.01.2020
1575 Clouds 3 1008 44 16093 7.2 290 16:38 01.01.2020
1576 Clouds 3 1008 51 16093 2.6 0 16:20 01.01.2020
1577 Clouds 3 1008 47 16093 6.7 260 15:57 01.01.2020
1578 Clouds 3 1008 51 16093 6.2 290 15:38 01.01.2020
1579 Clouds 3 1008 51 16093 6.2 290 15:20 01.01.2020
1580 Clouds 2 1007 51 16093 7.7 260 14:56 01.01.2020
1581 Clouds 2 1007 55 16093 6.2 290 14:38 01.01.2020
1582 Clouds 2 1007 64 0 6.2 270 14:20 01.01.2020
1583 Clouds 2 1006 55 16093 5.7 270 13:55 01.01.2020
1584 Clouds 2 1007 64 16093 5.1 280 13:37 01.01.2020
1585 Clouds 2 1006 59 16093 3.6 260 13:18 01.01.2020
1586 Clouds 2 1006 55 16093 8.2 260 12:55 01.01.2020
1587 Snow 2 1006 64 16093 6.2 270 12:37 01.01.2020
1588 Clouds 2 1006 59 16093 5.1 290 12:18 01.01.2020
1589 Clouds 3 1006 59 16093 6.2 300 11:43 01.01.2020
1590 Clouds 3 1006 59 16093 6.2 300 11:21 01.01.2020
1591 Clouds 3 1006 60 16093 9.3 270 10:58 01.01.2020
1592 Clouds 3 1006 64 16093 6.7 310 10:39 01.01.2020
1593 Clouds 3 1006 64 16093 6.7 310 10:20 01.01.2020
1594 Clouds 3 1006 60 16093 5.7 300 09:55 01.01.2020
1595 Clouds 3 1006 60 16093 5.7 300 09:36 01.01.2020
1596 Clouds 3 1005 60 16093 6.2 260 09:18 01.01.2020
1597 Clouds 4 1004 55 16093 7.2 280 08:54 01.01.2020
1598 Clouds 4 1005 64 16093 6.2 300 08:36 01.01.2020
1599 Clouds 3 1005 64 16093 6.2 270 08:18 01.01.2020
1600 Clouds 4 1005 64 16093 6.7 290 07:45 01.01.2020
1601 Clouds 4 1005 64 16093 6.7 290 07:26 01.01.2020
1602 Clouds 4 1005 64 16093 6.2 300 06:44 01.01.2020
1603 Clouds 4 1004 60 16093 4.6 270 06:19 01.01.2020
1604 Clouds 5 1004 75 16093 3.6 300 04:44 01.01.2020
1605 Rain 5 1004 70 16093 5.1 300 03:43 01.01.2020
1606 Rain 5 1004 70 16093 5.1 300 03:22 01.01.2020
1607 Rain 5 1004 65 16093 7.2 280 02:55 01.01.2020
1608 Drizzle 5 1004 75 16093 1.5 280 02:32 01.01.2020
1609 Rain 5 1003 70 16093 8.01 245 01:45 01.01.2020
1610 Rain 5 1003 70 16093 7.92 236 01:24 01.01.2020
1611 Clouds 5 1003 70 16093 4.6 220 00:57 01.01.2020
1612 Clouds 5 1004 70 16093 7.92 236 00:38 01.01.2020
1613 Clouds 5 1004 75 16093 1.5 240 00:20 01.01.2020
1614 Rain 6 1004 70 16093 1.5 270 23:40 31.12.2019
1615 Rain 6 1004 70 0 5.7 270 23:21 31.12.2019
1616 Rain 6 1003 69 16093 6.2 250 22:57 31.12.2019
1617 Rain 6 1003 70 16093 3.1 280 22:38 31.12.2019
1618 Clouds 6 1003 65 16093 2.1 0 22:18 31.12.2019
1619 Clouds 6 1003 65 16093 4.6 240 21:56 31.12.2019
1620 Clouds 6 1003 70 16093 8.18 253 21:37 31.12.2019
1621 Rain 6 1003 75 16093 3.1 220 21:19 31.12.2019
1622 Rain 6 1003 75 16093 3.1 220 21:19 31.12.2019
1623 Rain 6 1002 70 16093 2.1 240 20:54 31.12.2019
1624 Rain 6 1003 87 0 3.1 0 20:36 31.12.2019
1625 Rain 6 1004 81 0 3.1 240 20:18 31.12.2019
1626 Rain 6 1004 81 0 3.1 240 19:41 31.12.2019
1627 Rain 5 1004 81 0 3.1 240 19:22 31.12.2019
1628 Rain 5 1004 81 0 7.2 270 18:58 31.12.2019
1629 Clouds 5 1004 86 16093 6.36 259 18:40 31.12.2019
1630 Clouds 5 1005 86 0 2.1 0 18:20 31.12.2019
1631 Clouds 5 1005 86 0 2.6 0 17:56 31.12.2019
1632 Clouds 5 1006 86 0 5.1 280 17:38 31.12.2019
1633 Clouds 4 1006 93 16093 2.6 260 17:19 31.12.2019
1634 Clouds 4 1005 86 16093 4.5 293 16:57 31.12.2019
1635 Clouds 4 1006 93 16093 2.1 0 16:38 31.12.2019
1636 Clouds 4 1006 93 16093 4.5 293 16:19 31.12.2019
1637 Clouds 4 1005 86 16093 1.5 310 15:57 31.12.2019
1638 Clouds 4 1006 86 16093 2.1 0 15:38 31.12.2019
1639 Clouds 3 1007 93 16093 4.5 293 15:20 31.12.2019
1640 Clouds 3 1006 86 16093 3.6 330 14:58 31.12.2019
1641 Clouds 3 1006 86 16093 2.6 10 14:39 31.12.2019
1642 Rain 3 1006 93 14484 2.6 10 14:19 31.12.2019
1643 Clouds 3 1006 93 16093 3.6 340 13:58 31.12.2019
1644 Clouds 3 1006 86 16093 3.1 330 13:40 31.12.2019
1645 Clouds 3 1006 93 0 2.6 0 13:21 31.12.2019
1646 Rain 3 1007 93 12874 4.6 330 12:58 31.12.2019
1647 Rain 3 1007 86 0 2.1 0 12:40 31.12.2019
1648 Rain 3 1007 86 0 2.1 0 12:20 31.12.2019
1649 Clouds 3 1006 86 11265 4.6 330 11:56 31.12.2019
1650 Clouds 3 1006 86 16093 6.09 301 11:38 31.12.2019
1651 Clouds 3 1006 86 16093 6.09 301 11:38 31.12.2019
1652 Clouds 3 1006 86 16093 6.21 332 11:20 31.12.2019
1653 Clouds 3 1005 80 16093 3.6 360 10:58 31.12.2019
1654 Clouds 3 1006 93 16093 6.21 332 10:38 31.12.2019
1655 Clouds 3 1006 86 16093 2.6 20 10:20 31.12.2019
1656 Clouds 3 1006 86 16093 3.6 20 09:59 31.12.2019
1657 Clouds 3 1006 86 16093 5.1 10 09:39 31.12.2019
1658 Clouds 3 1006 86 16093 5.1 10 09:39 31.12.2019
1659 Clouds 3 1006 86 16093 5.1 10 09:39 31.12.2019
1660 Clouds 3 1007 86 16093 6.21 332 09:21 31.12.2019
1661 Clouds 3 1006 80 16093 4.6 360 08:57 31.12.2019
1662 Clouds 3 1007 80 16093 6.21 332 08:39 31.12.2019
1663 Clouds 3 1007 80 16093 7.6 2 08:20 31.12.2019
1664 Clouds 3 1006 80 16093 7.6 2 07:43 31.12.2019
1665 Clouds 3 1007 86 16093 3.6 30 07:22 31.12.2019
1666 Clouds 3 1006 100 16093 5.1 20 06:50 31.12.2019
1667 Clouds 3 1007 86 16093 5.7 40 05:59 31.12.2019
1668 Clouds 3 1008 93 16093 5.7 60 04:30 31.12.2019
1669 Rain 3 1009 86 6437 6.7 20 03:59 31.12.2019
1670 Rain 3 1009 86 6437 6.7 20 03:59 31.12.2019
1671 Rain 3 1009 86 16093 2.6 30 02:56 31.12.2019
1672 Rain 3 1009 93 16093 7.2 50 02:19 31.12.2019
1673 Rain 4 1009 93 14484 5.1 60 01:48 31.12.2019
1674 Rain 4 1009 93 14484 5.1 60 01:29 31.12.2019
1675 Rain 4 1008 86 9656 6.7 50 00:48 31.12.2019
1676 Rain 4 1008 93 16093 6.7 80 00:24 31.12.2019
1677 Rain 4 1009 86 4828 11.8 60 23:58 30.12.2019
1678 Drizzle 4 1008 93 8047 5.7 70 23:39 30.12.2019
1679 Rain 4 1008 87 0 8.2 30 23:21 30.12.2019
1680 Rain 4 1009 86 2414 10.8 40 22:59 30.12.2019
1681 Rain 5 1009 86 4828 5.1 60 22:41 30.12.2019
1682 Rain 5 1008 93 0 3.6 20 22:21 30.12.2019
1683 Rain 5 1008 93 0 3.6 20 21:57 30.12.2019
1684 Rain 5 1007 100 4828 4.6 80 21:39 30.12.2019
1685 Rain 5 1006 93 3219 5.7 90 21:20 30.12.2019
1686 Rain 5 1006 81 4023 8.2 60 20:58 30.12.2019
1687 Rain 5 1007 100 4828 6.7 70 20:40 30.12.2019
1688 Rain 5 1007 100 4828 6.7 70 20:40 30.12.2019
1689 Rain 5 1007 100 4828 6.2 70 20:20 30.12.2019
1690 Rain 5 1007 100 4828 6.2 70 19:58 30.12.2019
1691 Rain 5 1007 81 2414 10.3 80 19:39 30.12.2019
1692 Rain 5 1007 87 4828 5.7 50 19:19 30.12.2019
1693 Rain 5 1008 81 3219 8.2 60 18:59 30.12.2019
1694 Rain 5 1008 100 3219 4.6 70 18:41 30.12.2019
1695 Rain 5 1008 100 4023 10.3 70 18:20 30.12.2019
1696 Rain 5 1008 81 3219 7.2 60 17:57 30.12.2019
1697 Rain 5 1009 100 3219 4.6 60 17:39 30.12.2019
1698 Drizzle 5 1009 87 2414 6.2 90 17:19 30.12.2019
1699 Rain 5 1010 81 3219 6.7 70 16:58 30.12.2019
1700 Drizzle 5 1010 100 3219 5.1 80 16:38 30.12.2019
1701 Rain 5 1009 93 0 9.3 40 16:20 30.12.2019
1702 Rain 4 1011 81 2414 8.2 60 15:56 30.12.2019
1703 Rain 4 1011 93 4828 7.7 50 15:38 30.12.2019
1704 Rain 4 1012 93 2816 7.2 60 15:19 30.12.2019
1705 Rain 4 1011 93 2414 5.1 40 14:43 30.12.2019
1706 Rain 4 1010 93 6437 4.1 70 14:21 30.12.2019
1707 Rain 4 1009 86 4023 8.2 60 13:59 30.12.2019
1708 Rain 4 1010 93 4828 3.6 70 13:41 30.12.2019
1709 Rain 4 1011 93 6437 5.1 80 13:22 30.12.2019
1710 Rain 4 1010 86 4828 8.2 60 12:57 30.12.2019
1711 Rain 4 1010 93 3219 5.7 70 12:38 30.12.2019
1712 Rain 4 1011 93 8047 4.1 60 12:18 30.12.2019
1713 Drizzle 4 1010 93 6437 5.7 90 12:18 30.12.2019
1714 Rain 4 1011 100 4828 5.7 40 11:46 30.12.2019
1715 Rain 4 1011 93 0 7.7 30 11:22 30.12.2019
1716 Rain 4 1011 93 4828 8.2 50 10:59 30.12.2019
1717 Drizzle 4 1011 93 6437 3.6 70 10:40 30.12.2019
1718 Rain 4 1013 93 6437 6.7 60 10:19 30.12.2019
1719 Rain 4 1013 93 1609 4.1 30 09:43 30.12.2019
1720 Rain 4 1013 87 0 7.2 30 09:21 30.12.2019
1721 Rain 4 1014 93 4828 7.2 50 08:57 30.12.2019
1722 Rain 5 1014 93 6437 4.1 70 08:38 30.12.2019
1723 Drizzle 5 1014 93 4023 5.1 80 08:20 30.12.2019
1724 Rain 5 1014 100 4828 6.7 60 07:48 30.12.2019
1725 Rain 5 1014 93 4023 3.6 80 07:23 30.12.2019
1726 Rain 5 1015 93 2816 3.6 60 06:39 30.12.2019
1727 Rain 4 1017 93 3219 3.6 60 04:31 30.12.2019
1728 Rain 4 1017 100 8047 3.1 90 03:51 30.12.2019
1729 Rain 4 1018 87 4828 3.6 50 02:47 30.12.2019
1730 Rain 4 1018 86 4023 4.6 50 02:27 30.12.2019
1731 Rain 4 1019 89 3219 2.6 70 01:43 30.12.2019
1732 Rain 4 1020 93 4828 3.1 60 01:19 30.12.2019
1733 Rain 4 1020 86 6437 2.6 110 00:42 30.12.2019
1734 Rain 4 1020 80 11265 4.1 50 23:58 29.12.2019
1735 Rain 4 1020 86 11265 3.1 120 23:38 29.12.2019
1736 Rain 4 1020 86 11265 3.1 120 23:38 29.12.2019
1737 Rain 4 1021 80 12874 2.1 40 23:19 29.12.2019
1738 Drizzle 5 1021 80 11265 5.85 110 22:41 29.12.2019
1739 Drizzle 5 1021 80 11265 5.85 110 22:41 29.12.2019
1740 Drizzle 5 1021 80 11265 5.85 110 22:22 29.12.2019
1741 Rain 5 1021 80 14484 4.6 40 21:57 29.12.2019
1742 Drizzle 5 1021 70 16093 5.85 110 21:39 29.12.2019
1743 Rain 5 1022 60 14484 2.1 0 21:20 29.12.2019
1744 Clouds 5 1022 60 14484 2.1 0 20:57 29.12.2019
1745 Clouds 5 1022 56 16093 6.31 104 20:38 29.12.2019
1746 Clouds 5 1022 56 16093 5.1 104 20:20 29.12.2019
1747 Rain 6 1021 65 16093 4.1 50 19:58 29.12.2019
1748 Clouds 6 1022 70 0 3.6 50 19:39 29.12.2019
1749 Clouds 6 1023 56 16093 2.1 70 19:20 29.12.2019
1750 Rain 6 1022 65 16093 3.1 50 18:56 29.12.2019
1751 Clouds 6 1023 52 16093 5.2 115 18:38 29.12.2019
1752 Clouds 6 1024 56 16093 1.5 0 18:19 29.12.2019
1753 Clouds 6 1023 65 16093 4.6 40 17:57 29.12.2019
1754 Clouds 6 1024 56 16093 3.6 60 17:39 29.12.2019
1755 Clear 5 1025 56 16093 2.1 0 17:20 29.12.2019
1756 Clouds 5 1024 65 16093 3.6 60 16:56 29.12.2019
1757 Clear 5 1025 68 16093 4.58 73 16:37 29.12.2019
1758 Clear 5 1025 68 16093 4.58 73 16:19 29.12.2019
1759 Clouds 4 1025 64 16093 4.6 60 15:57 29.12.2019
1760 Clouds 4 1025 70 0 4.1 60 15:38 29.12.2019
1761 Clouds 3 1025 60 14484 4.1 90 15:19 29.12.2019
1762 Clouds 3 1025 69 16093 4.1 50 14:57 29.12.2019
1763 Clouds 3 1024 68 16093 4.58 73 14:38 29.12.2019
1764 Clouds 1 1024 80 16093 2.12 316 14:18 29.12.2019
1765 Clouds 1 1024 63 16093 2.12 316 13:57 29.12.2019
1766 Clouds 1 1024 62 16093 1.78 328 13:38 29.12.2019
1767 Clouds 1 1024 62 16093 1.78 328 13:19 29.12.2019
1768 Clear 0 1024 80 16093 1.78 328 12:45 29.12.2019
1769 Clear 0 1024 80 16093 1.78 328 12:27 29.12.2019
1770 Clouds 0 1023 69 16093 2.1 70 11:58 29.12.2019
1771 Clouds 0 1023 80 16093 1.78 328 11:39 29.12.2019
1772 Clouds 1 1023 74 16093 4.24 307 11:20 29.12.2019
1773 Clouds 1 1022 65 16093 4.24 307 10:55 29.12.2019
1774 Clouds 1 1023 67 16093 4.24 307 10:37 29.12.2019
1775 Clouds 1 1023 67 16093 4.24 307 10:18 29.12.2019
1776 Clouds 1 1024 80 16093 4.24 307 09:41 29.12.2019
1777 Clouds 1 1024 80 16093 4.24 307 09:22 29.12.2019
1778 Clouds 1 1023 80 16093 4.24 307 08:48 29.12.2019
1779 Clouds 1 1023 80 16093 3.73 307 08:28 29.12.2019
1780 Clouds 2 1023 80 16093 5.04 320 07:57 29.12.2019
1781 Clear 2 1024 74 16093 5.04 320 07:29 29.12.2019
1782 Clear 2 1024 74 16093 5.04 320 07:29 29.12.2019
1783 Clouds 2 1024 65 16093 3.1 310 06:57 29.12.2019
1784 Clear 2 1024 80 16093 5.04 320 06:26 29.12.2019
1785 Clear 3 1024 69 16093 5.04 320 05:54 29.12.2019
1786 Clear 3 1024 60 16093 5.42 315 04:37 29.12.2019
1787 Clouds 3 1024 52 16093 4.6 320 03:59 29.12.2019
1788 Clear 4 1025 52 16093 5.42 315 03:21 29.12.2019
1789 Clear 5 1024 49 16093 5.62 357 02:21 29.12.2019
1790 Clear 5 1024 72 16093 5.62 357 01:42 29.12.2019
1791 Clear 5 1024 49 16093 4.9 348 01:22 29.12.2019
1792 Clear 5 1023 68 16093 4.9 348 00:42 29.12.2019
1793 Clear 5 1023 68 16093 4.9 348 00:24 29.12.2019
1794 Clear 6 1023 68 16093 4.9 348 23:45 28.12.2019
1795 Clear 7 1024 49 16093 1.5 0 23:18 28.12.2019
1796 Clouds 8 1023 49 16093 3.1 340 22:54 28.12.2019
1797 Clear 8 1023 67 16093 4.08 300 22:36 28.12.2019
1798 Clear 9 1024 49 16093 2.6 0 22:18 28.12.2019
1799 Clouds 9 1023 57 16093 3.1 260 21:55 28.12.2019
1800 Clear 9 1023 67 16093 3.1 320 21:36 28.12.2019
1801 Clear 10 1023 46 16093 2.6 260 21:18 28.12.2019
1802 Clear 10 1022 67 16093 3.6 320 20:38 28.12.2019
1803 Clear 10 1022 71 16093 3.6 320 20:20 28.12.2019
1804 Clear 10 1023 46 16093 2.1 0 19:59 28.12.2019
1805 Clear 10 1022 53 16093 4.6 310 19:40 28.12.2019
1806 Clear 10 1023 49 16093 3.6 300 19:22 28.12.2019
1807 Clouds 10 1022 69 16093 5.7 320 18:59 28.12.2019
1808 Clear 9 1023 53 16093 4.6 310 18:40 28.12.2019
1809 Clear 9 1023 49 16093 3.6 290 18:20 28.12.2019
1810 Clouds 9 1023 69 16093 6.2 320 17:57 28.12.2019
1811 Clear 9 1023 66 16093 3.6 330 17:38 28.12.2019
1812 Clear 9 1024 57 16093 2.6 0 17:19 28.12.2019
1813 Clear 8 1024 75 16093 3.6 320 16:47 28.12.2019
1814 Clear 8 1024 75 16093 3.6 320 16:26 28.12.2019
1815 Clouds 8 1023 61 16093 5.1 320 15:57 28.12.2019
1816 Clear 7 1024 93 11265 4.65 321 15:39 28.12.2019
1817 Clear 7 1024 75 0 2.1 0 15:19 28.12.2019
1818 Mist 6 1024 93 6437 4.65 321 14:44 28.12.2019
1819 Mist 5 1024 93 6437 6.71 315 14:24 28.12.2019
1820 Mist 5 1023 100 8047 3.6 270 13:57 28.12.2019
1821 Mist 5 1023 87 8047 2.1 290 13:38 28.12.2019
1822 Clear 5 1023 81 11265 2.6 270 13:19 28.12.2019
1823 Clouds 4 1022 93 0 3.1 250 12:44 28.12.2019
1824 Clouds 4 1022 93 0 3.1 250 12:44 28.12.2019
1825 Clouds 4 1022 93 0 3.1 250 12:25 28.12.2019
1826 Mist 4 1022 87 9656 3.1 0 11:59 28.12.2019
1827 Fog 4 1021 93 805 6.52 316 11:39 28.12.2019
1828 Mist 5 1020 100 4828 3.81 307 11:20 28.12.2019
1829 Mist 5 1021 93 4828 3.81 307 10:46 28.12.2019
1830 Mist 5 1021 93 4828 3.81 307 10:23 28.12.2019
1831 Mist 5 1021 87 8047 1.5 310 09:58 28.12.2019
1832 Mist 5 1020 100 2816 3.81 307 09:40 28.12.2019
1833 Mist 5 1021 87 9656 1.5 0 09:21 28.12.2019
1834 Mist 5 1021 93 8047 3.81 307 08:45 28.12.2019
1835 Mist 5 1021 93 8047 3.91 308 08:27 28.12.2019
1836 Clouds 6 1020 81 12874 2.6 310 07:59 28.12.2019
1837 Mist 6 1020 93 4828 4.32 285 07:39 28.12.2019
1838 Clouds 6 1020 81 12874 2.6 310 06:55 28.12.2019
1839 Clear 7 1021 87 16093 4.32 285 05:40 28.12.2019
1840 Clear 8 1021 81 16093 5.54 260 03:48 28.12.2019
1841 Clouds 8 1020 71 16093 3.1 250 02:50 28.12.2019
1842 Clear 9 1021 81 0 3.6 260 02:20 28.12.2019
1843 Rain 9 1020 66 16093 5.7 270 01:53 28.12.2019
1844 Rain 9 1021 81 16093 2.1 280 01:22 28.12.2019
1845 Clear 9 1021 76 16093 5.36 257 00:42 28.12.2019
1846 Clouds 9 1021 71 0 3.1 260 00:23 28.12.2019
1847 Clear 9 1021 76 16093 5.36 257 00:23 28.12.2019
1848 Rain 9 1020 66 16093 5.1 240 23:56 27.12.2019
1849 Rain 9 1021 76 16093 5.36 257 23:36 27.12.2019
1850 Clouds 10 1021 66 16093 2.1 280 23:18 27.12.2019
1851 Clouds 11 1021 66 16093 4.87 257 22:55 27.12.2019
1852 Clouds 11 1021 66 16093 4.87 257 22:37 27.12.2019
1853 Clouds 11 1021 66 16093 4.87 257 22:19 27.12.2019
1854 Clouds 11 1021 66 16093 4.87 257 21:41 27.12.2019
1855 Clouds 11 1021 66 16093 2.6 220 21:23 27.12.2019
1856 Clouds 11 1021 66 16093 4.87 257 20:44 27.12.2019
1857 Clouds 11 1021 71 0 3.6 250 20:26 27.12.2019
1858 Rain 11 1021 81 16093 3.6 200 19:57 27.12.2019
1859 Rain 11 1021 81 16093 3.6 200 19:57 27.12.2019
1860 Rain 11 1022 66 16093 5.07 229 19:38 27.12.2019
1861 Rain 11 1022 66 16093 5.07 229 19:38 27.12.2019
1862 Rain 11 1022 66 16093 2.1 240 19:19 27.12.2019
1863 Rain 11 1022 76 0 3.1 250 18:55 27.12.2019
1864 Clouds 11 1023 71 16093 4.1 230 18:36 27.12.2019
1865 Clouds 11 1024 71 16093 3.6 230 18:18 27.12.2019
1866 Clouds 10 1024 71 16093 2.6 250 17:42 27.12.2019
1867 Clouds 10 1025 66 16093 5.01 203 17:20 27.12.2019
1868 Clouds 10 1024 62 16093 5.7 210 16:59 27.12.2019
1869 Clouds 9 1025 71 16093 6.2 220 16:41 27.12.2019
1870 Clouds 9 1026 71 16093 5.01 203 16:22 27.12.2019
1871 Clouds 9 1025 62 16093 6.2 210 15:57 27.12.2019
1872 Clouds 8 1026 76 16093 3.1 190 15:37 27.12.2019
1873 Clouds 8 1026 71 16093 2.1 0 15:19 27.12.2019
1874 Clouds 7 1026 66 16093 4.6 210 14:55 27.12.2019
1875 Clouds 7 1026 81 16093 5.01 203 14:37 27.12.2019
1876 Clouds 7 1026 81 16093 5.35 172 14:19 27.12.2019
1877 Clouds 6 1026 81 16093 5.94 169 13:46 27.12.2019
1878 Clouds 6 1026 81 16093 5.94 169 13:23 27.12.2019
1879 Clouds 6 1027 93 16093 3.1 190 12:49 27.12.2019
1880 Clouds 6 1026 81 12874 5.94 169 12:29 27.12.2019
1881 Clouds 6 1026 70 16093 3.1 190 11:59 27.12.2019
1882 Clouds 6 1027 76 16093 2.1 160 11:41 27.12.2019
1883 Clouds 6 1027 76 16093 3.1 150 11:20 27.12.2019
1884 Clouds 6 1027 87 16093 6.36 152 10:47 27.12.2019
1885 Clouds 6 1027 87 0 2.1 180 10:24 27.12.2019
1886 Clouds 6 1027 87 16093 2.6 50 09:59 27.12.2019
1887 Clouds 6 1027 81 16093 3.6 150 09:39 27.12.2019
1888 Clouds 6 1027 87 16093 6.36 152 09:21 27.12.2019
1889 Clouds 6 1028 87 16093 4.1 150 08:49 27.12.2019
1890 Clouds 6 1027 81 16093 6.36 152 08:30 27.12.2019
1891 Clouds 6 1028 81 16093 6.36 141 07:49 27.12.2019
1892 Clouds 6 1028 81 16093 6.36 141 07:28 27.12.2019
1893 Clouds 6 1028 81 16093 1.5 10 06:36 27.12.2019
1894 Clouds 6 1029 75 16093 3.1 0 04:58 27.12.2019
1895 Clouds 6 1029 81 16093 7.06 116 02:49 27.12.2019
1896 Clouds 5 1028 75 16093 3.6 40 01:59 27.12.2019
1897 Clouds 5 1029 75 16093 3.1 50 01:24 27.12.2019
1898 Clouds 5 1028 81 16093 4.1 40 00:54 27.12.2019
1899 Clouds 5 1029 81 16093 3.1 50 00:34 27.12.2019
1900 Clouds 5 1028 81 0 3.6 50 23:59 26.12.2019
1901 Clouds 5 1028 81 16093 3.1 30 23:41 26.12.2019
1902 Clouds 5 1028 75 16093 3.35 36 23:21 26.12.2019
1903 Clouds 5 1028 81 0 4.1 50 22:45 26.12.2019
1904 Clouds 6 1028 81 0 4.1 50 22:22 26.12.2019
1905 Clouds 6 1028 75 16093 3.1 30 21:59 26.12.2019
1906 Clouds 6 1027 75 14484 4.1 20 21:38 26.12.2019
1907 Clouds 6 1028 80 12874 4.6 60 21:20 26.12.2019
1908 Clouds 6 1027 80 14484 4.6 50 20:46 26.12.2019
1909 Clouds 6 1027 75 14484 3.1 50 20:23 26.12.2019
1910 Clouds 6 1027 75 14484 3.1 50 20:23 26.12.2019
1911 Clouds 6 1027 75 14484 3.1 0 19:59 26.12.2019
1912 Clouds 6 1026 70 16093 2.6 50 19:40 26.12.2019
1913 Clouds 6 1027 65 16093 4.21 42 19:21 26.12.2019
1914 Clouds 6 1027 80 16093 6.7 40 18:58 26.12.2019
1915 Clouds 6 1027 80 11265 2.6 50 18:39 26.12.2019
1916 Clouds 5 1027 70 16093 4.21 42 18:19 26.12.2019
1917 Clouds 5 1027 75 16093 4.21 42 17:55 26.12.2019
1918 Clouds 5 1027 75 16093 4.21 42 17:37 26.12.2019
1919 Clear 4 1027 81 0 4.6 40 17:18 26.12.2019
1920 Clouds 3 1027 80 11265 5.64 50 16:41 26.12.2019
1921 Clear 3 1027 86 0 4.6 50 16:22 26.12.2019
1922 Clouds 2 1027 86 16093 6.2 50 15:56 26.12.2019
1923 Mist 2 1027 86 8047 5.64 50 15:37 26.12.2019
1924 Mist 2 1027 86 8047 5.64 50 15:18 26.12.2019
1925 Mist 1 1027 93 4828 4.1 10 14:40 26.12.2019
1926 Clouds 0 1026 85 16093 3.4 45 14:21 26.12.2019
1927 Mist 0 1025 93 4828 3.1 50 13:43 26.12.2019
1928 Clouds 0 1025 93 0 3.6 70 13:21 26.12.2019
1929 Clouds 0 1025 93 0 3.6 70 13:21 26.12.2019
1930 Mist 0 1025 93 4023 2.6 70 12:58 26.12.2019
1931 Mist 0 1025 93 4023 2.6 70 12:58 26.12.2019
1932 Mist -1 1025 86 8047 2.6 50 12:39 26.12.2019
1933 Clouds -1 1024 86 16093 3.89 51 12:20 26.12.2019
1934 Fog -1 1024 93 201 2.6 30 11:57 26.12.2019
1935 Clouds -1 1024 82 16093 2.6 20 11:39 26.12.2019
1936 Mist -1 1024 86 9656 3.74 21 11:20 26.12.2019
1937 Clouds -1 1023 86 11265 2.1 30 10:47 26.12.2019
1938 Mist -1 1024 86 9656 1.5 20 10:19 26.12.2019
1939 Mist -1 1024 86 9656 1.5 20 10:19 26.12.2019
1940 Clouds -1 1023 93 11265 2.6 40 09:50 26.12.2019
1941 Clear -1 1023 78 16093 3.74 21 09:32 26.12.2019
1942 Mist -1 1023 93 9656 2.1 50 08:55 26.12.2019
1943 Clear -1 1023 86 16093 3.74 21 08:37 26.12.2019
1944 Clouds -1 1022 86 16093 2.1 40 08:18 26.12.2019
1945 Clear -1 1022 86 16093 1.86 290 07:31 26.12.2019
1946 Clouds 0 1022 86 11265 2.6 40 06:54 26.12.2019
1947 Clouds 0 1022 86 11265 2.6 40 06:54 26.12.2019
1948 Clear -1 1022 86 16093 1.86 290 06:32 26.12.2019
1949 Clear 0 1022 86 16093 1.86 290 05:46 26.12.2019
1950 Clouds -1 1022 86 12874 2.6 60 04:59 26.12.2019
1951 Clear 0 1022 71 16093 2.02 267 04:32 26.12.2019
1952 Clouds 0 1022 86 16093 2.02 267 03:19 26.12.2019
1953 Clouds 0 1022 86 16093 2.02 267 02:40 26.12.2019
1954 Clouds 0 1022 86 16093 2.23 205 02:19 26.12.2019
1955 Clear 1 1022 74 16093 2.23 205 01:41 26.12.2019
1956 Clear 1 1022 74 16093 2.23 205 01:22 26.12.2019
1957 Clear 2 1021 80 16093 1.88 188 00:41 26.12.2019
1958 Clouds 2 1021 70 16093 1.5 180 00:22 26.12.2019
1959 Clear 3 1021 70 16093 1.88 188 23:42 25.12.2019
1960 Clear 4 1021 68 16093 1.24 96 23:21 25.12.2019
1961 Clouds 4 1021 69 16093 3.1 70 22:59 25.12.2019
1962 Clear 5 1021 56 16093 1.24 96 22:40 25.12.2019
1963 Clear 5 1021 56 16093 1.24 96 22:22 25.12.2019
1964 Clear 5 1021 56 16093 1.24 96 22:22 25.12.2019
1965 Clouds 6 1021 65 16093 3.1 60 21:59 25.12.2019
1966 Clear 6 1021 49 16093 1.24 96 21:40 25.12.2019
1967 Clear 7 1021 52 0 1.24 96 21:22 25.12.2019
1968 Clouds 7 1021 56 16093 3.6 60 20:58 25.12.2019
1969 Clear 7 1021 52 16093 1.24 96 20:40 25.12.2019
1970 Clouds 7 1022 52 16093 2.6 240 20:18 25.12.2019
1971 Clouds 7 1021 56 16093 3.6 40 19:57 25.12.2019
1972 Clear 7 1022 52 16093 0.41 340 19:39 25.12.2019
1973 Clear 7 1022 52 0 2.1 250 19:21 25.12.2019
1974 Clear 6 1023 52 16093 0.41 340 18:39 25.12.2019
1975 Clear 6 1023 52 16093 0.41 340 18:20 25.12.2019
1976 Clear 5 1024 51 16093 0.41 340 17:57 25.12.2019
1977 Clear 5 1024 51 16093 0.41 340 17:36 25.12.2019
1978 Clear 4 1024 55 16093 1.5 0 17:18 25.12.2019
1979 Clear 3 1025 48 16093 2.45 21 16:39 25.12.2019
1980 Clear 3 1025 55 16093 2.1 60 16:20 25.12.2019
1981 Clouds 2 1024 55 16093 3.1 50 15:58 25.12.2019
1982 Clear 2 1024 55 16093 2.45 21 15:40 25.12.2019
1983 Clear 1 1024 55 16093 2.45 21 15:21 25.12.2019
1984 Clouds 1 1024 51 16093 3.1 50 14:59 25.12.2019
1985 Clear 0 1024 68 16093 2.45 21 14:40 25.12.2019
1986 Clear -3 1024 59 16093 3.5 28 14:22 25.12.2019
1987 Clouds -3 1024 55 16093 2.6 360 13:57 25.12.2019
1988 Clear -4 1024 68 16093 3.5 28 13:39 25.12.2019
1989 Clear -4 1024 68 16093 3.73 23 13:19 25.12.2019
1990 Clear -3 1023 68 16093 3.73 23 12:43 25.12.2019
1991 Clouds -3 1023 63 16093 1.5 20 12:21 25.12.2019
1992 Clouds -3 1023 55 16093 2.6 40 11:57 25.12.2019
1993 Clear -3 1023 58 16093 3.73 23 11:39 25.12.2019
1994 Clear -3 1023 50 16093 2.1 30 11:20 25.12.2019
1995 Clear -3 1023 62 16093 3.65 48 10:39 25.12.2019
1996 Clear -3 1023 47 16093 2.6 50 10:21 25.12.2019
1997 Clouds -2 1023 51 16093 2.1 40 09:51 25.12.2019
1998 Clear -2 1023 62 16093 3.65 48 09:33 25.12.2019
1999 Clouds -2 1022 51 16093 2.1 10 08:52 25.12.2019
2000 Clear -2 1023 50 16093 3.65 48 08:32 25.12.2019
2001 Clouds -2 1022 51 16093 2.6 20 07:59 25.12.2019
2002 Clear -2 1022 47 16093 3.6 50 07:40 25.12.2019
2003 Clear -1 1023 47 16093 1.5 40 07:21 25.12.2019
2004 Clear -1 1023 43 16093 4.09 45 06:24 25.12.2019
2005 Clear -1 1022 43 16093 4.09 45 05:44 25.12.2019
2006 Clear 0 1023 40 16093 4.6 50 04:40 25.12.2019
2007 Clear 1 1023 44 16093 5.39 22 04:20 25.12.2019
2008 Clear 1 1023 38 16093 3.1 40 03:43 25.12.2019
2009 Clear 2 1023 41 16093 5.39 22 02:57 25.12.2019
2010 Clear 2 1023 41 16093 5.39 22 02:28 25.12.2019
2011 Clear 2 1022 35 16093 6.46 19 01:42 25.12.2019
2012 Clouds 2 1022 41 16093 4.6 30 01:18 25.12.2019
2013 Clear 3 1022 30 16093 6.94 21 00:41 25.12.2019
2014 Clear 3 1022 30 16093 6.94 21 00:22 25.12.2019
2015 Clear 5 1021 30 16093 2.6 30 23:39 24.12.2019
2016 Clear 5 1022 35 16093 2.1 0 23:20 24.12.2019
2017 Clear 6 1021 31 16093 6.21 7 22:42 24.12.2019
2018 Clear 7 1021 31 16093 6.21 7 22:24 24.12.2019
2019 Clouds 7 1021 39 16093 4.6 360 21:59 24.12.2019
2020 Clear 8 1020 31 16093 4.1 60 21:41 24.12.2019
2021 Clear 8 1020 31 16093 4.1 60 21:20 24.12.2019
2022 Clear 8 1019 34 16093 1.5 20 20:42 24.12.2019
2023 Clear 8 1019 34 16093 1.5 20 20:23 24.12.2019
2024 Clouds 8 1019 39 16093 4.6 350 19:55 24.12.2019
2025 Clear 8 1020 34 16093 5.74 12 19:37 24.12.2019
2026 Clear 8 1020 39 16093 4.1 20 19:18 24.12.2019
2027 Clear 8 1020 36 16093 5.74 12 18:42 24.12.2019
2028 Clear 8 1021 42 16093 2.1 0 18:19 24.12.2019
2029 Clear 7 1021 45 16093 5.74 12 17:44 24.12.2019
2030 Clear 7 1021 48 16093 4.6 30 17:22 24.12.2019
2031 Clear 7 1021 48 16093 4.6 30 17:22 24.12.2019
2032 Clouds 7 1021 45 16093 4.6 20 16:58 24.12.2019
2033 Clear 6 1021 48 16093 5.7 60 16:40 24.12.2019
2034 Clear 6 1021 48 16093 5.7 60 16:21 24.12.2019
2035 Clear 6 1021 48 16093 5.7 60 16:21 24.12.2019
2036 Clouds 6 1021 48 16093 6.7 20 15:58 24.12.2019
2037 Clouds 6 1021 48 16093 6.7 20 15:58 24.12.2019
2038 Clear 5 1021 56 16093 4.6 70 15:37 24.12.2019
2039 Clear 5 1021 52 16093 3.1 0 15:19 24.12.2019
2040 Clouds 4 1021 52 16093 6.2 30 14:58 24.12.2019
2041 Clear 4 1019 62 16093 7.89 16 14:40 24.12.2019
2042 Clear 3 1019 81 16093 5.24 36 14:22 24.12.2019
2043 Clear 2 1019 81 16093 5.24 36 13:56 24.12.2019
2044 Clear 2 1019 81 16093 5.24 36 13:38 24.12.2019
2045 Clear 2 1019 60 16093 3.6 30 13:20 24.12.2019
2046 Clouds 2 1019 60 16093 2.6 10 12:57 24.12.2019
2047 Clear 3 1018 81 16093 5.04 37 12:38 24.12.2019
2048 Clouds 3 1018 81 16093 3.6 320 12:19 24.12.2019
2049 Clouds 3 1017 60 16093 4.1 20 11:57 24.12.2019
2050 Clear 3 1017 65 0 2.1 0 11:38 24.12.2019
2051 Clear 4 1017 56 16093 7.88 319 11:20 24.12.2019
2052 Clouds 3 1016 60 16093 1.5 40 10:57 24.12.2019
2053 Clouds 3 1016 60 16093 1.5 40 10:57 24.12.2019
2054 Clear 3 1016 65 16093 3.1 310 10:38 24.12.2019
2055 Clouds 3 1016 60 16093 5.1 300 10:20 24.12.2019
2056 Clouds 3 1016 69 16093 3.6 290 09:57 24.12.2019
2057 Clear 3 1016 64 16093 7.88 319 09:39 24.12.2019
2058 Clear 3 1016 64 16093 7.88 319 09:39 24.12.2019
2059 Clear 3 1016 64 16093 7.88 319 09:21 24.12.2019
2060 Clear 4 1015 60 16093 3.6 280 08:47 24.12.2019
2061 Clear 4 1015 60 16093 3.6 280 08:24 24.12.2019
2062 Clouds 4 1014 48 16093 2.6 220 07:59 24.12.2019
2063 Clear 4 1015 60 16093 6.51 282 07:39 24.12.2019
2064 Clear 4 1015 56 0 3.1 250 07:21 24.12.2019
2065 Clear 5 1015 60 16093 6.51 282 06:40 24.12.2019
2066 Clear 5 1015 60 16093 6.51 282 06:19 24.12.2019
2067 Clouds 5 1014 45 16093 3.1 220 05:53 24.12.2019
2068 Clear 5 1014 42 16093 2.6 220 05:19 24.12.2019
2069 Clear 5 1015 56 16093 7.57 265 04:21 24.12.2019
2070 Clear 5 1015 52 0 2.1 250 03:48 24.12.2019
2071 Clear 6 1015 49 16093 2.6 270 02:29 24.12.2019
2072 Clear 7 1016 49 16093 2.6 270 01:55 24.12.2019
2073 Clear 7 1016 42 16093 6.25 249 01:26 24.12.2019
2074 Clouds 7 1015 27 16093 4.6 240 00:58 24.12.2019
2075 Clear 7 1016 37 16093 6.25 249 00:40 24.12.2019
2076 Clear 8 1016 37 0 3.6 260 00:20 24.12.2019
2077 Clear 8 1016 32 16093 6.25 249 23:43 23.12.2019
2078 Clear 9 1016 32 16093 6.18 254 23:24 23.12.2019
2079 Clouds 9 1016 25 16093 5.7 230 22:57 23.12.2019
2080 Clear 10 1017 30 16093 6.18 254 22:38 23.12.2019
2081 Clear 10 1017 30 16093 4.1 220 22:20 23.12.2019
2082 Clouds 10 1016 27 16093 5.7 230 21:57 23.12.2019
2083 Clear 11 1018 28 16093 4.1 270 21:37 23.12.2019
2084 Clear 11 1018 37 0 4.6 270 21:19 23.12.2019
2085 Clouds 12 1017 32 16093 4.6 230 20:59 23.12.2019
2086 Clear 12 1017 28 16093 6.18 254 20:41 23.12.2019
2087 Clear 12 1017 33 16093 2.1 0 20:19 23.12.2019
2088 Clear 12 1017 33 16093 2.1 0 19:59 23.12.2019
2089 Clear 12 1017 35 16093 2.6 280 19:41 23.12.2019
2090 Clear 12 1017 35 16093 2.6 280 19:22 23.12.2019
2091 Clouds 12 1017 37 16093 2.1 250 18:58 23.12.2019
2092 Clouds 12 1017 37 16093 2.1 250 18:58 23.12.2019
2093 Clear 12 1019 40 16093 5.15 244 18:39 23.12.2019
2094 Clear 11 1019 43 14484 1.5 0 18:21 23.12.2019
2095 Clouds 11 1019 40 16093 3.1 210 17:59 23.12.2019
2096 Clear 10 1020 45 16093 5.15 244 17:40 23.12.2019
2097 Clear 8 1021 49 12874 3.6 240 17:20 23.12.2019
2098 Clear 8 1020 45 16093 6.09 254 17:20 23.12.2019
2099 Clouds 8 1020 49 16093 2.6 220 16:58 23.12.2019
2100 Clear 7 1021 52 16093 1.5 260 16:40 23.12.2019
2101 Clear 6 1021 52 16093 6.09 254 16:19 23.12.2019
2102 Clear 6 1021 52 14484 2.6 210 15:58 23.12.2019
2103 Clear 5 1022 64 16093 6.09 254 15:37 23.12.2019
2104 Clear 4 1022 64 16093 6.09 254 15:19 23.12.2019
2105 Clear 3 1022 74 16093 6.09 254 14:57 23.12.2019
2106 Clear 3 1022 74 16093 6.09 254 14:39 23.12.2019
2107 Clear 1 1022 74 16093 6.23 256 14:19 23.12.2019
2108 Clouds 1 1022 74 11265 3.1 210 14:19 23.12.2019
2109 Clear 0 1022 74 11265 6.23 256 13:57 23.12.2019
2110 Clear 0 1022 74 16093 6.31 251 13:39 23.12.2019
2111 Clear 0 1022 74 16093 6.23 256 13:39 23.12.2019
2112 Clear 0 1022 69 0 3.6 290 13:20 23.12.2019
2113 Clouds 0 1021 74 12874 3.1 220 13:20 23.12.2019
2114 Clouds 1 1021 64 14484 3.1 210 12:55 23.12.2019
2115 Clear 1 1022 74 16093 6.31 251 12:37 23.12.2019
2116 Clear 1 1022 74 16093 6.31 251 12:37 23.12.2019
2117 Clear 1 1022 74 0 2.1 250 12:18 23.12.2019
2118 Clear 1 1021 74 16093 6.31 251 11:43 23.12.2019
2119 Clear 1 1021 60 16093 5.96 256 11:25 23.12.2019
2120 Clear 1 1021 64 16093 5.96 256 10:56 23.12.2019
2121 Clear 1 1022 69 16093 5.96 256 10:38 23.12.2019
2122 Clouds 1 1021 74 16093 3.1 220 10:20 23.12.2019
2123 Clouds 1 1021 64 16093 2.1 200 09:58 23.12.2019
2124 Clear 1 1022 69 16093 5.96 256 09:39 23.12.2019
2125 Clouds 1 1022 69 16093 3.1 220 09:20 23.12.2019
2126 Clear 1 1021 60 14484 5.96 256 08:55 23.12.2019
2127 Clear 1 1022 69 16093 6.62 247 08:37 23.12.2019
2128 Clouds 1 1022 74 16093 3.1 210 08:18 23.12.2019
2129 Clear 1 1022 69 16093 6.27 264 07:43 23.12.2019
2130 Clear 2 1022 69 16093 6.27 264 07:20 23.12.2019
2131 Clear 2 1022 69 16093 6.27 264 06:51 23.12.2019
2132 Clear 2 1022 64 16093 6.27 264 06:24 23.12.2019
2133 Clear 2 1023 60 16093 6.27 264 05:49 23.12.2019
2134 Clear 2 1023 60 16093 7.88 262 05:22 23.12.2019
2135 Clear 3 1024 52 12874 1.5 0 04:20 23.12.2019
2136 Clouds 3 1023 48 16093 5.7 240 02:55 23.12.2019
2137 Clear 3 1024 56 16093 2.6 270 02:28 23.12.2019
2138 Clouds 3 1023 48 16093 6.2 240 01:56 23.12.2019
2139 Clear 3 1025 52 16093 2.1 270 01:38 23.12.2019
2140 Clear 3 1024 48 14484 3.1 230 01:19 23.12.2019
2141 Clear 3 1024 52 16093 7.55 252 00:36 23.12.2019
2142 Clouds 3 1023 48 16093 2.1 250 23:58 22.12.2019
2143 Clear 3 1024 52 16093 2.1 270 23:39 22.12.2019
2144 Clear 4 1024 52 16093 2.1 270 23:20 22.12.2019
2145 Clouds 5 1023 48 16093 1.5 230 22:58 22.12.2019
2146 Clear 6 1024 45 16093 6.57 263 22:39 22.12.2019
2147 Clear 7 1024 48 14484 6.57 263 22:19 22.12.2019
2148 Clear 7 1024 48 14484 6.57 263 21:57 22.12.2019
2149 Clear 7 1024 42 16093 3.6 280 21:39 22.12.2019
2150 Clear 7 1024 42 16093 3.6 280 21:21 22.12.2019
2151 Clouds 7 1024 42 14484 4.1 230 20:57 22.12.2019
2152 Clear 7 1025 45 16093 6.2 280 20:38 22.12.2019
2153 Clear 7 1025 45 16093 6.2 280 20:18 22.12.2019
2154 Clouds 7 1025 45 11265 4.1 230 19:55 22.12.2019
2155 Rain 7 1026 48 16093 3.1 270 19:37 22.12.2019
2156 Rain 6 1026 48 9656 2.1 0 19:19 22.12.2019
2157 Rain 6 1027 56 16093 4.6 280 18:40 22.12.2019
2158 Rain 6 1027 56 16093 4.6 280 18:40 22.12.2019
2159 Rain 6 1027 56 0 2.6 240 18:22 22.12.2019
2160 Rain 5 1026 52 12874 2.1 310 17:55 22.12.2019
2161 Clear 4 1027 55 16093 7.04 245 17:37 22.12.2019
2162 Rain 3 1027 55 9656 2.1 0 17:18 22.12.2019
2163 Rain 3 1027 55 9656 2.1 0 17:18 22.12.2019
2164 Clouds 2 1027 51 12874 3.1 220 16:57 22.12.2019
2165 Clear 2 1029 64 16093 5.75 265 16:38 22.12.2019
2166 Clear 1 1029 69 0 4.1 250 16:20 22.12.2019
2167 Clear 0 1029 68 16093 5.75 265 15:56 22.12.2019
2168 Clear 0 1029 68 16093 5.75 265 15:37 22.12.2019
2169 Haze -1 1029 67 9656 5.75 265 15:19 22.12.2019
2170 Clouds -1 1028 59 11265 3.1 220 14:55 22.12.2019
2171 Clear -2 1029 73 16093 5.75 265 14:36 22.12.2019
2172 Clear -4 1029 80 0 4.1 260 14:18 22.12.2019
2173 Clouds -5 1029 68 12874 3.6 200 13:55 22.12.2019
2174 Clouds -5 1029 68 12874 3.6 200 13:55 22.12.2019
2175 Clear -5 1029 79 16093 6.17 248 13:36 22.12.2019
2176 Clear -5 1029 63 12874 1.5 0 13:18 22.12.2019
2177 Clear -5 1029 63 12874 1.5 0 13:18 22.12.2019
2178 Clouds -5 1029 67 16093 1.5 210 12:55 22.12.2019
2179 Clear -5 1029 79 16093 5.93 247 12:37 22.12.2019
2180 Clear -5 1029 86 0 3.1 270 12:18 22.12.2019
2181 Clear -5 1029 63 12874 1.5 0 12:18 22.12.2019
2182 Clear -5 1028 63 16093 1.5 210 11:55 22.12.2019
2183 Clear -5 1029 73 16093 5.93 247 11:36 22.12.2019
2184 Clear -5 1029 62 12874 2.6 260 11:18 22.12.2019
2185 Clear -5 1028 62 16093 3.1 220 10:54 22.12.2019
2186 Clear -5 1030 85 16093 3.96 265 10:36 22.12.2019
2187 Clear -5 1030 62 0 3.1 270 10:18 22.12.2019
2188 Clear -5 1030 85 16093 3.96 265 09:41 22.12.2019
2189 Clear -5 1030 85 16093 3.96 265 09:22 22.12.2019
2190 Clear -4 1031 85 16093 3.96 265 08:59 22.12.2019
2191 Clear -4 1031 62 0 2.6 270 08:39 22.12.2019
2192 Clear -5 1031 69 0 2.6 270 08:21 22.12.2019
2193 Clear -4 1031 86 16093 5.03 255 07:40 22.12.2019
2194 Clear -4 1031 64 16093 1.5 250 07:21 22.12.2019
2195 Clear -4 1031 79 16093 5.03 255 06:41 22.12.2019
2196 Clouds -4 1031 69 16093 2.1 220 05:56 22.12.2019
2197 Clear -4 1032 74 16093 1.5 210 05:24 22.12.2019
2198 Clear -3 1032 74 16093 3.86 252 04:30 22.12.2019
2199 Clear -3 1033 80 16093 3.86 252 03:58 22.12.2019
2200 Clear -3 1033 74 0 2.6 240 02:43 22.12.2019
2201 Clear -2 1033 80 16093 2.14 180 01:54 22.12.2019
2202 Clear -2 1033 80 16093 2.74 204 01:31 22.12.2019
2203 Clouds -2 1033 80 16093 1.5 220 00:48 22.12.2019
2204 Clouds -1 1033 64 16093 2.1 0 00:26 22.12.2019
2205 Clouds -1 1033 59 16093 3.1 80 23:57 21.12.2019
2206 Clouds -1 1033 59 16093 2.74 204 23:39 21.12.2019
2207 Clouds -1 1033 64 16093 1.22 119 23:20 21.12.2019
2208 Clear 0 1033 64 16093 1.22 119 22:46 21.12.2019
2209 Clouds 0 1034 59 16093 1.5 300 22:20 21.12.2019
2210 Clouds 1 1033 59 16093 2.1 50 21:58 21.12.2019
2211 Clouds 1 1034 69 0 1.5 0 21:40 21.12.2019
2212 Clouds 1 1034 55 16093 1.5 0 21:21 21.12.2019
2213 Clouds 1 1034 55 16093 2.1 30 20:59 21.12.2019
2214 Clouds 1 1034 59 16093 1.22 119 20:41 21.12.2019
2215 Clouds 0 1035 55 16093 1.36 350 20:22 21.12.2019
2216 Clouds 0 1035 59 0 2.1 260 19:59 21.12.2019
2217 Clouds 0 1035 64 16093 1.36 350 19:41 21.12.2019
2218 Clouds 0 1035 64 16093 1.36 350 19:20 21.12.2019
2219 Clouds 0 1034 58 16093 1.5 90 18:59 21.12.2019
2220 Clouds 0 1035 54 16093 1.5 250 18:40 21.12.2019
2221 Clear -1 1036 64 16093 1.36 350 18:22 21.12.2019
2222 Clear -1 1037 54 16093 1.36 350 17:55 21.12.2019
2223 Clear -2 1037 54 16093 1.36 350 17:37 21.12.2019
2224 Clear -2 1038 63 0 1.5 0 17:18 21.12.2019
2225 Clouds -2 1038 63 16093 2.1 70 16:54 21.12.2019
2226 Clear -3 1039 54 16093 2.97 11 16:36 21.12.2019
2227 Clear -3 1039 54 16093 2.97 11 16:36 21.12.2019
2228 Clear -3 1038 63 16093 1.5 310 16:18 21.12.2019
2229 Clouds -4 1038 63 16093 2.1 30 15:54 21.12.2019
2230 Clear -4 1039 62 16093 2.97 11 15:36 21.12.2019
2231 Clouds -5 1038 58 16093 2.1 30 15:18 21.12.2019
2232 Clear -5 1038 73 16093 2.97 11 14:40 21.12.2019
2233 Clear -6 1038 73 16093 3.13 40 14:22 21.12.2019
2234 Clouds -7 1038 58 16093 1.5 360 13:57 21.12.2019
2235 Clear -7 1038 62 16093 2.1 360 13:39 21.12.2019
2236 Clear -7 1038 62 16093 2.1 360 13:19 21.12.2019
2237 Clear -7 1037 62 16093 3.22 37 12:56 21.12.2019
2238 Clear -7 1037 62 16093 3.22 37 12:38 21.12.2019
2239 Clear -7 1037 62 16093 3.22 37 12:38 21.12.2019
2240 Clouds -7 1037 67 16093 5.1 20 12:19 21.12.2019
2241 Clear -7 1037 92 16093 3.22 37 11:45 21.12.2019
2242 Clear -6 1038 58 16093 1.5 340 11:26 21.12.2019
2243 Clouds -6 1037 58 16093 3.1 10 10:57 21.12.2019
2244 Clear -6 1038 62 16093 4.43 12 10:39 21.12.2019
2245 Clear -6 1038 62 16093 4.43 12 10:21 21.12.2019
2246 Clouds -6 1037 58 16093 3.1 10 09:57 21.12.2019
2247 Clear -6 1038 62 16093 4.43 12 09:39 21.12.2019
2248 Clear -6 1038 57 16093 1.5 360 09:19 21.12.2019
2249 Clear -6 1038 62 16093 4.43 12 08:46 21.12.2019
2250 Clear -6 1038 62 16093 4.43 12 08:26 21.12.2019
2251 Clear -6 1038 62 16093 4.83 10 07:47 21.12.2019
2252 Clear -6 1037 53 16093 3.1 0 07:23 21.12.2019
2253 Clear -5 1038 58 16093 4.83 10 06:47 21.12.2019
2254 Clear -5 1038 58 16093 4.83 10 06:28 21.12.2019
2255 Clear -5 1038 53 16093 5.1 360 05:58 21.12.2019
2256 Clouds -5 1038 53 16093 4.6 360 04:59 21.12.2019
2257 Clear -4 1038 58 16093 5.4 353 04:33 21.12.2019
2258 Clouds -4 1037 50 16093 3.1 350 03:56 21.12.2019
2259 Clear -3 1037 63 16093 5.4 353 02:23 21.12.2019
2260 Clear -3 1037 58 16093 5.26 346 01:42 21.12.2019
2261 Clear -3 1037 58 16093 4.56 355 01:23 21.12.2019
2262 Clear -2 1037 50 16093 4.56 355 00:39 21.12.2019
2263 Clear -2 1036 58 16093 2.6 290 00:20 21.12.2019
2264 Clear -2 1036 58 16093 4.56 355 23:39 20.12.2019
2265 Clear -2 1036 55 16093 5.74 339 23:20 20.12.2019
2266 Clear -1 1036 47 16093 3.6 340 22:57 20.12.2019
2267 Clear -1 1036 55 16093 3.6 330 22:38 20.12.2019
2268 Clear -1 1035 55 16093 2.6 290 22:18 20.12.2019
2269 Clear 0 1035 40 16093 4.1 340 21:41 20.12.2019
2270 Clear 0 1035 55 16093 2.1 0 21:21 20.12.2019
2271 Clear 0 1034 40 16093 4.6 320 20:59 20.12.2019
2272 Clear 0 1035 40 16093 4.1 320 20:38 20.12.2019
2273 Clear 0 1035 40 16093 4.1 320 20:19 20.12.2019
2274 Clear 0 1034 40 16093 4.1 340 19:56 20.12.2019
2275 Clear 0 1035 51 16093 3.6 350 19:38 20.12.2019
2276 Clear -1 1034 42 16093 2.1 0 19:18 20.12.2019
2277 Clear -1 1035 42 16093 4.1 320 18:41 20.12.2019
2278 Clear -1 1035 42 16093 4.1 320 18:22 20.12.2019
2279 Clear -2 1034 42 16093 5.7 310 17:58 20.12.2019
2280 Clear -2 1035 42 16093 4.1 340 17:39 20.12.2019
2281 Clear -2 1035 42 16093 4.1 340 17:20 20.12.2019
2282 Clear -3 1035 63 16093 3.1 330 16:57 20.12.2019
2283 Clear -3 1035 46 16093 4.1 340 16:38 20.12.2019
2284 Clear -3 1035 46 16093 4.1 340 16:38 20.12.2019
2285 Clear -3 1035 46 16093 4.1 340 16:19 20.12.2019
2286 Clear -4 1035 53 16093 4.1 360 15:55 20.12.2019
2287 Clear -4 1035 53 16093 4.1 360 15:37 20.12.2019
2288 Clear -4 1035 58 16093 1.5 350 15:18 20.12.2019
2289 Clear -5 1034 62 16093 2.6 330 14:42 20.12.2019
2290 Clear -6 1034 62 16093 3.6 310 14:24 20.12.2019
2291 Clear -6 1034 62 16093 4.1 340 13:57 20.12.2019
2292 Clear -6 1034 62 16093 4.1 340 13:38 20.12.2019
2293 Clear -6 1034 62 16093 7.51 319 13:19 20.12.2019
2294 Clear -6 1034 85 16093 3.1 320 12:57 20.12.2019
2295 Clear -6 1033 68 0 3.1 260 12:37 20.12.2019
2296 Clear -6 1033 68 0 3.1 260 12:18 20.12.2019
2297 Clear -6 1033 67 16093 7.51 319 11:57 20.12.2019
2298 Clear -6 1033 67 16093 7.51 319 11:39 20.12.2019
2299 Clouds -6 1033 67 16093 7.59 307 11:18 20.12.2019
2300 Clouds -6 1033 67 16093 7.59 307 11:18 20.12.2019
2301 Clouds -6 1033 67 16093 7.59 307 10:56 20.12.2019
2302 Clouds -6 1033 67 16093 7.59 307 10:38 20.12.2019
2303 Clouds -6 1033 67 16093 7.59 307 10:19 20.12.2019
2304 Clear -6 1032 73 16093 7.59 307 09:43 20.12.2019
2305 Clear -6 1032 73 16093 7.59 307 09:21 20.12.2019
2306 Clear -6 1032 73 16093 7.59 307 08:57 20.12.2019
2307 Clear -6 1032 73 16093 7.9 307 08:38 20.12.2019
2308 Clear -6 1032 73 16093 7.95 300 08:20 20.12.2019
2309 Clear -6 1031 62 16093 7.95 300 07:57 20.12.2019
2310 Clear -6 1031 62 16093 7.95 300 07:57 20.12.2019
2311 Clouds -6 1031 68 0 4.6 260 07:38 20.12.2019
2312 Clouds -6 1031 68 0 4.6 260 07:18 20.12.2019
2313 Clouds -6 1031 62 16093 3.6 310 06:46 20.12.2019
2314 Clouds -6 1031 58 16093 4.6 290 06:28 20.12.2019
2315 Clouds -6 1031 62 16093 7.95 300 05:48 20.12.2019
2316 Clouds -6 1031 57 16093 3.1 290 05:20 20.12.2019
2317 Clouds -6 1031 57 16093 7.66 308 03:50 20.12.2019
2318 Clouds -6 1031 57 16093 7.66 308 03:21 20.12.2019
2319 Clouds -6 1031 57 16093 10.08 316 02:30 20.12.2019
2320 Clear -6 1030 57 16093 3.6 320 01:36 20.12.2019
2321 Rain -6 1030 53 16093 4.1 320 00:58 20.12.2019
2322 Rain -5 1030 53 16093 3.1 320 00:36 20.12.2019
2323 Rain -5 1029 53 16093 2.1 330 23:58 19.12.2019
2324 Rain -5 1029 53 16093 2.1 330 23:40 19.12.2019
2325 Rain -5 1029 53 16093 4.6 310 23:21 19.12.2019
2326 Rain -5 1029 53 16093 4.6 310 23:21 19.12.2019
2327 Clear -5 1029 49 16093 4.6 310 22:40 19.12.2019
2328 Clear -4 1029 49 16093 4.6 310 22:22 19.12.2019
2329 Clear -4 1029 49 16093 3.1 300 21:59 19.12.2019
2330 Clear -4 1029 49 16093 3.1 300 21:41 19.12.2019
2331 Clear -4 1028 49 16093 5.7 290 21:20 19.12.2019
2332 Clear -4 1028 45 16093 4.6 290 20:58 19.12.2019
2333 Clear -4 1028 45 16093 6.7 310 20:38 19.12.2019
2334 Clear -4 1028 45 16093 6.7 310 20:20 19.12.2019
2335 Clear -4 1028 45 16093 6.7 320 19:59 19.12.2019
2336 Clear -4 1028 45 16093 6.7 320 19:59 19.12.2019
2337 Clear -4 1028 49 16093 7.2 320 19:40 19.12.2019
2338 Clear -5 1028 49 16093 7.2 320 19:20 19.12.2019
2339 Clear -5 1028 49 16093 6.7 300 18:59 19.12.2019
2340 Clear -5 1028 49 16093 6.7 300 18:40 19.12.2019
2341 Clear -5 1028 45 16093 7.2 310 18:40 19.12.2019
2342 Clear -5 1028 45 16093 7.2 310 18:20 19.12.2019
2343 Clear -6 1028 53 16093 7.7 310 17:57 19.12.2019
2344 Clear -6 1028 53 16093 7.7 310 17:38 19.12.2019
2345 Clear -6 1028 53 16093 7.7 310 17:18 19.12.2019
2346 Clear -7 1029 48 16093 5.7 310 16:57 19.12.2019
2347 Clouds -7 1029 48 16093 6.2 310 16:38 19.12.2019
2348 Clouds -7 1029 48 16093 6.2 310 16:20 19.12.2019
2349 Clouds -7 1029 48 16093 6.2 310 16:20 19.12.2019
2350 Clear -7 1029 52 16093 6.7 320 15:58 19.12.2019
2351 Clear -8 1028 62 0 4.1 250 15:39 19.12.2019
2352 Clear -8 1028 62 0 4.1 250 15:19 19.12.2019
2353 Clear -8 1028 57 16093 5.1 320 14:57 19.12.2019
2354 Clear -9 1027 57 16093 6.2 300 14:39 19.12.2019
2355 Clear -9 1027 57 16093 6.2 300 14:18 19.12.2019
2356 Clear -9 1026 56 16093 8.2 320 13:54 19.12.2019
2357 Clear -9 1026 56 16093 5.7 320 13:36 19.12.2019
2358 Clear -9 1026 56 16093 5.7 320 13:18 19.12.2019
2359 Clouds -9 1026 72 16093 3.6 330 12:54 19.12.2019
2360 Clear -9 1025 56 16093 6.7 320 12:36 19.12.2019
2361 Clear -9 1025 56 16093 6.7 320 12:18 19.12.2019
2362 Clear -9 1025 56 16093 5.7 310 11:42 19.12.2019
2363 Clear -9 1025 56 16093 5.7 310 11:20 19.12.2019
2364 Clear -9 1025 56 16093 5.7 310 11:20 19.12.2019
2365 Clear -9 1025 56 16093 5.7 310 11:20 19.12.2019
2366 Clear -9 1024 52 16093 6.2 300 10:59 19.12.2019
2367 Clear -9 1024 56 16093 7.7 310 10:38 19.12.2019
2368 Clear -9 1024 56 16093 7.7 310 10:20 19.12.2019
2369 Clear -9 1023 52 16093 5.7 310 09:57 19.12.2019
2370 Clear -9 1023 48 16093 7.7 310 09:38 19.12.2019
2371 Clear -9 1023 48 16093 7.7 310 09:19 19.12.2019
2372 Clear -9 1022 52 16093 6.7 310 08:55 19.12.2019
2373 Clear -9 1022 52 16093 6.7 310 08:55 19.12.2019
2374 Clear -8 1022 52 16093 6.7 310 08:37 19.12.2019
2375 Clear -8 1022 52 16093 6.7 310 08:18 19.12.2019
2376 Clear -8 1021 44 16093 8.2 320 07:54 19.12.2019
2377 Clear -8 1021 44 16093 7.7 310 07:36 19.12.2019
2378 Clear -8 1021 44 16093 7.7 310 07:18 19.12.2019
2379 Clear -7 1020 44 16093 8.2 310 06:42 19.12.2019
2380 Clear -7 1020 44 16093 10.3 310 06:24 19.12.2019
2381 Clear -6 1019 53 16093 7.2 320 05:47 19.12.2019
2382 Snow -6 1018 73 9656 6.7 310 05:27 19.12.2019
2383 Snow -4 1016 68 4023 10.8 300 03:58 19.12.2019
2384 Rain -3 1015 80 0 1.5 0 02:30 19.12.2019
2385 Rain -2 1014 74 4828 6.2 290 01:43 19.12.2019
2386 Rain -2 1014 79 805 3.6 300 01:21 19.12.2019
2387 Rain -2 1013 74 16093 2.6 290 00:39 19.12.2019
2388 Rain -2 1013 74 16093 2.6 290 00:39 19.12.2019
2389 Rain -2 1013 74 16093 2.6 290 00:19 19.12.2019
2390 Rain -1 1013 74 16093 6.2 300 23:45 18.12.2019
2391 Rain -1 1013 54 0 2.6 0 23:19 18.12.2019
2392 Rain -1 1012 86 4828 4.1 240 22:58 18.12.2019
2393 Rain 0 1012 59 14484 8.7 270 22:40 18.12.2019
2394 Rain 0 1012 59 14484 8.7 270 22:22 18.12.2019
2395 Snow 0 1011 80 402 8.7 320 21:59 18.12.2019
2396 Snow 1 1011 80 402 8.7 320 21:41 18.12.2019
2397 Clouds 1 1011 64 16093 5.7 290 21:21 18.12.2019
2398 Clouds 1 1011 64 16093 5.7 290 21:21 18.12.2019
2399 Clouds 1 1011 64 0 4.1 300 20:58 18.12.2019
2400 Clouds 1 1011 64 0 4.1 300 20:39 18.12.2019
2401 Clear 1 1011 59 16093 6.7 310 20:20 18.12.2019
2402 Clouds 1 1010 69 0 6.2 270 19:57 18.12.2019
2403 Clouds 1 1010 69 0 6.7 260 19:39 18.12.2019
2404 Clouds 1 1010 69 0 6.7 260 19:19 18.12.2019
2405 Clouds 1 1010 64 16093 5.1 280 18:59 18.12.2019
2406 Clouds 1 1011 64 16093 6.7 300 18:41 18.12.2019
2407 Clouds 2 1011 64 16093 6.7 300 18:22 18.12.2019
2408 Clouds 2 1011 64 16093 3.1 0 17:56 18.12.2019
2409 Clouds 2 1011 64 16093 7.7 290 17:38 18.12.2019
2410 Clouds 2 1011 64 16093 7.7 290 17:19 18.12.2019
2411 Clear 1 1012 69 16093 5.7 280 16:43 18.12.2019
2412 Clear 1 1012 69 16093 5.7 280 16:24 18.12.2019
2413 Clear 1 1012 64 16093 4.1 280 15:59 18.12.2019
2414 Clear 0 1012 64 16093 4.1 280 15:40 18.12.2019
2415 Clear 0 1012 64 16093 3.6 270 15:21 18.12.2019
2416 Clear 0 1012 59 16093 6.2 270 14:58 18.12.2019
2417 Clear -1 1012 64 16093 4.1 290 14:40 18.12.2019
2418 Clear -1 1012 66 16093 4.1 280 14:19 18.12.2019
2419 Clear -2 1011 59 16093 6.2 290 13:56 18.12.2019
2420 Clear -2 1011 59 16093 6.2 290 13:56 18.12.2019
2421 Clear -2 1012 80 16093 8.98 310 13:37 18.12.2019
2422 Clear -2 1012 80 16093 8.5 306 13:19 18.12.2019
2423 Clouds -1 1011 64 16093 5.1 290 12:57 18.12.2019
2424 Clear -1 1012 80 16093 2.1 310 12:37 18.12.2019
2425 Clear -1 1011 67 16093 4.1 290 12:19 18.12.2019
2426 Clouds -1 1011 64 16093 7.7 310 11:54 18.12.2019
2427 Clear -1 1011 86 16093 4.1 300 11:36 18.12.2019
2428 Clouds -1 1011 80 16093 3.1 280 11:18 18.12.2019
2429 Clear -1 1010 73 16093 10.59 317 10:55 18.12.2019
2430 Clear -1 1010 73 16093 10.59 317 10:36 18.12.2019
2431 Clear -1 1010 69 16093 2.6 280 10:18 18.12.2019
2432 Clear -1 1010 73 16093 4.1 310 09:21 18.12.2019
2433 Clear 0 1010 73 16093 4.1 320 08:57 18.12.2019
2434 Clouds 0 1009 69 16093 3.6 300 08:39 18.12.2019
2435 Rain 0 1009 69 16093 5.1 320 08:21 18.12.2019
2436 Rain 0 1009 74 0 1.5 0 07:43 18.12.2019
2437 Clouds 0 1009 74 0 1.5 0 07:22 18.12.2019
2438 Clouds 0 1008 74 16093 7.7 320 06:53 18.12.2019
2439 Clouds 0 1008 74 16093 5.7 330 06:26 18.12.2019
2440 Clouds 1 1008 74 0 10.74 319 05:44 18.12.2019
2441 Clouds 1 1007 86 16093 3.6 320 04:46 18.12.2019
2442 Clouds 0 1006 80 16093 5.1 330 02:55 18.12.2019
2443 Clouds 0 1006 86 16093 2.1 330 02:36 18.12.2019
2444 Clouds 0 1006 86 16093 2.6 0 02:18 18.12.2019
2445 Rain 0 1006 94 16093 6.23 336 01:40 18.12.2019
2446 Rain 0 1006 94 16093 6.23 336 01:21 18.12.2019
2447 Rain 0 1006 86 16093 2.6 0 00:40 18.12.2019
2448 Rain 0 1006 86 16093 1.5 0 00:22 18.12.2019
2449 Rain 0 1006 80 11265 6.2 350 23:56 17.12.2019
2450 Rain 0 1006 94 11265 6.23 336 23:37 17.12.2019
2451 Rain 1 1005 86 9656 6.06 11 23:18 17.12.2019
2452 Rain 1 1005 86 9656 6.06 11 23:18 17.12.2019
2453 Rain 0 1006 86 8047 1.5 320 22:55 17.12.2019
2454 Rain 1 1006 86 8047 1.5 320 22:37 17.12.2019
2455 Rain 1 1005 86 6437 3.6 20 22:18 17.12.2019
2456 Rain 1 1005 86 3219 3.6 10 21:55 17.12.2019
2457 Rain 1 1005 86 11265 5.1 30 21:37 17.12.2019
2458 Rain 1 1005 86 2816 4.1 30 21:18 17.12.2019
2459 Rain 1 1005 86 6437 5.7 10 20:56 17.12.2019
2460 Rain 1 1005 97 8047 4.1 30 20:37 17.12.2019
2461 Rain 1 1005 86 2816 5.1 40 20:18 17.12.2019
2462 Rain 1 1005 80 4828 6.7 40 19:55 17.12.2019
2463 Rain 1 1006 86 4023 3.6 40 19:37 17.12.2019
2464 Rain 1 1006 97 9656 3.1 60 19:18 17.12.2019
2465 Rain 1 1008 97 6437 3.6 60 18:42 17.12.2019
2466 Rain 1 1008 97 6437 3.6 60 18:42 17.12.2019
2467 Rain 1 1007 93 0 7.2 30 18:22 17.12.2019
2468 Rain 1 1007 93 0 7.2 30 17:59 17.12.2019
2469 Rain 1 1008 93 0 7.7 30 17:41 17.12.2019
2470 Rain 1 1008 86 8047 2.6 20 17:19 17.12.2019
2471 Rain 1 1009 80 4828 7.7 60 16:56 17.12.2019
2472 Rain 1 1011 97 8047 5.1 60 16:38 17.12.2019
2473 Rain 1 1010 93 0 5.7 30 16:37 17.12.2019
2474 Rain 1 1011 93 0 8.7 30 16:19 17.12.2019
2475 Rain 1 1011 93 0 8.7 30 15:56 17.12.2019
2476 Rain 0 1011 97 6437 3.1 40 15:37 17.12.2019
2477 Rain 0 1011 86 4828 3.6 40 15:19 17.12.2019
2478 Rain 0 1012 97 4023 9.8 60 14:55 17.12.2019
2479 Rain 0 1012 97 2414 6.7 30 14:37 17.12.2019
2480 Rain 0 1012 93 0 9.8 30 14:18 17.12.2019
2481 Rain 0 1013 96 3219 3.6 50 14:18 17.12.2019
2482 Rain 0 1013 86 8047 8.2 60 13:55 17.12.2019
2483 Rain 0 1014 96 4828 4.6 70 13:37 17.12.2019
2484 Rain 0 1014 96 6437 5.7 60 13:18 17.12.2019
2485 Rain 0 1014 86 9656 9.3 60 12:55 17.12.2019
2486 Rain 0 1015 93 0 7.7 30 12:37 17.12.2019
2487 Rain 0 1015 96 9656 5.1 30 12:18 17.12.2019
2488 Rain 0 1015 86 11265 8.7 50 11:54 17.12.2019
2489 Drizzle 0 1015 86 6437 5.1 90 11:36 17.12.2019
2490 Rain 0 1015 95 0 6.2 40 11:18 17.12.2019
2491 Rain 0 1016 95 11265 5.1 40 10:54 17.12.2019
2492 Rain 0 1016 80 11265 7.2 70 10:36 17.12.2019
2493 Rain 0 1017 86 6437 2.6 0 10:18 17.12.2019
2494 Rain 0 1018 95 0 3.6 40 09:42 17.12.2019
2495 Rain 0 1018 95 0 3.6 40 09:21 17.12.2019
2496 Rain 0 1018 95 0 3.6 40 09:21 17.12.2019
2497 Rain 0 1017 80 16093 6.2 70 08:57 17.12.2019
2498 Rain 0 1018 86 9656 4.1 70 08:38 17.12.2019
2499 Rain 0 1018 86 9656 4.1 70 08:38 17.12.2019
2500 Rain 0 1019 86 6437 2.6 0 08:38 17.12.2019
2501 Rain 0 1019 86 6437 2.6 0 08:20 17.12.2019
2502 Rain 0 1019 80 12874 5.1 70 07:56 17.12.2019
2503 Rain 0 1020 86 6437 2.1 0 07:38 17.12.2019
2504 Rain 0 1020 80 8047 3.6 90 07:18 17.12.2019
2505 Rain 0 1020 86 6437 5.97 68 06:36 17.12.2019
2506 Rain 0 1021 80 0 4.1 30 06:18 17.12.2019
2507 Rain 0 1022 80 11265 2.1 120 05:38 17.12.2019
2508 Rain 1 1022 86 8047 3.68 65 04:46 17.12.2019
2509 Rain 1 1023 69 12874 3.68 65 02:48 17.12.2019
2510 Rain 1 1023 47 16093 2.1 80 01:58 17.12.2019
2511 Drizzle 1 1024 74 16093 2.04 125 01:21 17.12.2019
2512 Rain 1 1024 74 16093 2.04 125 00:39 17.12.2019
2513 Rain 1 1024 74 16093 2.04 125 00:39 17.12.2019
2514 Rain 1 1024 74 16093 2.04 125 00:21 17.12.2019
2515 Rain 1 1024 74 16093 2.04 125 23:43 16.12.2019
2516 Clouds 1 1024 51 16093 1.5 40 23:20 16.12.2019
2517 Clouds 1 1024 69 16093 0.96 346 22:58 16.12.2019
2518 Clouds 1 1024 69 16093 0.96 346 22:38 16.12.2019
2519 Clouds 1 1024 69 16093 0.96 346 22:38 16.12.2019
2520 Clouds 1 1024 51 16093 0.96 346 22:20 16.12.2019
2521 Clouds 1 1024 74 14484 0.96 346 21:57 16.12.2019
2522 Clouds 1 1025 64 0 1.5 220 21:39 16.12.2019
2523 Snow 1 1024 69 12874 2.1 300 21:20 16.12.2019
2524 Clouds 1 1024 47 16093 3.6 320 20:58 16.12.2019
2525 Snow 2 1025 64 16093 2.6 300 20:39 16.12.2019
2526 Clouds 2 1025 47 16093 0.49 224 20:19 16.12.2019
2527 Clouds 2 1025 47 16093 0.49 224 20:19 16.12.2019
2528 Clouds 2 1025 59 16093 0.49 224 19:57 16.12.2019
2529 Clouds 2 1025 59 16093 0.49 224 19:37 16.12.2019
2530 Clouds 2 1025 64 0 3.1 260 19:19 16.12.2019
2531 Clouds 2 1024 43 16093 2.1 310 18:59 16.12.2019
2532 Clouds 2 1025 55 16093 0.49 224 18:41 16.12.2019
2533 Snow 2 1025 43 16093 2.1 290 18:20 16.12.2019
2534 Clouds 1 1025 43 16093 2.6 330 17:59 16.12.2019
2535 Clouds 1 1026 43 16093 0.49 224 17:40 16.12.2019
2536 Clouds 1 1026 51 0 2.6 0 17:21 16.12.2019
2537 Clouds 1 1025 43 16093 2.6 340 16:57 16.12.2019
2538 Clouds 1 1026 43 16093 0.8 311 16:39 16.12.2019
2539 Clouds 1 1026 43 16093 2.6 300 16:20 16.12.2019
2540 Clouds 1 1026 43 16093 3.1 320 15:59 16.12.2019
2541 Clouds 1 1026 47 16093 0.8 311 15:39 16.12.2019
2542 Clouds 1 1026 47 0 2.6 250 15:21 16.12.2019
2543 Rain 1 1025 47 16093 0.8 311 14:57 16.12.2019
2544 Rain 1 1025 47 16093 0.8 311 14:37 16.12.2019
2545 Rain 1 1025 47 16093 0.8 311 14:37 16.12.2019
2546 Clouds 1 1025 43 16093 2.6 280 14:19 16.12.2019
2547 Clouds 0 1025 47 16093 4.1 320 13:56 16.12.2019
2548 Clouds 0 1025 50 16093 1.81 327 13:38 16.12.2019
2549 Clouds 0 1024 47 0 1.5 0 13:19 16.12.2019
2550 Clouds 0 1025 50 16093 1.37 290 13:19 16.12.2019
2551 Clouds 0 1024 47 16093 2.6 330 12:58 16.12.2019
2552 Clouds 0 1024 50 16093 1.4 358 12:39 16.12.2019
2553 Clouds 0 1024 47 16093 4.6 320 12:19 16.12.2019
2554 Clouds 0 1024 47 16093 5.7 300 11:58 16.12.2019
2555 Clouds 0 1024 55 16093 1.4 358 11:40 16.12.2019
2556 Clear 0 1024 47 16093 1.5 0 11:20 16.12.2019
2557 Clouds 0 1024 43 16093 4.6 310 10:57 16.12.2019
2558 Clouds 0 1024 55 16093 2.8 353 10:39 16.12.2019
2559 Clouds 0 1024 47 16093 2.6 0 10:19 16.12.2019
2560 Clear 0 1024 51 16093 2.8 353 09:45 16.12.2019
2561 Clear 0 1024 51 16093 2.8 353 09:27 16.12.2019
2562 Clear 0 1024 51 16093 2.77 324 09:27 16.12.2019
2563 Clear 1 1023 51 16093 2.6 320 08:56 16.12.2019
2564 Clear 1 1023 51 16093 2.6 320 08:37 16.12.2019
2565 Clear 1 1023 47 16093 4.1 310 08:18 16.12.2019
2566 Clouds 1 1022 55 16093 6.58 316 07:46 16.12.2019
2567 Clouds 1 1022 55 16093 6.58 316 07:28 16.12.2019
2568 Clear 2 1021 51 16093 3.6 290 06:45 16.12.2019
2569 Clouds 2 1022 47 16093 4.1 300 06:26 16.12.2019
2570 Clear 2 1022 55 16093 6.58 316 05:52 16.12.2019
2571 Clear 2 1022 55 16093 6.58 316 05:33 16.12.2019
2572 Clouds 2 1020 55 0 1.5 0 04:22 16.12.2019
2573 Clear 3 1019 48 16093 8.8 293 02:31 16.12.2019
2574 Clear 4 1018 48 16093 6.7 290 01:45 16.12.2019
2575 Clear 4 1018 48 16093 6.7 290 01:45 16.12.2019
2576 Clear 5 1018 44 16093 6.7 300 00:43 16.12.2019
2577 Clear 5 1018 44 16093 6.7 300 00:25 16.12.2019
2578 Clouds 5 1016 48 16093 7.2 300 23:59 15.12.2019
2579 Clouds 5 1016 48 16093 7.2 300 23:40 15.12.2019
2580 Clouds 5 1015 38 16093 4.6 270 23:21 15.12.2019
2581 Clouds 5 1015 41 16093 8.7 270 22:56 15.12.2019
2582 Clouds 5 1015 41 16093 8.7 270 22:56 15.12.2019
2583 Clouds 6 1014 45 16093 9.8 310 22:37 15.12.2019
2584 Clouds 6 1014 45 0 6.2 270 22:18 15.12.2019
2585 Clouds 6 1013 36 16093 13.9 280 21:56 15.12.2019
2586 Clouds 7 1013 45 16093 8.2 300 21:38 15.12.2019
2587 Clouds 7 1013 36 16093 6.7 280 21:19 15.12.2019
2588 Clouds 7 1012 39 16093 10.3 280 20:56 15.12.2019
2589 Clouds 7 1012 39 16093 10.3 310 20:37 15.12.2019
2590 Clouds 7 1011 36 16093 6.2 290 20:19 15.12.2019
2591 Clouds 7 1011 39 16093 9.8 300 19:57 15.12.2019
2592 Clouds 8 1011 39 16093 9.8 300 19:39 15.12.2019
2593 Clouds 8 1010 39 16093 5.7 270 19:18 15.12.2019
2594 Clouds 8 1009 36 16093 10.3 290 18:56 15.12.2019
2595 Clouds 8 1009 36 16093 10.3 290 18:56 15.12.2019
2596 Clouds 8 1009 49 16093 11.3 320 18:38 15.12.2019
2597 Clouds 8 1009 49 16093 11.3 320 18:38 15.12.2019
2598 Clouds 8 1009 45 0 5.7 280 18:18 15.12.2019
2599 Clouds 8 1009 45 0 5.7 280 17:56 15.12.2019
2600 Clouds 8 1009 58 16093 8.2 290 17:37 15.12.2019
2601 Clouds 8 1009 52 16093 3.1 240 17:19 15.12.2019
2602 Clouds 8 1008 49 16093 10.3 260 16:56 15.12.2019
2603 Clouds 8 1009 65 16093 7.7 290 16:38 15.12.2019
2604 Clouds 8 1008 52 16093 4.1 260 16:20 15.12.2019
2605 Clouds 7 1007 52 16093 11.3 260 15:55 15.12.2019
2606 Clouds 7 1008 65 16093 12.49 270 15:55 15.12.2019
2607 Clouds 7 1008 65 16093 12.49 270 15:36 15.12.2019
2608 Clouds 7 1007 56 16093 4.1 270 15:18 15.12.2019
2609 Clouds 7 1007 52 16093 9.8 260 14:55 15.12.2019
2610 Clouds 6 1007 65 16093 4.6 280 14:36 15.12.2019
2611 Clouds 6 1006 65 0 5.7 270 14:18 15.12.2019
2612 Clouds 6 1006 65 0 5.7 270 14:18 15.12.2019
2613 Clouds 6 1006 56 16093 8.2 260 13:55 15.12.2019
2614 Clouds 6 1006 69 16093 5.7 290 13:36 15.12.2019
2615 Clouds 6 1005 56 16093 4.1 240 13:18 15.12.2019
2616 Clouds 6 1005 56 16093 8.7 260 12:56 15.12.2019
2617 Clouds 6 1005 69 16093 5.1 290 12:37 15.12.2019
2618 Clouds 6 1004 60 16093 6.2 240 12:19 15.12.2019
2619 Clear 6 1003 69 16093 6.7 290 11:38 15.12.2019
2620 Clouds 6 1003 67 16093 2.1 0 11:20 15.12.2019
2621 Clouds 6 1002 56 16093 7.7 260 10:58 15.12.2019
2622 Clouds 6 1002 67 16093 7.2 290 10:40 15.12.2019
2623 Clouds 6 1001 70 16093 4.1 240 10:20 15.12.2019
2624 Clouds 6 1001 56 16093 6.7 260 09:59 15.12.2019
2625 Clouds 6 1001 67 16093 4.1 280 09:38 15.12.2019
2626 Clouds 6 1000 67 16093 2.1 0 09:20 15.12.2019
2627 Clouds 6 1000 56 16093 6.2 270 08:55 15.12.2019
2628 Clouds 6 1000 67 16093 7.2 290 08:37 15.12.2019
2629 Clouds 6 999 70 16093 5.7 270 08:19 15.12.2019
2630 Clouds 6 998 56 16093 9.3 270 07:53 15.12.2019
2631 Clear 6 998 70 16093 6.7 280 07:32 15.12.2019
2632 Clouds 6 996 65 16093 1.5 0 06:30 15.12.2019
2633 Clouds 6 996 65 16093 7.2 300 05:50 15.12.2019
2634 Clouds 7 995 65 16093 6.2 260 05:23 15.12.2019
2635 Clouds 7 995 70 0 8.2 270 04:24 15.12.2019
2636 Rain 9 993 70 16093 6.2 250 03:22 15.12.2019
2637 Clouds 9 993 76 16093 5.7 270 02:32 15.12.2019
2638 Clouds 10 991 81 16093 10.8 230 01:43 15.12.2019
2639 Rain 10 991 81 16093 9.33 236 01:20 15.12.2019
2640 Rain 10 990 76 16093 7.7 260 00:53 15.12.2019
2641 Rain 10 990 100 16093 9.8 250 00:34 15.12.2019
2642 Rain 11 989 81 16093 6.2 230 23:58 14.12.2019
2643 Rain 11 990 93 0 5.7 260 23:38 14.12.2019
2644 Rain 11 989 100 16093 4.1 240 23:18 14.12.2019
2645 Rain 12 988 93 4828 6.2 240 22:57 14.12.2019
2646 Rain 12 988 93 4828 7.7 230 22:39 14.12.2019
2647 Rain 12 988 100 1609 7.2 200 22:20 14.12.2019
2648 Rain 12 989 93 0 3.1 0 21:55 14.12.2019
2649 Rain 12 989 93 0 3.1 0 21:55 14.12.2019
2650 Rain 12 989 100 0 8.61 217 21:37 14.12.2019
2651 Rain 12 989 100 6437 2.6 160 21:18 14.12.2019
2652 Rain 12 988 93 1207 8.7 170 20:54 14.12.2019
2653 Rain 12 990 100 2414 3.1 0 20:36 14.12.2019
2654 Rain 12 991 100 1207 2.6 110 20:18 14.12.2019
2655 Rain 12 991 100 1207 2.6 110 20:18 14.12.2019
2656 Drizzle 12 991 100 1207 1.5 0 19:40 14.12.2019
2657 Rain 11 992 93 2414 4.31 160 19:21 14.12.2019
2658 Drizzle 11 991 93 1207 2.6 60 18:57 14.12.2019
2659 Rain 11 993 100 0 3.6 40 18:39 14.12.2019
2660 Rain 11 994 100 1609 4.31 160 18:21 14.12.2019
2661 Rain 11 995 93 2816 4.31 160 17:59 14.12.2019
2662 Rain 11 995 93 2816 4.31 160 17:41 14.12.2019
2663 Rain 11 996 100 2012 1.5 330 17:22 14.12.2019
2664 Rain 11 997 100 2816 1.5 350 16:42 14.12.2019
2665 Mist 10 997 100 2816 1.5 350 16:19 14.12.2019
2666 Drizzle 10 997 93 805 1.69 263 15:57 14.12.2019
2667 Rain 10 998 93 3219 1.69 263 15:38 14.12.2019
2668 Rain 10 998 100 3219 1.69 263 15:20 14.12.2019
2669 Rain 10 997 93 1207 2.6 60 14:57 14.12.2019
2670 Rain 10 998 100 1609 1.5 40 14:38 14.12.2019
2671 Rain 10 998 100 1609 1.5 40 14:38 14.12.2019
2672 Rain 10 999 93 2414 5.45 188 14:19 14.12.2019
2673 Rain 10 999 100 2414 1.5 20 13:44 14.12.2019
2674 Rain 10 999 100 0 2.86 345 13:20 14.12.2019
2675 Rain 10 999 100 0 1.5 120 12:58 14.12.2019
2676 Rain 10 1000 93 805 6.54 172 12:40 14.12.2019
2677 Rain 10 1000 100 805 2.6 130 12:21 14.12.2019
2678 Rain 10 1000 93 8047 6.54 172 11:59 14.12.2019
2679 Drizzle 10 1001 93 8047 3.1 50 11:39 14.12.2019
2680 Rain 10 1001 100 8047 2.6 360 11:20 14.12.2019
2681 Rain 10 1002 93 0 4.6 50 10:57 14.12.2019
2682 Rain 10 1002 93 0 5.1 50 10:39 14.12.2019
2683 Rain 10 1002 93 0 5.1 50 10:21 14.12.2019
2684 Rain 10 1003 93 3219 6.7 50 09:57 14.12.2019
2685 Drizzle 10 1004 93 8047 5.1 50 09:39 14.12.2019
2686 Rain 10 1005 93 4023 4.6 50 09:19 14.12.2019
2687 Rain 10 1004 93 6437 3.6 360 08:43 14.12.2019
2688 Rain 10 1007 93 2816 5.7 60 08:20 14.12.2019
2689 Rain 10 1006 100 4828 2.6 360 08:20 14.12.2019
2690 Rain 10 1008 93 2414 5.7 60 07:44 14.12.2019
2691 Rain 10 1008 93 2414 9.8 50 07:24 14.12.2019
2692 Rain 10 1009 93 4023 9.3 50 06:57 14.12.2019
2693 Rain 9 1011 93 3219 5.1 70 06:38 14.12.2019
2694 Rain 9 1012 93 2816 4.1 60 06:18 14.12.2019
2695 Rain 9 1015 93 4023 2.6 60 04:48 14.12.2019
2696 Rain 8 1018 100 0 6.7 40 02:41 14.12.2019
2697 Rain 8 1019 100 3219 4.1 20 02:19 14.12.2019
2698 Rain 8 1020 93 3219 3.6 60 01:37 14.12.2019
2699 Rain 7 1020 100 0 5.1 40 00:50 14.12.2019
2700 Rain 7 1021 93 2414 4.6 40 00:29 14.12.2019
2701 Rain 7 1021 93 2414 4.6 40 00:29 14.12.2019
2702 Rain 7 1021 93 2414 7.2 50 23:57 13.12.2019
2703 Rain 7 1022 93 0 6.7 50 23:38 13.12.2019
2704 Rain 6 1023 93 6437 4.6 50 23:19 13.12.2019
2705 Rain 6 1022 87 4828 6.2 60 22:55 13.12.2019
2706 Rain 6 1023 93 6437 4.6 60 22:36 13.12.2019
2707 Rain 6 1023 93 6437 4.6 60 22:36 13.12.2019
2708 Rain 6 1024 93 4023 2.6 0 22:18 13.12.2019
2709 Drizzle 6 1023 81 11265 6.66 124 21:39 13.12.2019
2710 Drizzle 6 1023 81 11265 6.66 124 21:21 13.12.2019
2711 Rain 6 1024 81 8047 6.7 40 20:55 13.12.2019
2712 Mist 6 1025 87 6437 2.6 60 20:37 13.12.2019
2713 Mist 6 1024 81 9656 2.1 50 20:19 13.12.2019
2714 Mist 6 1025 86 11265 5.5 132 19:56 13.12.2019
2715 Clouds 6 1025 70 16093 5.5 132 19:36 13.12.2019
2716 Clouds 6 1025 70 16093 5.5 132 19:18 13.12.2019
2717 Clouds 6 1027 70 16093 5.5 132 18:41 13.12.2019
2718 Clouds 6 1027 70 16093 5.5 132 18:19 13.12.2019
2719 Clouds 6 1027 89 16093 5.5 132 17:58 13.12.2019
2720 Clouds 6 1028 75 16093 5.5 132 17:39 13.12.2019
2721 Clouds 5 1028 75 16093 8.67 147 17:18 13.12.2019
2722 Clouds 5 1028 75 16093 8.67 147 17:18 13.12.2019
2723 Rain 5 1028 86 16093 2.6 40 16:55 13.12.2019
2724 Rain 4 1029 69 16093 8.67 147 16:37 13.12.2019
2725 Rain 4 1029 69 16093 8.67 147 16:18 13.12.2019
2726 Clouds 4 1030 74 16093 8.67 147 15:41 13.12.2019
2727 Clouds 3 1030 74 16093 8.67 147 15:21 13.12.2019
2728 Clouds 2 1031 74 16093 8.67 147 14:57 13.12.2019
2729 Clouds 2 1030 74 16093 8.67 147 14:37 13.12.2019
2730 Clouds 0 1030 74 16093 7.1 152 14:18 13.12.2019
2731 Clouds 0 1031 74 16093 3.1 10 13:43 13.12.2019
2732 Clouds 0 1031 74 16093 3.1 10 13:24 13.12.2019
2733 Clouds -1 1032 92 16093 7.28 144 12:55 13.12.2019
2734 Clear -1 1032 75 16093 7.28 144 12:37 13.12.2019
2735 Clear -1 1032 75 16093 7.28 144 12:18 13.12.2019
2736 Clouds -1 1032 69 16093 7.28 144 11:43 13.12.2019
2737 Clouds -1 1033 69 16093 6.61 169 11:25 13.12.2019
2738 Clouds -1 1033 69 16093 6.61 169 10:56 13.12.2019
2739 Clouds -1 1033 69 16093 6.61 169 10:38 13.12.2019
2740 Clouds -1 1033 64 16093 6.61 169 10:20 13.12.2019
2741 Clouds -2 1034 70 16093 6.61 169 09:42 13.12.2019
2742 Clouds -2 1034 70 16093 6.61 169 09:21 13.12.2019
2743 Clear -2 1035 70 16093 6.61 169 08:55 13.12.2019
2744 Clear -2 1035 68 16093 6.61 169 08:36 13.12.2019
2745 Clear -2 1035 68 16093 5.26 169 08:18 13.12.2019
2746 Clear -3 1035 68 16093 5.26 169 07:42 13.12.2019
2747 Clear -3 1036 68 16093 5.26 169 07:18 13.12.2019
2748 Clear -3 1037 63 16093 5.26 169 06:39 13.12.2019
2749 Clear -3 1037 63 16093 5.26 169 06:20 13.12.2019
2750 Clear -3 1038 62 16093 5.26 169 05:37 13.12.2019
2751 Clear -3 1038 55 16093 4.01 172 05:19 13.12.2019
2752 Clear -3 1039 58 16093 4.01 172 04:28 13.12.2019
2753 Clouds -2 1039 100 16093 4.01 172 02:56 13.12.2019
2754 Clear -2 1039 55 16093 4.01 172 02:30 13.12.2019
2755 Clear -2 1040 43 16093 3.22 147 01:38 13.12.2019
2756 Rain -2 1040 46 16093 3.52 144 00:51 13.12.2019
2757 Rain -2 1040 46 16093 3.52 144 00:28 13.12.2019
2758 Clouds -1 1040 79 16093 3.52 144 23:44 12.12.2019
2759 Clear -1 1040 46 16093 3.52 144 23:26 12.12.2019
2760 Clear -1 1040 40 16093 1.91 120 22:57 12.12.2019
2761 Clear 0 1040 37 16093 1.91 120 22:39 12.12.2019
2762 Clear 0 1040 37 16093 1.91 120 22:39 12.12.2019
2763 Clear 0 1040 37 16093 1.91 120 22:21 12.12.2019
2764 Clear 0 1040 37 16093 1.91 120 22:21 12.12.2019
2765 Clouds 1 1039 50 16093 1.91 120 21:56 12.12.2019
2766 Clear 1 1040 34 16093 1.91 120 21:37 12.12.2019
2767 Clear 1 1040 34 16093 1.91 120 21:19 12.12.2019
2768 Clear 1 1040 34 16093 1.91 120 21:19 12.12.2019
2769 Clouds 1 1039 43 16093 1.91 120 20:59 12.12.2019
2770 Clear 1 1040 29 0 3.1 260 20:40 12.12.2019
2771 Clear 1 1040 29 16093 1.72 16 20:22 12.12.2019
2772 Clouds 1 1040 43 16093 1.72 16 19:56 12.12.2019
2773 Clear 1 1040 40 16093 1.72 16 19:37 12.12.2019
2774 Clear 1 1040 40 16093 1.72 16 19:19 12.12.2019
2775 Clouds 1 1040 47 16093 2.1 10 18:56 12.12.2019
2776 Clear 1 1040 37 16093 1.72 16 18:38 12.12.2019
2777 Clear 0 1040 37 16093 1.72 16 18:19 12.12.2019
2778 Clouds 0 1040 38 16093 2.1 40 17:57 12.12.2019
2779 Clear 0 1042 38 16093 4.1 30 17:38 12.12.2019
2780 Clear -1 1042 48 16093 4.1 30 17:19 12.12.2019
2781 Clouds -1 1042 58 16093 3.1 340 16:55 12.12.2019
2782 Clear -1 1042 46 16093 4.5 360 16:37 12.12.2019
2783 Clear -1 1042 46 16093 4.5 360 16:18 12.12.2019
2784 Clear -2 1041 46 16093 4.5 360 15:54 12.12.2019
2785 Clear -2 1041 46 16093 4.5 360 15:54 12.12.2019
2786 Clear -2 1041 50 16093 2.1 350 15:36 12.12.2019
2787 Clear -2 1041 50 16093 2.1 350 15:18 12.12.2019
2788 Clear -3 1040 68 0 3.6 270 14:38 12.12.2019
2789 Clear -4 1040 68 0 3.6 270 14:20 12.12.2019
2790 Clear -4 1040 100 16093 7.19 342 13:57 12.12.2019
2791 Clear -4 1040 58 16093 7.19 342 13:39 12.12.2019
2792 Clear -4 1040 58 16093 7.26 345 13:21 12.12.2019
2793 Clear -4 1040 100 16093 1.5 320 12:57 12.12.2019
2794 Clear -4 1039 58 16093 7.26 345 12:39 12.12.2019
2795 Clear -4 1039 58 16093 7.26 345 12:20 12.12.2019
2796 Clear -4 1039 53 16093 7.26 345 11:56 12.12.2019
2797 Clear -4 1039 53 16093 7.26 345 11:37 12.12.2019
2798 Clear -4 1039 53 16093 7.89 336 11:19 12.12.2019
2799 Clear -3 1038 53 16093 7.89 336 10:55 12.12.2019
2800 Clear -4 1038 53 16093 7.89 336 10:55 12.12.2019
2801 Clear -3 1038 53 16093 7.89 336 10:37 12.12.2019
2802 Clear -3 1038 53 16093 7.89 336 10:19 12.12.2019
2803 Clear -3 1037 68 16093 2.1 290 09:42 12.12.2019
2804 Clear -3 1037 50 16093 7.89 336 09:24 12.12.2019
2805 Clear -3 1036 54 16093 7.89 336 08:58 12.12.2019
2806 Clear -2 1036 54 16093 7.89 336 08:40 12.12.2019
2807 Clear -2 1036 54 16093 9.37 319 08:22 12.12.2019
2808 Clear -2 1035 50 16093 9.37 319 07:47 12.12.2019
2809 Clear -2 1035 54 16093 2.1 310 07:25 12.12.2019
2810 Clear -2 1034 50 16093 5.1 320 06:55 12.12.2019
2811 Clear -1 1033 50 0 2.1 0 06:34 12.12.2019
2812 Clear -1 1032 50 16093 5.1 310 05:41 12.12.2019
2813 Clear -1 1032 53 16093 5.1 300 04:54 12.12.2019
2814 Clouds 0 1031 63 16093 3.6 290 03:50 12.12.2019
2815 Clear 0 1029 43 16093 6.7 290 02:40 12.12.2019
2816 Clear 0 1029 43 16093 6.7 290 02:21 12.12.2019
2817 Clear 0 1029 50 16093 4.6 290 01:46 12.12.2019
2818 Clear 1 1029 55 16093 5.1 290 01:28 12.12.2019
2819 Clear 1 1028 51 16093 4.1 290 00:47 12.12.2019
2820 Clear 1 1028 55 16093 2.1 280 00:20 12.12.2019
2821 Clear 1 1027 64 16093 9.84 281 23:45 11.12.2019
2822 Rain 1 1027 64 16093 8.78 254 23:21 11.12.2019
2823 Rain 1 1026 74 16093 4.6 230 22:58 11.12.2019
2824 Rain 2 1026 69 0 7.7 260 22:39 11.12.2019
2825 Rain 2 1025 69 16093 4.1 250 22:20 11.12.2019
2826 Rain 2 1025 80 16093 3.6 280 21:59 11.12.2019
2827 Rain 2 1025 69 16093 3.1 270 21:39 11.12.2019
2828 Rain 2 1025 69 16093 3.1 270 21:20 11.12.2019
2829 Rain 2 1025 74 0 4.6 250 20:57 11.12.2019
2830 Rain 2 1025 74 0 4.6 250 20:39 11.12.2019
2831 Rain 2 1025 69 16093 2.1 280 20:19 11.12.2019
2832 Rain 2 1025 69 0 3.1 240 19:59 11.12.2019
2833 Rain 2 1025 74 16093 2.6 300 19:40 11.12.2019
2834 Rain 2 1025 74 16093 2.6 300 19:40 11.12.2019
2835 Rain 2 1025 74 16093 2.6 300 19:21 11.12.2019
2836 Rain 1 1025 80 16093 2.92 284 18:58 11.12.2019
2837 Rain 1 1026 80 16093 1.5 290 18:39 11.12.2019
2838 Rain 1 1026 80 16093 1.5 290 18:18 11.12.2019
2839 Rain 1 1026 80 16093 2.92 284 17:55 11.12.2019
2840 Rain 1 1027 80 16093 2.92 284 17:37 11.12.2019
2841 Rain 1 1027 80 16093 3.93 4 17:18 11.12.2019
2842 Rain 0 1027 86 16093 3.93 4 16:55 11.12.2019
2843 Rain 0 1027 90 16093 3.93 4 16:36 11.12.2019
2844 Rain 0 1027 90 16093 3.93 4 16:18 11.12.2019
2845 Rain 0 1027 90 14484 3.93 4 15:55 11.12.2019
2846 Rain 0 1027 90 3219 3.93 4 15:36 11.12.2019
2847 Rain 0 1027 90 3219 3.93 4 15:18 11.12.2019
2848 Rain 0 1026 90 805 3.93 4 14:54 11.12.2019
2849 Rain 0 1026 80 2816 3.93 4 14:36 11.12.2019
2850 Rain 0 1026 80 2816 7.26 18 14:18 11.12.2019
2851 Rain 0 1025 86 9656 3.6 40 13:42 11.12.2019
2852 Rain 0 1025 86 9656 3.6 40 13:42 11.12.2019
2853 Rain 0 1025 86 6437 2.1 0 13:22 11.12.2019
2854 Rain 0 1024 92 16093 6.08 25 12:58 11.12.2019
2855 Rain 0 1023 100 12874 3.1 0 12:39 11.12.2019
2856 Rain 0 1023 100 12874 3.1 0 12:21 11.12.2019
2857 Rain 0 1023 100 12874 3.1 0 12:21 11.12.2019
2858 Rain 0 1023 92 2012 6.08 25 11:58 11.12.2019
2859 Rain 0 1022 86 1207 3.1 350 11:39 11.12.2019
2860 Rain 0 1022 86 3219 6.48 345 11:19 11.12.2019
2861 Rain 1 1022 100 2414 3.6 350 10:57 11.12.2019
2862 Rain 1 1022 86 2816 6.48 345 10:39 11.12.2019
2863 Rain 1 1022 86 2816 6.48 345 10:39 11.12.2019
2864 Rain 1 1022 86 2816 6.48 345 10:20 11.12.2019
2865 Rain 1 1022 86 2816 6.48 345 10:20 11.12.2019
2866 Rain 1 1022 86 4023 6.48 345 09:55 11.12.2019
2867 Rain 1 1021 86 11265 6.7 330 09:37 11.12.2019
2868 Rain 1 1022 86 8047 2.6 340 09:19 11.12.2019
2869 Rain 2 1021 86 16093 5.1 310 08:55 11.12.2019
2870 Rain 2 1021 93 11265 4.6 300 08:36 11.12.2019
2871 Rain 2 1021 93 11265 4.6 300 08:18 11.12.2019
2872 Rain 2 1020 86 0 1.5 0 07:42 11.12.2019
2873 Rain 2 1020 86 0 1.5 0 07:42 11.12.2019
2874 Rain 3 1020 93 12874 5.1 290 07:22 11.12.2019
2875 Rain 4 1020 80 0 7.06 331 06:46 11.12.2019
2876 Rain 4 1019 86 16093 4.1 310 06:24 11.12.2019
2877 Rain 4 1018 80 14484 6.7 300 05:53 11.12.2019
2878 Rain 4 1019 80 11265 6.2 320 05:28 11.12.2019
2879 Rain 5 1019 70 16093 8.7 310 04:48 11.12.2019
2880 Rain 8 1017 75 16093 7.7 310 03:19 11.12.2019
2881 Rain 9 1016 71 16093 6.2 320 02:31 11.12.2019
2882 Rain 11 1015 71 16093 5.1 290 01:21 11.12.2019
2883 Rain 11 1014 93 11265 8.82 292 00:37 11.12.2019
2884 Rain 12 1014 93 11265 8.82 292 00:18 11.12.2019
2885 Rain 12 1013 93 0 6.2 270 23:43 10.12.2019
2886 Rain 12 1012 87 0 4.1 270 23:22 10.12.2019
2887 Rain 12 1013 87 8047 4.6 230 22:56 10.12.2019
2888 Rain 12 1011 87 0 4.6 270 22:38 10.12.2019
2889 Rain 12 1011 87 0 4.6 270 22:20 10.12.2019
2890 Rain 12 1010 93 12874 1.5 220 21:54 10.12.2019
2891 Rain 12 1009 87 16093 5.78 243 21:36 10.12.2019
2892 Rain 12 1009 87 16093 5.78 243 21:18 10.12.2019
2893 Rain 13 1010 87 14484 5.1 230 20:55 10.12.2019
2894 Rain 13 1009 93 11265 5.78 243 20:36 10.12.2019
2895 Rain 13 1009 93 11265 6.55 242 20:18 10.12.2019
2896 Rain 13 1009 87 4828 2.1 0 19:42 10.12.2019
2897 Rain 13 1009 87 4828 2.1 0 19:24 10.12.2019
2898 Rain 13 1010 87 3219 3.6 240 18:57 10.12.2019
2899 Rain 13 1009 82 16093 3.1 270 18:39 10.12.2019
2900 Rain 13 1009 82 16093 3.1 270 18:19 10.12.2019
2901 Clouds 13 1009 87 16093 4.1 240 17:54 10.12.2019
2902 Clouds 13 1009 87 16093 4.1 240 17:54 10.12.2019
2903 Clouds 13 1009 82 16093 4.1 290 17:36 10.12.2019
2904 Clouds 13 1009 82 16093 4.1 290 17:18 10.12.2019
2905 Clouds 13 1010 82 16093 3.6 270 16:42 10.12.2019
2906 Clouds 13 1010 82 16093 3.6 270 16:20 10.12.2019
2907 Clouds 13 1010 82 16093 3.6 270 15:54 10.12.2019
2908 Rain 13 1010 82 16093 2.1 270 15:36 10.12.2019
2909 Rain 12 1010 82 16093 2.1 270 15:18 10.12.2019
2910 Clouds 12 1009 82 16093 2.6 270 14:42 10.12.2019
2911 Clouds 12 1009 82 16093 2.6 270 14:24 10.12.2019
2912 Clouds 12 1009 87 16093 5.7 230 13:59 10.12.2019
2913 Clouds 12 1008 87 16093 6.85 226 13:40 10.12.2019
2914 Clouds 12 1008 87 16093 8.6 220 13:20 10.12.2019
2915 Clouds 12 1009 82 16093 8.6 220 12:57 10.12.2019
2916 Clear 12 1008 82 16093 2.1 270 12:38 10.12.2019
2917 Clear 12 1008 82 16093 2.1 270 12:20 10.12.2019
2918 Clouds 12 1008 82 16093 8.6 220 11:41 10.12.2019
2919 Clouds 12 1008 82 16093 8.6 220 11:41 10.12.2019
2920 Clouds 12 1008 82 16093 8.31 223 11:23 10.12.2019
2921 Clouds 13 1008 82 16093 2.6 260 10:55 10.12.2019
2922 Clouds 13 1008 87 0 4.1 260 10:37 10.12.2019
2923 Clouds 13 1008 87 0 4.1 260 10:19 10.12.2019
2924 Clouds 13 1008 87 16093 6.7 230 09:54 10.12.2019
2925 Clouds 13 1007 87 16093 4.1 260 09:36 10.12.2019
2926 Clouds 13 1007 87 16093 4.1 260 09:18 10.12.2019
2927 Clouds 13 1007 87 16093 5.1 260 08:42 10.12.2019
2928 Clouds 12 1007 87 16093 3.1 270 08:23 10.12.2019
2929 Rain 12 1007 87 16093 3.6 270 07:58 10.12.2019
2930 Rain 12 1008 93 0 6.7 270 07:40 10.12.2019
2931 Rain 12 1008 93 0 6.7 270 07:22 10.12.2019
2932 Rain 12 1006 87 16093 5.7 220 06:46 10.12.2019
2933 Rain 12 1007 87 16093 4.6 270 06:19 10.12.2019
2934 Rain 12 1008 87 11265 5.1 260 05:53 10.12.2019
2935 Rain 12 1008 93 16093 4.1 260 04:52 10.12.2019
2936 Drizzle 12 1008 93 16093 3.6 260 03:37 10.12.2019
2937 Rain 11 1009 100 3219 8.7 200 02:45 10.12.2019
2938 Rain 11 1009 93 4828 8.13 192 01:44 10.12.2019
2939 Rain 11 1010 93 0 3.1 280 01:21 10.12.2019
2940 Rain 10 1011 93 4828 2.6 0 00:42 10.12.2019
2941 Rain 10 1011 93 4828 2.6 0 00:21 10.12.2019
2942 Rain 10 1012 100 0 2.1 280 23:42 09.12.2019
2943 Rain 10 1012 87 4828 3.1 0 23:23 09.12.2019
2944 Rain 10 1012 100 4828 5.1 200 22:58 09.12.2019
2945 Rain 10 1012 93 0 1.5 250 22:40 09.12.2019
2946 Rain 10 1012 93 0 1.5 250 22:20 09.12.2019
2947 Rain 10 1013 93 2816 1.5 0 21:57 09.12.2019
2948 Rain 10 1012 93 4023 4.1 170 21:38 09.12.2019
2949 Rain 10 1013 93 6437 3.1 180 21:19 09.12.2019
2950 Rain 10 1014 93 6437 5.1 200 20:57 09.12.2019
2951 Rain 10 1014 93 6437 5.1 200 20:57 09.12.2019
2952 Rain 10 1014 93 0 2.1 240 20:39 09.12.2019
2953 Rain 10 1015 93 0 4.1 280 20:20 09.12.2019
2954 Rain 10 1015 93 8047 11.77 189 19:56 09.12.2019
2955 Rain 10 1015 100 11265 11.77 189 19:38 09.12.2019
2956 Rain 10 1015 100 11265 11.77 189 19:19 09.12.2019
2957 Rain 10 1016 93 1609 11.77 189 18:58 09.12.2019
2958 Rain 10 1016 93 1609 11.77 189 18:39 09.12.2019
2959 Rain 10 1016 93 2414 1.5 280 18:20 09.12.2019
2960 Rain 9 1017 93 0 4.1 260 17:58 09.12.2019
2961 Rain 9 1017 93 4828 11.77 189 17:39 09.12.2019
2962 Rain 9 1017 93 4828 5.95 194 17:20 09.12.2019
2963 Drizzle 8 1017 100 1207 5.95 194 16:56 09.12.2019
2964 Rain 8 1018 100 2012 2.1 140 16:38 09.12.2019
2965 Rain 8 1018 100 2012 2.1 140 16:20 09.12.2019
2966 Rain 8 1018 93 1207 2.6 20 15:56 09.12.2019
2967 Rain 7 1019 100 1609 2.1 50 15:37 09.12.2019
2968 Rain 7 1019 100 1609 2.1 50 15:19 09.12.2019
2969 Rain 7 1020 93 1609 1.5 60 14:58 09.12.2019
2970 Rain 6 1019 93 1609 4.1 50 14:39 09.12.2019
2971 Rain 5 1020 100 0 5.1 40 14:18 09.12.2019
2972 Rain 5 1021 100 2414 2.6 60 13:55 09.12.2019
2973 Rain 5 1021 93 4023 5.32 176 13:36 09.12.2019
2974 Rain 5 1021 93 4023 5.32 176 13:18 09.12.2019
2975 Rain 5 1022 93 2414 2.1 50 12:54 09.12.2019
2976 Rain 4 1022 93 4023 2.6 40 12:36 09.12.2019
2977 Rain 4 1022 93 4023 2.6 40 12:18 09.12.2019
2978 Rain 4 1023 93 3219 5.32 176 11:40 09.12.2019
2979 Rain 4 1023 93 2414 3.61 207 11:22 09.12.2019
2980 Rain 4 1024 93 2414 1.5 360 10:59 09.12.2019
2981 Rain 4 1024 93 0 1.5 190 10:39 09.12.2019
2982 Rain 4 1024 93 0 1.5 190 10:19 09.12.2019
2983 Rain 4 1024 93 6437 3.61 207 09:45 09.12.2019
2984 Rain 4 1025 93 0 1.5 270 09:25 09.12.2019
2985 Rain 4 1025 87 0 4.1 280 08:57 09.12.2019
2986 Rain 4 1025 87 0 4.1 280 08:39 09.12.2019
2987 Drizzle 3 1026 86 6437 6.86 204 08:21 09.12.2019
2988 Drizzle 3 1026 86 8047 6.86 204 07:52 09.12.2019
2989 Drizzle 3 1026 80 8047 6.86 204 07:33 09.12.2019
2990 Drizzle 3 1026 80 8047 6.86 204 07:33 09.12.2019
2991 Rain 3 1027 70 6437 2.6 210 06:58 09.12.2019
2992 Rain 3 1027 80 12874 1.5 190 06:31 09.12.2019
2993 Clouds 3 1027 77 16093 6.86 204 05:48 09.12.2019
2994 Clouds 2 1028 77 16093 6.86 204 05:24 09.12.2019
2995 Clouds 2 1028 74 16093 7.83 200 04:28 09.12.2019
2996 Clear 2 1029 74 16093 7.83 200 02:35 09.12.2019
2997 Clear 2 1030 69 16093 6.6 201 01:47 09.12.2019
2998 Clear 2 1030 64 16093 6.89 202 01:23 09.12.2019
2999 Clear 2 1030 60 16093 6.89 202 00:34 09.12.2019
3000 Clear 3 1030 60 16093 6.89 202 23:58 08.12.2019
3001 Clear 3 1030 60 16093 6.89 202 23:37 08.12.2019
3002 Clear 3 1030 60 16093 7.03 187 23:19 08.12.2019
3003 Clear 4 1030 52 16093 2.1 180 22:56 08.12.2019
3004 Clear 4 1030 52 16093 7.03 187 22:38 08.12.2019
3005 Clear 4 1030 52 16093 7.03 187 22:18 08.12.2019
3006 Clear 4 1031 38 16093 3.6 200 21:57 08.12.2019
3007 Clear 4 1031 38 16093 4.1 200 21:38 08.12.2019
3008 Clear 5 1031 38 16093 4.1 200 21:19 08.12.2019
3009 Clear 5 1031 35 16093 7.03 187 20:56 08.12.2019
3010 Clear 4 1031 35 16093 6.81 195 20:38 08.12.2019
3011 Clear 4 1031 35 16093 6.32 189 20:19 08.12.2019
3012 Clouds 4 1031 44 16093 6.2 200 19:57 08.12.2019
3013 Clear 4 1032 35 16093 6.32 189 19:39 08.12.2019
3014 Clear 4 1032 35 16093 6.32 189 19:21 08.12.2019
3015 Clear 4 1033 41 16093 6.32 189 18:55 08.12.2019
3016 Clear 3 1033 41 16093 2.6 200 18:36 08.12.2019
3017 Clear 3 1033 41 16093 2.6 200 18:18 08.12.2019
3018 Clear 3 1034 47 16093 6.32 189 17:56 08.12.2019
3019 Clear 3 1034 51 16093 6.32 189 17:38 08.12.2019
3020 Clear 2 1034 51 16093 3.06 187 17:19 08.12.2019
3021 Clouds 1 1034 80 16093 3.06 187 16:55 08.12.2019
3022 Clear 1 1035 59 16093 3.06 187 16:37 08.12.2019
3023 Clear 0 1035 59 16093 3.06 187 16:19 08.12.2019
3024 Clear 0 1035 63 16093 3.06 187 15:54 08.12.2019
3025 Clear -1 1035 55 0 2.6 30 15:36 08.12.2019
3026 Clear -2 1035 55 0 2.6 30 15:18 08.12.2019
3027 Clear -3 1035 73 16093 3.06 187 14:40 08.12.2019
3028 Clear -3 1035 73 16093 3.06 187 14:40 08.12.2019
3029 Clear -5 1035 79 16093 0.18 49 14:22 08.12.2019
3030 Clear -6 1035 73 16093 0.18 49 13:57 08.12.2019
3031 Clear -7 1035 73 16093 0.18 49 13:38 08.12.2019
3032 Clear -7 1035 73 16093 0.65 185 13:20 08.12.2019
3033 Clouds -7 1035 100 16093 2.1 290 12:54 08.12.2019
3034 Clear -7 1034 73 16093 0.65 185 12:36 08.12.2019
3035 Clear -7 1034 68 16093 0.65 185 12:18 08.12.2019
3036 Clear -6 1034 73 16093 0.65 185 11:39 08.12.2019
3037 Clear -6 1034 68 16093 1.86 25 11:21 08.12.2019
3038 Clear -6 1034 73 16093 1.86 25 10:59 08.12.2019
3039 Clear -6 1034 68 16093 1.86 25 10:39 08.12.2019
3040 Clear -6 1034 68 16093 1.86 25 10:20 08.12.2019
3041 Clear -6 1034 68 16093 1.86 25 09:58 08.12.2019
3042 Clear -5 1034 63 16093 1.86 25 09:39 08.12.2019
3043 Clear -5 1034 63 16093 1.86 25 09:20 08.12.2019
3044 Clear -5 1034 63 16093 1.86 25 09:20 08.12.2019
3045 Clear -5 1034 63 16093 1.86 25 08:58 08.12.2019
3046 Clear -5 1034 63 16093 1.86 25 08:39 08.12.2019
3047 Clear -5 1034 63 16093 3.61 357 08:21 08.12.2019
3048 Clear -4 1034 54 0 2.1 0 07:44 08.12.2019
3049 Clear -4 1034 54 0 2.1 0 07:20 08.12.2019
3050 Clear -4 1034 58 16093 3.61 357 06:51 08.12.2019
3051 Clear -4 1034 54 16093 3.61 357 06:23 08.12.2019
3052 Clear -3 1034 54 16093 3.61 357 05:52 08.12.2019
3053 Clear -3 1034 54 16093 7.18 336 05:18 08.12.2019
3054 Clear -2 1033 92 16093 7.18 336 03:54 08.12.2019
3055 Clear -2 1033 57 16093 7.18 336 03:36 08.12.2019
3056 Clear -1 1033 57 16093 7.18 336 02:40 08.12.2019
3057 Clear -1 1032 59 16093 6.83 339 01:56 08.12.2019
3058 Clear -1 1032 59 16093 6.83 339 01:33 08.12.2019
3059 Clear 0 1031 47 16093 6.86 337 00:43 08.12.2019
3060 Clear 0 1031 43 16093 6.86 337 00:21 08.12.2019
3061 Clear 1 1030 40 16093 3.1 290 23:55 07.12.2019
3062 Clear 1 1030 40 16093 3.1 290 23:36 07.12.2019
3063 Clear 1 1030 40 16093 3.1 290 23:18 07.12.2019
3064 Clear 1 1030 40 16093 6.26 325 22:54 07.12.2019
3065 Clear 2 1029 37 16093 2.1 310 22:36 07.12.2019
3066 Clear 2 1029 37 16093 2.1 310 22:36 07.12.2019
3067 Clear 2 1029 37 16093 2.1 310 22:18 07.12.2019
3068 Clouds 3 1029 44 16093 3.6 330 21:54 07.12.2019
3069 Clear 3 1029 35 16093 5.7 310 21:36 07.12.2019
3070 Clear 3 1029 35 16093 5.7 310 21:18 07.12.2019
3071 Clear 3 1028 35 16093 4.6 350 20:37 07.12.2019
3072 Clear 3 1028 35 16093 4.6 350 20:19 07.12.2019
3073 Clear 3 1028 35 16093 4.1 320 19:57 07.12.2019
3074 Clear 3 1028 35 16093 4.1 320 19:57 07.12.2019
3075 Clear 3 1028 35 16093 4.6 310 19:39 07.12.2019
3076 Clear 3 1028 35 16093 4.6 310 19:21 07.12.2019
3077 Clear 3 1028 35 16093 4.6 340 18:58 07.12.2019
3078 Clear 3 1029 37 16093 3.6 330 18:39 07.12.2019
3079 Clear 3 1029 37 16093 3.6 330 18:18 07.12.2019
3080 Clear 3 1029 37 16093 4.6 350 17:55 07.12.2019
3081 Clear 2 1029 40 16093 5.7 330 17:37 07.12.2019
3082 Clear 2 1029 40 16093 5.7 330 17:18 07.12.2019
3083 Clear 2 1029 43 16093 5.7 320 16:55 07.12.2019
3084 Clear 2 1029 43 16093 4.6 340 16:36 07.12.2019
3085 Clear 2 1029 43 16093 4.6 340 16:18 07.12.2019
3086 Clear 1 1029 50 16093 4.6 340 15:40 07.12.2019
3087 Clear 1 1029 50 16093 2.6 330 15:22 07.12.2019
3088 Clear 0 1028 60 16093 6.63 328 14:43 07.12.2019
3089 Clear 0 1028 65 16093 8.02 330 14:20 07.12.2019
3090 Clear 0 1028 65 16093 8.02 330 13:59 07.12.2019
3091 Clear -1 1028 58 16093 7.44 328 13:39 07.12.2019
3092 Clear -1 1028 58 16093 7.44 328 13:20 07.12.2019
3093 Clear -1 1028 58 16093 7.44 328 13:20 07.12.2019
3094 Clouds -1 1027 74 16093 3.1 320 12:55 07.12.2019
3095 Clear -1 1027 64 16093 7.44 328 12:37 07.12.2019
3096 Clear -1 1027 64 16093 7.44 328 12:18 07.12.2019
3097 Clear 0 1026 64 16093 7.44 328 11:42 07.12.2019
3098 Clear 0 1026 62 16093 8.27 330 11:23 07.12.2019
3099 Clear 0 1025 62 16093 8.27 330 10:58 07.12.2019
3100 Clear 0 1025 47 16093 8.27 330 10:36 07.12.2019
3101 Clear 0 1023 58 16093 4.6 310 10:18 07.12.2019
3102 Clear 1 1024 50 16093 2.1 320 09:40 07.12.2019
3103 Clear 1 1024 50 16093 2.1 320 09:21 07.12.2019
3104 Clear 1 1024 50 16093 2.1 320 09:21 07.12.2019
3105 Clear 1 1024 55 16093 2.6 310 08:46 07.12.2019
3106 Clear 1 1023 55 16093 4.6 320 08:25 07.12.2019
3107 Clear 2 1023 51 16093 4.1 320 07:54 07.12.2019
3108 Clear 2 1023 51 16093 3.6 330 07:30 07.12.2019
3109 Clear 3 1022 51 16093 3.1 330 06:53 07.12.2019
3110 Clear 3 1022 51 16093 5.1 330 06:28 07.12.2019
3111 Clear 4 1021 51 16093 6.2 330 05:50 07.12.2019
3112 Clear 4 1020 51 16093 7.7 330 04:49 07.12.2019
3113 Clear 5 1019 56 16093 5.7 330 03:53 07.12.2019
3114 Clouds 7 1017 57 0 9.71 330 02:50 07.12.2019
3115 Clouds 7 1017 57 0 7.5 257 02:19 07.12.2019
3116 Clouds 8 1016 66 16093 4.6 290 01:31 07.12.2019
3117 Rain 8 1016 66 16093 1.5 290 00:43 07.12.2019
3118 Rain 8 1016 66 16093 1.5 290 00:19 07.12.2019
3119 Clouds 8 1015 66 16093 8.28 255 23:47 06.12.2019
3120 Clouds 8 1015 66 16093 8.28 255 23:47 06.12.2019
3121 Clouds 8 1014 64 16093 3.1 260 23:24 06.12.2019
3122 Clouds 8 1014 64 16093 2.6 250 22:58 06.12.2019
3123 Clouds 8 1015 49 16093 2.6 270 22:37 06.12.2019
3124 Clouds 8 1015 49 16093 2.6 270 22:19 06.12.2019
3125 Rain 8 1015 39 16093 3.1 250 21:56 06.12.2019
3126 Rain 8 1015 39 16093 3.1 250 21:56 06.12.2019
3127 Rain 8 1015 39 16093 3.6 240 21:38 06.12.2019
3128 Rain 8 1015 39 16093 3.6 240 21:19 06.12.2019
3129 Clouds 8 1015 39 16093 2.1 240 20:42 06.12.2019
3130 Clouds 8 1015 37 16093 2.6 250 20:22 06.12.2019
3131 Clouds 7 1015 42 16093 9.17 209 19:58 06.12.2019
3132 Clouds 7 1016 42 16093 3.6 250 19:39 06.12.2019
3133 Clouds 7 1016 42 16093 3.6 250 19:21 06.12.2019
3134 Clouds 7 1017 45 16093 3.6 260 18:55 06.12.2019
3135 Clouds 7 1017 48 16093 1.5 230 18:37 06.12.2019
3136 Clouds 6 1017 48 16093 1.5 230 18:19 06.12.2019
3137 Clouds 6 1018 48 16093 2.6 240 17:55 06.12.2019
3138 Clear 6 1018 48 16093 9.17 209 17:37 06.12.2019
3139 Clear 6 1018 48 16093 6.18 212 17:19 06.12.2019
3140 Clouds 5 1019 48 16093 3.1 210 16:42 06.12.2019
3141 Clouds 4 1020 52 16093 6.18 212 16:24 06.12.2019
3142 Clouds 4 1020 64 16093 3.6 230 15:57 06.12.2019
3143 Clouds 3 1021 59 16093 1.5 200 15:39 06.12.2019
3144 Clouds 3 1021 59 16093 1.5 200 15:18 06.12.2019
3145 Clouds 2 1020 74 16093 3.6 220 14:56 06.12.2019
3146 Clouds 2 1021 59 16093 6.18 212 14:37 06.12.2019
3147 Clouds 1 1021 59 16093 4.18 238 14:18 06.12.2019
3148 Clouds 0 1020 92 16093 1.5 180 13:42 06.12.2019
3149 Clear 0 1021 55 16093 4.36 241 13:24 06.12.2019
3150 Clear 0 1021 55 16093 4.36 241 12:42 06.12.2019
3151 Clear 0 1021 55 16093 4.36 241 12:22 06.12.2019
3152 Clear 0 1021 59 16093 4.36 241 11:58 06.12.2019
3153 Clear 0 1021 55 16093 4.36 241 11:39 06.12.2019
3154 Clear 0 1021 55 16093 5.27 288 11:20 06.12.2019
3155 Clear 0 1020 86 16093 5.27 288 10:43 06.12.2019
3156 Clear 0 1021 59 16093 5.27 288 10:21 06.12.2019
3157 Clear 0 1020 86 16093 5.27 288 09:58 06.12.2019
3158 Clear 0 1021 59 16093 5.27 288 09:37 06.12.2019
3159 Clear 0 1021 59 16093 5.27 288 09:37 06.12.2019
3160 Clear 0 1021 59 16093 5.27 288 09:19 06.12.2019
3161 Clear 0 1021 59 16093 5.27 288 08:45 06.12.2019
3162 Clear 1 1021 59 16093 8.33 302 08:27 06.12.2019
3163 Clouds 1 1020 65 16093 8.33 302 07:56 06.12.2019
3164 Clouds 1 1021 55 16093 2.1 320 07:36 06.12.2019
3165 Clouds 1 1021 55 16093 2.1 320 07:18 06.12.2019
3166 Rain 2 1020 59 0 8.33 302 06:30 06.12.2019
3167 Clear 2 1020 51 16093 5.7 320 05:54 06.12.2019
3168 Clear 2 1020 51 16093 7.2 320 05:34 06.12.2019
3169 Clouds 3 1017 55 16093 6.7 310 02:19 06.12.2019
3170 Clouds 3 1017 55 16093 6.7 310 02:19 06.12.2019
3171 Clouds 3 1016 55 16093 6.2 300 01:34 06.12.2019
3172 Rain 3 1015 59 16093 6.7 300 00:46 06.12.2019
3173 Rain 4 1015 55 16093 6.2 300 00:21 06.12.2019
3174 Clouds 4 1014 64 16093 6.7 300 23:49 05.12.2019
3175 Clouds 4 1014 55 16093 7.2 300 23:19 05.12.2019
3176 Clouds 4 1013 48 16093 5.1 300 22:58 05.12.2019
3177 Clouds 4 1013 48 16093 7.2 310 22:38 05.12.2019
3178 Clouds 4 1013 48 16093 7.2 310 22:18 05.12.2019
3179 Clouds 4 1013 48 16093 7.2 310 22:18 05.12.2019
3180 Clouds 4 1012 48 16093 9.3 310 21:55 05.12.2019
3181 Clouds 4 1012 52 16093 6.2 300 21:36 05.12.2019
3182 Clouds 4 1012 52 16093 6.2 300 21:18 05.12.2019
3183 Clouds 5 1010 45 16093 6.7 320 20:40 05.12.2019
3184 Clouds 5 1010 45 16093 6.7 320 20:21 05.12.2019
3185 Clouds 5 1009 41 16093 10.8 310 19:59 05.12.2019
3186 Clouds 5 1009 41 16093 6.2 330 19:40 05.12.2019
3187 Clouds 5 1009 41 16093 7.2 280 19:21 05.12.2019
3188 Clouds 5 1009 41 16093 7.7 310 18:58 05.12.2019
3189 Clouds 5 1009 41 16093 7.7 310 18:38 05.12.2019
3190 Clouds 5 1009 41 16093 7.7 310 18:38 05.12.2019
3191 Clouds 5 1009 41 16093 5.7 290 18:20 05.12.2019
3192 Clouds 5 1009 48 16093 7.7 300 17:40 05.12.2019
3193 Clouds 5 1009 44 16093 7.7 290 17:20 05.12.2019
3194 Clouds 5 1009 52 16093 11.8 280 16:58 05.12.2019
3195 Clouds 5 1009 60 16093 7.2 300 16:40 05.12.2019
3196 Clouds 5 1009 60 16093 7.2 300 16:21 05.12.2019
3197 Clouds 5 1008 56 16093 8.2 290 15:58 05.12.2019
3198 Clear 5 1008 65 16093 3.1 280 15:39 05.12.2019
3199 Clouds 4 1007 68 0 5.7 260 15:20 05.12.2019
3200 Clouds 4 1007 64 16093 4.1 270 14:56 05.12.2019
3201 Clouds 4 1007 64 16093 4.1 270 14:56 05.12.2019
3202 Clear 4 1007 74 16093 3.6 280 14:38 05.12.2019
3203 Clouds 3 1006 74 16093 4.1 260 14:19 05.12.2019
3204 Clouds 2 1006 74 16093 9.14 293 13:57 05.12.2019
3205 Clouds 2 1006 74 16093 8.98 296 13:39 05.12.2019
3206 Clouds 2 1006 74 16093 8.98 296 13:20 05.12.2019
3207 Clouds 2 1005 74 16093 2.1 0 12:58 05.12.2019
3208 Clouds 2 1005 72 16093 4.6 280 12:39 05.12.2019
3209 Clouds 2 1004 74 16093 6.2 260 12:21 05.12.2019
3210 Clouds 2 1003 72 16093 4.1 290 11:40 05.12.2019
3211 Clouds 2 1003 86 0 2.1 0 11:22 05.12.2019
3212 Clouds 1 1003 74 16093 2.6 0 10:58 05.12.2019
3213 Clouds 1 1002 75 16093 3.6 290 10:40 05.12.2019
3214 Clouds 1 1002 74 16093 3.1 270 10:19 05.12.2019
3215 Clouds 1 1002 74 16093 3.1 270 10:19 05.12.2019
3216 Clouds 1 1002 75 16093 7.64 288 09:57 05.12.2019
3217 Clouds 1 1002 75 16093 7.64 288 09:38 05.12.2019
3218 Clouds 1 1002 80 14484 7.64 288 09:20 05.12.2019
3219 Clouds 1 1002 80 14484 7.64 288 09:20 05.12.2019
3220 Clouds 1 1002 75 16093 7.64 288 09:20 05.12.2019
3221 Clouds 1 1001 74 16093 6.7 270 08:56 05.12.2019
3222 Clear 1 1001 70 16093 8.89 302 08:37 05.12.2019
3223 Clouds 1 1001 81 12874 2.6 290 08:19 05.12.2019
3224 Clouds 1 1001 81 12874 2.6 290 08:19 05.12.2019
3225 Clouds 1 1001 81 12874 2.6 290 08:19 05.12.2019
3226 Clouds 1 1001 81 16093 7.33 278 07:41 05.12.2019
3227 Clouds 1 1001 81 16093 7.33 278 07:23 05.12.2019
3228 Clouds 2 1000 86 0 4.1 260 06:48 05.12.2019
3229 Clouds 2 1000 86 0 4.1 260 06:24 05.12.2019
3230 Clouds 2 1000 69 16093 7.2 260 05:56 05.12.2019
3231 Clouds 2 1000 81 14484 3.6 240 05:24 05.12.2019
3232 Clouds 2 1001 86 11265 3.1 240 04:59 05.12.2019
3233 Clouds 2 1001 80 0 4.6 270 03:41 05.12.2019
3234 Clouds 2 1001 80 0 4.6 270 02:42 05.12.2019
3235 Rain 2 1001 80 0 4.6 270 02:23 05.12.2019
3236 Clouds 3 1001 73 16093 2.1 280 01:51 05.12.2019
3237 Clouds 3 1000 69 16093 6.2 250 01:51 05.12.2019
3238 Clouds 3 1001 73 16093 2.1 280 01:51 05.12.2019
3239 Clouds 3 1001 73 16093 2.1 280 01:24 05.12.2019
3240 Rain 3 1000 69 16093 6.46 262 00:46 05.12.2019
3241 Rain 3 1000 69 16093 6.46 262 00:22 05.12.2019
3242 Rain 3 1000 64 16093 5.7 260 23:56 04.12.2019
3243 Rain 3 1000 69 16093 6.46 262 23:37 04.12.2019
3244 Clouds 3 1000 80 0 5.1 260 23:19 04.12.2019
3245 Clouds 3 1000 65 16093 7.1 266 22:39 04.12.2019
3246 Rain 3 1000 74 12874 3.1 260 22:20 04.12.2019
3247 Rain 3 1000 65 16093 5.1 260 21:58 04.12.2019
3248 Rain 3 999 65 16093 2.6 290 21:39 04.12.2019
3249 Rain 3 999 65 16093 2.6 290 21:21 04.12.2019
3250 Clouds 3 1000 74 12874 7.1 266 20:59 04.12.2019
3251 Clouds 3 1000 69 16093 2.6 270 20:41 04.12.2019
3252 Clouds 3 1000 69 16093 2.6 270 20:22 04.12.2019
3253 Clouds 3 999 64 16093 4.6 260 19:59 04.12.2019
3254 Clouds 3 1000 71 16093 6.75 257 19:39 04.12.2019
3255 Clouds 3 1000 74 12874 3.6 240 19:20 04.12.2019
3256 Clouds 3 1000 64 16093 4.1 270 18:57 04.12.2019
3257 Clouds 3 1001 71 16093 6.75 257 18:39 04.12.2019
3258 Clouds 3 1001 80 0 4.6 260 18:20 04.12.2019
3259 Clouds 3 1002 71 16093 4.1 280 17:40 04.12.2019
3260 Haze 3 1002 74 9656 2.6 0 17:22 04.12.2019
3261 Clouds 3 1001 69 16093 4.6 270 16:59 04.12.2019
3262 Haze 2 1002 80 3219 6.67 250 16:40 04.12.2019
3263 Haze 2 1002 80 3219 6.67 250 16:40 04.12.2019
3264 Haze 2 1002 80 3219 6.67 250 16:40 04.12.2019
3265 Rain 2 1002 80 11265 2.6 0 16:20 04.12.2019
3266 Rain 2 1002 74 16093 3.1 230 15:56 04.12.2019
3267 Rain 2 1002 82 16093 6.67 250 15:38 04.12.2019
3268 Rain 2 1003 74 0 4.6 260 15:19 04.12.2019
3269 Rain 2 1003 74 0 4.6 260 14:54 04.12.2019
3270 Clouds 2 1002 80 16093 6.67 250 14:36 04.12.2019
3271 Clouds 1 1002 74 0 3.6 250 14:18 04.12.2019
3272 Clouds 1 1002 74 16093 5.71 256 13:39 04.12.2019
3273 Clouds 0 1002 74 16093 5.71 256 13:20 04.12.2019
3274 Clouds 0 1002 74 16093 7.28 265 12:58 04.12.2019
3275 Clouds 0 1002 74 16093 7.28 265 12:40 04.12.2019
3276 Clouds 0 1002 69 16093 1.5 0 12:22 04.12.2019
3277 Clouds 0 1002 74 16093 7.28 265 11:41 04.12.2019
3278 Clouds 0 1002 74 16093 6.75 275 11:23 04.12.2019
3279 Clouds 0 1001 69 16093 3.6 270 10:57 04.12.2019
3280 Clouds 0 1002 74 16093 6.75 275 10:39 04.12.2019
3281 Clouds 0 1002 74 16093 6.75 275 10:21 04.12.2019
3282 Clouds 0 1002 74 16093 6.75 275 09:42 04.12.2019
3283 Clouds 0 1002 74 16093 6.75 275 09:23 04.12.2019
3284 Clouds -1 1003 77 16093 6.75 275 08:43 04.12.2019
3285 Clouds -1 1003 73 16093 8.13 277 08:25 04.12.2019
3286 Clouds -1 1003 69 16093 5.7 330 07:51 04.12.2019
3287 Clear -1 1003 74 0 3.1 260 07:31 04.12.2019
3288 Clouds -1 1002 64 16093 5.1 300 06:59 04.12.2019
3289 Clear 0 1003 74 0 3.6 270 06:31 04.12.2019
3290 Clear 0 1003 73 16093 2.6 280 05:46 04.12.2019
3291 Rain -1 1003 70 16093 9.1 286 04:34 04.12.2019
3292 Clear -1 1003 70 16093 4.6 300 03:51 04.12.2019
3293 Clear 0 1003 59 16093 4.6 310 01:49 04.12.2019
3294 Clear 0 1003 60 16093 4.6 310 00:48 04.12.2019
3295 Clear 0 1003 59 16093 5.7 270 00:22 04.12.2019
3296 Clear 0 1003 59 16093 5.7 270 00:22 04.12.2019
3297 Clouds 0 1002 59 16093 8.2 290 23:55 03.12.2019
3298 Clear 1 1003 64 16093 5.7 300 23:36 03.12.2019
3299 Clear 1 1002 64 16093 11.66 305 23:18 03.12.2019
3300 Clear 1 1002 64 16093 6.2 310 22:39 03.12.2019
3301 Clear 1 1002 64 16093 6.2 310 22:39 03.12.2019
3302 Clear 1 1002 64 16093 6.2 310 22:18 03.12.2019
3303 Rain 2 1002 64 16093 6.2 300 21:57 03.12.2019
3304 Rain 2 1001 59 16093 7.2 310 21:37 03.12.2019
3305 Rain 2 1000 59 16093 4.1 290 21:18 03.12.2019
3306 Rain 2 1001 59 16093 8.7 320 20:54 03.12.2019
3307 Rain 2 1001 59 16093 8.7 320 20:36 03.12.2019
3308 Rain 2 1001 59 16093 8.7 320 20:18 03.12.2019
3309 Rain 2 999 55 16093 10.8 310 19:54 03.12.2019
3310 Rain 2 1000 69 16093 5.7 330 19:36 03.12.2019
3311 Rain 2 1000 69 16093 5.7 330 19:18 03.12.2019
3312 Rain 2 1001 64 16093 7.7 310 18:55 03.12.2019
3313 Rain 1 1001 64 16093 7.7 310 18:37 03.12.2019
3314 Clear 1 1000 59 16093 2.6 0 18:18 03.12.2019
3315 Clouds 1 1001 64 16093 7.2 330 17:40 03.12.2019
3316 Rain 1 1001 73 16093 4.6 280 17:19 03.12.2019
3317 Clouds 0 1000 64 16093 10.3 310 16:59 03.12.2019
3318 -273 0 0 0 0 0 16:59 03.12.2019
3319 Clouds 0 1002 73 16093 5.1 310 16:40 03.12.2019
3320 Clouds 0 1002 73 16093 5.1 310 16:40 03.12.2019
3321 Clouds 0 1002 73 16093 5.1 310 16:21 03.12.2019
3322 Clouds -1 1000 69 16093 9.3 300 15:59 03.12.2019
3323 Clear -1 1001 73 16093 5.1 330 15:39 03.12.2019
3324 Clear -1 1001 73 16093 5.1 330 15:39 03.12.2019
3325 Clouds -1 1001 80 16093 3.1 290 15:20 03.12.2019
3326 Clouds -1 1001 80 16093 3.1 290 15:20 03.12.2019
3327 Clouds -1 1001 80 16093 3.1 290 15:20 03.12.2019
3328 Clear -1 1001 73 16093 5.7 330 14:56 03.12.2019
3329 Clear -1 1001 73 16093 4.6 320 14:38 03.12.2019
3330 Clouds -1 1001 86 16093 2.6 0 14:18 03.12.2019
3331 Clouds -1 1000 86 16093 7.2 350 13:38 03.12.2019
3332 Clouds -1 1000 86 16093 7.2 350 13:20 03.12.2019
3333 Clouds -1 1000 86 16093 7.2 350 13:20 03.12.2019
3334 Clouds -1 1000 77 16093 6.7 330 12:58 03.12.2019
3335 Clouds -1 1001 86 16093 4.1 340 12:37 03.12.2019
3336 Clouds -1 1001 86 16093 2.6 0 12:18 03.12.2019
3337 Rain 0 1000 77 14484 8.7 330 11:57 03.12.2019
3338 Rain 0 1000 80 14484 5.1 340 11:38 03.12.2019
3339 Rain 0 1000 88 0 9.71 342 11:19 03.12.2019
3340 -273 0 0 0 0 0 10:56 03.12.2019
3341 Rain 0 1000 88 0 1.5 0 10:38 03.12.2019
3342 Rain 0 1000 92 1609 3.6 10 10:19 03.12.2019
3343 Rain 0 1000 88 16093 3.6 330 09:45 03.12.2019
3344 Rain 0 1000 88 16093 3.6 330 09:24 03.12.2019
3345 Rain 0 1000 74 14484 6.2 330 08:57 03.12.2019
3346 Rain 0 1000 88 8047 2.1 0 08:38 03.12.2019
3347 Clouds 0 1000 86 0 2.1 0 08:20 03.12.2019
3348 Rain 0 1000 86 11265 6.7 340 07:51 03.12.2019
3349 Rain 0 1000 80 6437 7.2 340 07:51 03.12.2019
3350 Rain 0 1000 86 0 2.6 0 07:28 03.12.2019
3351 Rain -1 1000 80 4828 7.7 350 06:45 03.12.2019
3352 Rain 0 1000 80 4828 7.7 350 06:20 03.12.2019
3353 Rain 0 1001 98 4828 5.7 340 05:53 03.12.2019
3354 Rain 0 1001 86 6437 6.7 340 03:44 03.12.2019
3355 Rain 0 1000 80 8047 7.7 350 03:22 03.12.2019
3356 Rain 0 1001 98 2414 3.6 10 02:54 03.12.2019
3357 Rain 0 1001 98 2414 3.6 10 02:32 03.12.2019
3358 Rain 0 1000 86 3219 8.7 350 01:59 03.12.2019
3359 Rain 0 1001 86 3219 10.42 3 01:39 03.12.2019
3360 Rain 1 1001 86 3219 2.6 0 01:20 03.12.2019
3361 Rain 1 1001 86 6437 6.7 360 00:42 03.12.2019
3362 Rain 1 1000 93 0 3.6 60 00:23 03.12.2019
3363 Rain 1 1000 86 9656 8.7 360 23:44 02.12.2019
3364 Rain 1 999 93 4023 10.8 360 23:22 02.12.2019
3365 Rain 1 999 96 9656 7.7 350 22:58 02.12.2019
3366 Rain 1 999 86 4828 3.6 350 22:39 02.12.2019
3367 Rain 1 999 86 2414 11.96 359 22:20 02.12.2019
3368 Rain 1 999 86 1609 5.1 350 21:54 02.12.2019
3369 Rain 1 999 96 1207 4.6 10 21:36 02.12.2019
3370 Rain 1 999 86 805 4.1 340 21:18 02.12.2019
3371 Rain 1 999 86 1609 6.2 350 20:54 02.12.2019
3372 Rain 1 1000 96 805 2.6 0 20:36 02.12.2019
3373 Rain 1 999 86 2012 3.6 330 20:18 02.12.2019
3374 Rain 1 999 80 3219 7.2 340 19:41 02.12.2019
3375 Rain 1 999 80 3219 7.2 340 19:21 02.12.2019
3376 Rain 1 999 91 4023 6.2 350 18:55 02.12.2019
3377 Rain 1 1000 91 1207 2.6 340 18:36 02.12.2019
3378 Rain 1 1000 91 2816 5.1 340 18:18 02.12.2019
3379 Rain 1 1000 91 2816 5.1 340 18:18 02.12.2019
3380 Rain 1 1000 86 3219 4.6 360 17:41 02.12.2019
3381 Rain 2 1000 86 3219 4.6 360 17:21 02.12.2019
3382 Rain 2 1000 86 3219 4.6 360 17:21 02.12.2019
3383 -273 0 0 0 0 0 16:59 02.12.2019
3384 Drizzle 2 1000 93 11265 6.7 360 16:39 02.12.2019
3385 Drizzle 2 1000 93 11265 6.7 360 16:39 02.12.2019
3386 Drizzle 2 1000 93 11265 6.7 360 16:18 02.12.2019
3387 Drizzle 2 1000 86 9656 5.7 10 15:57 02.12.2019
3388 Rain 2 1001 89 3219 1.5 30 15:38 02.12.2019
3389 Rain 2 1000 93 8047 3.6 10 15:20 02.12.2019
3390 Rain 2 1000 86 8047 4.6 10 14:55 02.12.2019
3391 Rain 2 1000 93 6437 4.6 20 14:37 02.12.2019
3392 Rain 1 1000 88 6437 3.6 360 14:19 02.12.2019
3393 Rain 1 999 86 9656 5.7 20 13:55 02.12.2019
3394 Drizzle 1 999 88 11265 3.1 10 13:37 02.12.2019
3395 Rain 1 999 86 0 5.1 30 13:18 02.12.2019
3396 Rain 1 999 86 0 6.7 40 12:42 02.12.2019
3397 Rain 1 999 93 12874 3.6 40 12:21 02.12.2019
3398 Rain 1 999 86 12874 5.7 30 11:57 02.12.2019
3399 Drizzle 2 999 93 11265 3.6 20 11:38 02.12.2019
3400 Rain 2 1000 93 11265 4.6 30 11:19 02.12.2019
3401 Rain 2 999 93 9656 6.2 10 10:57 02.12.2019
3402 Rain 2 999 93 9656 6.2 10 10:39 02.12.2019
3403 Drizzle 2 999 93 6437 4.1 20 10:21 02.12.2019
3404 Rain 2 999 86 16093 7.2 30 09:56 02.12.2019
3405 Rain 2 999 86 16093 3.6 30 09:38 02.12.2019
3406 Rain 2 999 86 16093 5.7 40 09:18 02.12.2019
3407 Rain 2 999 86 0 6.2 30 08:42 02.12.2019
3408 Rain 2 999 86 0 6.2 30 08:23 02.12.2019
3409 Clouds 2 999 93 16093 11.3 40 07:59 02.12.2019
3410 Rain 2 998 93 14484 7.7 30 07:38 02.12.2019
3411 Drizzle 2 998 80 6437 3.6 20 07:20 02.12.2019
3412 Rain 2 998 86 0 9.8 30 06:42 02.12.2019
3413 Rain 2 999 93 0 8.2 30 05:45 02.12.2019
3414 Rain 2 1000 93 11265 3.1 30 05:19 02.12.2019
3415 Drizzle 2 999 86 11265 6.2 50 03:35 02.12.2019
3416 Drizzle 2 1000 93 11265 7.7 70 02:50 02.12.2019
3417 Rain 2 1002 93 4828 5.1 40 01:49 02.12.2019
3418 Rain 2 1002 93 0 8.2 30 01:21 02.12.2019
3419 Rain 2 1003 93 6437 4.6 40 00:41 02.12.2019
3420 Rain 2 1003 93 6437 4.6 40 00:22 02.12.2019
3421 Rain 3 1004 93 4828 4.1 80 23:43 01.12.2019
3422 Rain 2 1004 86 6437 10.3 60 23:22 01.12.2019
3423 Rain 2 1004 93 4023 9.8 60 22:57 01.12.2019
3424 Rain 1 1006 86 6437 8.2 60 22:38 01.12.2019
3425 Rain 1 1006 86 6437 4.6 60 22:19 01.12.2019
3426 Rain 1 1006 91 8047 8.2 60 21:57 01.12.2019
3427 Rain 0 1006 91 11265 7.2 80 21:39 01.12.2019
3428 Rain 0 1006 91 11265 7.2 80 21:21 01.12.2019
3429 Rain 0 1007 86 4828 9.3 70 20:58 01.12.2019
3430 Rain 0 1008 92 3219 4.1 50 20:40 01.12.2019
3431 Rain -1 1008 100 11265 8.2 60 20:21 01.12.2019
3432 Rain -1 1009 86 4828 9.8 60 19:58 01.12.2019
3433 Rain -1 1012 89 4023 3.6 40 19:39 01.12.2019
3434 Rain -1 1012 89 4023 3.6 40 19:39 01.12.2019
3435 Rain 0 1012 80 8047 2.1 20 19:21 01.12.2019
3436 Rain -1 1012 89 12874 6.2 60 18:57 01.12.2019
3437 Rain -1 1012 89 12874 6.2 60 18:38 01.12.2019
3438 Rain -1 1011 89 8047 3.6 70 18:19 01.12.2019
3439 Rain -1 1013 69 12874 5.7 50 17:58 01.12.2019
3440 Rain -1 1014 58 12874 3.6 50 17:40 01.12.2019
3441 Rain -1 1014 58 12874 3.6 50 17:22 01.12.2019
3442 Rain -1 1015 55 16093 4.6 70 16:55 01.12.2019
3443 Clouds -1 1015 50 16093 6.82 104 16:37 01.12.2019
3444 Clouds -1 1015 64 0 3.6 50 16:19 01.12.2019
3445 Clouds -1 1015 62 16093 3.1 60 15:46 01.12.2019
3446 Clouds -1 1015 64 0 5.1 30 15:27 01.12.2019
3447 Clouds -1 1015 64 0 5.1 30 15:26 01.12.2019
3448 Clouds -1 1015 54 16093 6.82 104 14:41 01.12.2019
3449 Clouds -1 1015 54 16093 6.82 104 14:41 01.12.2019
3450 Clouds -1 1015 54 16093 6.82 104 14:41 01.12.2019
3451 Clouds -1 1015 54 16093 6.82 104 14:41 01.12.2019
3452 Clouds -2 1015 50 16093 5.7 50 14:19 01.12.2019
3453 Clouds -2 1015 54 16093 5.7 30 13:56 01.12.2019
3454 Clouds -2 1016 50 16093 5.99 72 13:37 01.12.2019
3455 Clouds -2 1016 50 16093 6.16 73 13:19 01.12.2019
3456 Clear -2 1016 54 16093 6.16 73 12:42 01.12.2019
3457 Clouds -2 1016 46 16093 3.6 20 11:55 01.12.2019
3458 Clear -2 1016 54 16093 6.16 73 11:37 01.12.2019
3459 Clear -2 1016 54 16093 6.16 73 11:37 01.12.2019
3460 Clear -2 1017 47 0 5.1 40 11:19 01.12.2019
3461 Clear -2 1017 50 16093 5.76 48 10:43 01.12.2019
3462 Clear -2 1017 50 16093 5.76 48 10:21 01.12.2019
3463 Clear -2 1016 44 16093 3.1 40 09:55 01.12.2019
3464 Clear -2 1016 44 16093 3.1 40 09:36 01.12.2019
3465 Clear -2 1017 44 16093 2.6 0 09:18 01.12.2019
3466 Clear -2 1017 44 16093 5.76 48 08:42 01.12.2019
3467 Clear -2 1017 43 16093 2.1 10 08:19 01.12.2019
3468 Clear -1 1017 43 16093 4.69 34 07:50 01.12.2019
3469 Clear -1 1017 43 16093 4.69 34 07:29 01.12.2019
3470 Clouds -1 1016 40 16093 4.1 20 06:54 01.12.2019
3471 Clear -1 1016 43 16093 4.69 34 06:25 01.12.2019
3472 Clear -1 1016 43 16093 4.69 34 05:46 01.12.2019
3473 Clear -1 1016 37 16093 4.95 40 04:34 01.12.2019
3474 Clear 1 1017 47 16093 3.6 20 02:47 01.12.2019
3475 Clear 1 1017 29 16093 4.95 40 02:29 01.12.2019
3476 Clear 1 1017 32 16093 6.11 340 01:57 01.12.2019
3477 Clear 1 1017 32 16093 6.11 340 01:39 01.12.2019
3478 Clear 1 1017 32 16093 5.51 340 01:18 01.12.2019
3479 Clear 2 1017 30 16093 5.51 340 00:39 01.12.2019
3480 Clear 2 1017 32 16093 1.5 360 00:20 01.12.2019
3481 Clear 2 1017 32 16093 5.51 340 23:42 30.11.2019
3482 Clear 3 1017 30 16093 1.38 274 23:23 30.11.2019
3483 Clear 4 1016 26 16093 1.38 274 22:50 30.11.2019
3484 Clear 4 1016 26 16093 1.38 274 22:30 30.11.2019
3485 Clouds 5 1016 28 16093 2.6 310 21:58 30.11.2019
3486 Clear 5 1016 24 16093 1.38 274 21:39 30.11.2019
3487 Clear 5 1017 26 16093 2.1 0 21:20 30.11.2019
3488 Clouds 6 1016 26 16093 3.6 320 20:55 30.11.2019
3489 Clear 6 1016 24 16093 1.38 274 20:37 30.11.2019
3490 Clear 6 1016 26 16093 1.5 0 20:19 30.11.2019
3491 Clouds 6 1016 26 16093 3.6 340 19:55 30.11.2019
3492 Clear 6 1017 26 16093 2.96 317 19:36 30.11.2019
3493 Clear 6 1017 25 16093 2.1 0 19:18 30.11.2019
3494 Clouds 5 1016 30 16093 3.1 330 18:55 30.11.2019
3495 Clear 5 1018 30 16093 3.6 340 18:37 30.11.2019
3496 Clear 5 1018 29 16093 2.6 290 18:18 30.11.2019
3497 Clouds 4 1018 38 16093 3.6 300 17:56 30.11.2019
3498 Clear 4 1019 38 16093 1.5 300 17:37 30.11.2019
3499 Clear 3 1019 43 16093 2.6 0 17:19 30.11.2019
3500 Clouds 3 1019 34 16093 5.7 340 16:55 30.11.2019
3501 Clear 2 1020 47 16093 3.51 341 16:37 30.11.2019
3502 Clear 2 1020 50 16093 3.6 280 16:18 30.11.2019
3503 Clear 1 1020 55 16093 3.51 341 15:41 30.11.2019
3504 Clear 1 1019 52 16093 3.1 350 15:19 30.11.2019
3505 Clouds 0 1019 55 16093 4.6 340 14:56 30.11.2019
3506 Clear 0 1019 52 16093 3.51 341 14:38 30.11.2019
3507 Clear -1 1020 63 16093 3.1 0 14:19 30.11.2019
3508 Clouds -1 1019 59 16093 5.1 350 13:57 30.11.2019
3509 Clear -1 1019 59 16093 3.6 10 13:36 30.11.2019
3510 Clear -1 1019 57 16093 3.6 10 13:36 30.11.2019
3511 Clear -1 1019 63 16093 2.1 0 13:18 30.11.2019
3512 Clear -1 1019 57 16093 5.32 346 12:45 30.11.2019
3513 Clear -1 1019 57 16093 5.32 346 12:27 30.11.2019
3514 Clouds -1 1019 59 16093 6.2 350 11:55 30.11.2019
3515 Clear -1 1018 57 16093 5.32 346 11:36 30.11.2019
3516 Clouds -1 1019 59 16093 2.1 0 11:18 30.11.2019
3517 Clear 0 1018 59 16093 6.06 345 10:42 30.11.2019
3518 Clear 0 1018 59 16093 6.06 345 10:21 30.11.2019
3519 Clouds 0 1018 59 16093 5.1 340 09:49 30.11.2019
3520 Clear 0 1019 59 16093 6.06 345 09:29 30.11.2019
3521 Clouds 0 1019 51 16093 6.2 330 08:56 30.11.2019
3522 Clouds 0 1019 51 16093 6.2 330 08:56 30.11.2019
3523 Clouds 0 1019 59 16093 6.06 345 08:38 30.11.2019
3524 Clear 1 1019 51 16093 2.1 0 08:18 30.11.2019
3525 Clouds 1 1019 55 16093 2.1 340 07:42 30.11.2019
3526 Clouds 1 1019 55 16093 2.1 340 07:23 30.11.2019
3527 Clear 1 1019 55 16093 5.73 338 06:45 30.11.2019
3528 Clear 1 1019 55 16093 5.73 338 06:26 30.11.2019
3529 Clouds 1 1020 55 16093 5.1 340 04:59 30.11.2019
3530 Clear 2 1021 55 16093 4.1 340 03:37 30.11.2019
3531 Clear 2 1021 51 16093 5.01 352 02:25 30.11.2019
3532 Clouds 2 1021 59 16093 6.2 360 01:50 30.11.2019
3533 Clear 2 1021 51 16093 1.5 340 01:24 30.11.2019
3534 Clear 2 1021 48 16093 3.6 340 00:44 30.11.2019
3535 Clear 2 1021 52 0 2.1 0 00:21 30.11.2019
3536 Clear 3 1021 48 16093 2.6 320 23:44 29.11.2019
3537 Clear 3 1021 48 16093 2.6 320 23:25 29.11.2019
3538 Clear 3 1021 48 16093 4.1 300 23:25 29.11.2019
3539 Clear 3 1021 48 16093 2.6 330 22:48 29.11.2019
3540 Clear 4 1021 48 16093 3.1 300 22:27 29.11.2019
3541 Clouds 4 1021 51 16093 5.1 320 21:58 29.11.2019
3542 Clear 4 1021 44 16093 5.01 338 21:40 29.11.2019
3543 Clear 5 1021 44 16093 3.6 340 21:22 29.11.2019
3544 Clouds 5 1020 48 16093 6.2 320 20:56 29.11.2019
3545 Clear 5 1021 41 16093 5.7 360 20:37 29.11.2019
3546 Clear 5 1022 44 16093 4.6 290 20:18 29.11.2019
3547 Clear 4 1022 44 16093 5.7 310 19:55 29.11.2019
3548 Clear 4 1022 44 16093 5.7 310 19:37 29.11.2019
3549 Clear 4 1022 44 16093 5.7 310 19:37 29.11.2019
3550 Clouds 4 1022 41 16093 5.7 320 19:18 29.11.2019
3551 Clouds 4 1022 41 16093 5.7 320 19:18 29.11.2019
3552 Clear 4 1023 51 16093 4.6 320 18:42 29.11.2019
3553 Clear 4 1023 47 16093 5.63 332 18:24 29.11.2019
3554 Clouds 3 1022 51 16093 6.2 330 17:58 29.11.2019
3555 Clear 3 1023 51 16093 4.6 340 17:40 29.11.2019
3556 Clear 3 1023 51 16093 4.6 340 17:21 29.11.2019
3557 Clear 2 1024 51 16093 4.6 10 16:43 29.11.2019
3558 Clear 2 1024 51 16093 4.6 10 16:21 29.11.2019
3559 Clouds 1 1024 55 16093 5.7 350 15:57 29.11.2019
3560 Clear 1 1024 55 16093 5.7 350 15:39 29.11.2019
3561 Clear 1 1024 55 16093 5.7 350 15:20 29.11.2019
3562 Clear 0 1025 58 16093 3.6 340 14:40 29.11.2019
3563 Clear -1 1024 63 16093 8.07 337 14:22 29.11.2019
3564 Clouds -1 1024 64 16093 6.2 340 13:58 29.11.2019
3565 Clear -1 1024 63 16093 8.07 337 13:38 29.11.2019
3566 Clear -1 1024 68 16093 7.86 337 13:20 29.11.2019
3567 Clear -1 1024 68 16093 3.6 320 12:44 29.11.2019
3568 Clear -1 1024 68 16093 1.5 0 12:25 29.11.2019
3569 Clouds -1 1024 62 16093 7.2 350 11:57 29.11.2019
3570 Clear -1 1024 62 16093 5.7 350 11:38 29.11.2019
3571 Clear -1 1024 60 16093 3.1 0 11:19 29.11.2019
3572 Clouds -1 1023 59 16093 8.7 340 10:58 29.11.2019
3573 Clear 0 1024 60 16093 4.1 330 10:39 29.11.2019
3574 Clear 0 1024 59 16093 1.5 300 10:21 29.11.2019
3575 Clouds 0 1023 59 16093 7.2 340 09:59 29.11.2019
3576 Clear 0 1023 59 16093 4.1 350 09:39 29.11.2019
3577 Clear 0 1023 59 16093 4.1 350 09:21 29.11.2019
3578 Clouds 0 1022 64 16093 6.2 350 08:55 29.11.2019
3579 Clear 1 1023 64 16093 7.39 344 08:37 29.11.2019
3580 Clear 1 1023 59 16093 9.85 347 08:19 29.11.2019
3581 Clear 1 1023 59 16093 6.7 360 07:42 29.11.2019
3582 Clear 1 1023 59 16093 6.7 360 07:23 29.11.2019
3583 Clouds 2 1023 59 16093 4.6 360 06:54 29.11.2019
3584 Clouds 2 1023 59 16093 4.6 360 06:35 29.11.2019
3585 Clouds 2 1023 64 16093 5.7 350 05:47 29.11.2019
3586 Clouds 3 1023 64 16093 5.7 350 05:23 29.11.2019
3587 Clear 3 1022 60 16093 4.6 350 03:43 29.11.2019
3588 Clear 3 1021 65 0 3.1 260 03:19 29.11.2019
3589 Clear 4 1021 60 16093 11.99 337 02:25 29.11.2019
3590 Clear 4 1019 60 0 3.1 0 01:50 29.11.2019
3591 Clear 5 1019 56 16093 5.7 290 01:24 29.11.2019
3592 Clear 5 1019 56 16093 7.2 340 00:42 29.11.2019
3593 Clear 5 1019 56 16093 7.2 340 00:20 29.11.2019
3594 Clear 6 1017 56 16093 4.6 340 23:45 28.11.2019
3595 Clear 6 1017 52 16093 5.7 300 23:22 28.11.2019
3596 Clouds 6 1016 52 16093 11.8 320 22:58 28.11.2019
3597 Clear 7 1016 52 16093 6.2 340 22:38 28.11.2019
3598 Clear 7 1016 52 16093 6.2 340 22:38 28.11.2019
3599 Clear 7 1016 52 16093 6.2 340 22:38 28.11.2019
3600 Clouds 7 1015 52 16093 5.1 300 22:20 28.11.2019
3601 Clouds 7 1015 52 16093 12.3 330 21:58 28.11.2019
3602 Clouds 7 1015 49 16093 9.3 360 21:39 28.11.2019
3603 Clouds 8 1014 49 16093 3.6 340 21:19 28.11.2019
3604 Clouds 8 1013 49 16093 9.3 320 20:55 28.11.2019
3605 Clouds 8 1014 52 16093 9.3 330 20:37 28.11.2019
3606 Clouds 8 1013 45 16093 5.7 350 20:18 28.11.2019
3607 Clouds 9 1012 65 16093 8.7 340 19:41 28.11.2019
3608 Clouds 9 1011 65 16093 6.2 300 19:23 28.11.2019
3609 Clouds 9 1010 57 16093 11.8 310 18:59 28.11.2019
3610 Clouds 9 1011 65 16093 9.3 320 18:40 28.11.2019
3611 Rain 10 1010 65 16093 8.7 300 18:19 28.11.2019
3612 Rain 10 1009 53 16093 10.8 300 18:00 28.11.2019
3613 Rain 10 1010 65 16093 9.8 330 17:41 28.11.2019
3614 -273 0 0 0 0 0 17:23 28.11.2019
3615 Clouds 10 1009 53 16093 11.3 310 16:58 28.11.2019
3616 Clouds 10 1009 66 16093 8.2 320 16:38 28.11.2019
3617 Clouds 10 1009 66 16093 8.2 320 16:19 28.11.2019
3618 Clouds 9 1008 46 16093 12.3 310 15:55 28.11.2019
3619 Clouds 9 1009 66 16093 8.2 310 15:36 28.11.2019
3620 Clouds 9 1008 49 16093 4.6 290 15:18 28.11.2019
3621 Clouds 8 1008 52 16093 7.2 310 14:41 28.11.2019
3622 Clouds 8 1008 52 16093 6.2 270 14:22 28.11.2019
3623 Clouds 8 1007 49 16093 9.8 290 13:59 28.11.2019
3624 Clouds 8 1007 49 16093 9.8 290 13:59 28.11.2019
3625 Clouds 7 1008 56 16093 11.3 310 13:41 28.11.2019
3626 Clouds 7 1008 49 16093 6.2 270 13:22 28.11.2019
3627 Clear 7 1007 52 16093 7.7 300 12:49 28.11.2019
3628 Clear 7 1007 52 16093 7.7 300 12:29 28.11.2019
3629 Clouds 7 1007 49 16093 5.1 290 11:59 28.11.2019
3630 Clouds 7 1006 45 16093 11.3 290 11:59 28.11.2019
3631 Clouds 8 1007 49 16093 7.7 310 11:41 28.11.2019
3632 Clouds 8 1006 45 16093 5.7 280 11:21 28.11.2019
3633 Clouds 8 1006 42 16093 7.7 290 10:59 28.11.2019
3634 Clear 8 1007 45 16093 7.2 310 10:40 28.11.2019
3635 Clouds 8 1006 45 16093 6.2 270 10:20 28.11.2019
3636 Clouds 8 1006 45 16093 9.8 300 09:41 28.11.2019
3637 Clouds 8 1006 45 16093 9.8 300 09:23 28.11.2019
3638 Rain 8 1004 39 16093 12.3 270 08:59 28.11.2019
3639 Rain 8 1004 39 16093 12.3 270 08:59 28.11.2019
3640 Rain 8 1004 39 16093 12.3 270 08:59 28.11.2019
3641 Rain 8 1004 39 16093 12.3 270 08:59 28.11.2019
3642 Rain 8 1006 42 16093 12.9 300 08:40 28.11.2019
3643 Rain 9 1006 42 16093 12.9 300 08:21 28.11.2019
3644 Rain 9 1005 43 16093 9.8 310 07:42 28.11.2019
3645 Rain 10 1005 43 16093 9.8 310 07:24 28.11.2019
3646 Rain 11 1003 37 16093 11.3 300 06:52 28.11.2019
3647 Rain 11 1003 37 16093 11.3 300 06:52 28.11.2019
3648 Rain 11 1004 59 16093 8.2 310 06:34 28.11.2019
3649 Rain 13 1002 37 16093 12.9 280 05:51 28.11.2019
3650 Rain 13 1003 81 0 3.6 280 05:18 28.11.2019
3651 Rain 13 1003 81 0 3.6 280 05:18 28.11.2019
3652 Rain 13 1003 81 0 3.6 280 05:18 28.11.2019
3653 Clouds 13 1002 76 16093 3.1 280 02:51 28.11.2019
3654 Clouds 13 1001 71 16093 6.2 240 01:57 28.11.2019
3655 Rain 13 1002 67 16093 4.1 280 00:49 28.11.2019
3656 Rain 13 1002 67 16093 4.1 280 00:25 28.11.2019
3657 Rain 13 1002 71 16093 4.6 210 23:59 27.11.2019
3658 Rain 13 1003 76 16093 3.6 240 23:38 27.11.2019
3659 Rain 13 1003 71 0 2.6 260 23:19 27.11.2019
3660 Rain 13 1003 71 16093 4.1 180 22:55 27.11.2019
3661 Thunderstorm 13 1003 58 16093 3.1 220 22:36 27.11.2019
3662 Clouds 13 1003 71 0 4.1 190 22:18 27.11.2019
3663 -273 0 0 0 0 0 21:55 27.11.2019
3664 Clouds 13 1005 51 16093 2.6 220 21:36 27.11.2019
3665 Clouds 13 1006 62 16093 2.6 0 21:18 27.11.2019
3666 Clouds 13 1006 58 16093 4.1 190 20:55 27.11.2019
3667 Clouds 13 1006 58 16093 4.1 190 20:55 27.11.2019
3668 Clouds 14 1006 58 16093 4.1 190 20:36 27.11.2019
3669 Clouds 13 1007 67 16093 2.1 0 20:18 27.11.2019
3670 Clouds 13 1007 76 16093 4.6 160 19:54 27.11.2019
3671 -273 0 0 0 0 0 19:54 27.11.2019
3672 Clouds 13 1008 67 16093 1.5 200 19:36 27.11.2019
3673 Clouds 13 1010 67 16093 2.1 0 19:18 27.11.2019
3674 Clouds 13 1009 76 0 3.1 210 19:18 27.11.2019
3675 Clouds 12 1011 76 16093 4.95 187 18:38 27.11.2019
3676 Clouds 12 1011 76 16093 4.95 187 18:38 27.11.2019
3677 Clouds 12 1012 76 16093 2.6 140 18:19 27.11.2019
3678 Clouds 12 1011 82 16093 4.1 170 17:59 27.11.2019
3679 Clouds 12 1012 76 16093 4.95 187 17:40 27.11.2019
3680 Clouds 12 1012 76 16093 4.95 187 17:40 27.11.2019
3681 Clouds 11 1013 100 16093 4.6 160 17:22 27.11.2019
3682 Clouds 11 1013 82 16093 3.6 150 16:58 27.11.2019
3683 Clouds 11 1013 82 16093 3.6 150 16:58 27.11.2019
3684 Clouds 11 1014 93 16093 1.5 60 16:39 27.11.2019
3685 Clear 10 1014 81 16093 1.5 180 16:21 27.11.2019
3686 Clouds 10 1014 76 16093 6.67 176 15:58 27.11.2019
3687 Clouds 10 1013 81 11265 3.1 140 15:58 27.11.2019
3688 Clouds 9 1015 76 12874 2.6 0 15:40 27.11.2019
3689 Clouds 8 1016 81 0 2.1 0 15:21 27.11.2019
3690 Clouds 8 1016 87 14484 3.6 80 14:59 27.11.2019
3691 Clouds 7 1016 81 16093 6.67 176 14:41 27.11.2019
3692 Clouds 6 1016 81 16093 1.67 183 14:23 27.11.2019
3693 Clouds 6 1016 87 16093 2.1 50 13:58 27.11.2019
3694 Mist 6 1017 93 2414 1.67 183 13:39 27.11.2019
3695 Clouds 5 1016 81 16093 1.78 171 13:19 27.11.2019
3696 Clear 5 1016 87 16093 2.1 60 12:59 27.11.2019
3697 Clear 5 1016 81 16093 1.78 171 12:40 27.11.2019
3698 Clear 5 1017 81 16093 1.5 80 12:19 27.11.2019
3699 Clear 5 1017 81 16093 1.78 171 11:54 27.11.2019
3700 Clear 5 1017 81 16093 1.78 171 11:36 27.11.2019
3701 Clouds 4 1017 75 16093 0.77 194 11:18 27.11.2019
3702 Clear 4 1017 81 16093 0.77 194 10:41 27.11.2019
3703 Clear 4 1017 81 16093 0.77 194 10:23 27.11.2019
3704 Clear 5 1018 81 16093 0.77 194 09:48 27.11.2019
3705 Clear 5 1018 81 16093 0.77 194 09:26 27.11.2019
3706 Clouds 5 1017 70 16093 0.77 194 08:59 27.11.2019
3707 Clear 5 1018 75 16093 0.77 194 08:41 27.11.2019
3708 Clear 5 1018 75 16093 2.04 237 08:22 27.11.2019
3709 Clear 5 1018 70 16093 2.04 237 07:47 27.11.2019
3710 Clouds 6 1018 66 16093 2.04 237 07:28 27.11.2019
3711 Clouds 6 1017 62 16093 2.6 180 06:53 27.11.2019
3712 Clear 6 1017 70 16093 2.04 237 06:35 27.11.2019
3713 Clear 7 1018 61 16093 2.04 237 05:45 27.11.2019
3714 Clouds 7 1018 62 16093 2.86 232 05:20 27.11.2019
3715 Clear 7 1018 57 16093 2.86 232 04:47 27.11.2019
3716 Clear 7 1018 57 16093 2.86 232 04:29 27.11.2019
3717 Clear 7 1017 57 16093 2.86 232 03:39 27.11.2019
3718 Clouds 8 1017 57 16093 3.1 220 03:19 27.11.2019
3719 Clear 8 1018 57 16093 3.53 231 02:21 27.11.2019
3720 Clear 9 1017 50 16093 3.41 223 00:50 27.11.2019
3721 Clear 9 1017 50 16093 3.41 223 00:30 27.11.2019
3722 Clear 10 1017 54 16093 3.41 223 23:54 26.11.2019
3723 Clear 10 1017 54 16093 3.41 223 23:36 26.11.2019
3724 Clear 11 1017 54 16093 2.79 226 23:18 26.11.2019
3725 Clear 12 1016 41 16093 2.79 226 22:39 26.11.2019
3726 Clear 13 1016 44 16093 2.1 0 22:20 26.11.2019
3727 Clouds 13 1016 50 16093 4.1 170 21:59 26.11.2019
3728 Clear 13 1016 38 16093 2.79 226 21:38 26.11.2019
3729 Clear 14 1017 41 16093 2.6 0 21:20 26.11.2019
3730 Clouds 14 1016 47 16093 4.1 180 20:57 26.11.2019
3731 Clear 14 1016 38 16093 2.79 226 20:37 26.11.2019
3732 Clear 14 1016 41 16093 2.07 218 20:19 26.11.2019
3733 Clouds 14 1016 44 16093 3.6 170 19:55 26.11.2019
3734 Clouds 14 1016 44 16093 3.6 170 19:55 26.11.2019
3735 Clouds 14 1016 44 16093 3.6 170 19:55 26.11.2019
3736 Clear 14 1016 44 16093 2.07 218 19:37 26.11.2019
3737 Clear 14 1016 41 16093 4.6 220 19:19 26.11.2019
3738 Clouds 15 1016 41 16093 4.6 230 18:57 26.11.2019
3739 Clear 14 1017 47 16093 2.07 218 18:39 26.11.2019
3740 Clear 14 1017 54 0 2.1 0 18:20 26.11.2019
3741 Clear 14 1017 50 16093 2.07 218 17:58 26.11.2019
3742 -273 0 0 0 0 0 17:39 26.11.2019
3743 Clear 12 1018 47 16093 4.6 240 17:21 26.11.2019
3744 Clouds 11 1017 44 16093 2.6 230 16:57 26.11.2019
3745 Clear 11 1018 66 16093 4.4 230 16:37 26.11.2019
3746 Clear 9 1018 57 16093 2.6 0 16:18 26.11.2019
3747 Clouds 9 1017 50 16093 4.6 230 15:58 26.11.2019
3748 Clouds 9 1017 50 16093 4.6 230 15:58 26.11.2019
3749 Clear 8 1017 81 16093 4.4 230 15:37 26.11.2019
3750 Clear 7 1017 66 16093 2.1 240 15:19 26.11.2019
3751 Clear 6 1017 86 11265 4.4 230 14:47 26.11.2019
3752 Clear 4 1017 86 11265 4 214 14:25 26.11.2019
3753 Clear 2 1016 93 16093 4 214 13:57 26.11.2019
3754 Clear 2 1016 93 11265 4 214 13:38 26.11.2019
3755 Clouds 1 1016 93 16093 1.5 220 13:19 26.11.2019
3756 Clear 1 1016 86 16093 3.83 217 12:38 26.11.2019
3757 Clear 1 1016 86 16093 3.83 217 12:38 26.11.2019
3758 Clouds 2 1015 86 16093 3.83 217 12:20 26.11.2019
3759 Clear 2 1016 86 16093 3.83 217 11:58 26.11.2019
3760 Clear 2 1016 86 16093 3.83 217 11:39 26.11.2019
3761 Mist 2 1015 86 4828 4.43 249 11:20 26.11.2019
3762 Clouds 2 1015 70 16093 2.6 170 10:58 26.11.2019
3763 Clear 2 1015 86 16093 4.43 249 10:39 26.11.2019
3764 Clear 2 1015 86 16093 4.43 249 10:20 26.11.2019
3765 Clouds 3 1015 70 16093 2.6 210 09:56 26.11.2019
3766 Clear 3 1015 75 0 2.1 240 09:37 26.11.2019
3767 Clear 3 1015 65 16093 2.1 0 09:18 26.11.2019
3768 Clear 3 1015 80 16093 4.43 249 08:43 26.11.2019
3769 Clear 3 1015 80 16093 5.42 231 08:22 26.11.2019
3770 Clear 3 1014 75 16093 5.42 231 07:44 26.11.2019
3771 Clear 3 1014 75 16093 5.42 231 07:25 26.11.2019
3772 Clouds 4 1013 70 16093 2.6 190 06:55 26.11.2019
3773 Clear 4 1014 75 0 2.6 230 06:33 26.11.2019
3774 Clear 4 1014 70 16093 5.42 231 05:41 26.11.2019
3775 Clouds 4 1014 66 16093 3.6 190 03:59 26.11.2019
3776 Clear 5 1013 65 16093 6.05 232 02:49 26.11.2019
3777 Clear 5 1013 61 16093 4.95 228 01:33 26.11.2019
3778 Clear 6 1013 61 16093 5.16 224 00:52 26.11.2019
3779 Clear 7 1012 61 16093 5.16 224 00:29 26.11.2019
3780 Clear 8 1012 57 16093 5.16 224 23:41 25.11.2019
3781 Clear 8 1012 57 16093 4.52 248 23:21 25.11.2019
3782 Clouds 9 1011 53 16093 4.1 200 22:59 25.11.2019
3783 Clear 10 1011 53 16093 4.52 248 22:39 25.11.2019
3784 Clouds 10 1011 53 16093 2.6 220 22:19 25.11.2019
3785 Clouds 11 1011 53 16093 3.6 190 21:59 25.11.2019
3786 Clear 11 1011 50 16093 3.1 290 21:40 25.11.2019
3787 Clouds 11 1011 53 16093 4.52 248 21:21 25.11.2019
3788 Clouds 11 1011 62 16093 4.6 230 20:57 25.11.2019
3789 Clear 11 1010 53 16093 4.43 248 20:39 25.11.2019
3790 Clear 11 1010 53 16093 3.1 0 20:20 25.11.2019
3791 Clear 11 1010 50 16093 2.6 270 19:56 25.11.2019
3792 Clear 11 1010 50 16093 2.6 270 19:38 25.11.2019
3793 Clear 11 1010 50 16093 2.6 0 19:19 25.11.2019
3794 Clouds 11 1010 57 16093 6.2 230 18:57 25.11.2019
3795 Clear 11 1010 50 16093 3.6 270 18:39 25.11.2019
3796 Clear 10 1010 50 0 2.6 200 18:21 25.11.2019
3797 Clear 10 1010 50 0 2.6 200 17:58 25.11.2019
3798 Clear 10 1010 53 16093 4.45 251 17:39 25.11.2019
3799 Clear 10 1010 53 16093 4.45 251 17:39 25.11.2019
3800 Clear 9 1011 61 0 3.1 0 17:20 25.11.2019
3801 Clear 8 1010 57 16093 2.1 290 16:57 25.11.2019
3802 Clear 8 1010 57 16093 2.1 290 16:39 25.11.2019
3803 Clear 8 1011 65 0 3.6 250 16:21 25.11.2019
3804 Clouds 7 1010 71 16093 1.5 310 15:55 25.11.2019
3805 Clouds 7 1010 70 0 3.6 260 15:37 25.11.2019
3806 Clouds 7 1010 71 16093 2.1 270 15:18 25.11.2019
3807 Clear 5 1009 71 16093 3.99 254 14:42 25.11.2019
3808 Clear 4 1009 73 16093 6.07 268 14:23 25.11.2019
3809 Clouds 4 1009 60 16093 4.1 300 13:56 25.11.2019
3810 Clear 3 1009 73 16093 6.07 268 13:37 25.11.2019
3811 Clear 3 1009 65 16093 3.1 260 13:18 25.11.2019
3812 Clear 3 1009 69 16093 6.43 275 12:57 25.11.2019
3813 Clear 3 1008 74 16093 6.43 275 12:38 25.11.2019
3814 Clouds 3 1008 69 16093 3.6 260 12:19 25.11.2019
3815 Clouds 3 1008 69 16093 3.6 260 12:19 25.11.2019
3816 Clear 3 1008 69 16093 3.6 310 11:40 25.11.2019
3817 Clear 3 1008 69 16093 3.6 310 11:40 25.11.2019
3818 Clear 3 1007 69 16093 8.55 299 11:21 25.11.2019
3819 Clear 3 1007 65 16093 5.7 290 10:59 25.11.2019
3820 Clear 3 1007 72 16093 5.1 300 10:41 25.11.2019
3821 Clear 3 1007 72 0 4.6 250 10:19 25.11.2019
3822 Clear 3 1006 74 16093 5.7 300 09:44 25.11.2019
3823 Clear 3 1006 74 16093 5.7 300 09:26 25.11.2019
3824 Clear 3 1007 74 16093 4.1 300 08:58 25.11.2019
3825 Clear 4 1006 69 16093 4.1 280 08:38 25.11.2019
3826 Clear 4 1005 69 16093 4.6 280 08:19 25.11.2019
3827 Clear 4 1005 69 16093 5.1 280 07:40 25.11.2019
3828 Clear 4 1004 75 16093 3.6 270 07:18 25.11.2019
3829 Clear 4 1004 71 16093 4.6 290 06:39 25.11.2019
3830 Clear 4 1003 71 16093 4.1 270 06:19 25.11.2019
3831 Clear 4 1003 75 0 5.1 260 05:33 25.11.2019
3832 Clear 4 1002 71 16093 10.55 295 04:50 25.11.2019
3833 Clear 5 1001 71 16093 10.55 295 02:45 25.11.2019
3834 Clouds 5 1000 60 16093 7.7 290 01:57 25.11.2019
3835 Clear 5 1000 65 16093 5.1 300 01:38 25.11.2019
3836 Clear 5 999 70 0 2.1 0 01:19 25.11.2019
3837 Clouds 5 998 70 16093 3.1 270 00:21 25.11.2019
3838 Rain 5 997 63 16093 8.2 310 23:46 24.11.2019
3839 Rain 5 995 86 16093 9.8 310 23:21 24.11.2019
3840 Rain 5 995 75 16093 12.3 300 22:59 24.11.2019
3841 Rain 5 996 70 16093 4.1 290 22:40 24.11.2019
3842 Rain 5 994 81 16093 7.2 310 22:20 24.11.2019
3843 Rain 5 994 75 16093 9.8 300 21:58 24.11.2019
3844 Rain 5 994 75 16093 10.8 300 21:40 24.11.2019
3845 Rain 5 993 75 16093 8.7 300 21:21 24.11.2019
3846 Rain 5 992 81 16093 8.2 300 20:58 24.11.2019
3847 Rain 5 992 81 16093 2.6 0 20:38 24.11.2019
3848 Rain 5 992 87 16093 3.6 300 20:19 24.11.2019
3849 Rain 5 991 81 16093 5.7 310 19:56 24.11.2019
3850 Rain 5 990 81 11265 7.7 320 19:38 24.11.2019
3851 Rain 5 991 87 0 1.5 0 19:20 24.11.2019
3852 Rain 5 990 87 3219 8.2 310 18:59 24.11.2019
3853 Rain 5 991 93 4828 3.6 290 18:38 24.11.2019
3854 Rain 5 991 93 4828 3.6 290 18:19 24.11.2019
3855 Drizzle 5 991 100 9656 6.2 340 17:57 24.11.2019
3856 Rain 5 992 87 4828 3.1 340 17:39 24.11.2019
3857 Rain 5 991 87 4023 2.6 0 17:20 24.11.2019
3858 Rain 5 990 87 1609 8.2 340 16:57 24.11.2019
3859 Rain 5 992 93 2414 2.1 0 16:39 24.11.2019
3860 Rain 5 992 93 2414 2.1 0 16:39 24.11.2019
3861 Rain 6 992 93 1609 1.5 0 16:20 24.11.2019
3862 Rain 6 991 93 4828 9.3 30 15:45 24.11.2019
3863 Rain 6 991 93 4828 9.3 30 15:26 24.11.2019
3864 Rain 6 991 93 3219 10.8 50 14:59 24.11.2019
3865 Rain 6 993 100 6437 3.6 40 14:39 24.11.2019
3866 Drizzle 6 992 93 6437 3.6 20 14:19 24.11.2019
3867 Rain 6 992 100 4023 6.7 50 13:56 24.11.2019
3868 Rain 6 993 93 3219 6.7 30 13:37 24.11.2019
3869 Rain 6 994 93 8047 6.2 50 13:19 24.11.2019
3870 Rain 6 993 87 8047 11.3 50 12:55 24.11.2019
3871 Rain 6 995 93 8047 9.3 60 12:37 24.11.2019
3872 Rain 6 995 93 0 8.7 30 12:18 24.11.2019
3873 Rain 5 996 93 8047 5.1 50 11:37 24.11.2019
3874 Rain 5 996 93 8047 5.1 50 11:37 24.11.2019
3875 Rain 5 998 93 6437 3.1 0 11:19 24.11.2019
3876 Rain 5 999 93 0 5.7 30 10:48 24.11.2019
3877 Rain 5 999 93 0 5.7 30 10:30 24.11.2019
3878 Rain 5 999 87 8047 7.2 60 09:59 24.11.2019
3879 Rain 5 1001 100 3219 4.6 20 09:38 24.11.2019
3880 Rain 4 1001 100 3219 4.6 20 09:19 24.11.2019
3881 Rain 4 1002 87 4828 5.1 40 08:57 24.11.2019
3882 Rain 4 1003 100 4023 2.6 0 08:38 24.11.2019
3883 Rain 4 1003 100 4828 4.6 30 08:19 24.11.2019
3884 Rain 4 1003 100 4828 3.6 40 07:47 24.11.2019
3885 Rain 4 1005 87 0 2.6 30 07:21 24.11.2019
3886 Rain 3 1006 75 12874 5.14 123 06:51 24.11.2019
3887 Rain 4 1008 70 0 2.1 210 05:24 24.11.2019
3888 Drizzle 4 1008 69 16093 4.22 188 04:40 24.11.2019
3889 Clouds 5 1011 48 16093 4.22 188 02:42 24.11.2019
3890 Clouds 5 1012 48 16093 5.33 188 01:56 24.11.2019
3891 Clouds 5 1012 48 16093 5.63 190 01:34 24.11.2019
3892 Clear 5 1012 45 16093 5.63 190 00:52 24.11.2019
3893 Clear 5 1013 56 0 2.6 240 00:25 24.11.2019
3894 Clear 5 1013 56 0 2.6 240 23:57 23.11.2019
3895 Clear 5 1013 45 16093 5.63 190 23:39 23.11.2019
3896 Clouds 5 1012 45 16093 2.2 223 23:20 23.11.2019
3897 Clouds 5 1012 36 16093 3.6 190 22:57 23.11.2019
3898 Clear 6 1014 42 16093 2.2 223 22:37 23.11.2019
3899 Clear 6 1014 36 16093 2.1 260 22:19 23.11.2019
3900 Clouds 6 1013 36 16093 3.6 220 21:55 23.11.2019
3901 Clear 7 1014 39 16093 2.6 280 21:36 23.11.2019
3902 Clear 7 1014 39 16093 3.1 0 21:18 23.11.2019
3903 Clear 7 1014 39 16093 2.2 223 20:38 23.11.2019
3904 Clear 7 1014 39 16093 3.79 230 20:20 23.11.2019
3905 Rain 7 1014 36 16093 4.1 240 19:57 23.11.2019
3906 Rain 7 1016 36 16093 2.6 270 19:38 23.11.2019
3907 Rain 7 1015 42 0 3.1 210 19:19 23.11.2019
3908 Rain 7 1015 42 0 3.1 210 19:19 23.11.2019
3909 Rain 7 1015 42 0 3.1 210 19:19 23.11.2019
3910 Rain 7 1015 42 0 3.1 210 18:57 23.11.2019
3911 Clear 7 1016 36 16093 2.76 242 18:38 23.11.2019
3912 Clear 6 1016 42 0 3.1 0 18:19 23.11.2019
3913 Clear 6 1016 42 0 3.1 0 18:19 23.11.2019
3914 Clear 6 1017 44 16093 2.76 242 17:43 23.11.2019
3915 Clouds 5 1017 41 16093 4.17 307 17:21 23.11.2019
3916 Clear 5 1018 48 16093 4.17 307 16:57 23.11.2019
3917 Clear 4 1018 48 16093 4.17 307 16:38 23.11.2019
3918 Clear 4 1018 52 0 1.5 0 16:20 23.11.2019
3919 Clouds 3 1018 48 16093 4.1 300 15:58 23.11.2019
3920 Clear 3 1018 51 16093 5.7 320 15:39 23.11.2019
3921 Clear 2 1019 55 16093 4.1 270 15:19 23.11.2019
3922 Clouds 2 1018 47 16093 4.6 290 14:57 23.11.2019
3923 Clouds 2 1018 47 16093 4.6 290 14:57 23.11.2019
3924 Clear 1 1019 59 16093 4.17 307 14:38 23.11.2019
3925 Clear 1 1019 55 16093 2.6 260 14:20 23.11.2019
3926 Clear -1 1019 60 16093 5.18 282 13:44 23.11.2019
3927 Clear -1 1018 51 16093 2.6 280 13:22 23.11.2019
3928 Clouds -1 1018 51 16093 4.1 290 12:59 23.11.2019
3929 Clear -1 1018 59 16093 5.73 277 12:40 23.11.2019
3930 Clear -1 1018 51 16093 3.6 270 12:22 23.11.2019
3931 Clear 0 1017 59 16093 5.73 277 11:43 23.11.2019
3932 Clear 0 1017 51 16093 1.5 0 11:21 23.11.2019
3933 Clear 0 1017 59 16093 6.57 296 10:45 23.11.2019
3934 Clear 0 1017 59 16093 6.57 296 10:22 23.11.2019
3935 Clear 1 1017 59 16093 6.57 296 09:44 23.11.2019
3936 Clear 1 1017 51 16093 6.57 296 09:22 23.11.2019
3937 Clear 1 1016 51 16093 4.6 290 08:59 23.11.2019
3938 Clear 1 1017 59 16093 6.8 294 08:40 23.11.2019
3939 Clear 1 1017 47 16093 3.6 280 08:18 23.11.2019
3940 Rain 2 1017 55 16093 9.29 322 07:41 23.11.2019
3941 Clear 2 1016 48 16093 7.7 310 06:52 23.11.2019
3942 Clear 2 1016 48 0 9.29 322 06:24 23.11.2019
3943 Clear 3 1016 48 0 9.29 322 05:57 23.11.2019
3944 Clear 3 1016 51 16093 4.1 330 05:31 23.11.2019
3945 Clear 3 1015 48 16093 5.7 320 04:54 23.11.2019
3946 Clear 3 1015 48 16093 5.7 320 04:32 23.11.2019
3947 Clear 4 1015 44 16093 4.6 320 03:26 23.11.2019
3948 Clear 5 1014 44 16093 8.2 310 02:37 23.11.2019
3949 Clear 6 1012 52 0 2.6 0 01:40 23.11.2019
3950 Clear 7 1012 45 16093 7.7 320 00:47 23.11.2019
3951 Clear 7 1011 49 0 2.1 0 00:19 23.11.2019
3952 Clear 7 1010 52 16093 6.2 320 23:55 22.11.2019
3953 Clear 7 1010 52 16093 6.2 320 23:36 22.11.2019
3954 Rain 7 1009 52 16093 5.1 290 23:18 22.11.2019
3955 Rain 7 1009 61 16093 6.7 320 22:55 22.11.2019
3956 Rain 8 1009 61 16093 6.7 320 22:36 22.11.2019
3957 Rain 8 1008 64 16093 3.6 290 22:18 22.11.2019
3958 Rain 8 1008 66 0 3.1 0 22:18 22.11.2019
3959 Rain 8 1008 66 0 3.1 0 22:18 22.11.2019
3960 Rain 9 1007 81 0 2.1 0 21:40 22.11.2019
3961 Rain 9 1007 81 0 2.1 0 21:21 22.11.2019
3962 Rain 9 1005 76 16093 7.2 310 20:55 22.11.2019
3963 Rain 9 1006 81 0 1.5 0 20:37 22.11.2019
3964 Rain 9 1006 87 9656 2.6 280 20:19 22.11.2019
3965 Rain 9 1006 76 0 5.7 260 19:39 22.11.2019
3966 Rain 10 1006 81 6437 3.6 250 19:21 22.11.2019
3967 Rain 10 1006 81 6437 3.6 250 18:59 22.11.2019
3968 Rain 10 1006 71 16093 10.52 246 18:38 22.11.2019
3969 Rain 11 1006 62 0 5.1 270 18:20 22.11.2019
3970 Clouds 11 1007 62 16093 10.52 246 17:42 22.11.2019
3971 Clouds 11 1007 62 16093 8.71 236 17:23 22.11.2019
3972 Clouds 11 1007 54 16093 4.6 220 16:56 22.11.2019
3973 Clouds 11 1008 57 16093 4.1 280 16:37 22.11.2019
3974 Clouds 11 1008 57 16093 4.1 280 16:19 22.11.2019
3975 Clouds 10 1009 57 16093 3.6 270 15:39 22.11.2019
3976 Clouds 10 1009 57 16093 3.6 270 15:20 22.11.2019
3977 Clouds 9 1008 57 16093 6.2 220 14:55 22.11.2019
3978 Clouds 9 1008 57 16093 6.2 220 14:55 22.11.2019
3979 Clouds 9 1009 61 16093 1.5 270 14:37 22.11.2019
3980 Clouds 9 1009 61 16093 1.5 270 14:37 22.11.2019
3981 Clouds 9 1011 61 16093 2.6 0 14:18 22.11.2019
3982 Clouds 8 1011 66 16093 7.58 235 13:39 22.11.2019
3983 Clouds 8 1011 61 16093 3.1 0 13:20 22.11.2019
3984 Clouds 8 1011 61 16093 3.1 0 13:20 22.11.2019
3985 Clouds 8 1011 61 16093 3.1 0 13:20 22.11.2019
3986 Clouds 8 1010 61 16093 4.1 230 12:59 22.11.2019
3987 Clouds 8 1011 61 16093 8.66 239 12:40 22.11.2019
3988 Clouds 8 1011 61 16093 8.66 239 12:40 22.11.2019
3989 Clouds 8 1011 61 16093 8.66 239 12:40 22.11.2019
3990 Clouds 8 1011 61 16093 8.66 239 12:40 22.11.2019
3991 Clouds 8 1011 70 0 2.6 250 12:20 22.11.2019
3992 Clouds 8 1011 61 16093 4.1 220 11:58 22.11.2019
3993 Clouds 8 1012 65 16093 8.66 239 11:38 22.11.2019
3994 Clouds 8 1012 61 16093 3.1 0 11:19 22.11.2019
3995 Clouds 8 1012 65 16093 8.03 235 11:19 22.11.2019
3996 Clouds 8 1011 61 16093 4.1 210 10:57 22.11.2019
3997 Clouds 8 1012 61 16093 8.03 235 10:39 22.11.2019
3998 Clouds 8 1012 61 16093 4.1 210 10:20 22.11.2019
3999 Clouds 8 1012 57 16093 4.6 200 09:55 22.11.2019
4000 Clouds 8 1013 57 16093 8.03 235 09:37 22.11.2019
4001 Clouds 8 1014 57 16093 2.6 240 09:18 22.11.2019
4002 Clouds 8 1014 57 16093 1.5 220 08:42 22.11.2019
4003 Clouds 8 1015 57 16093 3.6 220 08:22 22.11.2019
4004 Clouds 8 1015 64 16093 1.5 200 07:44 22.11.2019
4005 Clouds 8 1015 64 16093 1.5 200 07:22 22.11.2019
4006 Clouds 8 1015 70 16093 4.6 210 06:49 22.11.2019
4007 Clouds 8 1016 64 16093 8.79 226 06:29 22.11.2019
4008 Clear 8 1016 64 16093 8.79 226 05:45 22.11.2019
4009 Clouds 9 1017 53 16093 1.5 0 04:19 22.11.2019
4010 Clouds 9 1018 62 16093 6.11 209 02:48 22.11.2019
4011 Clouds 8 1018 62 16093 6.11 209 02:29 22.11.2019
4012 Clear 8 1019 58 16093 4.78 227 01:45 22.11.2019
4013 Clear 8 1019 60 16093 5.11 228 01:19 22.11.2019
4014 Rain 8 1019 60 16093 5.11 228 00:50 22.11.2019
4015 Rain 8 1019 60 16093 5.11 228 00:23 22.11.2019
4016 Rain 8 1019 60 16093 5.11 228 23:46 21.11.2019
4017 Rain 9 1019 56 16093 3.61 244 23:28 21.11.2019
4018 Clouds 9 1019 43 16093 3.6 190 22:58 21.11.2019
4019 Clear 10 1020 56 16093 3.61 244 22:39 21.11.2019
4020 Clear 10 1020 56 16093 3.61 244 22:39 21.11.2019
4021 Clear 10 1020 43 16093 3.61 244 22:21 21.11.2019
4022 Clear 11 1020 40 16093 3.61 244 21:56 21.11.2019
4023 Clear 11 1020 40 16093 3.61 244 21:37 21.11.2019
4024 Clouds 11 1020 40 16093 4.1 230 21:19 21.11.2019
4025 Clouds 11 1020 37 16093 2.1 290 20:58 21.11.2019
4026 Clear 11 1020 40 16093 2.6 290 20:38 21.11.2019
4027 Clear 11 1020 50 0 3.1 210 20:19 21.11.2019
4028 Clouds 11 1020 40 16093 2.6 310 19:59 21.11.2019
4029 Clear 11 1021 43 16093 2.35 293 19:40 21.11.2019
4030 Clear 11 1021 46 0 2.6 240 19:21 21.11.2019
4031 Clear 10 1022 43 16093 2.35 293 18:56 21.11.2019
4032 Clear 10 1022 43 16093 2.35 293 18:37 21.11.2019
4033 Clouds 10 1021 43 16093 2.6 340 18:19 21.11.2019
4034 Clouds 10 1021 49 16093 2.1 310 17:57 21.11.2019
4035 Clear 9 1022 46 16093 2.1 320 17:38 21.11.2019
4036 Clouds 9 1022 46 16093 3.1 300 17:19 21.11.2019
4037 Clear 8 1023 65 16093 3.1 300 16:41 21.11.2019
4038 Clear 8 1023 65 16093 3.1 300 16:21 21.11.2019
4039 Clouds 7 1022 56 16093 4.6 340 15:57 21.11.2019
4040 Clear 7 1023 65 16093 2.24 338 15:38 21.11.2019
4041 Clear 6 1023 61 0 3.6 70 15:19 21.11.2019
4042 Clear 5 1023 65 16093 2.24 338 14:56 21.11.2019
4043 Clear 5 1023 65 16093 2.24 338 14:36 21.11.2019
4044 Clear 3 1023 65 16093 2.1 330 14:18 21.11.2019
4045 Clear 3 1023 74 16093 7.13 347 13:39 21.11.2019
4046 Clear 2 1023 64 16093 6.38 351 13:20 21.11.2019
4047 Clouds 2 1023 69 16093 6.38 351 12:57 21.11.2019
4048 Clear 2 1023 69 16093 6.38 351 12:38 21.11.2019
4049 Clear 2 1023 69 16093 6.38 351 12:19 21.11.2019
4050 Clear 2 1022 69 16093 6.38 351 11:41 21.11.2019
4051 Clear 3 1022 64 16093 1.5 0 11:22 21.11.2019
4052 Clouds 3 1021 60 16093 2.6 330 10:59 21.11.2019
4053 Clear 3 1022 69 16093 8.49 346 10:41 21.11.2019
4054 Clear 3 1021 64 16093 1.5 0 10:22 21.11.2019
4055 Clouds 3 1021 60 16093 2.1 360 09:57 21.11.2019
4056 Clear 3 1021 60 16093 2.1 330 09:38 21.11.2019
4057 Clear 4 1021 64 16093 3.1 300 09:19 21.11.2019
4058 Clear 4 1021 60 16093 4.1 330 08:42 21.11.2019
4059 Clear 4 1021 60 0 9.15 338 08:20 21.11.2019
4060 Clear 4 1020 65 16093 9.15 338 07:43 21.11.2019
4061 Clear 4 1020 60 0 1.5 0 07:18 21.11.2019
4062 Clear 4 1020 65 16093 9.15 338 06:57 21.11.2019
4063 Clear 4 1020 65 16093 9.15 338 06:34 21.11.2019
4064 Clouds 4 1020 65 16093 3.6 330 05:38 21.11.2019
4065 Clear 5 1019 56 16093 4.1 340 03:34 21.11.2019
4066 Clear 5 1019 60 16093 2.6 340 02:42 21.11.2019
4067 Clear 5 1019 60 16093 2.6 340 02:23 21.11.2019
4068 Clouds 6 1018 56 16093 3.6 330 01:45 21.11.2019
4069 Clouds 6 1018 52 16093 2.6 0 01:19 21.11.2019
4070 Clouds 6 1017 56 16093 4.1 330 00:38 21.11.2019
4071 Clear 6 1017 52 16093 3.6 300 00:18 21.11.2019
4072 Clouds 6 1017 56 16093 5.1 350 23:42 20.11.2019
4073 Clouds 6 1017 56 16093 5.1 350 23:21 20.11.2019
4074 Clouds 7 1016 52 16093 10.3 310 22:57 20.11.2019
4075 Clouds 7 1016 49 16093 6.2 350 22:37 20.11.2019
4076 Clear 7 1016 45 16093 5.7 310 22:19 20.11.2019
4077 Clouds 7 1016 49 16093 6.2 350 22:19 20.11.2019
4078 Clouds 7 1015 49 16093 6.7 320 21:57 20.11.2019
4079 Clouds 7 1015 49 16093 6.7 320 21:38 20.11.2019
4080 Clouds 7 1015 49 16093 6.7 320 21:38 20.11.2019
4081 Clouds 8 1015 34 16093 1.5 0 21:19 20.11.2019
4082 Clouds 8 1014 39 16093 5.1 340 20:56 20.11.2019
4083 Clear 8 1015 37 16093 4.1 340 20:38 20.11.2019
4084 Clouds 8 1015 42 16093 1.5 0 20:20 20.11.2019
4085 Clouds 8 1014 49 16093 5.7 330 19:56 20.11.2019
4086 Clouds 7 1014 61 16093 6.2 340 19:37 20.11.2019
4087 Clouds 7 1015 49 16093 3.1 0 19:18 20.11.2019
4088 Clouds 7 1014 65 16093 9.8 320 18:58 20.11.2019
4089 Clouds 7 1014 56 16093 7.7 320 18:38 20.11.2019
4090 Clouds 7 1015 52 16093 2.6 0 18:20 20.11.2019
4091 Clouds 6 1014 56 16093 6.2 330 17:56 20.11.2019
4092 Clouds 6 1014 56 16093 6.2 330 17:56 20.11.2019
4093 Clouds 6 1015 49 16093 3.6 10 17:38 20.11.2019
4094 Clouds 6 1015 60 16093 2.6 0 17:19 20.11.2019
4095 Clouds 6 1014 67 16093 6.7 340 16:55 20.11.2019
4096 Clouds 5 1015 48 16093 5.7 320 16:36 20.11.2019
4097 Clouds 5 1015 60 16093 2.6 0 16:18 20.11.2019
4098 Clouds 5 1015 67 0 1.5 0 15:41 20.11.2019
4099 Clouds 5 1015 75 16093 1.5 310 15:21 20.11.2019
4100 Clouds 4 1014 67 16093 6.7 330 14:59 20.11.2019
4101 Clouds 4 1014 75 16093 3.1 0 14:40 20.11.2019
4102 Clouds 4 1014 70 0 2.1 0 14:21 20.11.2019
4103 Clouds 4 1014 70 0 2.6 0 13:58 20.11.2019
4104 Clouds 4 1014 70 0 2.6 0 13:39 20.11.2019
4105 Clouds 4 1013 69 16093 6.7 330 13:20 20.11.2019
4106 Clouds 4 1013 73 16093 6.2 330 12:55 20.11.2019
4107 Clouds 4 1013 73 16093 5.94 331 12:36 20.11.2019
4108 Clouds 4 1013 75 16093 2.1 360 12:18 20.11.2019
4109 Clouds 4 1012 75 0 1.5 260 11:41 20.11.2019
4110 Clouds 4 1012 75 0 1.5 260 11:22 20.11.2019
4111 Clear 4 1012 75 16093 5.1 350 10:56 20.11.2019
4112 Clear 4 1012 73 16093 2.6 330 10:37 20.11.2019
4113 Clear 4 1012 73 16093 2.6 330 10:19 20.11.2019
4114 Clouds 4 1012 73 16093 4.76 336 09:43 20.11.2019
4115 Clouds 4 1012 70 16093 1.5 0 09:22 20.11.2019
4116 Clouds 5 1011 75 16093 3.6 320 08:58 20.11.2019
4117 Clouds 5 1012 70 16093 3.6 360 08:39 20.11.2019
4118 Clouds 5 1012 72 16093 5.14 342 08:20 20.11.2019
4119 Clouds 5 1011 72 16093 5.14 342 07:47 20.11.2019
4120 Clouds 5 1011 72 16093 5.14 342 07:26 20.11.2019
4121 Clouds 5 1011 70 16093 4.1 360 06:49 20.11.2019
4122 Clouds 5 1012 72 16093 3.6 30 06:22 20.11.2019
4123 Clouds 5 1012 72 16093 5.14 342 05:42 20.11.2019
4124 Clouds 5 1012 64 16093 4.85 332 03:45 20.11.2019
4125 Clouds 6 1012 61 0 2.1 0 02:22 20.11.2019
4126 Clouds 6 1011 65 16093 3.54 319 01:33 20.11.2019
4127 Clouds 6 1011 65 16093 2.6 360 00:42 20.11.2019
4128 Clouds 6 1011 65 16093 5.1 360 23:59 19.11.2019
4129 Clouds 7 1010 65 16093 4.1 340 23:27 19.11.2019
4130 Clouds 7 1010 61 16093 5.1 350 22:59 19.11.2019
4131 Clouds 7 1010 57 16093 4.49 284 22:41 19.11.2019
4132 Clouds 7 1010 61 16093 3.1 0 22:19 19.11.2019
4133 Clouds 8 1009 61 16093 3.1 340 21:57 19.11.2019
4134 Clouds 8 1009 61 16093 3.1 340 21:38 19.11.2019
4135 Clouds 8 1009 65 16093 3.6 290 21:20 19.11.2019
4136 Clouds 8 1009 57 16093 4.1 300 20:57 19.11.2019
4137 Clouds 8 1009 61 16093 4.1 300 20:39 19.11.2019
4138 Clouds 8 1009 61 16093 3.1 300 20:21 19.11.2019
4139 Clouds 8 1008 61 16093 5.7 290 19:59 19.11.2019
4140 Clouds 8 1008 61 16093 3.1 320 19:41 19.11.2019
4141 Clouds 8 1009 65 16093 2.6 270 19:20 19.11.2019
4142 Clouds 9 1008 61 16093 4.6 310 18:57 19.11.2019
4143 Clouds 8 1008 66 16093 4.1 320 18:38 19.11.2019
4144 Clouds 8 1009 70 16093 3.7 256 18:18 19.11.2019
4145 Clouds 8 1008 65 16093 4.6 300 17:56 19.11.2019
4146 Clouds 8 1009 75 16093 3.6 290 17:37 19.11.2019
4147 Clouds 7 1009 70 16093 1.5 0 17:19 19.11.2019
4148 Rain 7 1009 70 16093 4.1 280 16:56 19.11.2019
4149 Rain 7 1009 75 16093 3.1 270 16:37 19.11.2019
4150 Rain 7 1009 75 16093 3.6 290 16:18 19.11.2019
4151 Rain 6 1009 93 0 2.6 260 15:44 19.11.2019
4152 Rain 6 1009 93 0 2.6 260 15:25 19.11.2019
4153 Rain 5 1009 87 0 3.6 250 14:57 19.11.2019
4154 Rain 5 1009 87 11265 1.5 0 14:39 19.11.2019
4155 Rain 5 1009 87 0 3.6 260 14:20 19.11.2019
4156 Clouds 4 1009 87 11265 2.6 290 13:42 19.11.2019
4157 Clouds 4 1008 87 16093 1.5 250 13:20 19.11.2019
4158 Clouds 4 1008 87 14484 5.94 264 12:42 19.11.2019
4159 Clouds 4 1007 93 0 2.1 270 12:23 19.11.2019
4160 Rain 4 1007 87 16093 2.1 320 11:59 19.11.2019
4161 Rain 4 1007 93 0 2.6 270 11:39 19.11.2019
4162 Rain 4 1007 93 0 2.6 270 11:20 19.11.2019
4163 Rain 4 1007 81 16093 2.6 300 10:58 19.11.2019
4164 Rain 4 1007 87 16093 2.6 240 10:40 19.11.2019
4165 Rain 4 1007 100 14484 1.5 270 10:20 19.11.2019
4166 Rain 4 1007 93 0 2.6 250 10:20 19.11.2019
4167 Rain 4 1007 100 9656 1.5 0 09:42 19.11.2019
4168 Rain 4 1007 93 0 1.5 0 09:21 19.11.2019
4169 Rain 4 1007 93 0 1.5 0 08:57 19.11.2019
4170 Rain 4 1007 93 4023 2.6 310 08:38 19.11.2019
4171 Rain 4 1006 93 4023 1.5 300 08:20 19.11.2019
4172 Rain 4 1006 93 9656 3.1 300 07:42 19.11.2019
4173 Rain 4 1006 100 0 3.1 270 07:23 19.11.2019
4174 Rain 4 1006 93 4023 1.5 340 06:55 19.11.2019
4175 Rain 4 1007 93 6437 1.5 290 06:36 19.11.2019
4176 Rain 4 1005 87 4828 2.1 360 05:51 19.11.2019
4177 Rain 4 1006 93 0 2.6 280 04:48 19.11.2019
4178 Drizzle 4 1006 93 6437 3.47 339 03:39 19.11.2019
4179 Rain 4 1007 93 3219 2.6 360 03:19 19.11.2019
4180 Rain 4 1006 93 4023 3.47 339 02:39 19.11.2019
4181 Drizzle 4 1006 93 2414 2.6 30 01:47 19.11.2019
4182 Rain 4 1007 87 0 2.1 0 00:46 19.11.2019
4183 Rain 4 1007 93 14484 2.6 0 00:19 19.11.2019
4184 Rain 4 1006 81 9656 5.7 350 23:39 18.11.2019
4185 Rain 4 1007 93 8047 4.1 320 23:19 18.11.2019
4186 Drizzle 4 1007 93 4023 3.1 20 22:46 18.11.2019
4187 Drizzle 5 1007 93 4023 3.1 20 22:24 18.11.2019
4188 Rain 5 1006 86 3219 5.7 350 21:57 18.11.2019
4189 Rain 5 1007 81 3219 1.5 0 21:39 18.11.2019
4190 Drizzle 5 1007 87 4023 2.6 320 21:20 18.11.2019
4191 Rain 5 1007 81 3219 5.7 330 20:57 18.11.2019
4192 Rain 5 1007 81 3219 5.1 340 20:39 18.11.2019
4193 Rain 5 1007 86 11265 3.1 0 20:19 18.11.2019
4194 Rain 5 1007 86 3219 5.1 330 19:57 18.11.2019
4195 Rain 5 1008 81 16093 1.5 0 19:38 18.11.2019
4196 Rain 5 1008 86 16093 3.1 0 19:20 18.11.2019
4197 Rain 5 1007 81 4023 6.7 330 18:56 18.11.2019
4198 Rain 5 1008 100 8047 5.1 360 18:38 18.11.2019
4199 Rain 5 1009 86 11265 2.6 0 18:19 18.11.2019
4200 -273 0 0 0 0 0 17:55 18.11.2019
4201 Drizzle 4 1009 86 2414 5.1 340 17:37 18.11.2019
4202 Mist 4 1009 100 4023 4.6 360 17:18 18.11.2019
4203 Drizzle 4 1011 93 4828 5.1 10 16:42 18.11.2019
4204 Drizzle 4 1011 100 4023 5.7 360 16:24 18.11.2019
4205 Clouds 4 1011 80 16093 5.7 30 15:58 18.11.2019
4206 Clouds 4 1011 93 16093 3.6 20 15:39 18.11.2019
4207 Mist 4 1012 86 6437 3.1 0 15:20 18.11.2019
4208 Rain 3 1011 100 3219 4.1 10 14:56 18.11.2019
4209 Rain 3 1012 93 4023 2.6 30 14:37 18.11.2019
4210 Rain 3 1013 93 11265 3.6 10 14:18 18.11.2019
4211 Rain 3 1013 93 6437 2.1 30 13:42 18.11.2019
4212 Rain 3 1013 93 6437 2.1 30 13:23 18.11.2019
4213 Rain 3 1013 93 4828 3.1 0 12:40 18.11.2019
4214 Rain 3 1013 93 4023 3.1 0 12:20 18.11.2019
4215 Rain 3 1013 93 4023 5.1 10 11:56 18.11.2019
4216 Mist 3 1014 93 4023 1.5 20 11:38 18.11.2019
4217 Mist 3 1014 86 9656 3.1 0 11:19 18.11.2019
4218 Clouds 3 1014 93 14484 3.6 20 10:43 18.11.2019
4219 Clouds 3 1014 86 16093 4.1 40 10:25 18.11.2019
4220 Mist 3 1014 86 8047 4.6 10 09:57 18.11.2019
4221 Clouds 3 1014 83 16093 3.6 40 09:38 18.11.2019
4222 Clouds 3 1015 86 16093 4.6 10 09:20 18.11.2019
4223 Clouds 3 1014 80 16093 5.7 20 08:55 18.11.2019
4224 Clouds 3 1016 83 16093 4.6 10 08:36 18.11.2019
4225 Clouds 3 1016 84 16093 3.6 40 08:18 18.11.2019
4226 Clouds 3 1016 75 0 6.2 30 07:44 18.11.2019
4227 Clouds 3 1016 75 0 6.2 30 07:23 18.11.2019
4228 Clouds 3 1017 69 16093 6.7 40 06:48 18.11.2019
4229 Clouds 3 1017 69 16093 6.7 40 06:28 18.11.2019
4230 Clouds 3 1018 64 16093 3.1 0 05:42 18.11.2019
4231 Clouds 4 1019 64 16093 6.2 30 03:59 18.11.2019
4232 Clouds 4 1022 64 16093 4.1 60 01:40 18.11.2019
4233 Clouds 4 1021 60 16093 9.3 50 00:54 18.11.2019
4234 Clouds 4 1022 60 16093 5.1 50 00:19 18.11.2019
4235 Clouds 4 1022 56 16093 8.2 40 23:41 17.11.2019
4236 Clouds 4 1022 56 16093 4.1 80 23:21 17.11.2019
4237 Clouds 4 1022 60 16093 10.3 50 22:57 17.11.2019
4238 Clouds 4 1022 60 16093 10.3 50 22:57 17.11.2019
4239 Clouds 4 1023 60 16093 5.1 50 22:39 17.11.2019
4240 Clouds 5 1022 56 16093 6.2 50 22:20 17.11.2019
4241 Clouds 5 1022 60 16093 10.3 60 21:56 17.11.2019
4242 Clouds 5 1022 56 16093 7.2 30 21:37 17.11.2019
4243 Clouds 5 1023 56 16093 3.6 60 21:18 17.11.2019
4244 Clouds 5 1023 60 16093 10.3 60 20:55 17.11.2019
4245 Clouds 5 1023 60 16093 6.7 80 20:36 17.11.2019
4246 Clouds 5 1024 65 16093 5.1 60 20:18 17.11.2019
4247 Clouds 5 1024 60 16093 10.3 50 19:55 17.11.2019
4248 Clouds 5 1024 56 16093 6.2 50 19:36 17.11.2019
4249 Clouds 5 1025 60 16093 5.1 60 19:18 17.11.2019
4250 Clouds 5 1026 52 16093 8.2 60 18:54 17.11.2019
4251 Clouds 5 1026 52 16093 8.2 60 18:36 17.11.2019
4252 Clouds 5 1026 52 16093 8.2 60 18:18 17.11.2019
4253 Clouds 4 1025 60 16093 9.3 40 17:56 17.11.2019
4254 Clouds 4 1026 56 16093 6.7 70 17:38 17.11.2019
4255 Clear 4 1027 55 16093 4.1 50 17:18 17.11.2019
4256 Clouds 4 1027 48 16093 6.2 50 16:55 17.11.2019
4257 Clouds 3 1027 48 16093 6.2 50 16:37 17.11.2019
4258 Clouds 3 1028 55 16093 3.6 60 16:19 17.11.2019
4259 Clouds 2 1028 47 16093 5.7 50 15:41 17.11.2019
4260 Clouds 2 1029 51 16093 3.6 40 15:19 17.11.2019
4261 Clouds 1 1028 59 16093 10.8 50 14:57 17.11.2019
4262 Clouds 1 1028 78 16093 4.6 40 14:39 17.11.2019
4263 Clouds 0 1028 59 0 5.7 30 14:21 17.11.2019
4264 Clouds 0 1028 55 16093 6.7 30 13:59 17.11.2019
4265 Clouds 0 1028 76 16093 3.6 30 13:40 17.11.2019
4266 Clouds 0 1028 76 16093 3.6 30 13:20 17.11.2019
4267 Clouds 0 1028 76 16093 3.6 30 13:20 17.11.2019
4268 Clouds -1 1028 42 16093 2.1 30 12:45 17.11.2019
4269 Clouds -1 1028 42 16093 2.1 30 12:25 17.11.2019
4270 Clouds -1 1028 75 16093 6.7 20 11:59 17.11.2019
4271 Clouds -1 1029 39 16093 3.6 20 11:41 17.11.2019
4272 Clouds -1 1029 51 0 7.2 50 11:21 17.11.2019
4273 Clouds -1 1029 42 16093 4.1 30 11:21 17.11.2019
4274 Clouds -1 1029 65 16093 4.6 20 10:59 17.11.2019
4275 Clouds -1 1029 36 16093 4.1 50 10:40 17.11.2019
4276 Clouds -2 1030 39 16093 3.6 50 10:21 17.11.2019
4277 Clouds -2 1029 36 16093 8.82 51 09:42 17.11.2019
4278 Clouds -2 1029 36 16093 8.82 51 09:24 17.11.2019
4279 Clouds -2 1030 36 16093 3.1 30 08:47 17.11.2019
4280 Clouds -2 1030 36 16093 3.1 30 08:27 17.11.2019
4281 Clouds -2 1030 39 16093 5.7 20 07:59 17.11.2019
4282 Clear -2 1030 59 0 4.6 30 07:40 17.11.2019
4283 Clear -2 1031 30 16093 5.1 40 07:20 17.11.2019
4284 Clouds -2 1030 54 16093 6.7 30 06:54 17.11.2019
4285 Clear -2 1031 54 16093 4.1 40 06:30 17.11.2019
4286 Clear -1 1031 54 16093 9.58 55 05:39 17.11.2019
4287 Clear -1 1031 26 16093 4.1 40 04:20 17.11.2019
4288 Clear -1 1031 48 16093 2.6 40 03:40 17.11.2019
4289 Clear -1 1031 48 16093 2.6 40 03:22 17.11.2019
4290 Clear 0 1032 26 16093 2.6 0 02:19 17.11.2019
4291 Clear 0 1032 27 16093 9.36 48 01:22 17.11.2019
4292 Clear 1 1031 23 16093 9.44 53 00:41 17.11.2019
4293 Clear 1 1031 13 16093 9.44 53 00:21 17.11.2019
4294 Clear 2 1031 18 16093 3.6 60 23:42 16.11.2019
4295 Clear 2 1031 13 16093 3.1 0 23:19 16.11.2019
4296 Clear 2 1031 18 16093 5.1 110 22:56 16.11.2019
4297 Clear 3 1031 18 16093 5.7 110 22:38 16.11.2019
4298 Clear 3 1031 12 16093 5.1 40 22:18 16.11.2019
4299 Clear 4 1031 17 16093 5.7 110 21:41 16.11.2019
4300 Clear 4 1031 17 16093 5.7 110 21:23 16.11.2019
4301 Clouds 4 1030 20 16093 7.7 70 20:58 16.11.2019
4302 Clear 4 1030 14 16093 5.7 100 20:39 16.11.2019
4303 Clear 4 1031 16 16093 5.1 60 20:20 16.11.2019
4304 Clear 4 1031 15 16093 5.1 90 19:56 16.11.2019
4305 Clear 4 1031 15 16093 5.1 90 19:38 16.11.2019
4306 Clear 4 1031 14 16093 4.1 60 19:19 16.11.2019
4307 Clear 4 1031 17 16093 3.6 70 18:43 16.11.2019
4308 Clear 4 1031 17 16093 3.6 70 18:43 16.11.2019
4309 Clear 4 1031 17 16093 3.6 70 18:25 16.11.2019
4310 Clouds 4 1031 21 16093 10.8 60 17:56 16.11.2019
4311 Clear 3 1031 23 16093 5.7 40 17:37 16.11.2019
4312 Clear 3 1032 13 16093 6.7 40 17:18 16.11.2019
4313 Clear 3 1031 27 16093 6.7 60 16:47 16.11.2019
4314 Clear 2 1031 27 16093 6.7 60 16:28 16.11.2019
4315 Clouds 2 1031 25 16093 9.8 40 15:57 16.11.2019
4316 Clear 2 1031 29 16093 7.7 60 15:39 16.11.2019
4317 Clear 1 1032 34 16093 5.1 40 15:20 16.11.2019
4318 Clear 1 1032 34 16093 5.1 40 15:20 16.11.2019
4319 Clear 1 1031 34 16093 6.2 40 14:42 16.11.2019
4320 Clear 0 1031 34 16093 6.2 40 14:22 16.11.2019
4321 Clear 0 1031 34 16093 6.2 40 14:22 16.11.2019
4322 Clouds 0 1031 37 16093 6.7 20 13:58 16.11.2019
4323 Clear 0 1031 34 16093 5.7 40 13:39 16.11.2019
4324 Clear 0 1031 34 16093 4.1 40 13:20 16.11.2019
4325 Clouds 0 1030 40 16093 5.7 10 12:59 16.11.2019
4326 Clouds 1 1029 43 16093 5.7 50 12:41 16.11.2019
4327 Clouds 1 1029 43 16093 5.7 50 12:20 16.11.2019
4328 Clouds 2 1028 37 16093 8.2 20 11:55 16.11.2019
4329 Clouds 2 1027 55 16093 4.6 50 11:37 16.11.2019
4330 Clear 2 1027 47 16093 6.2 50 11:18 16.11.2019
4331 Clouds 2 1026 55 16093 11.33 27 10:42 16.11.2019
4332 Clouds 2 1026 55 16093 11.33 27 10:24 16.11.2019
4333 Clouds 3 1026 60 16093 5.1 20 09:58 16.11.2019
4334 Clear 3 1025 55 16093 11.33 27 09:40 16.11.2019
4335 Clear 3 1026 55 16093 2.1 0 09:19 16.11.2019
4336 Clear 3 1025 51 16093 4.1 360 08:41 16.11.2019
4337 Clear 3 1025 51 16093 4.1 350 08:20 16.11.2019
4338 Clear 3 1025 51 16093 4.1 350 08:20 16.11.2019
4339 Clear 4 1025 51 16093 3.6 360 07:46 16.11.2019
4340 Clear 4 1025 51 16093 3.6 360 07:22 16.11.2019
4341 Clear 4 1025 48 16093 9.99 356 07:22 16.11.2019
4342 Clouds 4 1024 48 16093 6.7 340 06:59 16.11.2019
4343 Clear 4 1024 56 16093 4.6 360 06:41 16.11.2019
4344 Clear 4 1025 52 16093 9.99 356 06:20 16.11.2019
4345 Clear 6 1024 52 16093 2.1 350 04:34 16.11.2019
4346 Clear 5 1023 48 16093 11 332 03:26 16.11.2019
4347 Clear 5 1023 48 16093 11 332 03:26 16.11.2019
4348 Clear 5 1022 45 16093 11 332 02:36 16.11.2019
4349 Clear 5 1022 45 16093 11 332 02:36 16.11.2019
4350 Clear 5 1022 36 16093 6.91 315 01:38 16.11.2019
4351 Clear 6 1022 36 16093 6.76 329 00:51 16.11.2019
4352 Clear 6 1022 36 16093 6.76 329 00:30 16.11.2019
4353 Clear 7 1021 34 16093 6.76 329 23:58 15.11.2019
4354 Clear 8 1021 34 16093 6.76 329 23:38 15.11.2019
4355 Clear 8 1021 34 16093 7.11 273 23:20 15.11.2019
4356 Clear 9 1021 31 16093 2.6 280 22:42 15.11.2019
4357 Clear 9 1021 31 16093 7.11 273 22:20 15.11.2019
4358 Clouds 10 1020 29 16093 2.6 230 21:58 15.11.2019
4359 Clear 10 1020 34 16093 7.11 273 21:40 15.11.2019
4360 Clear 10 1021 31 16093 1.5 0 21:20 15.11.2019
4361 Clouds 10 1020 29 16093 3.1 240 20:57 15.11.2019
4362 Clear 10 1021 31 16093 4.1 280 20:39 15.11.2019
4363 Clear 10 1021 31 16093 4.1 280 20:20 15.11.2019
4364 Clouds 10 1020 31 16093 4.1 210 19:57 15.11.2019
4365 Clear 10 1022 40 0 4.1 230 19:38 15.11.2019
4366 Clear 10 1022 34 16093 2.6 0 19:20 15.11.2019
4367 Clouds 10 1021 31 16093 3.1 260 18:56 15.11.2019
4368 Clear 10 1022 39 16093 4.6 280 18:38 15.11.2019
4369 Clear 9 1023 36 16093 2.1 240 18:20 15.11.2019
4370 Clear 9 1023 39 16093 3.6 300 17:42 15.11.2019
4371 Clear 9 1023 39 16093 3.6 300 17:42 15.11.2019
4372 Clear 8 1024 49 0 4.6 260 17:24 15.11.2019
4373 Clouds 7 1023 33 16093 4.1 240 16:56 15.11.2019
4374 Clear 7 1024 44 16093 4.76 258 16:37 15.11.2019
4375 Rain 6 1024 36 16093 2.1 0 16:19 15.11.2019
4376 Rain 5 1025 59 16093 4.76 258 15:38 15.11.2019
4377 Clear 4 1025 41 16093 4.76 258 15:20 15.11.2019
4378 Clouds 3 1024 39 16093 3.6 230 14:57 15.11.2019
4379 Clear 3 1025 69 16093 4.76 258 14:38 15.11.2019
4380 Clear 0 1025 51 16093 5.07 280 14:19 15.11.2019
4381 Clouds 0 1024 48 16093 5.07 280 13:58 15.11.2019
4382 Clear -1 1025 54 16093 5.07 280 13:39 15.11.2019
4383 Clear -1 1025 53 16093 4.94 275 13:21 15.11.2019
4384 Clouds -1 1024 48 16093 1.5 210 12:58 15.11.2019
4385 Clear -1 1025 53 16093 4.94 275 12:40 15.11.2019
4386 Clear -1 1025 64 0 3.1 250 12:20 15.11.2019
4387 Clouds 0 1024 51 16093 4.94 275 11:57 15.11.2019
4388 Clear 0 1025 53 16093 4.94 275 11:38 15.11.2019
4389 Clear -1 1025 51 16093 2.1 260 11:20 15.11.2019
4390 Clouds 0 1024 44 16093 2.6 260 10:56 15.11.2019
4391 Clear 0 1024 60 0 2.6 270 10:38 15.11.2019
4392 Clear 0 1024 51 16093 1.5 260 10:18 15.11.2019
4393 Clear 0 1025 60 0 3.6 270 09:41 15.11.2019
4394 Clear 0 1025 55 16093 2.6 260 09:20 15.11.2019
4395 Clear 1 1025 64 16093 5.37 273 08:44 15.11.2019
4396 Clear 1 1025 64 16093 5.37 273 08:44 15.11.2019
4397 Clear 1 1025 48 16093 2.1 0 08:23 15.11.2019
4398 Clouds 1 1026 59 16093 5.78 255 07:49 15.11.2019
4399 Clouds 1 1025 60 16093 3.6 250 07:49 15.11.2019
4400 Clouds 1 1026 59 16093 5.78 255 07:28 15.11.2019
4401 Clear 2 1026 59 16093 5.78 255 06:52 15.11.2019
4402 Clear 2 1026 59 16093 5.78 255 06:32 15.11.2019
4403 Clear 2 1027 51 16093 5.78 255 05:48 15.11.2019
4404 Clear 3 1027 51 16093 7.38 243 05:26 15.11.2019
4405 Clouds 3 1026 41 16093 4.6 240 03:58 15.11.2019
4406 Clear 4 1027 52 16093 7.38 243 03:25 15.11.2019
4407 Clear 4 1027 52 16093 2.6 240 02:21 15.11.2019
4408 Clear 4 1027 48 16093 1.5 210 01:36 15.11.2019
4409 Clear 4 1027 48 16093 1.5 210 01:36 15.11.2019
4410 Rain 4 1027 42 16093 7.36 219 01:18 15.11.2019
4411 Rain 4 1027 52 0 4.1 240 00:34 15.11.2019
4412 Clear 5 1027 45 16093 7.36 219 23:57 14.11.2019
4413 Clear 5 1027 45 16093 7.36 219 23:38 14.11.2019
4414 Clear 5 1027 36 16093 3.6 250 23:19 14.11.2019
4415 Clear 6 1027 36 16093 6.01 220 22:40 14.11.2019
4416 Clear 6 1027 39 16093 1.5 0 22:22 14.11.2019
4417 Clear 6 1027 36 16093 3.6 260 21:57 14.11.2019
4418 Clear 6 1027 36 16093 3.6 260 21:39 14.11.2019
4419 Clear 6 1028 39 16093 1.5 0 21:21 14.11.2019
4420 Clear 6 1027 39 16093 1.5 210 20:43 14.11.2019
4421 Clear 6 1027 39 16093 1.5 210 20:24 14.11.2019
4422 Clouds 6 1028 39 16093 5.1 200 20:00 14.11.2019
4423 Clear 6 1028 36 16093 2.6 220 19:41 14.11.2019
4424 Clear 6 1029 41 16093 1.5 0 19:19 14.11.2019
4425 Clouds 6 1028 41 16093 5.1 190 18:59 14.11.2019
4426 Clear 5 1029 38 16093 2.6 190 18:41 14.11.2019
4427 Clear 5 1030 48 0 3.1 270 18:22 14.11.2019
4428 Clear 4 1029 47 16093 3.6 210 17:57 14.11.2019
4429 Clear 4 1030 41 16093 3.1 270 17:37 14.11.2019
4430 Clouds 3 1031 44 16093 2.1 250 17:19 14.11.2019
4431 Clouds 3 1030 41 16093 2.6 230 16:57 14.11.2019
4432 Clear 2 1031 40 16093 4.16 204 16:37 14.11.2019
4433 Clouds 1 1031 43 16093 2.1 0 16:19 14.11.2019
4434 Clouds 1 1031 51 16093 1.5 60 15:57 14.11.2019
4435 Clear 1 1032 57 16093 4.16 204 15:38 14.11.2019
4436 Clear 0 1032 57 16093 4.16 204 15:19 14.11.2019
4437 Clear 0 1032 57 16093 4.16 204 15:19 14.11.2019
4438 Clear 0 1032 63 16093 4.16 204 14:46 14.11.2019
4439 Clear -3 1032 63 16093 4.34 209 14:23 14.11.2019
4440 Clouds -4 1031 56 16093 1.5 100 13:58 14.11.2019
4441 Clear -4 1031 68 16093 4.34 209 13:39 14.11.2019
4442 Clear -5 1031 50 16093 4.05 218 13:20 14.11.2019
4443 Clouds -5 1031 46 16093 1.5 190 12:57 14.11.2019
4444 Clear -5 1030 100 16093 4.05 218 12:38 14.11.2019
4445 Clear -5 1031 46 16093 4.05 218 12:19 14.11.2019
4446 Clear -5 1031 58 16093 4.05 218 11:54 14.11.2019
4447 Clear -5 1031 58 16093 4.05 218 11:36 14.11.2019
4448 Clouds -5 1030 62 16093 2.1 20 11:18 14.11.2019
4449 Clouds -5 1030 62 16093 2.1 20 11:18 14.11.2019
4450 Clear -5 1031 58 16093 1.44 159 10:41 14.11.2019
4451 Clear -5 1031 58 16093 1.44 159 10:21 14.11.2019
4452 Clear -5 1030 46 16093 3.6 100 09:59 14.11.2019
4453 Clear -5 1031 58 16093 1.44 159 09:41 14.11.2019
4454 Clear -5 1031 58 16093 1.44 159 09:41 14.11.2019
4455 Clear -4 1031 58 16093 2.1 80 09:23 14.11.2019
4456 Clear -4 1031 53 16093 1.44 159 08:56 14.11.2019
4457 Clear -4 1031 53 16093 1.44 159 08:38 14.11.2019
4458 Clear -4 1031 39 16093 2.6 0 08:19 14.11.2019
4459 Clear -4 1031 50 16093 1.89 69 07:40 14.11.2019
4460 Clear -4 1031 50 16093 1.89 69 07:22 14.11.2019
4461 Clear -4 1031 46 16093 1.89 69 06:46 14.11.2019
4462 Clear -4 1031 46 16093 1.89 69 06:19 14.11.2019
4463 Clear -3 1031 42 16093 3.18 4 05:20 14.11.2019
4464 Clear -4 1031 42 16093 3.18 4 04:35 14.11.2019
4465 Clear -2 1031 36 16093 3.18 4 02:50 14.11.2019
4466 Clear -2 1031 36 16093 3.18 4 02:29 14.11.2019
4467 Clear -2 1031 36 16093 5.37 344 01:40 14.11.2019
4468 Clouds -2 1030 42 16093 4.1 340 00:56 14.11.2019
4469 Clear -2 1030 36 16093 5.3 346 00:36 14.11.2019
4470 Clear -2 1030 30 16093 5.3 346 00:18 14.11.2019
4471 Clear -1 1029 42 16093 3.6 330 23:38 13.11.2019
4472 Clear -1 1029 42 16093 3.6 330 23:38 13.11.2019
4473 Clear 0 1029 39 16093 3.6 330 23:19 13.11.2019
4474 Clouds 0 1028 34 16093 4.6 340 22:55 13.11.2019
4475 Clear 1 1029 39 16093 2.1 330 22:37 13.11.2019
4476 Clear 1 1029 39 16093 2.1 330 22:37 13.11.2019
4477 Clear 1 1028 24 16093 6.31 330 22:18 13.11.2019
4478 Clouds 1 1028 31 16093 4.1 330 21:54 13.11.2019
4479 Clear 1 1028 29 16093 3.6 330 21:36 13.11.2019
4480 Clear 1 1028 24 16093 1.5 0 21:18 13.11.2019
4481 Clear 1 1028 31 16093 5.7 330 20:54 13.11.2019
4482 Clear 1 1028 31 16093 5.7 330 20:36 13.11.2019
4483 Clear 1 1028 24 16093 7.1 322 20:18 13.11.2019
4484 Clear 1 1028 31 16093 5.7 320 19:41 13.11.2019
4485 Clear 0 1027 43 16093 1.5 0 19:19 13.11.2019
4486 Clear 0 1028 31 16093 6.7 320 18:56 13.11.2019
4487 Clear 0 1028 29 16093 6.2 340 18:37 13.11.2019
4488 Clear 0 1027 33 16093 3.6 300 18:19 13.11.2019
4489 Clouds -1 1027 43 16093 7.2 310 17:57 13.11.2019
4490 Clear -1 1027 43 0 3.6 290 17:38 13.11.2019
4491 Clear -1 1027 36 16093 6.7 300 17:19 13.11.2019
4492 Clear -2 1028 36 16093 6.7 340 16:57 13.11.2019
4493 Clear -2 1028 36 16093 6.7 340 16:39 13.11.2019
4494 Clear -2 1028 36 16093 6.7 340 16:21 13.11.2019
4495 Clouds -3 1027 50 16093 11.3 320 15:57 13.11.2019
4496 Clear -3 1027 42 16093 5.1 320 15:38 13.11.2019
4497 Clear -3 1027 49 16093 2.6 0 15:19 13.11.2019
4498 Clear -4 1027 49 16093 5.7 300 14:42 13.11.2019
4499 Clear -4 1026 53 16093 3.1 0 14:21 13.11.2019
4500 Clear -5 1027 53 16093 4.1 290 13:57 13.11.2019
4501 Clear -5 1027 53 16093 4.1 290 13:36 13.11.2019
4502 Clear -6 1026 53 16093 3.1 0 13:18 13.11.2019
4503 Clear -6 1026 53 16093 10.21 322 12:43 13.11.2019
4504 Clear -6 1026 53 16093 10.21 322 12:25 13.11.2019
4505 Clear -6 1026 53 16093 10.21 322 12:25 13.11.2019
4506 Clouds -6 1025 53 16093 8.7 310 11:59 13.11.2019
4507 Clear -6 1025 49 16093 2.6 300 11:39 13.11.2019
4508 Clear -6 1025 49 16093 2.6 0 11:19 13.11.2019
4509 Clear -6 1024 53 16093 8.7 300 10:57 13.11.2019
4510 Clear -6 1025 45 16093 3.6 320 10:39 13.11.2019
4511 Clear -5 1024 45 16093 11.16 323 10:19 13.11.2019
4512 Clear -5 1024 45 16093 11.16 323 10:19 13.11.2019
4513 Clear -5 1024 45 16093 4.6 310 09:45 13.11.2019
4514 Clear -5 1023 45 16093 3.6 270 09:22 13.11.2019
4515 Clouds -5 1023 45 16093 6.7 310 08:57 13.11.2019
4516 Clear -5 1023 41 16093 5.1 320 08:36 13.11.2019
4517 Clear -5 1023 53 0 2.1 0 08:18 13.11.2019
4518 Clear -5 1023 49 16093 3.1 290 07:42 13.11.2019
4519 Clear -5 1023 49 16093 3.1 290 07:42 13.11.2019
4520 Clear -5 1022 41 16093 5.7 300 07:20 13.11.2019
4521 Clear -5 1023 38 16093 5.7 320 06:44 13.11.2019
4522 Clear -4 1022 38 16093 6.7 300 06:19 13.11.2019
4523 Clear -4 1022 38 16093 6.7 300 06:19 13.11.2019
4524 Clear -4 1022 38 16093 6.7 300 06:19 13.11.2019
4525 Clouds -4 1022 45 16093 9.8 320 05:53 13.11.2019
4526 Clear -4 1022 38 16093 4.6 310 05:31 13.11.2019
4527 Clear -4 1022 35 16093 7.2 340 04:27 13.11.2019
4528 Clear -2 1020 36 16093 3.1 0 02:19 13.11.2019
4529 Clear -1 1020 46 16093 6.2 320 01:41 13.11.2019
4530 Clear -1 1018 63 16093 7.7 340 00:44 13.11.2019
4531 Clear 0 1018 63 16093 4.6 300 00:21 13.11.2019
4532 Clear 0 1017 63 16093 7.7 340 23:42 12.11.2019
4533 Clouds 0 1017 47 16093 10.59 326 23:21 12.11.2019
4534 Clouds 0 1016 55 16093 8.7 320 22:55 12.11.2019
4535 Clear 0 1016 47 16093 6.7 320 22:37 12.11.2019
4536 Clouds 0 1016 50 16093 3.1 0 22:18 12.11.2019
4537 Clouds 0 1015 50 16093 6.7 340 21:43 12.11.2019
4538 Clouds 0 1015 50 16093 6.7 340 21:24 12.11.2019
4539 Clouds 0 1014 55 16093 11.3 330 20:57 12.11.2019
4540 Clouds 0 1015 55 16093 7.7 330 20:37 12.11.2019
4541 Clouds 1 1015 55 16093 7.7 330 20:19 12.11.2019
4542 Clouds 1 1013 55 16093 10.3 310 19:57 12.11.2019
4543 Clouds 1 1014 59 16093 7.7 320 19:39 12.11.2019
4544 Clouds 1 1014 59 16093 7.7 320 19:39 12.11.2019
4545 Clouds 1 1014 55 16093 8.7 310 19:19 12.11.2019
4546 Clouds 1 1013 64 16093 10.8 310 18:58 12.11.2019
4547 Clouds 2 1013 64 16093 7.2 330 18:40 12.11.2019
4548 Snow 2 1013 69 16093 7.2 300 18:22 12.11.2019
4549 Rain 2 1012 69 16093 6.7 310 17:57 12.11.2019
4550 Rain 3 1013 69 16093 4.1 350 17:39 12.11.2019
4551 Rain 3 1012 69 16093 5.1 300 17:21 12.11.2019
4552 Rain 3 1012 69 16093 5.1 300 17:21 12.11.2019
4553 Rain 3 1011 69 16093 10.3 310 16:57 12.11.2019
4554 Rain 4 1011 81 0 1.5 0 16:39 12.11.2019
4555 Rain 4 1010 80 16093 3.1 310 16:20 12.11.2019
4556 Rain 5 1010 80 16093 5.7 320 15:41 12.11.2019
4557 Rain 5 1009 75 14484 4.1 310 15:21 12.11.2019
4558 Rain 6 1008 75 16093 10.3 310 14:56 12.11.2019
4559 Rain 8 1009 81 16093 2.6 280 14:37 12.11.2019
4560 Rain 8 1008 81 12874 11.3 320 14:19 12.11.2019
4561 Rain 10 1007 71 11265 8.2 250 13:56 12.11.2019
4562 Rain 11 1007 71 0 7.7 270 13:37 12.11.2019
4563 Rain 11 1007 71 0 7.7 270 13:18 12.11.2019
4564 Clouds 12 1006 66 16093 1.5 270 12:42 12.11.2019
4565 Clouds 12 1006 66 16093 1.5 270 12:42 12.11.2019
4566 Clear 12 1006 71 0 4.1 260 12:20 12.11.2019
4567 Clouds 11 1005 58 16093 4.6 210 11:59 12.11.2019
4568 Clear 11 1006 76 16093 10.19 236 11:40 12.11.2019
4569 Clear 11 1006 76 16093 7.66 218 11:22 12.11.2019
4570 Clear 11 1007 58 16093 8.48 218 11:22 12.11.2019
4571 Clouds 11 1007 71 16093 2.1 260 10:56 12.11.2019
4572 Clouds 11 1007 71 16093 2.1 260 10:38 12.11.2019
4573 Rain 11 1006 58 16093 4.1 230 10:20 12.11.2019
4574 Clouds 11 1006 76 16093 3.1 230 09:56 12.11.2019
4575 Clear 11 1006 66 16093 7.66 218 09:37 12.11.2019
4576 Clear 11 1007 58 16093 3.1 0 09:18 12.11.2019
4577 Clear 11 1007 66 16093 8.48 218 08:41 12.11.2019
4578 Clear 11 1007 66 16093 7.02 208 08:22 12.11.2019
4579 Clear 11 1007 76 16093 7.02 208 07:41 12.11.2019
4580 Clear 11 1007 76 16093 7.02 208 07:23 12.11.2019
4581 Clear 11 1009 93 16093 7.02 208 06:45 12.11.2019
4582 Clear 11 1009 93 16093 7.02 208 06:23 12.11.2019
4583 Clear 11 1010 87 16093 7.02 208 05:46 12.11.2019
4584 Clouds 11 1010 82 16093 3.6 200 04:50 12.11.2019
4585 Clouds 11 1010 82 16093 3.6 200 04:50 12.11.2019
4586 Clouds 11 1012 82 16093 3.1 200 03:49 12.11.2019
4587 Clear 11 1012 81 16093 5.37 175 01:49 12.11.2019
4588 Clear 11 1014 76 14484 4.31 149 01:22 12.11.2019
4589 Clear 11 1013 82 0 1.5 0 01:22 12.11.2019
4590 Clear 11 1014 76 16093 4.31 149 00:51 12.11.2019
4591 Clear 11 1014 76 16093 4.31 149 00:32 12.11.2019
4592 Clear 12 1015 71 16093 4.31 149 23:48 11.11.2019
4593 Clear 12 1015 71 16093 4.31 149 23:25 11.11.2019
4594 Clouds 13 1015 62 16093 4.6 170 22:58 11.11.2019
4595 Clear 14 1015 62 16093 1.29 92 22:38 11.11.2019
4596 Clear 14 1016 59 0 2.6 160 22:19 11.11.2019
4597 Clear 14 1016 54 16093 1.29 92 21:57 11.11.2019
4598 Clear 15 1016 54 16093 1.29 92 21:38 11.11.2019
4599 Clear 15 1016 48 16093 1.29 92 21:20 11.11.2019
4600 Clouds 15 1016 48 16093 3.1 170 20:55 11.11.2019
4601 Clear 15 1016 48 16093 1.29 92 20:36 11.11.2019
4602 Clear 15 1017 48 16093 0.61 301 20:18 11.11.2019
4603 Clear 15 1017 44 16093 0.61 301 19:42 11.11.2019
4604 Clear 15 1017 44 16093 0.61 301 19:19 11.11.2019
4605 Clouds 15 1017 44 16093 0.61 301 18:57 11.11.2019
4606 Clear 15 1017 47 16093 0.61 301 18:39 11.11.2019
4607 Clear 15 1017 47 16093 0.61 301 18:20 11.11.2019
4608 Clear 14 1018 58 16093 0.61 301 17:44 11.11.2019
4609 Clear 14 1019 54 14484 1.5 290 17:26 11.11.2019
4610 Clouds 13 1018 58 16093 2.6 40 16:56 11.11.2019
4611 Clear 13 1019 62 16093 1.83 272 16:38 11.11.2019
4612 Clear 12 1019 62 16093 1.83 272 16:20 11.11.2019
4613 Clear 11 1019 66 16093 1.83 272 15:41 11.11.2019
4614 Clear 11 1019 66 16093 1.83 272 15:41 11.11.2019
4615 Clear 10 1019 66 16093 1.83 272 15:20 11.11.2019
4616 Clear 10 1019 66 16093 1.83 272 15:20 11.11.2019
4617 Clear 9 1019 70 16093 1.83 272 14:55 11.11.2019
4618 Clear 8 1019 75 16093 1.83 272 14:37 11.11.2019
4619 Clear 6 1020 66 16093 3.45 203 14:19 11.11.2019
4620 Clear 4 1019 75 16093 3.45 203 13:54 11.11.2019
4621 Clear 4 1019 75 16093 3.45 203 13:36 11.11.2019
4622 Clouds 3 1019 70 16093 2.33 198 13:18 11.11.2019
4623 Clear 3 1019 80 16093 2.33 198 12:54 11.11.2019
4624 Clear 3 1019 80 16093 2.33 198 12:36 11.11.2019
4625 Clouds 3 1019 70 16093 1.5 280 12:18 11.11.2019
4626 Clear 4 1018 75 16093 2.33 198 11:40 11.11.2019
4627 Clouds 4 1018 65 16093 2.25 227 11:21 11.11.2019
4628 Clouds 4 1018 65 16093 2.25 227 11:21 11.11.2019
4629 Clear 5 1018 75 16093 2.25 227 10:43 11.11.2019
4630 Clouds 5 1018 65 16093 2.1 200 10:19 11.11.2019
4631 Clear 5 1018 70 16093 2.25 227 09:58 11.11.2019
4632 Clear 5 1018 70 16093 2.25 227 09:40 11.11.2019
4633 Clear 5 1018 70 16093 2.25 227 09:20 11.11.2019
4634 Clouds 5 1018 70 16093 2.25 227 08:42 11.11.2019
4635 Clouds 6 1018 70 16093 3.73 250 08:23 11.11.2019
4636 Clouds 6 1018 70 16093 3.73 250 07:57 11.11.2019
4637 Clouds 6 1019 70 16093 3.73 250 07:38 11.11.2019
4638 Clouds 6 1019 65 16093 3.73 250 07:19 11.11.2019
4639 Clouds 6 1019 65 16093 3.73 250 06:56 11.11.2019
4640 Clouds 5 1019 65 16093 3.73 250 06:37 11.11.2019
4641 Clouds 5 1018 65 16093 1.5 170 06:19 11.11.2019
4642 Clear 5 1018 65 16093 3.73 250 05:43 11.11.2019
4643 Clear 6 1018 65 16093 4.84 245 03:27 11.11.2019
4644 Clouds 6 1018 60 16093 4.84 245 02:33 11.11.2019
4645 Clouds 6 1017 46 16093 3.1 220 01:58 11.11.2019
4646 Clear 6 1018 53 16093 5.13 246 01:36 11.11.2019
4647 Clouds 7 1017 40 16093 4.1 240 00:55 11.11.2019
4648 Clouds 8 1017 56 16093 5.66 243 00:33 11.11.2019
4649 Clouds 9 1016 40 16093 4.1 230 23:58 10.11.2019
4650 Clouds 9 1017 56 16093 5.66 243 23:37 10.11.2019
4651 Clouds 9 1017 43 16093 2.1 0 23:19 10.11.2019
4652 Clouds 9 1016 43 16093 4.1 240 22:55 10.11.2019
4653 Clouds 10 1017 43 16093 6.96 247 22:37 10.11.2019
4654 Clouds 10 1017 43 16093 2.1 250 22:19 10.11.2019
4655 Clouds 10 1016 40 16093 3.6 210 21:55 10.11.2019
4656 Clouds 10 1017 43 16093 6.96 247 21:36 10.11.2019
4657 Clouds 10 1017 43 16093 1.5 0 21:18 10.11.2019
4658 Clouds 10 1016 43 16093 6.96 247 20:41 10.11.2019
4659 Clouds 10 1016 43 16093 6.57 225 20:22 10.11.2019
4660 Clouds 10 1016 46 16093 2.6 230 19:56 10.11.2019
4661 Clouds 10 1017 43 16093 6.57 225 19:37 10.11.2019
4662 Clouds 10 1018 49 16093 2.6 0 19:19 10.11.2019
4663 Clouds 9 1017 45 16093 4.6 190 18:58 10.11.2019
4664 Clouds 9 1017 49 16093 6.57 225 18:40 10.11.2019
4665 Clouds 9 1018 49 16093 6.57 225 18:19 10.11.2019
4666 Clouds 8 1019 52 16093 2.6 270 17:57 10.11.2019
4667 Clouds 8 1019 52 16093 2.6 270 17:38 10.11.2019
4668 Clouds 8 1019 49 16093 3.1 0 17:20 10.11.2019
4669 Clouds 8 1018 49 16093 5.7 210 16:58 10.11.2019
4670 Clouds 8 1020 56 16093 6.93 224 16:39 10.11.2019
4671 Clouds 7 1020 56 16093 6.93 224 16:21 10.11.2019
4672 Clouds 7 1019 52 16093 4.6 210 15:56 10.11.2019
4673 Clouds 6 1020 65 0 4.1 230 15:36 10.11.2019
4674 Clouds 5 1020 56 16093 1.5 0 15:18 10.11.2019
4675 Clouds 4 1020 52 16093 5.7 200 14:55 10.11.2019
4676 Clouds 4 1020 59 16093 6.93 224 14:36 10.11.2019
4677 Clouds 3 1020 52 16093 2.6 210 14:18 10.11.2019
4678 Clear 2 1020 59 16093 6.9 215 13:41 10.11.2019
4679 Clouds 1 1020 48 16093 3.1 0 13:20 10.11.2019
4680 Clouds 1 1020 41 16093 3.6 210 12:55 10.11.2019
4681 Clouds 1 1020 64 16093 7.1 218 12:37 10.11.2019
4682 Clouds 1 1020 44 16093 1.5 0 12:18 10.11.2019
4683 Clouds 0 1020 55 16093 7.1 218 11:54 10.11.2019
4684 Clouds 0 1020 59 16093 7.1 218 11:36 10.11.2019
4685 Clouds 0 1020 41 16093 1.5 220 11:18 10.11.2019
4686 Clear 0 1020 59 16093 6.41 222 10:41 10.11.2019
4687 Clear 0 1020 59 16093 6.41 222 10:20 10.11.2019
4688 Clouds 0 1020 41 16093 3.1 220 09:55 10.11.2019
4689 Clear 0 1020 55 16093 6.41 222 09:37 10.11.2019
4690 Clear 0 1021 35 16093 2.1 240 09:18 10.11.2019
4691 Clear 0 1021 47 16093 6.41 222 08:39 10.11.2019
4692 Clouds 0 1021 35 16093 2.1 240 08:19 10.11.2019
4693 Clear 0 1021 47 16093 7.34 217 08:19 10.11.2019
4694 Clouds 0 1022 50 16093 7.34 217 07:44 10.11.2019
4695 Clouds 0 1022 38 16093 1.5 210 07:25 10.11.2019
4696 Clouds 0 1022 47 16093 7.34 217 06:38 10.11.2019
4697 Clear 0 1022 55 16093 7.34 217 05:44 10.11.2019
4698 Clear 0 1023 51 16093 6.84 218 03:28 10.11.2019
4699 Clouds 1 1023 59 16093 6.8 208 02:20 10.11.2019
4700 Clear 1 1023 59 16093 7.09 214 01:20 10.11.2019
4701 Clear 1 1023 48 16093 7.09 214 00:45 10.11.2019
4702 Clouds 2 1023 44 16093 4.1 200 23:59 09.11.2019
4703 Clear 2 1023 41 16093 7.09 214 23:40 09.11.2019
4704 Clear 3 1023 47 16093 6.93 177 23:19 09.11.2019
4705 Clear 3 1023 35 16093 6.93 177 22:42 09.11.2019
4706 Clear 4 1023 35 16093 6.93 177 22:22 09.11.2019
4707 Clouds 4 1024 44 16093 4.1 180 21:58 09.11.2019
4708 Clear 4 1024 32 16093 1.5 170 21:39 09.11.2019
4709 Clear 4 1024 32 16093 1.5 170 21:20 09.11.2019
4710 Clouds 4 1024 44 16093 4.6 190 20:56 09.11.2019
4711 Clear 4 1025 32 16093 2.1 200 20:37 09.11.2019
4712 Clear 4 1025 32 16093 4.1 220 20:18 09.11.2019
4713 Clear 4 1025 32 16093 3.53 153 19:41 09.11.2019
4714 Clear 4 1025 32 16093 3.53 153 19:22 09.11.2019
4715 Clouds 4 1025 38 16093 4.6 190 18:58 09.11.2019
4716 Clear 4 1026 34 16093 3.53 153 18:39 09.11.2019
4717 Clear 4 1026 34 16093 3.53 153 18:18 09.11.2019
4718 Clear 3 1027 34 16093 3.53 153 17:43 09.11.2019
4719 Clear 3 1027 34 16093 1.7 116 17:23 09.11.2019
4720 Clouds 2 1027 34 16093 2.6 130 16:59 09.11.2019
4721 Clear 2 1028 40 16093 1.7 116 16:40 09.11.2019
4722 Clear 2 1028 40 16093 1.7 116 16:20 09.11.2019
4723 Clear 1 1029 47 16093 1.7 116 15:43 09.11.2019
4724 Clear 0 1029 47 16093 1.7 116 15:24 09.11.2019
4725 Clear 0 1029 58 16093 1.5 0 14:59 09.11.2019
4726 Clear -1 1029 69 0 2.1 180 14:40 09.11.2019
4727 Clear -3 1029 58 16093 2.85 32 14:18 09.11.2019
4728 Clear -3 1029 58 16093 2.85 32 13:56 09.11.2019
4729 Clear -5 1029 68 16093 3.06 35 13:36 09.11.2019
4730 Clear -5 1029 68 16093 3.06 35 13:18 09.11.2019
4731 Clear -5 1029 63 16093 3.06 35 13:18 09.11.2019
4732 Clear -6 1029 73 16093 3.06 35 12:44 09.11.2019
4733 Clear -5 1029 73 16093 3.06 35 12:25 09.11.2019
4734 Clear -5 1028 58 16093 3.1 340 11:56 09.11.2019
4735 Clear -5 1028 73 16093 3.06 35 11:38 09.11.2019
4736 Clear -5 1028 63 16093 1.5 0 11:18 09.11.2019
4737 Clear -5 1028 63 16093 4.16 11 10:41 09.11.2019
4738 Clear -5 1028 63 16093 4.16 11 10:19 09.11.2019
4739 Clouds -4 1027 58 16093 3.1 330 09:59 09.11.2019
4740 Clear -4 1028 63 16093 4.16 11 09:40 09.11.2019
4741 Clouds -4 1028 63 16093 2.1 340 09:19 09.11.2019
4742 Clear -4 1028 58 16093 4.16 11 08:43 09.11.2019
4743 Clear -4 1028 58 16093 3.44 4 08:24 09.11.2019
4744 Clear -3 1028 58 16093 5.45 352 07:48 09.11.2019
4745 Clear -3 1028 58 16093 5.45 352 07:24 09.11.2019
4746 Clouds -3 1027 58 16093 5.7 330 06:57 09.11.2019
4747 Clear -3 1028 58 16093 5.45 352 06:39 09.11.2019
4748 Clear -2 1028 58 16093 5.45 352 06:20 09.11.2019
4749 Clear -2 1028 54 16093 5.45 352 05:38 09.11.2019
4750 Clouds -1 1027 47 16093 6.7 320 03:57 09.11.2019
4751 Clear -1 1027 57 16093 4.6 330 02:47 09.11.2019
4752 Clear 0 1027 54 16093 4.6 330 02:24 09.11.2019
4753 Clear 0 1026 40 16093 3.1 0 01:18 09.11.2019
4754 Clear 1 1025 40 16093 5.1 320 00:39 09.11.2019
4755 Clear 1 1025 37 16093 10.06 340 00:21 09.11.2019
4756 Clear 1 1024 34 16093 5.1 340 23:40 08.11.2019
4757 Clear 1 1024 34 16093 5.1 340 23:22 08.11.2019
4758 Clear 1 1024 34 16093 5.1 340 23:22 08.11.2019
4759 Clouds 2 1023 40 16093 9.8 310 22:58 08.11.2019
4760 Clear 2 1023 32 16093 4.6 290 22:38 08.11.2019
4761 Clear 2 1023 32 16093 4.6 290 22:20 08.11.2019
4762 Clouds 3 1022 32 16093 7.2 350 21:42 08.11.2019
4763 Clouds 3 1022 32 16093 7.2 350 21:23 08.11.2019
4764 Clouds 3 1022 32 16093 7.2 350 21:23 08.11.2019
4765 Clouds 3 1021 32 16093 9.3 340 20:57 08.11.2019
4766 Clear 4 1022 35 16093 6.7 320 20:39 08.11.2019
4767 Clear 4 1022 32 16093 5.1 300 20:19 08.11.2019
4768 Clouds 4 1021 38 16093 9.8 330 19:54 08.11.2019
4769 Clouds 4 1021 38 16093 9.8 330 19:36 08.11.2019
4770 Clear 4 1021 32 16093 2.1 0 19:18 08.11.2019
4771 Clouds 4 1020 41 16093 11.3 320 18:54 08.11.2019
4772 Clear 4 1021 38 16093 9.3 330 18:36 08.11.2019
4773 Clouds 4 1022 37 16093 5.1 300 18:18 08.11.2019
4774 Clouds 4 1022 37 16093 5.1 300 18:18 08.11.2019
4775 Clouds 4 1020 44 16093 10.8 320 17:54 08.11.2019
4776 Clouds 4 1022 35 16093 8.7 320 17:36 08.11.2019
4777 Rain 4 1022 41 16093 5.7 310 17:18 08.11.2019
4778 Rain 3 1021 44 16093 12.9 310 16:57 08.11.2019
4779 Rain 3 1022 41 16093 8.2 340 16:38 08.11.2019
4780 Clouds 3 1021 52 0 2.1 0 16:18 08.11.2019
4781 Clouds 3 1021 51 16093 9.3 340 15:42 08.11.2019
4782 Clouds 2 1021 59 16093 3.1 0 15:23 08.11.2019
4783 Clouds 2 1021 59 16093 8.7 330 14:58 08.11.2019
4784 Clouds 2 1021 59 16093 8.7 330 14:58 08.11.2019
4785 Clear 1 1022 64 16093 10.38 328 14:39 08.11.2019
4786 Clear 1 1022 64 16093 9.4 334 14:20 08.11.2019
4787 Clouds 1 1021 59 16093 7.2 300 13:59 08.11.2019
4788 Clear 0 1021 61 16093 9.4 334 13:41 08.11.2019
4789 Clear 0 1021 59 16093 10.13 334 13:22 08.11.2019
4790 Clear 0 1020 59 16093 4.1 320 12:49 08.11.2019
4791 Clear 0 1020 59 16093 4.1 320 12:29 08.11.2019
4792 Clouds 0 1019 55 16093 5.7 330 11:59 08.11.2019
4793 Clear 0 1019 59 16093 1.5 290 11:41 08.11.2019
4794 Clear 0 1019 55 16093 2.1 0 11:22 08.11.2019
4795 Clouds 0 1018 51 16093 5.7 330 10:59 08.11.2019
4796 Clear 0 1018 59 16093 10.27 334 10:41 08.11.2019
4797 Clear 1 1018 59 16093 10.27 334 10:22 08.11.2019
4798 Clouds 2 1017 51 16093 7.2 340 09:58 08.11.2019
4799 Clear 2 1018 55 16093 2.1 330 09:38 08.11.2019
4800 Clear 2 1018 59 16093 10.27 334 09:19 08.11.2019
4801 Clear 3 1018 55 16093 5.7 350 08:45 08.11.2019
4802 Clear 3 1018 55 16093 5.7 350 08:23 08.11.2019
4803 Clouds 4 1017 64 16093 7.7 330 07:56 08.11.2019
4804 Clouds 4 1018 55 16093 6.2 350 07:37 08.11.2019
4805 Clouds 4 1017 64 16093 3.1 0 07:19 08.11.2019
4806 Clouds 5 1017 86 16093 9.3 330 06:38 08.11.2019
4807 Clouds 5 1017 75 16093 10.95 331 06:19 08.11.2019
4808 Clouds 5 1017 75 16093 3.6 340 05:38 08.11.2019
4809 Clouds 6 1017 87 16093 3.1 0 04:30 08.11.2019
4810 Rain 7 1017 81 16093 7.2 330 03:43 08.11.2019
4811 Rain 7 1017 81 16093 9.31 330 03:19 08.11.2019
4812 Rain 9 1017 87 0 3.1 0 02:24 08.11.2019
4813 Rain 10 1017 81 0 3.1 270 01:43 08.11.2019
4814 Rain 10 1018 93 6437 3.1 270 00:59 08.11.2019
4815 Drizzle 11 1017 87 11265 4.1 310 00:24 08.11.2019
4816 Rain 11 1016 81 12874 6.2 300 23:55 07.11.2019
4817 Rain 11 1016 67 0 4.1 270 23:36 07.11.2019
4818 Rain 12 1016 66 16093 2.1 0 23:18 07.11.2019
4819 Rain 12 1015 58 16093 2.1 280 22:41 07.11.2019
4820 Rain 12 1016 62 16093 1.5 250 22:21 07.11.2019
4821 Rain 13 1015 58 16093 5.1 240 21:55 07.11.2019
4822 Rain 13 1016 58 16093 1.5 280 21:37 07.11.2019
4823 Rain 13 1017 54 16093 2.1 280 21:18 07.11.2019
4824 Rain 13 1016 50 16093 3.6 210 20:55 07.11.2019
4825 Rain 13 1017 54 16093 5.1 270 20:37 07.11.2019
4826 Clouds 13 1018 54 16093 7.65 224 20:19 07.11.2019
4827 Clouds 13 1018 54 16093 4.1 280 19:41 07.11.2019
4828 Clouds 13 1019 50 16093 7.65 224 19:23 07.11.2019
4829 Rain 13 1018 50 16093 5.1 240 18:59 07.11.2019
4830 Clouds 13 1019 54 16093 2.6 280 18:40 07.11.2019
4831 Clouds 12 1020 58 0 3.6 220 18:20 07.11.2019
4832 Clouds 12 1020 50 16093 3.1 0 18:20 07.11.2019
4833 Clouds 12 1020 50 16093 3.1 0 18:20 07.11.2019
4834 Clouds 12 1019 47 16093 4.6 220 17:59 07.11.2019
4835 Clouds 12 1021 58 16093 2.1 260 17:39 07.11.2019
4836 Clouds 12 1021 58 16093 2.1 260 17:20 07.11.2019
4837 Clouds 11 1022 58 16093 3.1 230 16:58 07.11.2019
4838 Clouds 12 1022 58 16093 3.1 230 16:58 07.11.2019
4839 Clouds 11 1022 62 16093 1.5 240 16:39 07.11.2019
4840 Clouds 11 1022 62 16093 1.5 240 16:19 07.11.2019
4841 Clouds 11 1023 57 16093 1.5 260 15:56 07.11.2019
4842 Clouds 10 1023 61 16093 3.1 290 15:37 07.11.2019
4843 Clouds 10 1023 61 16093 3.1 290 15:18 07.11.2019
4844 Clouds 10 1023 65 16093 8.22 224 14:44 07.11.2019
4845 Clouds 9 1023 65 16093 8.03 214 14:26 07.11.2019
4846 Clouds 8 1023 86 16093 8.03 214 13:57 07.11.2019
4847 Clouds 8 1023 59 16093 8.03 214 13:38 07.11.2019
4848 Clouds 8 1023 60 16093 8.56 213 13:20 07.11.2019
4849 Clouds 7 1023 100 16093 8.56 213 12:58 07.11.2019
4850 Clouds 7 1024 60 16093 8.56 213 12:40 07.11.2019
4851 Clouds 7 1024 60 16093 8.56 213 12:21 07.11.2019
4852 Clouds 7 1024 60 16093 8.56 213 11:58 07.11.2019
4853 Clouds 7 1025 60 16093 8.56 213 11:39 07.11.2019
4854 Clouds 6 1025 56 16093 5.84 215 11:20 07.11.2019
4855 Clouds 6 1026 56 16093 5.84 215 10:40 07.11.2019
4856 Clouds 6 1026 56 16093 5.84 215 10:19 07.11.2019
4857 Clouds 5 1026 60 16093 5.84 215 09:43 07.11.2019
4858 Clouds 5 1026 60 16093 5.84 215 09:22 07.11.2019
4859 Clear 4 1026 56 16093 5.84 215 08:57 07.11.2019
4860 -273 0 0 0 0 0 08:38 07.11.2019
4861 Clear 4 1027 56 16093 4.66 218 08:20 07.11.2019
4862 Clear 4 1027 56 16093 4.66 218 07:44 07.11.2019
4863 Clear 4 1028 42 16093 4.66 218 07:23 07.11.2019
4864 Clear 4 1028 42 16093 4.66 218 07:22 07.11.2019
4865 Clear 3 1028 60 16093 4.66 218 06:58 07.11.2019
4866 Clear 3 1028 56 16093 4.66 218 06:40 07.11.2019
4867 Clear 3 1028 56 16093 4.66 218 06:40 07.11.2019
4868 Clear 3 1028 56 16093 4.66 218 06:21 07.11.2019
4869 Clear 3 1028 56 16093 4.66 218 06:21 07.11.2019
4870 Clear 3 1028 56 16093 4.66 218 05:47 07.11.2019
4871 Clear 4 1028 48 16093 4.66 218 05:29 07.11.2019
4872 Clear 4 1028 48 16093 4.6 250 04:49 07.11.2019
4873 Clear 5 1029 42 16093 4.6 250 03:32 07.11.2019
4874 Rain 7 1029 40 0 3.6 270 01:18 07.11.2019
4875 Clear 8 1028 40 0 7.2 280 00:23 07.11.2019
4876 Clear 8 1028 40 0 7.2 280 00:23 07.11.2019
4877 Clear 9 1028 42 16093 1.5 240 23:49 06.11.2019
4878 Clear 10 1028 32 16093 3.19 259 23:23 06.11.2019
4879 Clear 10 1027 37 16093 2.6 250 22:58 06.11.2019
4880 Clear 11 1027 30 16093 1.5 260 22:39 06.11.2019
4881 Clear 11 1027 30 16093 1.5 260 22:39 06.11.2019
4882 Clear 12 1027 30 16093 1.5 260 22:19 06.11.2019
4883 Clear 12 1027 32 16093 1.5 240 21:57 06.11.2019
4884 Clear 12 1027 30 16093 4.1 290 21:38 06.11.2019
4885 Clear 12 1027 30 16093 4.1 290 21:38 06.11.2019
4886 Clear 12 1027 30 16093 4.1 290 21:19 06.11.2019
4887 Clear 12 1027 30 16093 2.1 310 20:55 06.11.2019
4888 Clear 12 1028 32 16093 3.6 300 20:37 06.11.2019
4889 Clear 12 1028 32 16093 3.6 300 20:19 06.11.2019
4890 Clear 12 1028 37 16093 4.1 230 19:55 06.11.2019
4891 Clear 12 1028 34 16093 3.1 310 19:36 06.11.2019
4892 Clear 12 1029 34 16093 5.38 298 19:18 06.11.2019
4893 Clear 12 1029 34 16093 5.1 300 18:39 06.11.2019
4894 Clear 12 1029 34 16093 5.38 298 18:20 06.11.2019
4895 Clouds 11 1029 34 16093 6.7 320 17:59 06.11.2019
4896 Clear 11 1029 40 16093 3.6 310 17:41 06.11.2019
4897 Clear 11 1029 40 16093 3.6 310 17:41 06.11.2019
4898 Clear 11 1030 40 16093 2.1 0 17:23 06.11.2019
4899 Clouds 11 1029 40 16093 5.1 300 16:57 06.11.2019
4900 Clear 10 1030 46 16093 6.2 302 16:38 06.11.2019
4901 Clear 10 1030 46 16093 6.2 302 16:20 06.11.2019
4902 Clouds 10 1029 43 16093 5.7 290 15:57 06.11.2019
4903 Clear 9 1029 53 0 6.2 260 15:37 06.11.2019
4904 Clear 9 1030 49 16093 3.6 270 15:19 06.11.2019
4905 Clouds 8 1029 49 16093 6.2 300 14:57 06.11.2019
4906 Clear 8 1029 61 16093 6.2 302 14:39 06.11.2019
4907 Clear 7 1029 61 16093 6.54 324 14:20 06.11.2019
4908 Clear 5 1029 70 16093 3.6 290 13:58 06.11.2019
4909 Clear 5 1029 70 16093 3.6 290 13:37 06.11.2019
4910 Clear 4 1029 61 16093 2.1 270 13:18 06.11.2019
4911 Clear 4 1028 70 0 3.1 250 13:18 06.11.2019
4912 Clear 4 1028 70 16093 6.63 317 12:55 06.11.2019
4913 Clear 4 1028 70 16093 6.63 317 12:37 06.11.2019
4914 Clear 5 1028 61 16093 1.5 280 12:18 06.11.2019
4915 Clouds 5 1027 57 16093 4.6 310 11:54 06.11.2019
4916 Clear 5 1027 70 16093 2.6 310 11:36 06.11.2019
4917 Clear 5 1027 61 16093 2.1 0 11:18 06.11.2019
4918 Clear 6 1026 75 16093 6.64 337 10:42 06.11.2019
4919 Clear 6 1026 75 16093 6.64 337 10:24 06.11.2019
4920 Clear 6 1026 65 16093 6.64 337 10:24 06.11.2019
4921 Clear 6 1026 65 16093 6.64 337 09:58 06.11.2019
4922 Clouds 6 1025 66 16093 6.64 337 09:40 06.11.2019
4923 Clouds 7 1025 66 16093 6.64 337 09:20 06.11.2019
4924 Clouds 7 1024 70 16093 6.64 337 08:55 06.11.2019
4925 Clouds 7 1024 70 16093 6.64 337 08:37 06.11.2019
4926 Clouds 8 1025 62 0 7.37 302 08:18 06.11.2019
4927 Clouds 8 1025 62 0 7.37 302 08:18 06.11.2019
4928 Clouds 8 1024 66 16093 7.37 302 07:45 06.11.2019
4929 Clouds 9 1024 66 16093 7.37 302 07:27 06.11.2019
4930 Clouds 10 1024 62 16093 5.7 330 06:52 06.11.2019
4931 Clouds 10 1023 61 16093 3.6 310 06:34 06.11.2019
4932 Clouds 10 1023 57 16093 7.37 302 05:51 06.11.2019
4933 Clear 11 1022 57 16093 7.72 289 03:38 06.11.2019
4934 Clear 11 1021 54 16093 6.22 268 01:42 06.11.2019
4935 Clouds 11 1021 66 16093 4.6 250 00:48 06.11.2019
4936 Clear 11 1021 54 16093 6.22 268 00:25 06.11.2019
4937 Clear 13 1020 50 16093 6.22 268 23:41 05.11.2019
4938 Clear 13 1020 62 0 3.6 260 23:22 05.11.2019
4939 Clouds 14 1019 47 16093 4.6 220 22:59 05.11.2019
4940 Clear 14 1020 47 16093 2.6 280 22:41 05.11.2019
4941 Clear 15 1020 54 16093 1.5 0 22:19 05.11.2019
4942 Clouds 15 1019 48 16093 4.6 240 21:55 05.11.2019
4943 Clear 15 1020 58 16093 3.6 290 21:37 05.11.2019
4944 Clouds 15 1020 55 16093 2.1 0 21:19 05.11.2019
4945 Clouds 15 1019 55 16093 5.1 250 20:56 05.11.2019
4946 Clouds 15 1020 55 16093 3.1 280 20:37 05.11.2019
4947 Clouds 15 1020 63 16093 3.1 270 20:19 05.11.2019
4948 Clouds 15 1020 67 16093 3.1 290 19:42 05.11.2019
4949 Rain 15 1020 67 16093 5.07 248 19:23 05.11.2019
4950 Clouds 15 1019 63 16093 3.6 230 18:58 05.11.2019
4951 Clouds 15 1020 72 16093 5.1 250 18:40 05.11.2019
4952 Clouds 15 1020 72 16093 1.5 280 18:21 05.11.2019
4953 Clouds 15 1020 77 16093 5.1 200 17:59 05.11.2019
4954 Clouds 15 1021 77 0 2.6 250 17:39 05.11.2019
4955 Rain 15 1022 67 16093 2.1 0 17:21 05.11.2019
4956 Rain 14 1021 77 16093 3.1 0 16:58 05.11.2019
4957 Rain 14 1022 71 16093 6.17 210 16:40 05.11.2019
4958 Clouds 14 1022 71 16093 6.17 210 16:20 05.11.2019
4959 Clouds 13 1022 76 16093 6.17 210 15:41 05.11.2019
4960 Clouds 12 1022 76 16093 6.17 210 15:20 05.11.2019
4961 Clouds 12 1024 76 16093 6.17 210 14:59 05.11.2019
4962 Clouds 11 1024 76 16093 6.17 210 14:41 05.11.2019
4963 Clouds 10 1023 81 16093 6.33 182 14:22 05.11.2019
4964 Rain 9 1023 76 16093 2.6 190 13:58 05.11.2019
4965 Rain 9 1023 81 16093 6.33 182 13:40 05.11.2019
4966 Rain 8 1024 82 0 3.1 270 13:22 05.11.2019
4967 Rain 8 1023 81 16093 5.73 191 12:41 05.11.2019
4968 Rain 8 1023 81 16093 5.73 191 12:22 05.11.2019
4969 Rain 7 1023 76 16093 1.5 200 11:57 05.11.2019
4970 Clouds 7 1024 81 16093 5.73 191 11:38 05.11.2019
4971 Clouds 7 1024 71 16093 6.45 213 11:20 05.11.2019
4972 Clouds 7 1023 76 16093 2.1 190 10:55 05.11.2019
4973 Clouds 7 1024 81 0 2.1 270 10:37 05.11.2019
4974 Clouds 6 1024 76 16093 6.45 213 10:18 05.11.2019
4975 Clouds 6 1024 76 16093 2.6 190 09:54 05.11.2019
4976 Clear 7 1024 81 0 3.1 0 09:36 05.11.2019
4977 Clear 7 1025 76 16093 6.45 213 09:18 05.11.2019
4978 Clear 7 1025 76 0 3.1 270 08:38 05.11.2019
4979 Clear 7 1025 76 0 3.1 270 08:19 05.11.2019
4980 Clouds 7 1025 71 16093 7.45 221 07:57 05.11.2019
4981 Clear 7 1025 76 16093 7.45 221 07:38 05.11.2019
4982 Clouds 8 1026 66 16093 7.45 221 07:19 05.11.2019
4983 Clear 8 1025 66 16093 7.45 221 06:46 05.11.2019
4984 Clear 9 1025 61 16093 7.45 221 05:51 05.11.2019
4985 Clear 9 1026 58 16093 2.6 0 05:22 05.11.2019
4986 Clear 10 1026 57 16093 7.67 191 04:25 05.11.2019
4987 Clear 10 1026 57 16093 7.67 191 03:49 05.11.2019
4988 Clear 10 1026 53 16093 7.67 191 02:44 05.11.2019
4989 Clouds 10 1026 54 16093 3.6 200 01:59 05.11.2019
4990 Clouds 11 1027 62 16093 6.7 180 00:52 05.11.2019
4991 Clear 11 1026 53 16093 3.1 190 00:30 05.11.2019
4992 Clouds 11 1026 50 16093 4.1 180 23:56 04.11.2019
4993 Rain 11 1026 46 16093 4.6 180 23:37 04.11.2019
4994 Clear 11 1027 46 16093 4.1 190 23:18 04.11.2019
4995 Clear 12 1026 50 16093 5.1 190 22:41 04.11.2019
4996 Clear 12 1026 50 16093 5.1 190 22:23 04.11.2019
4997 Clouds 13 1026 46 16093 6.7 180 21:56 04.11.2019
4998 Clouds 13 1026 46 16093 6.7 180 21:56 04.11.2019
4999 Clear 13 1026 35 16093 3.6 170 21:38 04.11.2019
5000 Clear 13 1027 37 16093 1.5 0 21:19 04.11.2019
5001 Clouds 13 1026 37 16093 7.2 170 20:59 04.11.2019
5002 Clear 13 1026 30 16093 8.32 176 20:39 04.11.2019
5003 Clear 13 1027 44 0 3.1 190 20:21 04.11.2019
5004 Rain 13 1026 28 16093 6.02 170 19:59 04.11.2019
5005 Rain 13 1027 28 16093 4.6 180 19:40 04.11.2019
5006 Clear 13 1028 35 16093 3.6 150 19:21 04.11.2019
5007 Clouds 13 1027 37 16093 6.2 160 18:57 04.11.2019
5008 Clear 13 1028 28 16093 2.1 220 18:39 04.11.2019
5009 Clear 13 1028 43 0 3.6 240 18:19 04.11.2019
5010 Clear 12 1029 32 16093 6.02 170 17:41 04.11.2019
5011 Clear 12 1029 32 16093 3.2 185 17:22 04.11.2019
5012 Clouds 11 1029 34 16093 3.1 200 16:59 04.11.2019
5013 Clear 11 1029 37 16093 2.1 200 16:41 04.11.2019
5014 Clear 10 1029 37 16093 2.1 200 16:23 04.11.2019
5015 Clouds 10 1028 37 16093 4.1 170 15:57 04.11.2019
5016 Clear 9 1029 49 16093 3.2 185 15:39 04.11.2019
5017 Clear 8 1029 42 16093 1.5 160 15:19 04.11.2019
5018 Clouds 7 1029 43 16093 3.6 130 14:57 04.11.2019
5019 Clear 7 1029 65 16093 3.2 185 14:39 04.11.2019
5020 Clear 4 1029 45 16093 1.1 64 14:19 04.11.2019
5021 Clear 2 1029 69 16093 1.1 64 13:56 04.11.2019
5022 Clear 1 1028 80 16093 1.1 64 13:38 04.11.2019
5023 Clear 0 1028 80 16093 1.46 96 13:19 04.11.2019
5024 Clear 0 1027 80 16093 1.46 96 12:44 04.11.2019
5025 Clear 0 1027 80 16093 1.46 96 12:25 04.11.2019
5026 Clear 0 1028 74 16093 1.46 96 11:58 04.11.2019
5027 Clear 0 1028 74 16093 1.46 96 11:40 04.11.2019
5028 Clear 0 1028 74 16093 2.83 351 11:21 04.11.2019
5029 Clear 0 1027 74 16093 2.83 351 10:47 04.11.2019
5030 Clear 1 1027 74 16093 2.83 351 10:26 04.11.2019
5031 Clear 0 1027 74 16093 2.83 351 09:56 04.11.2019
5032 Clear 1 1027 69 16093 2.83 351 09:38 04.11.2019
5033 Clear 1 1027 52 16093 2.1 290 09:19 04.11.2019
5034 Clear 1 1026 74 16093 2.83 351 08:42 04.11.2019
5035 Clear 1 1026 74 16093 4.6 320 08:23 04.11.2019
5036 Clear 1 1026 74 16093 4.6 320 08:23 04.11.2019
5037 Clear 2 1026 48 16093 2.6 300 07:59 04.11.2019
5038 Clear 2 1026 64 16093 4.6 320 07:41 04.11.2019
5039 Clear 2 1026 64 16093 4.6 320 07:19 04.11.2019
5040 Clear 3 1026 60 16093 4.6 320 06:47 04.11.2019
5041 Clear 3 1026 52 16093 1.5 0 06:18 04.11.2019
5042 Clear 4 1025 56 16093 6.58 309 05:32 04.11.2019
5043 Clear 4 1025 52 16093 6.58 309 04:34 04.11.2019
5044 Clear 5 1024 52 16093 6.58 309 03:39 04.11.2019
5045 Clear 7 1023 45 16093 1.5 290 01:38 04.11.2019
5046 Clear 7 1023 39 16093 3.1 270 01:18 04.11.2019
5047 Clear 9 1022 42 16093 2.6 300 00:22 04.11.2019
5048 Clouds 9 1021 40 16093 5.1 310 23:59 03.11.2019
5049 Clouds 10 1021 39 16093 3.6 290 23:39 03.11.2019
5050 Clouds 10 1021 39 16093 3.6 290 23:20 03.11.2019
5051 Clouds 10 1020 40 16093 6.2 330 22:57 03.11.2019
5052 Clouds 10 1020 37 16093 7.25 282 22:39 03.11.2019
5053 Clouds 11 1021 37 16093 3.1 0 22:19 03.11.2019
5054 Clouds 11 1020 34 16093 5.1 290 21:44 03.11.2019
5055 Clouds 11 1020 40 16093 2.6 0 21:22 03.11.2019
5056 Clouds 11 1019 37 16093 5.7 280 20:59 03.11.2019
5057 Clouds 11 1020 40 16093 4.6 300 20:38 03.11.2019
5058 Clouds 11 1020 40 16093 1.5 0 20:20 03.11.2019
5059 Clouds 11 1019 40 16093 5.7 300 19:58 03.11.2019
5060 Clouds 11 1020 40 16093 5.1 300 19:39 03.11.2019
5061 Clouds 11 1020 40 16093 5.1 300 19:21 03.11.2019
5062 Clouds 11 1019 37 16093 4.1 260 18:59 03.11.2019
5063 Clouds 11 1020 40 16093 6.2 290 18:38 03.11.2019
5064 Clouds 11 1020 43 16093 3.1 0 18:18 03.11.2019
5065 Clouds 11 1019 43 16093 6.2 310 17:56 03.11.2019
5066 Clouds 11 1020 55 16093 2.1 350 17:37 03.11.2019
5067 Clear 10 1021 46 16093 1.5 0 17:18 03.11.2019
5068 Clouds 10 1020 49 16093 4.6 270 16:54 03.11.2019
5069 Clear 10 1021 59 16093 5.7 310 16:36 03.11.2019
5070 Clear 9 1021 49 16093 3.6 280 16:18 03.11.2019
5071 Clear 9 1021 59 16093 4.6 310 15:45 03.11.2019
5072 Clear 8 1021 59 16093 4.6 310 15:25 03.11.2019
5073 Clouds 8 1020 56 16093 6.2 290 14:57 03.11.2019
5074 Clear 7 1020 59 16093 2.6 300 14:38 03.11.2019
5075 Clear 6 1020 52 16093 3.6 270 14:18 03.11.2019
5076 Clear 4 1019 69 16093 6.44 288 13:44 03.11.2019
5077 Clear 3 1019 69 16093 6.7 283 13:21 03.11.2019
5078 Clear 3 1019 69 16093 6.7 283 13:21 03.11.2019
5079 Clear 3 1019 56 16093 1.5 0 12:59 03.11.2019
5080 Clear 2 1018 69 16093 6.7 283 12:37 03.11.2019
5081 Clear 2 1018 56 16093 2.1 290 12:19 03.11.2019
5082 Clear 3 1017 52 16093 5.1 300 11:54 03.11.2019
5083 Clear 3 1018 69 16093 6.7 283 11:36 03.11.2019
5084 Clear 3 1018 56 16093 2.6 0 11:18 03.11.2019
5085 Clear 3 1018 61 16093 7.58 289 10:40 03.11.2019
5086 Clear 3 1018 61 16093 7.58 289 10:22 03.11.2019
5087 Clear 3 1017 56 16093 6.2 300 09:57 03.11.2019
5088 Clear 3 1017 61 16093 7.58 289 09:39 03.11.2019
5089 Clear 4 1017 61 16093 7.58 289 09:21 03.11.2019
5090 Clear 4 1018 61 16093 7.58 289 08:41 03.11.2019
5091 Clear 4 1018 56 16093 1.5 0 08:22 03.11.2019
5092 Clear 4 1018 58 16093 7.06 287 07:46 03.11.2019
5093 Clear 4 1018 52 16093 2.1 270 07:28 03.11.2019
5094 Clear 4 1017 52 16093 4.6 310 06:52 03.11.2019
5095 Clear 5 1018 58 16093 7.06 287 06:33 03.11.2019
5096 Clouds 5 1018 53 0 2.6 0 05:40 03.11.2019
5097 Clouds 6 1018 49 16093 5.7 310 04:58 03.11.2019
5098 Clouds 6 1018 59 16093 6.83 293 04:37 03.11.2019
5099 Clouds 7 1018 65 16093 6.83 293 03:35 03.11.2019
5100 Clouds 7 1018 71 0 4.1 230 02:45 03.11.2019
5101 Clouds 7 1018 71 0 4.1 230 02:20 03.11.2019
5102 Clouds 7 1018 71 16093 4.16 226 01:42 03.11.2019
5103 Clouds 7 1018 66 0 4.17 207 01:20 03.11.2019
5104 Clouds 8 1018 66 16093 4.17 207 00:45 03.11.2019
5105 Clouds 8 1019 66 16093 2.6 150 00:27 03.11.2019
5106 Clouds 9 1018 66 16093 4.1 170 23:58 02.11.2019
5107 Clouds 9 1018 66 16093 4.17 207 23:38 02.11.2019
5108 Clouds 9 1019 61 16093 2.1 150 23:19 02.11.2019
5109 Clouds 10 1018 61 16093 3.6 180 22:56 02.11.2019
5110 Clouds 10 1018 61 16093 1.5 150 22:37 02.11.2019
5111 Clear 10 1019 53 16093 4.48 144 22:19 02.11.2019
5112 Clouds 11 1019 53 16093 3.1 160 21:56 02.11.2019
5113 Clouds 11 1019 53 16093 3.1 160 21:38 02.11.2019
5114 Clouds 11 1020 50 16093 3.1 0 21:18 02.11.2019
5115 Clouds 11 1019 53 16093 3.1 140 20:59 02.11.2019
5116 Clear 11 1019 53 16093 2.1 150 20:39 02.11.2019
5117 Clouds 11 1020 53 16093 1.5 0 20:20 02.11.2019
5118 Clouds 11 1019 62 16093 1.5 200 19:55 02.11.2019
5119 Clouds 11 1020 50 16093 3.6 170 19:36 02.11.2019
5120 Clouds 11 1021 46 16093 3.78 128 19:18 02.11.2019
5121 Clouds 10 1021 62 16093 3.78 128 18:42 02.11.2019
5122 Clouds 10 1021 62 16093 3.78 128 18:24 02.11.2019
5123 Clouds 10 1021 49 16093 2.6 40 17:59 02.11.2019
5124 Haze 10 1023 46 402 2.6 150 17:40 02.11.2019
5125 Clear 10 1023 53 0 2.64 85 17:22 02.11.2019
5126 Clouds 9 1023 52 16093 2.1 0 16:58 02.11.2019
5127 Clear 9 1023 49 16093 2.64 85 16:38 02.11.2019
5128 Clear 8 1024 52 16093 2.64 85 16:20 02.11.2019
5129 Clear 8 1024 52 16093 2.64 85 15:42 02.11.2019
5130 Clear 7 1025 49 16093 3.1 0 15:20 02.11.2019
5131 Clouds 6 1024 61 16093 4.1 30 14:56 02.11.2019
5132 Clear 6 1025 60 16093 2.64 85 14:38 02.11.2019
5133 Clear 4 1025 61 0 2.6 90 14:20 02.11.2019
5134 Clear 2 1025 64 16093 2.1 0 13:40 02.11.2019
5135 Clear 1 1025 64 16093 2.1 0 13:20 02.11.2019
5136 Clouds 1 1024 60 16093 2.6 40 12:58 02.11.2019
5137 Clear 1 1025 80 16093 0.73 20 12:38 02.11.2019
5138 Clear 1 1025 80 16093 0.73 20 12:20 02.11.2019
5139 Clear 1 1025 80 16093 0.73 20 12:20 02.11.2019
5140 Clouds 1 1024 56 16093 2.6 40 11:55 02.11.2019
5141 Clear 1 1025 74 16093 0.73 20 11:36 02.11.2019
5142 Clear 1 1025 64 16093 2.1 360 11:18 02.11.2019
5143 Mist 1 1024 92 1207 1.5 310 10:42 02.11.2019
5144 Clear 1 1025 64 16093 3.35 356 10:23 02.11.2019
5145 Clear 2 1025 69 16093 3.35 356 09:43 02.11.2019
5146 Clear 2 1025 69 16093 3.35 356 09:22 02.11.2019
5147 Clear 2 1025 69 16093 3.35 356 09:22 02.11.2019
5148 Clear 2 1024 60 16093 2.6 10 08:57 02.11.2019
5149 Clear 3 1025 74 16093 4.64 327 08:37 02.11.2019
5150 Clear 3 1025 52 16093 5.99 331 08:18 02.11.2019
5151 Clear 3 1025 69 16093 5.99 331 07:44 02.11.2019
5152 Clear 3 1025 69 16093 5.99 331 07:25 02.11.2019
5153 Clear 3 1024 56 16093 5.1 330 06:52 02.11.2019
5154 Clear 3 1024 56 16093 5.1 330 06:52 02.11.2019
5155 Clear 3 1024 56 16093 5.1 330 06:52 02.11.2019
5156 Clear 4 1025 65 16093 5.99 331 06:24 02.11.2019
5157 Clear 4 1025 65 16093 5.99 331 05:44 02.11.2019
5158 Clear 5 1025 56 16093 6.26 334 04:26 02.11.2019
5159 Clear 6 1025 56 16093 6.26 334 03:52 02.11.2019
5160 Clear 6 1025 56 16093 6.26 334 03:31 02.11.2019
5161 Clear 6 1025 56 16093 6.26 334 03:31 02.11.2019
5162 Clear 7 1024 52 16093 6.26 334 02:31 02.11.2019
5163 Clear 8 1023 52 16093 7.4 327 01:36 02.11.2019
5164 Clear 8 1024 39 16093 4.6 300 01:18 02.11.2019
5165 Clear 9 1023 49 16093 6.4 312 00:42 02.11.2019
5166 Clear 9 1023 49 16093 6.4 312 00:22 02.11.2019
5167 Clear 10 1021 46 16093 3.1 330 23:42 01.11.2019
5168 Clear 10 1022 34 16093 3.6 300 23:20 01.11.2019
5169 Clear 11 1021 40 16093 4.6 330 22:43 01.11.2019
5170 Clear 12 1021 40 16093 3.6 290 22:21 01.11.2019
5171 Clear 11 1021 37 16093 4.6 310 22:21 01.11.2019
5172 Clear 12 1020 37 16093 5.7 300 21:56 01.11.2019
5173 Clear 12 1020 35 16093 6.2 300 21:37 01.11.2019
5174 Clear 12 1020 35 16093 8.05 288 21:18 01.11.2019
5175 Clear 13 1020 37 16093 7.7 290 20:42 01.11.2019
5176 Clear 13 1019 32 16093 4.1 280 20:24 01.11.2019
5177 Clear 13 1019 32 16093 4.1 280 19:59 01.11.2019
5178 Clear 13 1019 37 16093 6.7 300 19:41 01.11.2019
5179 Clear 13 1019 35 16093 3.6 270 19:22 01.11.2019
5180 Clear 12 1019 37 16093 6.7 320 18:42 01.11.2019
5181 Clear 12 1018 40 16093 4.6 270 18:21 01.11.2019
5182 Clouds 12 1017 40 16093 7.2 270 17:59 01.11.2019
5183 Clear 12 1018 50 0 3.1 0 17:41 01.11.2019
5184 Clear 12 1018 50 0 3.1 0 17:23 01.11.2019
5185 Clouds 11 1018 59 16093 9.3 280 16:58 01.11.2019
5186 Clear 11 1018 43 16093 9.3 290 16:36 01.11.2019
5187 Clear 11 1018 43 16093 9.3 290 16:36 01.11.2019
5188 Clear 11 1017 50 0 4.6 290 16:18 01.11.2019
5189 Clear 11 1017 50 0 4.6 290 16:18 01.11.2019
5190 Clear 10 1017 46 16093 10.8 310 15:40 01.11.2019
5191 Clear 9 1017 49 16093 4.6 270 15:22 01.11.2019
5192 Clouds 9 1016 49 16093 8.7 280 14:56 01.11.2019
5193 Clear 8 1016 49 16093 9.8 290 14:38 01.11.2019
5194 Clear 8 1016 52 16093 2.6 0 14:19 01.11.2019
5195 Clouds 8 1015 52 16093 7.7 260 13:55 01.11.2019
5196 Clear 7 1016 56 16093 5.7 290 13:36 01.11.2019
5197 Clear 7 1015 56 16093 5.7 270 13:18 01.11.2019
5198 Clear 7 1014 56 16093 7.2 300 12:42 01.11.2019
5199 Clear 7 1014 56 16093 7.2 300 12:24 01.11.2019
5200 Clear 7 1013 56 16093 6.7 310 11:42 01.11.2019
5201 Clear 8 1013 56 16093 6.7 310 11:24 01.11.2019
5202 Rain 8 1012 57 16093 11.3 280 10:56 01.11.2019
5203 Rain 8 1011 64 16093 7.7 300 10:38 01.11.2019
5204 Clouds 8 1009 66 16093 5.7 270 10:20 01.11.2019
5205 Rain 9 1008 61 16093 11.8 290 09:43 01.11.2019
5206 Rain 9 1008 61 16093 11.8 290 09:25 01.11.2019
5207 Rain 10 1006 66 14484 10.3 280 08:57 01.11.2019
5208 Rain 10 1006 71 16093 7.7 290 08:39 01.11.2019
5209 Rain 10 1005 76 0 5.7 270 08:20 01.11.2019
5210 Rain 11 1005 71 16093 10.3 260 07:51 01.11.2019
5211 Rain 13 1004 82 0 8.2 280 07:24 01.11.2019
5212 Rain 14 1002 82 9656 11.3 260 06:56 01.11.2019
5213 Rain 16 1002 87 9656 9.3 280 06:37 01.11.2019
5214 Rain 18 1001 82 14484 7.2 290 06:18 01.11.2019
5215 Rain 20 1001 94 12874 14.9 180 05:41 01.11.2019
5216 Clouds 21 1002 93 16093 10.3 180 03:33 01.11.2019
5217 Clouds 21 1003 93 11265 12.9 170 01:51 01.11.2019
5218 Clouds 21 1003 83 16093 7.2 200 01:28 01.11.2019
5219 Rain 21 1005 83 16093 7.2 190 00:21 01.11.2019
5220 Rain 21 1006 93 11265 10.3 180 23:56 31.10.2019
5221 Drizzle 21 1006 83 16093 5.1 190 23:38 31.10.2019
5222 Rain 21 1007 83 0 4.1 190 23:19 31.10.2019
5223 Mist 21 1007 93 2414 7.7 160 22:42 31.10.2019
5224 Clouds 21 1006 78 16093 6.2 200 22:24 31.10.2019
5225 Rain 21 1007 93 12874 9.8 180 21:58 31.10.2019
5226 Rain 21 1007 93 16093 7.7 180 21:40 31.10.2019
5227 Rain 21 1008 83 12874 12.41 184 21:19 31.10.2019
5228 Rain 21 1008 83 12874 12.41 184 20:41 31.10.2019
5229 Rain 21 1007 78 16093 6.2 190 20:23 31.10.2019
5230 Rain 21 1008 93 11265 7.7 170 19:59 31.10.2019
5231 Rain 21 1010 88 0 1.5 0 19:39 31.10.2019
5232 Rain 21 1010 88 0 1.5 0 19:21 31.10.2019
5233 Rain 20 1011 100 12874 11.8 180 18:55 31.10.2019
5234 Rain 20 1009 83 16093 7.2 180 18:36 31.10.2019
5235 Rain 20 1012 94 9656 3.1 0 18:18 31.10.2019
5236 Rain 20 1012 100 6437 7.2 170 17:41 31.10.2019
5237 Rain 20 1013 94 4828 1.5 0 17:21 31.10.2019
5238 Rain 20 1012 100 6437 6.2 170 16:56 31.10.2019
5239 Rain 20 1014 100 12874 10.8 180 16:37 31.10.2019
5240 Rain 19 1012 88 1609 6.7 190 16:18 31.10.2019
5241 Rain 19 1013 100 4828 6.2 170 15:54 31.10.2019
5242 Rain 19 1014 100 14484 1.5 0 15:36 31.10.2019
5243 Rain 19 1014 93 0 3.1 0 15:18 31.10.2019
5244 Rain 19 1014 93 4828 1.5 0 14:41 31.10.2019
5245 Rain 19 1015 93 8047 3.1 0 14:23 31.10.2019
5246 Rain 18 1014 100 3219 4.1 180 13:59 31.10.2019
5247 Drizzle 18 1014 93 8047 2.6 200 13:39 31.10.2019
5248 Rain 18 1015 93 6437 2.1 0 13:20 31.10.2019
5249 Rain 18 1014 100 3219 5.7 170 12:58 31.10.2019
5250 Rain 17 1014 93 8047 6.2 170 12:40 31.10.2019
5251 Rain 17 1014 93 8047 6.2 170 12:22 31.10.2019
5252 Rain 16 1016 100 8047 2.1 0 11:47 31.10.2019
5253 Rain 16 1015 88 4828 2.6 190 11:21 31.10.2019
5254 Rain 16 1015 93 9656 4.6 160 10:59 31.10.2019
5255 Rain 16 1015 93 9656 4.6 160 10:59 31.10.2019
5256 Rain 16 1016 100 4023 2.1 180 10:40 31.10.2019
5257 Rain 16 1016 100 4023 2.1 180 10:21 31.10.2019
5258 Rain 16 1016 93 9656 3.1 170 09:57 31.10.2019
5259 Rain 16 1017 100 8047 2.6 140 09:39 31.10.2019
5260 Rain 16 1017 100 9656 2.1 140 09:18 31.10.2019
5261 Rain 16 1017 93 3219 2.1 200 08:46 31.10.2019
5262 Rain 16 1018 93 0 6.08 184 08:27 31.10.2019
5263 Rain 16 1017 93 16093 2.6 170 07:54 31.10.2019
5264 Rain 16 1019 100 8047 3.1 0 07:36 31.10.2019
5265 Rain 16 1019 93 4023 2.1 160 07:18 31.10.2019
5266 Rain 16 1019 93 0 1.5 290 06:33 31.10.2019
5267 Rain 16 1019 100 4828 2.6 180 05:58 31.10.2019
5268 Rain 16 1020 93 4828 3.22 218 03:30 31.10.2019
5269 Drizzle 16 1021 93 2414 3.22 218 02:38 31.10.2019
5270 Rain 16 1021 100 4023 1.64 358 01:50 31.10.2019
5271 Rain 16 1022 93 6437 2.6 70 00:37 31.10.2019
5272 Rain 16 1022 93 9656 3.1 50 00:18 31.10.2019
5273 Rain 16 1021 93 6437 3.6 40 23:30 30.10.2019
5274 Rain 17 1021 93 6437 5.1 50 22:44 30.10.2019
5275 Rain 17 1021 93 6437 5.1 50 22:23 30.10.2019
5276 Rain 17 1021 93 6437 5.1 50 21:56 30.10.2019
5277 Rain 17 1022 93 6437 5.1 40 21:38 30.10.2019
5278 Rain 17 1023 93 14484 2.6 60 21:19 30.10.2019
5279 Rain 17 1022 93 6437 5.7 40 20:59 30.10.2019
5280 Rain 17 1022 93 6437 5.7 40 20:59 30.10.2019
5281 Clouds 17 1022 88 16093 3.38 14 20:41 30.10.2019
5282 Clouds 17 1022 88 16093 4.24 53 20:22 30.10.2019
5283 Rain 17 1022 93 3219 6.2 40 19:58 30.10.2019
5284 Rain 17 1024 93 6437 2.1 40 19:39 30.10.2019
5285 Rain 17 1024 93 6437 2.1 40 19:39 30.10.2019
5286 Rain 17 1023 93 8047 4.24 53 19:20 30.10.2019
5287 Rain 17 1023 93 3219 4.6 40 18:58 30.10.2019
5288 Rain 17 1024 88 16093 2.1 100 18:37 30.10.2019
5289 Rain 17 1024 88 16093 2.1 100 18:37 30.10.2019
5290 Clouds 17 1024 88 0 3.1 40 18:18 30.10.2019
5291 Rain 17 1025 93 8047 4.24 53 17:41 30.10.2019
5292 Rain 16 1026 93 16093 2.1 20 17:20 30.10.2019
5293 Mist 16 1025 87 3219 3.6 30 16:59 30.10.2019
5294 Mist 16 1026 93 9656 1.5 0 16:41 30.10.2019
5295 Mist 16 1025 93 805 4.6 40 16:22 30.10.2019
5296 Rain 16 1025 93 3219 4.1 40 15:57 30.10.2019
5297 Mist 16 1026 93 1609 3.92 47 15:38 30.10.2019
5298 Mist 15 1026 93 6437 1.5 50 15:19 30.10.2019
5299 Mist 15 1025 100 1609 5.1 40 14:56 30.10.2019
5300 Rain 15 1026 87 3219 1.5 0 14:38 30.10.2019
5301 Rain 15 1026 93 3219 2.6 50 14:20 30.10.2019
5302 Rain 15 1026 100 1207 3.1 50 13:54 30.10.2019
5303 Rain 15 1026 93 1609 1.5 0 13:36 30.10.2019
5304 Rain 14 1026 93 1609 1.5 70 13:18 30.10.2019
5305 Rain 14 1026 93 2414 3.98 29 12:43 30.10.2019
5306 Drizzle 14 1025 100 1609 3.1 50 12:25 30.10.2019
5307 Rain 14 1025 100 1609 2.6 50 11:56 30.10.2019
5308 Rain 14 1025 100 1609 2.6 50 11:56 30.10.2019
5309 Rain 14 1025 93 4023 3.98 29 11:38 30.10.2019
5310 Rain 14 1026 93 3219 2.1 30 11:18 30.10.2019
5311 Rain 14 1025 87 0 3.6 50 10:42 30.10.2019
5312 Rain 14 1025 87 0 3.6 50 10:23 30.10.2019
5313 Rain 14 1025 93 3219 4.48 15 09:42 30.10.2019
5314 Rain 14 1025 93 6437 4.48 15 09:23 30.10.2019
5315 Rain 14 1025 100 9656 3.1 50 08:57 30.10.2019
5316 Rain 14 1025 93 6437 2.6 70 08:39 30.10.2019
5317 Rain 14 1025 100 9656 2.6 40 08:19 30.10.2019
5318 Rain 14 1025 93 3219 1.5 40 07:43 30.10.2019
5319 Drizzle 14 1025 93 3219 4.13 0 07:20 30.10.2019
5320 Rain 15 1026 93 3219 4.13 0 06:42 30.10.2019
5321 Rain 15 1026 93 2414 1.5 30 06:20 30.10.2019
5322 Rain 15 1025 93 0 2.6 60 05:41 30.10.2019
5323 Rain 15 1025 93 3219 3.37 47 04:42 30.10.2019
5324 Drizzle 15 1025 100 3219 2.6 50 03:43 30.10.2019
5325 Rain 15 1025 100 2414 3.1 60 02:51 30.10.2019
5326 Rain 15 1025 100 2414 3.6 40 01:58 30.10.2019
5327 Rain 15 1025 100 3219 4.1 40 00:57 30.10.2019
5328 Rain 15 1025 87 4023 1.5 30 00:28 30.10.2019
5329 Drizzle 15 1025 93 6437 4.01 21 23:43 29.10.2019
5330 Rain 15 1025 87 0 2.6 20 23:23 29.10.2019
5331 Rain 15 1025 87 12874 2.1 60 22:48 29.10.2019
5332 Rain 15 1025 93 2816 2.1 50 22:20 29.10.2019
5333 Rain 15 1025 93 6437 4.6 60 21:59 29.10.2019
5334 Drizzle 15 1025 87 2414 2.6 40 21:41 29.10.2019
5335 Rain 15 1025 87 3219 2.1 60 21:20 29.10.2019
5336 Rain 15 1025 93 2414 4.6 40 20:56 29.10.2019
5337 Drizzle 15 1025 93 2414 2.1 30 20:38 29.10.2019
5338 Drizzle 15 1025 93 2414 2.1 30 20:38 29.10.2019
5339 Rain 15 1025 87 0 4.1 30 20:20 29.10.2019
5340 Rain 15 1025 93 2414 4.6 50 19:56 29.10.2019
5341 Rain 15 1025 93 2414 4.6 50 19:56 29.10.2019
5342 Rain 15 1026 93 4023 2.6 50 19:38 29.10.2019
5343 Rain 15 1026 93 3219 1.5 0 19:19 29.10.2019
5344 Rain 15 1025 93 2414 4.6 40 18:55 29.10.2019
5345 Rain 15 1026 87 3219 1.5 0 18:37 29.10.2019
5346 Rain 15 1026 87 3219 1.5 0 18:37 29.10.2019
5347 Drizzle 15 1026 100 2414 2.6 360 18:18 29.10.2019
5348 Rain 14 1026 93 2414 3.6 50 17:54 29.10.2019
5349 Rain 14 1027 93 4023 2.1 0 17:36 29.10.2019
5350 Drizzle 14 1026 93 2816 2.1 40 17:18 29.10.2019
5351 Mist 14 1027 87 4023 2.1 60 16:39 29.10.2019
5352 Rain 14 1027 93 8047 2.6 50 16:20 29.10.2019
5353 Drizzle 13 1026 93 4023 4.1 50 15:56 29.10.2019
5354 Rain 13 1027 93 2414 2.1 40 15:38 29.10.2019
5355 Rain 13 1026 87 14484 2.6 70 15:20 29.10.2019
5356 Rain 13 1026 87 3219 4.1 60 14:55 29.10.2019
5357 Rain 13 1027 93 4828 2.1 90 14:37 29.10.2019
5358 Rain 13 1026 87 0 5.7 40 14:18 29.10.2019
5359 Drizzle 12 1026 93 6437 3.1 60 13:40 29.10.2019
5360 Rain 12 1026 93 16093 4.6 70 13:22 29.10.2019
5361 Rain 12 1026 93 0 5.1 30 12:46 29.10.2019
5362 Rain 12 1026 93 0 5.1 30 12:27 29.10.2019
5363 Rain 12 1026 87 16093 3.6 80 11:59 29.10.2019
5364 Clouds 12 1027 82 16093 2.6 80 11:41 29.10.2019
5365 Clouds 12 1026 87 16093 3.1 70 11:20 29.10.2019
5366 Rain 12 1026 87 16093 2.6 80 10:58 29.10.2019
5367 Rain 12 1026 93 0 5.1 60 10:39 29.10.2019
5368 Rain 12 1026 93 16093 3.1 50 10:20 29.10.2019
5369 Rain 12 1025 87 16093 3.6 90 09:58 29.10.2019
5370 Rain 12 1025 93 6437 2.6 100 09:40 29.10.2019
5371 Rain 12 1025 93 6437 2.6 100 09:21 29.10.2019
5372 Rain 12 1026 93 4023 3.1 100 08:45 29.10.2019
5373 Clouds 12 1026 93 11265 6.8 101 08:25 29.10.2019
5374 Rain 12 1026 87 16093 4.1 80 07:55 29.10.2019
5375 Rain 12 1026 93 16093 3.1 60 07:37 29.10.2019
5376 Rain 12 1027 87 16093 2.1 70 07:18 29.10.2019
5377 Rain 12 1026 93 16093 3.1 80 06:45 29.10.2019
5378 Rain 13 1026 93 6437 6.8 101 06:25 29.10.2019
5379 Rain 13 1026 100 16093 2.6 50 05:50 29.10.2019
5380 Rain 13 1026 93 4828 6.8 101 05:30 29.10.2019
5381 Rain 13 1026 87 0 3.6 80 04:32 29.10.2019
5382 Clouds 13 1025 77 16093 6.47 108 02:33 29.10.2019
5383 Clouds 13 1025 71 16093 4.1 130 01:47 29.10.2019
5384 Clouds 13 1025 82 16093 2.6 120 01:22 29.10.2019
5385 Clouds 13 1025 82 16093 7.24 103 00:48 29.10.2019
5386 Clear 14 1024 63 16093 7.24 103 23:44 28.10.2019
5387 Clouds 14 1024 63 16093 7.46 117 23:21 28.10.2019
5388 Clouds 15 1024 63 16093 7.46 117 22:59 28.10.2019
5389 Clouds 15 1023 59 0 2.6 0 22:39 28.10.2019
5390 Clouds 16 1024 63 16093 7.46 117 22:18 28.10.2019
5391 Clouds 16 1023 63 16093 2.6 40 21:56 28.10.2019
5392 Clouds 16 1023 55 16093 7.46 117 21:38 28.10.2019
5393 Clouds 16 1024 55 16093 1.5 30 21:20 28.10.2019
5394 Clouds 16 1023 59 16093 3.1 40 20:57 28.10.2019
5395 Clouds 16 1023 55 16093 7.46 117 20:38 28.10.2019
5396 Clouds 17 1023 55 16093 2.1 0 20:20 28.10.2019
5397 Clouds 17 1022 55 16093 3.1 40 19:54 28.10.2019
5398 Clouds 17 1023 63 16093 3.47 81 19:36 28.10.2019
5399 Clouds 17 1023 59 16093 3.1 0 19:18 28.10.2019
5400 Clouds 17 1023 63 0 4.1 40 19:18 28.10.2019
5401 Clouds 17 1023 72 0 3.1 50 18:54 28.10.2019
5402 Clouds 17 1023 72 0 3.1 50 18:36 28.10.2019
5403 Clouds 17 1024 59 16093 3.47 81 18:18 28.10.2019
5404 Clouds 16 1024 63 16093 2.6 0 17:54 28.10.2019
5405 Clouds 16 1024 63 16093 2.6 0 17:36 28.10.2019
5406 Clouds 16 1023 63 16093 2.6 40 17:18 28.10.2019
5407 Clouds 16 1023 67 16093 2.1 0 16:43 28.10.2019
5408 Clouds 16 1022 63 16093 5.1 60 16:24 28.10.2019
5409 Clouds 16 1022 63 16093 5.1 50 15:59 28.10.2019
5410 Clouds 16 1022 72 0 4.6 60 15:40 28.10.2019
5411 Clouds 15 1022 72 16093 3.6 50 15:21 28.10.2019
5412 Clouds 15 1022 67 16093 5.7 30 14:58 28.10.2019
5413 Clouds 15 1021 63 16093 3.1 20 14:40 28.10.2019
5414 Rain 14 1022 71 16093 2.1 0 14:19 28.10.2019
5415 Clouds 13 1021 71 16093 4.1 20 13:58 28.10.2019
5416 Clouds 13 1020 67 16093 6.36 4 13:40 28.10.2019
5417 Clouds 12 1021 76 16093 1.5 30 13:18 28.10.2019
5418 Clouds 12 1019 67 16093 3.1 360 12:43 28.10.2019
5419 Clouds 12 1019 67 16093 2.1 340 12:22 28.10.2019
5420 Clear 12 1018 76 16093 6.65 350 11:58 28.10.2019
5421 Clear 12 1018 76 16093 6.65 350 11:37 28.10.2019
5422 Clouds 12 1019 71 16093 2.6 0 11:19 28.10.2019
5423 Clouds 12 1017 76 16093 8.3 325 10:41 28.10.2019
5424 Clear 12 1017 71 16093 8.3 325 10:22 28.10.2019
5425 Clear 12 1016 71 16093 4.1 330 09:58 28.10.2019
5426 Clear 12 1016 81 16093 8.3 325 09:39 28.10.2019
5427 Clear 12 1016 71 16093 8.3 325 09:19 28.10.2019
5428 Clear 12 1015 71 16093 4.6 310 08:57 28.10.2019
5429 Clouds 12 1016 71 16093 8.3 325 08:39 28.10.2019
5430 Clear 12 1016 71 16093 3.6 280 08:19 28.10.2019
5431 Clear 12 1014 71 16093 5.7 300 07:57 28.10.2019
5432 Clear 12 1015 82 16093 7.41 319 07:38 28.10.2019
5433 Clear 12 1015 82 16093 7.41 319 07:19 28.10.2019
5434 Clear 12 1014 76 16093 7.41 319 06:40 28.10.2019
5435 Clouds 13 1013 93 16093 2.6 320 05:53 28.10.2019
5436 Clear 14 1012 100 16093 3.1 350 03:56 28.10.2019
5437 Clear 14 1012 67 16093 4.1 300 03:38 28.10.2019
5438 Clear 14 1011 93 16093 6.88 309 02:40 28.10.2019
5439 Clouds 15 1011 87 16093 2.1 0 01:19 28.10.2019
5440 Clouds 16 1010 87 16093 2.1 0 00:42 28.10.2019
5441 Clouds 16 1009 87 16093 3.1 320 00:20 28.10.2019
5442 Clouds 17 1008 93 16093 8.98 286 23:42 27.10.2019
5443 Clouds 17 1008 93 16093 2.6 0 23:19 27.10.2019
5444 Clouds 18 1007 88 16093 8.32 267 22:43 27.10.2019
5445 Clouds 18 1006 88 0 8.32 267 22:23 27.10.2019
5446 Rain 19 1006 93 0 1.5 0 21:58 27.10.2019
5447 Rain 19 1006 100 12874 8.32 267 21:39 27.10.2019
5448 Rain 19 1005 83 16093 6.2 290 21:21 27.10.2019
5449 Rain 19 1004 88 16093 3.6 230 20:58 27.10.2019
5450 Rain 19 1005 100 16093 8.32 267 20:40 27.10.2019
5451 Rain 19 1004 93 8047 3.1 20 20:22 27.10.2019
5452 Rain 18 1005 93 12874 4.1 200 19:56 27.10.2019
5453 Rain 18 1005 94 3219 5.1 260 19:37 27.10.2019
5454 Rain 18 1007 100 4828 3.1 0 19:19 27.10.2019
5455 Rain 17 1006 88 11265 8.2 160 18:56 27.10.2019
5456 Rain 17 1008 93 4828 2.1 0 18:37 27.10.2019
5457 Rain 17 1007 100 1609 4.1 160 18:19 27.10.2019
5458 Rain 17 1007 88 1609 7.2 150 17:54 27.10.2019
5459 Rain 16 1009 93 805 11.99 196 17:36 27.10.2019
5460 Rain 16 1011 100 1609 3.6 100 17:18 27.10.2019
5461 Rain 16 1010 88 2414 7.7 130 16:55 27.10.2019
5462 Rain 16 1012 87 3219 9.3 130 16:37 27.10.2019
5463 Rain 15 1014 93 2414 3.6 130 16:18 27.10.2019
5464 Rain 15 1013 87 0 5.1 90 15:54 27.10.2019
5465 Rain 15 1014 87 2414 9.8 130 15:36 27.10.2019
5466 Rain 15 1014 82 4828 5.7 120 15:18 27.10.2019
5467 Rain 15 1015 87 6437 5.7 140 14:41 27.10.2019
5468 Rain 14 1015 87 6437 5.7 140 14:19 27.10.2019
5469 Rain 14 1016 82 12874 7.7 120 13:55 27.10.2019
5470 Rain 14 1017 93 6437 3.6 110 13:36 27.10.2019
5471 Rain 14 1016 87 9656 6.2 110 13:18 27.10.2019
5472 Rain 14 1018 87 0 6.7 60 12:42 27.10.2019
5473 Rain 14 1018 87 0 6.7 60 12:23 27.10.2019
5474 Rain 14 1018 82 16093 6.2 130 11:43 27.10.2019
5475 Rain 14 1018 82 16093 6.2 130 11:25 27.10.2019
5476 Rain 14 1018 82 16093 6.2 130 11:25 27.10.2019
5477 Rain 14 1018 82 16093 6.2 130 11:25 27.10.2019
5478 Rain 14 1019 82 16093 7.2 120 10:59 27.10.2019
5479 Rain 14 1020 76 16093 6.2 120 10:59 27.10.2019
5480 Rain 14 1020 76 16093 6.2 120 10:41 27.10.2019
5481 Rain 14 1019 82 16093 6.2 130 10:22 27.10.2019
5482 Clouds 13 1020 82 16093 5.1 140 09:44 27.10.2019
5483 Clouds 13 1022 71 16093 2.6 0 09:19 27.10.2019
5484 Clouds 13 1022 71 16093 2.6 0 09:19 27.10.2019
5485 Clouds 13 1021 76 16093 4.1 90 08:59 27.10.2019
5486 Clouds 13 1021 82 16093 3.6 100 08:39 27.10.2019
5487 Clouds 13 1022 71 0 4.1 50 08:19 27.10.2019
5488 Clouds 13 1022 71 16093 3.6 130 07:48 27.10.2019
5489 Clouds 13 1022 71 16093 3.6 130 07:28 27.10.2019
5490 Rain 12 1023 76 16093 3.6 110 06:56 27.10.2019
5491 Rain 12 1023 67 16093 2.6 130 06:37 27.10.2019
5492 Rain 12 1025 71 16093 1.5 0 06:18 27.10.2019
5493 Rain 12 1024 71 16093 8.82 112 05:37 27.10.2019
5494 Drizzle 13 1024 67 16093 6.35 112 04:35 27.10.2019
5495 Clouds 13 1024 62 16093 5.42 126 02:42 27.10.2019
5496 Drizzle 13 1024 58 16093 5.42 126 01:28 27.10.2019
5497 Clouds 14 1024 48 16093 4.6 160 00:56 27.10.2019
5498 Clear 14 1024 54 16093 3.6 180 00:38 27.10.2019
5499 Clouds 15 1024 48 16093 3.6 180 23:59 26.10.2019
5500 Clear 15 1024 51 16093 2.6 180 23:40 26.10.2019
5501 Clear 15 1024 51 16093 2.6 180 23:22 26.10.2019
5502 Clear 16 1023 48 16093 3.79 114 22:59 26.10.2019
5503 Clear 16 1023 48 16093 3.79 114 22:40 26.10.2019
5504 Clear 16 1023 48 16093 3.79 114 22:20 26.10.2019
5505 Clouds 16 1023 39 16093 3.1 90 21:59 26.10.2019
5506 Clear 17 1023 42 16093 3.79 106 21:41 26.10.2019
5507 Clear 17 1024 39 16093 3.16 60 21:20 26.10.2019
5508 Clear 17 1023 42 16093 2.6 120 20:45 26.10.2019
5509 Rain 17 1024 39 16093 3.16 60 20:20 26.10.2019
5510 Rain 17 1023 41 16093 2.6 60 19:57 26.10.2019
5511 Rain 16 1024 45 16093 2.6 40 19:38 26.10.2019
5512 Clear 16 1025 41 16093 2.1 0 19:20 26.10.2019
5513 Clouds 16 1024 44 16093 4.6 60 18:56 26.10.2019
5514 Clear 16 1024 45 16093 3.1 50 18:37 26.10.2019
5515 Clear 16 1024 45 16093 3.1 50 18:37 26.10.2019
5516 Clear 16 1025 48 16093 2.6 0 18:18 26.10.2019
5517 Clouds 15 1024 44 16093 3.6 50 17:56 26.10.2019
5518 Clear 15 1025 59 0 5.1 40 17:36 26.10.2019
5519 Clear 15 1025 58 16093 3.1 60 17:18 26.10.2019
5520 Clear 14 1025 51 16093 5.91 36 16:43 26.10.2019
5521 -273 0 0 0 0 0 16:24 26.10.2019
5522 Clear 14 1025 51 16093 5.91 36 16:24 26.10.2019
5523 Clear 13 1025 67 16093 1.5 40 15:43 26.10.2019
5524 Clear 12 1025 62 0 2.1 0 15:21 26.10.2019
5525 Clouds 10 1024 62 16093 2.6 20 14:56 26.10.2019
5526 Clear 10 1024 81 16093 5.94 10 14:37 26.10.2019
5527 Clear 9 1024 71 16093 5.87 359 14:18 26.10.2019
5528 Clouds 14 1023 71 0 5.87 359 13:42 26.10.2019
5529 Clouds 10 1021 74 0 5.87 359 13:22 26.10.2019
5530 Clouds 9 1023 87 16093 3.6 350 12:49 26.10.2019
5531 Clear 9 1022 81 16093 5.87 359 12:49 26.10.2019
5532 Clear 10 1022 81 16093 4.58 322 12:25 26.10.2019
5533 Clear 10 1022 87 16093 4.58 322 11:56 26.10.2019
5534 Clear 10 1022 87 16093 4.58 322 11:37 26.10.2019
5535 Clear 10 1023 71 16093 2.1 0 11:18 26.10.2019
5536 Mist 12 1022 93 2816 4.58 322 10:44 26.10.2019
5537 Clear 12 1022 87 16093 4.58 322 10:24 26.10.2019
5538 Clear 13 1022 77 0 2.1 230 09:48 26.10.2019
5539 Clear 13 1022 77 0 2.1 230 09:28 26.10.2019
5540 Clear 13 1021 82 16093 4.81 274 08:47 26.10.2019
5541 Clear 14 1021 82 16093 4.81 274 08:26 26.10.2019
5542 Clouds 14 1021 59 16093 3.6 280 07:57 26.10.2019
5543 Clear 14 1022 77 0 2.6 250 07:33 26.10.2019
5544 Clear 14 1022 82 16093 4.81 274 06:48 26.10.2019
5545 Clear 14 1022 82 16093 4.81 274 06:29 26.10.2019
5546 Clear 15 1023 72 16093 3.1 0 05:21 26.10.2019
5547 Clouds 14 1022 67 16093 4.1 220 04:58 26.10.2019
5548 Clear 14 1022 72 16093 5.74 235 03:25 26.10.2019
5549 Clear 14 1022 77 16093 1.5 200 02:23 26.10.2019
5550 Clear 14 1022 59 16093 5.29 188 01:44 26.10.2019
5551 Clear 15 1022 59 16093 5.29 188 00:50 26.10.2019
5552 Clear 17 1022 63 16093 5.02 161 23:48 25.10.2019
5553 Clouds 17 1023 67 16093 3.1 140 23:22 25.10.2019
5554 Clouds 17 1023 67 16093 3.1 140 22:58 25.10.2019
5555 Clouds 18 1023 68 0 5.1 240 22:39 25.10.2019
5556 Clear 18 1023 59 16093 2.6 0 22:21 25.10.2019
5557 Clouds 18 1022 59 16093 4.1 190 21:55 25.10.2019
5558 Clear 18 1022 52 16093 5.02 161 21:37 25.10.2019
5559 Clear 18 1024 55 16093 3.6 220 21:18 25.10.2019
5560 Clear 18 1023 59 16093 2.84 140 20:42 25.10.2019
5561 Clear 18 1024 63 0 2.6 0 20:19 25.10.2019
5562 Clear 18 1024 63 0 2.6 0 20:19 25.10.2019
5563 Clear 17 1025 59 16093 2.84 140 19:47 25.10.2019
5564 Clear 17 1025 59 16093 2.84 140 19:27 25.10.2019
5565 Clouds 17 1025 59 16093 2.1 50 18:55 25.10.2019
5566 Clear 17 1026 63 0 2.1 0 18:37 25.10.2019
5567 Clear 16 1027 55 14484 0.87 260 18:18 25.10.2019
5568 Clear 15 1026 62 16093 0.87 260 17:39 25.10.2019
5569 Clear 14 1027 62 16093 0.87 260 17:18 25.10.2019
5570 Clear 14 1027 71 16093 0.87 260 16:46 25.10.2019
5571 Clear 13 1028 71 14484 2.1 300 16:22 25.10.2019
5572 Clouds 12 1027 67 16093 0.87 260 15:56 25.10.2019
5573 Clear 12 1027 81 16093 0.87 260 15:38 25.10.2019
5574 Clear 9 1027 71 16093 1.25 269 15:19 25.10.2019
5575 Clear 7 1027 87 16093 1.26 241 14:42 25.10.2019
5576 Clear 7 1027 87 16093 1.26 241 14:23 25.10.2019
5577 Clear 6 1027 81 16093 1.26 241 13:59 25.10.2019
5578 Clear 6 1027 81 16093 1.26 241 13:38 25.10.2019
5579 Clouds 6 1026 87 16093 1.26 241 13:20 25.10.2019
5580 Clear 6 1027 87 16093 1.26 241 12:42 25.10.2019
5581 Clear 6 1027 71 16093 2.26 290 12:22 25.10.2019
5582 Clear 7 1027 87 16093 2.26 290 11:58 25.10.2019
5583 Clear 6 1026 87 16093 2.26 290 11:38 25.10.2019
5584 Clear 7 1026 87 16093 2.26 290 11:19 25.10.2019
5585 Clear 7 1026 81 16093 2.26 290 10:41 25.10.2019
5586 Clear 7 1026 81 16093 2.26 290 10:23 25.10.2019
5587 Clear 7 1026 81 16093 2.26 290 09:58 25.10.2019
5588 Clear 8 1026 76 16093 2.26 290 09:38 25.10.2019
5589 Clear 8 1027 62 16093 2.6 280 09:20 25.10.2019
5590 Clouds 8 1026 62 16093 4.1 250 08:51 25.10.2019
5591 Clear 9 1026 76 16093 4.1 250 08:33 25.10.2019
5592 Clouds 9 1026 62 16093 3.1 230 07:57 25.10.2019
5593 Clear 10 1026 66 16093 4.1 250 07:35 25.10.2019
5594 Clear 10 1026 66 16093 4.1 250 07:35 25.10.2019
5595 Clouds 10 1026 54 16093 2.6 220 06:53 25.10.2019
5596 Clear 11 1026 62 16093 5.34 225 06:31 25.10.2019
5597 Clear 12 1027 58 16093 5.34 225 05:40 25.10.2019
5598 Clouds 12 1026 47 16093 2.6 220 04:54 25.10.2019
5599 Clear 12 1026 50 16093 5.34 225 03:45 25.10.2019
5600 Clear 13 1026 55 0 5.1 220 02:22 25.10.2019
5601 Clear 14 1026 59 0 4.1 210 01:51 25.10.2019
5602 Clear 16 1026 44 16093 2.6 0 00:26 25.10.2019
5603 Clear 17 1025 56 16093 2.1 200 23:41 24.10.2019
5604 Clear 18 1025 56 16093 2.1 200 23:23 24.10.2019
5605 Clear 18 1025 34 16093 7.2 160 22:57 24.10.2019
5606 Clear 18 1025 56 16093 3.1 260 22:38 24.10.2019
5607 Clear 19 1026 34 16093 5.67 179 22:19 24.10.2019
5608 Clear 19 1025 34 16093 6.7 170 21:57 24.10.2019
5609 Clear 19 1025 34 16093 6.7 170 21:57 24.10.2019
5610 Clear 19 1025 56 16093 1.5 240 21:38 24.10.2019
5611 Clear 19 1025 56 16093 1.5 240 21:38 24.10.2019
5612 Clear 19 1026 32 0 4.1 200 21:19 24.10.2019
5613 Clear 19 1025 25 16093 5.7 200 20:58 24.10.2019
5614 Clear 19 1025 49 16093 1.5 230 20:38 24.10.2019
5615 Clear 19 1026 29 16093 1.5 0 20:20 24.10.2019
5616 Clear 19 1025 24 16093 3.6 220 19:56 24.10.2019
5617 Clear 19 1026 49 16093 3.1 260 19:37 24.10.2019
5618 Clear 19 1027 29 16093 3.53 172 19:18 24.10.2019
5619 Clear 18 1027 29 16093 3.53 172 18:41 24.10.2019
5620 Clear 18 1027 29 16093 2.53 232 18:23 24.10.2019
5621 Clear 17 1028 34 16093 1.5 210 17:59 24.10.2019
5622 Clear 17 1027 36 16093 1.5 290 17:41 24.10.2019
5623 Clear 16 1027 41 0 4.6 240 17:20 24.10.2019
5624 Clear 15 1027 36 16093 1.5 340 16:56 24.10.2019
5625 Clear 15 1027 47 16093 2.53 232 16:38 24.10.2019
5626 Clear 13 1028 45 16093 2.53 232 16:19 24.10.2019
5627 Clear 13 1027 38 16093 2.53 232 15:58 24.10.2019
5628 Clear 12 1028 61 16093 2.53 232 15:40 24.10.2019
5629 Clear 10 1028 61 16093 2.84 252 15:21 24.10.2019
5630 Clear 8 1027 43 16093 1.5 200 14:57 24.10.2019
5631 Clear 6 1027 62 0 2.1 270 14:38 24.10.2019
5632 Clear 5 1027 50 16093 2.88 236 14:19 24.10.2019
5633 Clear 5 1026 75 16093 2.88 236 13:40 24.10.2019
5634 Clear 5 1026 70 16093 2.1 230 13:20 24.10.2019
5635 Clear 5 1026 75 16093 2.88 236 12:57 24.10.2019
5636 Clear 5 1026 75 16093 2.88 236 12:39 24.10.2019
5637 Clear 6 1026 53 16093 2.37 323 12:19 24.10.2019
5638 Clear 6 1026 70 16093 2.37 323 11:57 24.10.2019
5639 Clear 6 1025 70 16093 2.37 323 11:38 24.10.2019
5640 Clear 6 1025 70 16093 2.37 323 11:19 24.10.2019
5641 Clear 6 1025 65 16093 2.37 323 10:58 24.10.2019
5642 Clear 6 1024 65 16093 2.37 323 10:38 24.10.2019
5643 Clear 6 1024 53 16093 2.37 323 10:20 24.10.2019
5644 Clear 7 1024 65 16093 3.92 289 09:38 24.10.2019
5645 Clear 8 1024 43 0 1.5 0 09:19 24.10.2019
5646 Clear 8 1023 43 16093 4.1 300 08:55 24.10.2019
5647 Clear 8 1023 50 0 1.5 0 08:36 24.10.2019
5648 Clear 8 1024 46 16093 1.5 0 08:18 24.10.2019
5649 Clear 8 1023 66 16093 6.18 307 07:45 24.10.2019
5650 Clear 8 1023 43 16093 2.6 280 07:22 24.10.2019
5651 Clear 8 1022 57 16093 6.18 307 06:46 24.10.2019
5652 Clear 9 1022 57 16093 7.44 292 06:23 24.10.2019
5653 Clear 10 1022 50 16093 4.1 270 05:49 24.10.2019
5654 Clear 10 1022 50 16093 7.44 292 05:28 24.10.2019
5655 Clear 11 1021 44 16093 7.44 292 03:38 24.10.2019
5656 Clear 12 1020 57 16093 7.7 270 02:56 24.10.2019
5657 Clear 12 1020 41 16093 7.24 286 02:25 24.10.2019
5658 Clear 13 1020 44 16093 6.2 250 01:52 24.10.2019
5659 Clear 14 1019 38 16093 2.1 270 01:28 24.10.2019
5660 Clear 16 1017 36 16093 3.1 280 00:44 24.10.2019
5661 Clear 16 1017 36 16093 3.1 280 00:44 24.10.2019
5662 Clear 16 1017 36 16093 3.1 280 00:23 24.10.2019
5663 Clear 17 1016 31 16093 5.1 280 23:43 23.10.2019
5664 Clear 17 1016 31 16093 5.1 280 23:43 23.10.2019
5665 Clear 18 1016 31 16093 3.1 0 23:23 23.10.2019
5666 Clear 17 1016 31 16093 5.1 280 23:23 23.10.2019
5667 Clouds 18 1015 27 16093 7.7 270 22:57 23.10.2019
5668 Clear 18 1015 30 0 6.7 260 22:38 23.10.2019
5669 Clear 18 1016 27 16093 3.1 0 22:19 23.10.2019
5670 Clouds 18 1015 24 16093 8.7 270 21:58 23.10.2019
5671 Clear 18 1015 29 16093 8.2 300 21:39 23.10.2019
5672 Clear 18 1015 31 16093 3.6 260 21:20 23.10.2019
5673 Clouds 18 1014 27 16093 7.7 260 20:58 23.10.2019
5674 Clear 18 1015 32 16093 6.7 300 20:39 23.10.2019
5675 Clear 18 1015 34 16093 3.6 290 20:20 23.10.2019
5676 Clouds 18 1014 53 16093 7.7 280 19:58 23.10.2019
5677 Clear 18 1015 39 16093 8.2 330 19:40 23.10.2019
5678 Clouds 18 1015 39 16093 4.6 280 19:19 23.10.2019
5679 Clouds 18 1014 36 16093 6.2 300 18:55 23.10.2019
5680 Clouds 18 1015 42 16093 7.2 290 18:36 23.10.2019
5681 Rain 17 1015 45 16093 4.1 280 18:18 23.10.2019
5682 Rain 17 1015 51 16093 4.1 290 17:45 23.10.2019
5683 Rain 17 1014 59 0 5.1 280 17:20 23.10.2019
5684 Clouds 16 1014 59 16093 5.1 270 16:58 23.10.2019
5685 Clear 16 1014 63 16093 6.7 290 16:39 23.10.2019
5686 Clear 16 1014 63 16093 6.7 290 16:20 23.10.2019
5687 Clear 14 1014 82 16093 7.22 298 15:42 23.10.2019
5688 Clear 14 1014 82 16093 9.74 310 15:23 23.10.2019
5689 Clouds 13 1013 71 16093 6.7 290 14:58 23.10.2019
5690 Clear 13 1013 87 16093 9.51 312 14:39 23.10.2019
5691 Clear 12 1013 82 16093 2.1 280 14:20 23.10.2019
5692 Clouds 12 1011 76 16093 7.7 300 13:59 23.10.2019
5693 Clear 12 1012 87 16093 9.51 312 13:41 23.10.2019
5694 Clear 12 1012 87 16093 9.51 312 13:23 23.10.2019
5695 Clouds 13 1010 82 16093 7.2 300 12:57 23.10.2019
5696 Clear 13 1010 93 16093 1.5 290 12:38 23.10.2019
5697 Clear 13 1010 87 16093 3.1 270 12:18 23.10.2019
5698 Clouds 13 1009 82 16093 6.2 300 11:57 23.10.2019
5699 Mist 13 1010 100 4828 7.87 306 11:39 23.10.2019
5700 Clear 13 1009 93 16093 2.1 280 11:20 23.10.2019
5701 Mist 14 1009 93 3219 7.87 306 10:46 23.10.2019
5702 Clouds 14 1009 87 16093 1.5 290 10:26 23.10.2019
5703 Clouds 14 1009 87 16093 7.87 306 10:26 23.10.2019
5704 Rain 14 1008 82 16093 3.6 320 09:58 23.10.2019
5705 Rain 14 1008 82 16093 3.6 320 09:58 23.10.2019
5706 Rain 15 1008 87 0 7.12 292 09:39 23.10.2019
5707 Rain 15 1009 87 16093 2.1 340 09:20 23.10.2019
5708 Rain 16 1009 93 16093 3.6 300 08:43 23.10.2019
5709 Rain 16 1008 87 8047 4.6 330 08:25 23.10.2019
5710 Rain 16 1008 93 16093 4.6 300 07:47 23.10.2019
5711 Drizzle 16 1008 93 6437 6.7 300 07:27 23.10.2019
5712 Rain 16 1008 100 3219 3.1 170 06:48 23.10.2019
5713 Rain 16 1009 100 3219 2.6 0 06:23 23.10.2019
5714 Rain 16 1008 93 4023 5.7 160 05:59 23.10.2019
5715 Rain 16 1011 100 6437 2.6 0 05:18 23.10.2019
5716 Rain 15 1009 93 4023 1.5 0 03:46 23.10.2019
5717 Rain 15 1012 93 4023 3.6 100 02:42 23.10.2019
5718 Drizzle 15 1012 93 4828 3.6 100 01:40 23.10.2019
5719 Drizzle 15 1012 93 8047 5.1 100 00:59 23.10.2019
5720 Drizzle 15 1012 93 1609 5.1 100 00:33 23.10.2019
5721 Drizzle 15 1012 93 1609 5.7 110 23:55 22.10.2019
5722 Rain 15 1013 93 4023 2.1 0 23:37 22.10.2019
5723 Rain 15 1014 87 8047 1.5 0 23:18 22.10.2019
5724 Drizzle 15 1013 87 1207 5.7 120 22:40 22.10.2019
5725 Drizzle 15 1013 87 1207 5.7 120 22:22 22.10.2019
5726 Rain 15 1013 87 3219 5.7 100 21:57 22.10.2019
5727 Rain 15 1013 87 16093 6.2 130 21:38 22.10.2019
5728 Clouds 15 1014 87 16093 1.5 0 21:19 22.10.2019
5729 Clouds 15 1013 82 12874 7.2 110 20:58 22.10.2019
5730 Clouds 15 1014 82 0 4.6 80 20:40 22.10.2019
5731 Clouds 15 1014 82 0 4.6 80 20:22 22.10.2019
5732 Rain 15 1016 93 2414 3.6 90 19:57 22.10.2019
5733 Rain 15 1016 93 2414 3.6 90 19:39 22.10.2019
5734 Rain 15 1016 93 2414 3.6 90 19:39 22.10.2019
5735 Rain 14 1017 93 9656 1.5 0 19:21 22.10.2019
5736 Rain 14 1016 82 8047 5.7 80 18:56 22.10.2019
5737 Rain 14 1017 82 14484 4.1 90 18:37 22.10.2019
5738 Rain 14 1018 93 6437 2.1 0 18:19 22.10.2019
5739 Rain 14 1017 93 3219 4.6 70 17:55 22.10.2019
5740 Rain 14 1019 93 4023 1.5 80 17:36 22.10.2019
5741 Rain 14 1019 93 4023 2.1 0 17:18 22.10.2019
5742 Rain 13 1019 87 2816 2.6 60 16:39 22.10.2019
5743 Clouds 13 1018 82 16093 2.6 130 16:20 22.10.2019
5744 Clouds 13 1018 82 16093 3.1 50 15:59 22.10.2019
5745 Clouds 13 1019 82 16093 2.6 50 15:41 22.10.2019
5746 Clouds 13 1018 77 16093 5.49 98 15:19 22.10.2019
5747 Clouds 13 1019 82 16093 2.6 0 14:47 22.10.2019
5748 Clouds 12 1018 82 16093 5.1 90 14:22 22.10.2019
5749 Clouds 12 1019 82 16093 2.1 70 13:59 22.10.2019
5750 Clouds 12 1019 82 0 3.6 30 13:41 22.10.2019
5751 Clouds 12 1019 71 16093 2.6 60 13:18 22.10.2019
5752 Clouds 12 1019 76 0 3.6 40 12:55 22.10.2019
5753 Clouds 12 1019 71 16093 5.16 94 12:37 22.10.2019
5754 Clouds 12 1019 71 0 4.6 50 12:19 22.10.2019
5755 Clouds 12 1019 62 16093 5.88 99 11:40 22.10.2019
5756 Clouds 12 1019 62 16093 5.88 99 11:22 22.10.2019
5757 Clouds 12 1020 62 16093 5.88 99 10:59 22.10.2019
5758 Clouds 11 1019 67 16093 5.88 99 10:38 22.10.2019
5759 Clouds 11 1019 67 16093 5.88 99 10:19 22.10.2019
5760 Clouds 11 1018 50 16093 3.6 90 09:57 22.10.2019
5761 Clouds 11 1019 62 16093 5.41 93 09:39 22.10.2019
5762 Clouds 11 1019 62 16093 5.41 93 09:39 22.10.2019
5763 Clouds 11 1019 62 16093 5.3 85 09:21 22.10.2019
5764 Clouds 11 1019 50 16093 3.1 80 08:55 22.10.2019
5765 Clouds 11 1019 76 16093 5.3 85 08:36 22.10.2019
5766 Clouds 11 1021 66 16093 1.5 0 08:18 22.10.2019
5767 -273 0 0 0 0 0 07:41 22.10.2019
5768 Clouds 10 1019 87 16093 5.3 85 07:22 22.10.2019
5769 Clear 10 1020 87 16093 5.3 85 06:40 22.10.2019
5770 Clear 10 1020 87 16093 4.92 103 06:20 22.10.2019
5771 Clear 10 1020 87 16093 4.92 103 05:27 22.10.2019
5772 Clear 11 1020 82 0 1.5 270 04:19 22.10.2019
5773 Clear 12 1019 72 16093 4.39 108 02:30 22.10.2019
5774 Clear 13 1019 63 16093 4.39 108 01:38 22.10.2019
5775 Clear 14 1020 72 0 4.39 108 01:18 22.10.2019
5776 Clear 15 1019 55 16093 4.39 108 00:42 22.10.2019
5777 Clear 16 1019 55 16093 4.39 108 00:24 22.10.2019
5778 Clouds 17 1019 42 16093 3.6 70 23:59 21.10.2019
5779 Clear 17 1019 52 16093 3.02 157 23:38 21.10.2019
5780 Clear 18 1019 52 16093 3.02 157 23:19 21.10.2019
5781 Clouds 18 1018 39 16093 3.6 50 22:58 21.10.2019
5782 Clear 18 1018 32 16093 3.02 157 22:39 21.10.2019
5783 Clear 18 1018 32 16093 3.02 157 22:39 21.10.2019
5784 Clear 18 1018 32 16093 3.02 157 22:20 21.10.2019
5785 Clear 18 1018 32 16093 3.02 157 22:20 21.10.2019
5786 Clouds 18 1018 42 16093 3.1 40 21:56 21.10.2019
5787 Clear 18 1018 48 16093 1.5 0 21:38 21.10.2019
5788 Rain 18 1018 48 16093 1.5 0 21:19 21.10.2019
5789 Clear 18 1018 34 16093 4.34 68 20:57 21.10.2019
5790 Clear 19 1018 40 16093 2.6 10 20:38 21.10.2019
5791 Clear 18 1018 45 16093 1.5 0 20:20 21.10.2019
5792 Clear 18 1018 42 16093 4.34 68 19:55 21.10.2019
5793 Clear 18 1018 42 16093 4.34 68 19:37 21.10.2019
5794 Clear 18 1018 52 0 2.6 0 19:18 21.10.2019
5795 Clouds 17 1018 55 16093 4.1 50 18:55 21.10.2019
5796 Clear 17 1019 48 16093 4.34 68 18:36 21.10.2019
5797 Clear 17 1019 48 16093 4.34 68 18:36 21.10.2019
5798 Clear 17 1019 48 16093 4.34 68 18:36 21.10.2019
5799 Clear 17 1019 55 16093 2.6 0 18:18 21.10.2019
5800 Clear 17 1019 55 16093 2.6 0 18:18 21.10.2019
5801 Clear 17 1019 55 16093 2.6 0 18:18 21.10.2019
5802 Clear 16 1019 55 16093 4.6 60 17:39 21.10.2019
5803 Clear 15 1019 55 16093 4.6 60 17:20 21.10.2019
5804 Clear 15 1018 55 16093 5.7 60 16:58 21.10.2019
5805 Clear 14 1018 58 16093 5.7 50 16:40 21.10.2019
5806 Clear 14 1018 58 16093 5.7 50 16:22 21.10.2019
5807 Clear 13 1018 58 16093 6.7 40 15:58 21.10.2019
5808 Clear 13 1018 66 16093 3.6 60 15:39 21.10.2019
5809 Clear 12 1018 66 16093 3.6 60 15:19 21.10.2019
5810 Rain 11 1018 76 16093 3.1 40 14:40 21.10.2019
5811 Rain 10 1018 76 16093 3.1 40 14:22 21.10.2019
5812 Clear 10 1018 76 16093 1.5 0 13:59 21.10.2019
5813 Clear 10 1018 87 16093 7.79 20 13:41 21.10.2019
5814 Clear 10 1018 87 16093 7.79 20 13:20 21.10.2019
5815 Clear 10 1018 81 16093 3.6 20 12:59 21.10.2019
5816 Clouds 10 1016 76 16093 5.7 30 12:40 21.10.2019
5817 Clear 10 1017 87 16093 2.84 8.578 12:21 21.10.2019
5818 Clouds 10 1016 81 16093 4.1 360 11:55 21.10.2019
5819 Rain 10 1016 81 16093 2.84 8.578 11:37 21.10.2019
5820 Rain 10 1017 81 16093 1.5 0 11:18 21.10.2019
5821 -273 0 0 0 0 0 10:55 21.10.2019
5822 Clouds 11 1016 87 16093 2.84 8.578 10:36 21.10.2019
5823 Clouds 11 1016 87 16093 2.84 8.578 10:36 21.10.2019
5824 Clouds 11 1015 76 0 3.6 30 10:18 21.10.2019
5825 Clouds 11 1016 81 16093 3.1 0 09:42 21.10.2019
5826 Clouds 11 1016 87 16093 3.06 30.582 09:22 21.10.2019
5827 Rain 11 1016 87 16093 3.1 0 08:43 21.10.2019
5828 Rain 11 1015 93 16093 7.7 30 08:23 21.10.2019
5829 Rain 11 1016 87 16093 4.1 50 07:59 21.10.2019
5830 Rain 11 1015 87 16093 4.1 50 07:37 21.10.2019
5831 Rain 11 1016 87 16093 4.6 50 07:19 21.10.2019
5832 Rain 11 1015 81 16093 6.2 40 06:51 21.10.2019
5833 Rain 11 1015 87 16093 3.6 60 06:32 21.10.2019
5834 Rain 11 1016 87 16093 2.6 30 05:46 21.10.2019
5835 Rain 11 1016 93 14484 4.1 60 04:42 21.10.2019
5836 Rain 12 1016 93 0 4.6 50 02:41 21.10.2019
5837 Rain 12 1016 93 0 4.6 50 02:22 21.10.2019
5838 Rain 12 1016 76 16093 5.1 80 01:52 21.10.2019
5839 Rain 12 1016 87 6437 4.1 110 01:23 21.10.2019
5840 Rain 12 1016 93 8047 3.1 0 00:42 21.10.2019
5841 Rain 12 1016 100 6437 2.1 0 00:24 21.10.2019
5842 Rain 12 1017 93 4828 2.6 0 23:41 20.10.2019
5843 Rain 13 1017 93 4828 3.6 60 23:22 20.10.2019
5844 Rain 13 1016 100 12874 4.6 60 22:56 20.10.2019
5845 Rain 13 1016 93 0 3.6 40 22:37 20.10.2019
5846 Rain 13 1017 100 2012 2.1 60 22:18 20.10.2019
5847 Rain 13 1017 93 9656 3.6 50 21:57 20.10.2019
5848 Rain 13 1017 100 1207 1.5 0 21:38 20.10.2019
5849 Rain 13 1016 100 3219 2.6 20 21:20 20.10.2019
5850 Rain 13 1017 87 0 1.37 349.102 20:41 20.10.2019
5851 Rain 13 1017 87 0 1.37 349.102 20:18 20.10.2019
5852 Rain 14 1017 77 12874 3.1 40 19:56 20.10.2019
5853 Rain 14 1017 82 8047 1.37 349.102 19:37 20.10.2019
5854 Rain 14 1018 77 0 2.6 30 19:19 20.10.2019
5855 Rain 14 1018 71 14484 1.5 20 18:42 20.10.2019
5856 Drizzle 14 1018 71 16093 1.5 60 18:24 20.10.2019
5857 Clouds 14 1017 71 16093 3.1 50 17:59 20.10.2019
5858 Clouds 13 1018 77 0 4.1 30 17:41 20.10.2019
5859 Clouds 13 1018 77 0 4.1 30 17:23 20.10.2019
5860 Clouds 12 1018 82 16093 3.6 40 16:57 20.10.2019
5861 Clouds 13 1018 71 16093 1.34 114.632 16:39 20.10.2019
5862 Clouds 12 1018 71 16093 1.34 114.632 16:21 20.10.2019
5863 Clouds 12 1018 71 16093 1.34 114.632 16:21 20.10.2019
5864 Clouds 12 1018 82 16093 3.6 50 15:56 20.10.2019
5865 Clouds 11 1018 71 0 2.1 50 15:38 20.10.2019
5866 Clouds 9 1018 76 16093 0.4 151.961 15:19 20.10.2019
5867 Clouds 9 1018 81 16093 2.6 40 14:56 20.10.2019
5868 Clouds 7 1017 42 16093 2.1 350 14:37 20.10.2019
5869 Clouds 7 1017 42 16093 2.1 350 14:18 20.10.2019
5870 Clouds 6 1017 87 16093 1.5 20 13:55 20.10.2019
5871 Clear 6 1017 87 16093 0.4 151.961 13:36 20.10.2019
5872 Clear 6 1017 81 16093 0.69 104.663 13:18 20.10.2019
5873 Clear 6 1017 87 16093 0.69 104.663 12:55 20.10.2019
5874 Clear 6 1017 81 16093 0.69 104.663 12:37 20.10.2019
5875 Clear 6 1017 81 16093 1.5 30 12:18 20.10.2019
5876 Mist 6 1017 100 2012 0.25 177.45 11:41 20.10.2019
5877 Fog 6 1017 71 16093 1.5 40 11:23 20.10.2019
5878 Fog 6 1017 71 16093 2.1 80 10:59 20.10.2019
5879 Clear 6 1017 100 16093 0.25 177.45 10:39 20.10.2019
5880 Clear 7 1018 71 16093 0.25 177.45 10:21 20.10.2019
5881 Clouds 7 1017 93 16093 2.1 40 09:57 20.10.2019
5882 Clear 7 1018 71 0 0.25 177.45 09:38 20.10.2019
5883 Clear 7 1018 71 0 0.92 244.161 09:20 20.10.2019
5884 Mist 7 1018 100 8047 0.3 268.072 08:45 20.10.2019
5885 Clear 7 1018 62 16093 1.5 250 08:22 20.10.2019
5886 Clouds 8 1017 58 16093 3.6 200 07:49 20.10.2019
5887 Clear 8 1017 66 16093 0.3 268.072 07:29 20.10.2019
5888 Clear 9 1017 100 16093 0.3 268.072 06:32 20.10.2019
5889 Clear 10 1018 57 16093 1.36 259.752 04:46 20.10.2019
5890 Clear 10 1018 57 16093 1.36 259.752 04:25 20.10.2019
5891 Clear 10 1018 57 16093 1.36 259.752 04:25 20.10.2019
5892 Clear 11 1017 54 16093 1.36 259.752 03:41 20.10.2019
5893 Clear 11 1017 62 0 3.1 250 03:18 20.10.2019
5894 Clear 11 1017 62 0 1.29 250.585 02:36 20.10.2019
5895 Clouds 12 1017 58 16093 2.1 190 01:58 20.10.2019
5896 Clear 12 1017 54 16093 1.35 248.081 01:23 20.10.2019
5897 Clouds 13 1017 58 16093 4.6 170 00:54 20.10.2019
5898 Clear 14 1017 44 16093 2.2 235.457 00:22 20.10.2019
5899 Clear 14 1017 44 16093 2.2 235.457 23:59 19.10.2019
5900 Clear 15 1017 36 16093 2.2 235.457 23:40 19.10.2019
5901 Clear 16 1017 36 16093 2.2 235.457 23:21 19.10.2019
5902 Clouds 16 1017 36 16093 4.6 200 22:55 19.10.2019
5903 Clear 16 1017 33 16093 2.6 290 22:37 19.10.2019
5904 Clear 16 1017 45 0 3.1 0 22:18 19.10.2019
5905 Clear 16 1017 38 16093 2.2 235.457 21:45 19.10.2019
5906 Clear 16 1017 48 0 3.1 0 21:22 19.10.2019
5907 Clear 16 1017 38 16093 2.6 280 20:45 19.10.2019
5908 Clear 16 1017 38 16093 2.6 280 20:45 19.10.2019
5909 Clear 15 1017 38 16093 2.6 280 20:22 19.10.2019
5910 Clouds 15 1017 38 16093 2.6 290 19:57 19.10.2019
5911 Clear 15 1018 47 16093 2.6 300 19:39 19.10.2019
5912 Clear 15 1018 47 16093 2.6 300 19:21 19.10.2019
5913 Clear 13 1019 50 16093 2.6 280 18:42 19.10.2019
5914 Clear 13 1020 50 16093 2.1 0 18:24 19.10.2019
5915 Clouds 12 1019 43 16093 3.6 260 17:55 19.10.2019
5916 Clear 12 1019 54 16093 1.19 323.082 17:37 19.10.2019
5917 Clear 12 1019 54 16093 1.19 323.082 17:19 19.10.2019
5918 Clear 11 1019 61 16093 1.19 323.082 16:39 19.10.2019
5919 Clear 10 1019 61 16093 1.19 323.082 16:20 19.10.2019
5920 Clear 10 1019 61 16093 1.19 323.082 16:20 19.10.2019
5921 Clear 9 1019 70 16093 2.1 310 15:45 19.10.2019
5922 Clear 8 1019 70 16093 2.1 310 15:26 19.10.2019
5923 Clouds 7 1019 61 16093 3.1 280 14:56 19.10.2019
5924 Clear 6 1019 86 16093 1.28 296.183 14:38 19.10.2019
5925 Clear 5 1019 86 16093 1.28 296.183 14:20 19.10.2019
5926 Clear 4 1019 86 16093 1.28 296.183 13:56 19.10.2019
5927 Clear 3 1019 86 16093 1.28 296.183 13:37 19.10.2019
5928 Clear 3 1019 86 16093 1.28 296.183 13:37 19.10.2019
5929 Clear 3 1019 65 16093 1.89 308.929 13:18 19.10.2019
5930 Clear 4 1018 86 16093 1.89 308.929 12:40 19.10.2019
5931 Clear 4 1018 86 16093 3.31 336.758 12:22 19.10.2019
5932 Clear 4 1017 65 16093 2.6 330 11:59 19.10.2019
5933 Clear 4 1017 80 16093 3.31 336.758 11:40 19.10.2019
5934 Clear 4 1018 65 16093 3.31 336.758 11:22 19.10.2019
5935 Clear 4 1017 80 16093 3.31 336.758 10:41 19.10.2019
5936 Clear 4 1017 100 16093 3.31 336.758 10:23 19.10.2019
5937 Clear 5 1018 61 16093 3.31 336.758 09:59 19.10.2019
5938 Clear 5 1017 80 16093 3.31 336.758 09:41 19.10.2019
5939 Clear 5 1018 61 16093 3.32 325.425 09:22 19.10.2019
5940 Clear 5 1018 61 16093 3.32 325.425 09:22 19.10.2019
5941 Clear 6 1018 61 16093 3.16 318.469 08:57 19.10.2019
5942 Clear 6 1017 80 16093 3.16 318.469 08:39 19.10.2019
5943 Clear 6 1017 80 16093 3.16 318.469 08:39 19.10.2019
5944 Clear 6 1017 66 0 2.1 290 08:19 19.10.2019
5945 Clear 7 1017 70 16093 3.16 318.469 07:41 19.10.2019
5946 Clear 7 1017 66 0 1.5 0 07:23 19.10.2019
5947 Clear 7 1017 61 0 2.6 250 06:39 19.10.2019
5948 Clear 8 1017 65 16093 3.21 311.461 05:54 19.10.2019
5949 Clear 8 1017 61 16093 3.6 300 05:26 19.10.2019
5950 Clouds 9 1016 57 0 2.6 0 03:22 19.10.2019
5951 Clear 9 1016 61 16093 3.85 319.14 03:22 19.10.2019
5952 Clear 10 1016 57 16093 3.85 319.14 02:35 19.10.2019
5953 Clouds 10 1015 53 16093 7.7 330 01:50 19.10.2019
5954 Clouds 11 1014 54 16093 8.2 320 00:59 19.10.2019
5955 Clear 11 1014 50 16093 2.1 350 00:41 19.10.2019
5956 Clear 11 1014 53 16093 3.1 0 00:21 19.10.2019
5957 Clear 12 1013 50 16093 5.1 350 23:40 18.10.2019
5958 Clear 12 1013 50 16093 5.1 350 23:21 18.10.2019
5959 Clouds 13 1012 50 16093 9.8 330 22:55 18.10.2019
5960 Clouds 13 1013 44 16093 6.7 320 22:37 18.10.2019
5961 Clouds 13 1013 47 16093 4.1 300 22:19 18.10.2019
5962 Clouds 14 1012 50 16093 9.8 320 21:56 18.10.2019
5963 Clouds 14 1012 50 16093 9.8 320 21:56 18.10.2019
5964 Clouds 14 1012 47 16093 9.3 340 21:37 18.10.2019
5965 Clouds 14 1012 47 16093 9.3 340 21:37 18.10.2019
5966 Clouds 14 1012 47 16093 5.85 310.469 21:18 18.10.2019
5967 Clouds 14 1012 47 16093 8.7 340 20:43 18.10.2019
5968 Clouds 14 1011 47 16093 5.1 290 20:24 18.10.2019
5969 Clouds 14 1011 47 16093 5.1 290 19:59 18.10.2019
5970 Clouds 14 1011 47 16093 4.6 330 19:41 18.10.2019
5971 Clouds 14 1011 47 16093 4.6 330 19:22 18.10.2019
5972 Clouds 14 1011 47 16093 5.7 300 19:22 18.10.2019
5973 Clouds 14 1010 50 16093 7.2 300 18:59 18.10.2019
5974 Clouds 14 1011 47 16093 5.7 350 18:41 18.10.2019
5975 Clouds 14 1011 47 16093 5.7 350 18:23 18.10.2019
5976 Clouds 13 1011 50 16093 5.7 340 17:57 18.10.2019
5977 Clouds 13 1011 50 16093 5.1 340 17:38 18.10.2019
5978 Clouds 13 1011 58 0 2.1 0 17:20 18.10.2019
5979 Clouds 12 1011 50 16093 8.2 320 16:44 18.10.2019
5980 Clouds 12 1011 50 16093 8.2 320 16:44 18.10.2019
5981 Clouds 12 1011 50 16093 8.2 320 16:22 18.10.2019
5982 Clouds 12 1011 50 16093 8.2 320 16:22 18.10.2019
5983 Clouds 11 1010 58 16093 9.8 320 15:59 18.10.2019
5984 Clouds 11 1010 57 16093 4.6 320 15:40 18.10.2019
5985 Clouds 11 1010 57 16093 4.6 320 15:21 18.10.2019
5986 Clouds 11 1010 57 16093 4.6 300 14:58 18.10.2019
5987 Clouds 11 1010 57 16093 4.1 320 14:40 18.10.2019
5988 Clouds 10 1010 57 16093 4.1 320 14:22 18.10.2019
5989 Rain 10 1008 62 16093 8.7 310 13:59 18.10.2019
5990 Rain 10 1008 57 16093 4.1 320 13:40 18.10.2019
5991 Rain 10 1008 57 16093 4.1 320 13:22 18.10.2019
5992 Rain 10 1008 57 16093 4.1 320 13:22 18.10.2019
5993 Clouds 10 1007 62 16093 7.7 330 12:56 18.10.2019
5994 Clouds 10 1008 57 16093 3.6 310 12:38 18.10.2019
5995 Clouds 10 1008 57 16093 3.6 310 12:20 18.10.2019
5996 Clouds 10 1007 57 16093 4.1 320 11:55 18.10.2019
5997 Clouds 10 1007 57 16093 5.1 320 11:37 18.10.2019
5998 Clouds 11 1006 57 16093 4.6 290 11:18 18.10.2019
5999 Clouds 11 1006 57 16093 7.2 320 10:42 18.10.2019
6000 Clouds 11 1006 57 16093 7.2 320 10:22 18.10.2019
6001 Clouds 11 1006 57 16093 6.7 320 09:59 18.10.2019
6002 Clouds 11 1005 57 16093 8.2 310 09:40 18.10.2019
6003 Clouds 11 1005 57 16093 8.2 310 09:21 18.10.2019
6004 Clouds 11 1005 62 16093 5.1 280 08:58 18.10.2019
6005 Clouds 11 1005 62 16093 5.1 280 08:58 18.10.2019
6006 Clouds 11 1005 58 16093 7.7 320 08:40 18.10.2019
6007 Clouds 11 1005 62 16093 4.1 290 08:21 18.10.2019
6008 Clouds 11 1005 54 16093 6.2 330 07:42 18.10.2019
6009 Clouds 11 1005 54 16093 6.2 330 07:21 18.10.2019
6010 Clouds 12 1004 58 16093 8.7 300 06:39 18.10.2019
6011 Clouds 12 1004 58 16093 6.2 290 06:21 18.10.2019
6012 Clouds 12 1003 54 16093 13.4 290 05:56 18.10.2019
6013 Clouds 12 1004 58 16093 5.1 290 05:22 18.10.2019
6014 Clouds 12 1003 54 16093 7.2 300 04:25 18.10.2019
6015 Clouds 12 1001 66 0 3.6 270 03:29 18.10.2019
6016 Clouds 13 1001 54 16093 9.8 310 02:33 18.10.2019
6017 Clouds 13 1000 54 16093 7.7 310 01:44 18.10.2019
6018 Clouds 13 1000 54 16093 7.7 310 01:26 18.10.2019
6019 Clouds 13 998 50 16093 8.2 300 00:45 18.10.2019
6020 Clouds 13 998 50 16093 8.2 300 00:21 18.10.2019
6021 Clouds 13 998 50 16093 8.2 300 00:21 18.10.2019
6022 Clouds 13 998 50 16093 9.8 300 23:57 17.10.2019
6023 Clouds 14 997 50 16093 6.2 280 23:36 17.10.2019
6024 Clouds 14 996 54 0 2.6 0 23:18 17.10.2019
6025 Clouds 14 996 47 16093 8.7 260 22:55 17.10.2019
6026 Clouds 14 996 47 16093 11.8 300 22:37 17.10.2019
6027 Clouds 14 996 58 0 5.1 270 22:18 17.10.2019
6028 Clouds 14 995 47 16093 10.8 270 21:55 17.10.2019
6029 Clouds 14 996 50 16093 10.8 300 21:37 17.10.2019
6030 Clouds 14 995 54 16093 7.7 270 21:19 17.10.2019
6031 -273 0 0 0 0 0 20:56 17.10.2019
6032 -273 0 0 0 0 0 20:56 17.10.2019
6033 Clouds 14 994 54 0 7.2 270 20:37 17.10.2019
6034 Clouds 14 994 47 16093 7.2 270 20:18 17.10.2019
6035 Clouds 14 994 47 16093 12.3 280 19:42 17.10.2019
6036 Clouds 14 994 47 16093 12.3 280 19:42 17.10.2019
6037 Clouds 14 994 47 16093 12.3 280 19:42 17.10.2019
6038 Clouds 14 994 47 16093 12.3 280 19:21 17.10.2019
6039 Clouds 14 994 54 16093 2.1 0 18:59 17.10.2019
6040 Clouds 13 994 50 16093 11.8 290 18:39 17.10.2019
6041 Clouds 13 994 58 16093 3.6 240 18:21 17.10.2019
6042 Clouds 13 994 58 16093 3.6 240 18:21 17.10.2019
6043 Clouds 13 993 50 16093 8.7 260 17:55 17.10.2019
6044 Clouds 13 993 50 16093 8.7 260 17:55 17.10.2019
6045 Clouds 13 993 66 0 11.8 270 17:36 17.10.2019
6046 Clouds 13 993 66 0 11.8 270 17:18 17.10.2019
6047 Clouds 12 994 54 16093 9.3 280 16:41 17.10.2019
6048 Clouds 12 994 54 16093 9.3 280 16:19 17.10.2019
6049 Clouds 12 993 50 16093 11.3 260 15:59 17.10.2019
6050 Clouds 11 994 54 16093 8.2 280 15:40 17.10.2019
6051 Clouds 11 994 54 16093 8.2 280 15:20 17.10.2019
6052 Clouds 11 992 54 16093 8.2 260 14:58 17.10.2019
6053 Clouds 11 994 54 16093 8.2 290 14:39 17.10.2019
6054 Clouds 11 993 58 16093 8.7 250 14:20 17.10.2019
6055 Clouds 11 992 71 0 9.3 260 13:41 17.10.2019
6056 Clouds 11 992 71 0 9.3 260 13:21 17.10.2019
6057 Rain 11 992 62 16093 9.3 260 12:58 17.10.2019
6058 Clouds 11 993 66 16093 8.2 290 12:40 17.10.2019
6059 Clouds 11 993 66 16093 8.2 290 12:20 17.10.2019
6060 Clouds 11 993 66 16093 8.2 290 12:20 17.10.2019
6061 Clouds 11 991 58 16093 9.3 270 11:57 17.10.2019
6062 Clouds 11 993 66 16093 7.2 280 11:38 17.10.2019
6063 Clouds 10 992 66 0 7.2 270 11:18 17.10.2019
6064 Clear 10 992 66 16093 6.7 290 10:42 17.10.2019
6065 Clear 11 992 66 16093 6.7 290 10:20 17.10.2019
6066 Clouds 11 991 58 16093 10.3 280 09:59 17.10.2019
6067 Clouds 11 992 62 16093 7.7 290 09:41 17.10.2019
6068 Rain 11 992 62 16093 8.7 270 09:21 17.10.2019
6069 Rain 11 990 66 16093 10.3 270 08:58 17.10.2019
6070 Rain 11 991 76 0 6.7 260 08:39 17.10.2019
6071 Rain 11 991 76 0 6.7 260 08:19 17.10.2019
6072 Clouds 11 991 76 16093 10.3 290 07:50 17.10.2019
6073 Clouds 11 992 71 16093 6.7 320 07:21 17.10.2019
6074 Rain 11 989 71 16093 12.3 300 06:59 17.10.2019
6075 Rain 11 990 81 0 3.6 310 06:39 17.10.2019
6076 Rain 11 990 81 0 3.6 310 06:20 17.10.2019
6077 Rain 12 989 93 12874 14.4 300 05:49 17.10.2019
6078 Rain 13 989 93 0 1.5 0 05:30 17.10.2019
6079 Rain 14 986 82 6437 14.4 300 04:51 17.10.2019
6080 Rain 15 986 88 4828 7.2 110 03:52 17.10.2019
6081 Rain 16 990 93 2816 5.1 90 02:36 17.10.2019
6082 Rain 16 996 82 3219 10.3 110 00:56 17.10.2019
6083 Rain 16 999 93 0 3.6 90 00:38 17.10.2019
6084 Rain 16 1000 93 2012 1.5 0 00:18 17.10.2019
6085 Rain 16 1000 82 8047 8.2 90 23:42 16.10.2019
6086 Rain 16 1000 82 8047 8.2 90 23:21 16.10.2019
6087 Rain 16 1000 82 8047 8.2 90 23:21 16.10.2019
6088 Rain 17 1001 77 12874 6.2 110 22:55 16.10.2019
6089 Rain 17 1002 88 2012 4.6 110 22:36 16.10.2019
6090 Rain 17 1003 93 0 6.2 50 22:18 16.10.2019
6091 Rain 17 1004 93 0 4.1 60 21:56 16.10.2019
6092 Rain 17 1004 93 0 4.1 60 21:37 16.10.2019
6093 Rain 17 1004 93 0 4.1 60 21:18 16.10.2019
6094 Rain 17 1005 77 8047 8.7 130 20:57 16.10.2019
6095 Rain 18 1005 82 16093 6.2 160 20:38 16.10.2019
6096 Rain 18 1005 82 16093 6.2 160 20:20 16.10.2019
6097 Clouds 18 1006 68 16093 8.2 130 19:56 16.10.2019
6098 Clouds 18 1008 77 16093 3.6 90 19:38 16.10.2019
6099 Clouds 18 1009 77 16093 3.6 120 19:20 16.10.2019
6100 Clouds 18 1011 77 16093 5.7 100 18:39 16.10.2019
6101 Clouds 18 1011 77 16093 5.7 100 18:39 16.10.2019
6102 Clouds 18 1011 77 16093 5.7 100 18:19 16.10.2019
6103 Clouds 18 1010 68 16093 8.2 130 17:57 16.10.2019
6104 Clouds 18 1011 72 16093 2.6 140 17:39 16.10.2019
6105 Clouds 18 1012 72 16093 2.1 0 17:21 16.10.2019
6106 Clouds 17 1012 72 16093 2.1 0 16:59 16.10.2019
6107 Clouds 17 1012 67 16093 4.1 110 16:41 16.10.2019
6108 Clouds 17 1012 67 16093 4.1 110 16:41 16.10.2019
6109 Clouds 16 1014 67 16093 2.6 0 16:20 16.10.2019
6110 Clouds 16 1013 63 16093 4.1 120 15:56 16.10.2019
6111 Clouds 15 1013 77 16093 9.619 149 15:38 16.10.2019
6112 Clouds 15 1014 72 16093 3.6 100 15:18 16.10.2019
6113 Clouds 14 1015 62 16093 1.5 0 14:56 16.10.2019
6114 Clouds 14 1015 62 16093 1.5 0 14:56 16.10.2019
6115 Clouds 13 1015 62 16093 1.5 0 14:37 16.10.2019
6116 Clouds 13 1014 67 16093 4.1 40 14:18 16.10.2019
6117 Clouds 12 1014 67 16093 5.1 110 13:55 16.10.2019
6118 Clouds 12 1015 93 12874 8.944 135 13:36 16.10.2019
6119 Clouds 12 1016 72 16093 3.1 30 13:18 16.10.2019
6120 Clouds 11 1015 87 16093 8.944 135 12:40 16.10.2019
6121 Clouds 10 1015 87 16093 6.837 143 12:18 16.10.2019
6122 Clouds 9 1016 81 16093 1.5 350 11:43 16.10.2019
6123 Clouds 9 1016 77 16093 2.6 20 11:18 16.10.2019
6124 Clouds 9 1017 93 16093 6.837 143 10:40 16.10.2019
6125 Clear 8 1016 81 16093 6.837 143 10:22 16.10.2019
6126 Clouds 8 1017 71 16093 2.1 100 09:58 16.10.2019
6127 Clear 8 1017 81 16093 6.949 144 09:38 16.10.2019
6128 Clear 8 1017 81 16093 6.511 163 09:20 16.10.2019
6129 Clear 9 1018 81 16093 6.511 163 08:43 16.10.2019
6130 Clear 9 1018 81 16093 6.511 163 08:25 16.10.2019
6131 Clouds 9 1018 67 16093 2.1 140 07:56 16.10.2019
6132 Clear 9 1018 81 16093 6.511 163 07:56 16.10.2019
6133 Clear 9 1018 81 16093 6.511 163 07:38 16.10.2019
6134 Clear 9 1018 81 16093 6.511 163 07:19 16.10.2019
6135 Clear 9 1019 71 16093 6.511 163 06:40 16.10.2019
6136 Clear 10 1019 71 16093 5.882 173 06:19 16.10.2019
6137 Clear 11 1019 67 16093 5.882 173 03:33 16.10.2019
6138 Clouds 12 1019 54 16093 4.6 190 02:50 16.10.2019
6139 Clear 13 1019 51 16093 5.397 164 01:20 16.10.2019
6140 Clouds 14 1018 33 16093 3.1 200 00:54 16.10.2019
6141 Clear 14 1019 44 16093 3.1 160 00:35 16.10.2019
6142 Clear 16 1019 34 16093 3.171 141 23:42 15.10.2019
6143 Clear 17 1019 34 16093 3.171 141 23:22 15.10.2019
6144 Clouds 17 1018 31 16093 3.1 90 22:58 15.10.2019
6145 Clear 17 1019 34 16093 3.171 141 22:40 15.10.2019
6146 Clear 17 1019 34 16093 3.171 141 22:21 15.10.2019
6147 Clouds 17 1019 27 16093 3.171 141 21:57 15.10.2019
6148 Clear 17 1020 31 16093 3.171 141 21:38 15.10.2019
6149 Clear 17 1020 31 16093 1.328 189 21:20 15.10.2019
6150 Clouds 17 1020 27 16093 1.5 340 20:58 15.10.2019
6151 Clear 17 1020 33 16093 1.328 189 20:40 15.10.2019
6152 Clear 17 1020 33 16093 1.328 189 20:40 15.10.2019
6153 Clear 17 1020 33 16093 1.328 189 20:21 15.10.2019
6154 Clouds 17 1020 33 16093 2.1 0 19:59 15.10.2019
6155 Clear 17 1021 43 16093 1.328 189 19:41 15.10.2019
6156 Clear 17 1021 43 16093 1.328 189 19:20 15.10.2019
6157 Clouds 16 1021 36 16093 3.6 30 18:55 15.10.2019
6158 Clear 16 1022 43 16093 1.328 189 18:37 15.10.2019
6159 Clear 16 1022 46 16093 3.443 343 18:19 15.10.2019
6160 Clouds 15 1022 38 16093 1.5 360 17:42 15.10.2019
6161 Clear 15 1022 46 16093 3.443 343 17:42 15.10.2019
6162 Clear 15 1023 51 16093 2.1 0 17:21 15.10.2019
6163 Clear 15 1023 50 16093 2.6 280 16:59 15.10.2019
6164 Clear 14 1022 44 16093 3.443 343 16:41 15.10.2019
6165 Clear 14 1022 44 16093 3.443 343 16:21 15.10.2019
6166 Clouds 13 1022 47 16093 4.1 310 15:55 15.10.2019
6167 Clear 12 1022 58 16093 3.443 343 15:37 15.10.2019
6168 Clear 11 1022 58 16093 5.566 351 15:19 15.10.2019
6169 Clear 10 1022 62 16093 5.566 351 14:55 15.10.2019
6170 Clear 9 1022 71 16093 4.726 353 14:36 15.10.2019
6171 Clear 8 1022 71 16093 4.726 353 14:18 15.10.2019
6172 Clear 7 1022 76 16093 4.726 353 13:43 15.10.2019
6173 Clear 7 1022 81 16093 4.726 353 13:20 15.10.2019
6174 Clear 7 1021 71 16093 4.726 353 12:46 15.10.2019
6175 Clear 8 1021 71 16093 4.744 356 12:23 15.10.2019
6176 Clear 8 1021 66 16093 4.744 356 11:59 15.10.2019
6177 Clear 8 1020 70 16093 4.744 356 11:41 15.10.2019
6178 Clear 8 1021 58 16093 1.5 300 11:20 15.10.2019
6179 Clear 8 1021 58 16093 1.5 300 11:20 15.10.2019
6180 Clear 8 1020 66 16093 4.744 356 10:46 15.10.2019
6181 -273 0 0 0 0 0 10:24 15.10.2019
6182 Clouds 10 1020 76 16093 1.5 40 09:59 15.10.2019
6183 -273 0 0 0 0 0 09:40 15.10.2019
6184 Clear 11 1020 58 16093 2.15 333.673 09:21 15.10.2019
6185 -273 0 0 0 0 0 08:58 15.10.2019
6186 Clear 12 1019 54 16093 1.97 329.764 08:40 15.10.2019
6187 Clear 12 1019 54 16093 1.97 329.764 08:20 15.10.2019
6188 Clear 13 1019 58 16093 1.97 329.764 07:44 15.10.2019
6189 Clear 13 1019 58 16093 1.97 329.764 07:23 15.10.2019
6190 Clear 14 1018 50 16093 7.2 350 06:58 15.10.2019
6191 Clear 14 1018 51 16093 1.97 329.764 06:39 15.10.2019
6192 Clear 14 1018 54 16093 3.32 327.94 05:56 15.10.2019
6193 Clear 15 1017 51 16093 3.32 327.94 05:37 15.10.2019
6194 Clear 14 1017 51 16093 3.32 327.94 04:49 15.10.2019
6195 Clear 15 1017 48 16093 3.32 327.94 04:19 15.10.2019
6196 Clear 15 1016 42 16093 3.32 327.94 03:35 15.10.2019
6197 Clear 15 1016 42 16093 3.32 327.94 03:35 15.10.2019
6198 Clear 18 1014 30 16093 6.2 250 01:59 15.10.2019
6199 Clear 18 1015 32 16093 3.1 290 01:40 15.10.2019
6200 Rain 19 1014 32 16093 4.1 260 00:59 15.10.2019
6201 Rain 20 1014 28 16093 4.1 290 00:26 15.10.2019
6202 Clear 20 1013 63 16093 4.1 170 23:59 14.10.2019
6203 Clear 21 1013 46 14484 4.1 270 23:38 14.10.2019
6204 Clear 21 1013 46 14484 4.1 270 23:19 14.10.2019
6205 Clear 21 1013 46 14484 4.1 270 23:19 14.10.2019
6206 Clear 22 1013 36 16093 4.6 260 22:40 14.10.2019
6207 Clear 22 1013 36 16093 4.6 260 22:40 14.10.2019
6208 Clear 22 1013 36 16093 4.6 260 22:21 14.10.2019
6209 Clear 22 1012 35 16093 4.6 240 21:59 14.10.2019
6210 Clear 22 1013 31 16093 4.1 290 21:40 14.10.2019
6211 Clear 22 1013 31 16093 4.1 290 21:40 14.10.2019
6212 Clear 22 1014 37 16093 5.1 260 21:21 14.10.2019
6213 -273 0 0 0 0 0 20:58 14.10.2019
6214 Clear 22 1014 49 16093 2.6 0 20:38 14.10.2019
6215 Clear 21 1014 49 16093 2.6 0 20:19 14.10.2019
6216 Clear 21 1015 43 16093 3.1 280 19:58 14.10.2019
6217 Clear 21 1015 43 16093 3.1 280 19:39 14.10.2019
6218 Clear 21 1015 43 16093 3.1 280 19:39 14.10.2019
6219 Clear 20 1015 56 14484 3.1 230 19:21 14.10.2019
6220 Clouds 20 1014 52 16093 2.1 0 18:57 14.10.2019
6221 Haze 20 1015 55 16093 4.2 257.792 18:38 14.10.2019
6222 Haze 19 1015 55 16093 2.66 234.091 18:18 14.10.2019
6223 Clouds 18 1017 63 16093 2.66 234.091 17:44 14.10.2019
6224 Clouds 18 1016 63 16093 2.66 234.091 17:25 14.10.2019
6225 Clouds 17 1016 63 16093 4.6 270 16:56 14.10.2019
6226 Clouds 17 1017 77 16093 2.66 234.091 16:38 14.10.2019
6227 Clouds 16 1017 67 16093 2.6 300 16:19 14.10.2019
6228 Clouds 16 1016 77 16093 2.66 234.091 15:41 14.10.2019
6229 Clouds 15 1016 77 16093 0.39 233.043 15:22 14.10.2019
6230 Clouds 15 1017 77 16093 2.1 260 14:44 14.10.2019
6231 Clouds 14 1016 87 16093 0.39 233.043 14:26 14.10.2019
6232 Clouds 14 1016 82 16093 0.39 233.043 13:59 14.10.2019
6233 Rain 14 1016 87 16093 0.39 233.043 13:40 14.10.2019
6234 Rain 14 1016 87 16093 0.92 296.09 13:21 14.10.2019
6235 Clouds 14 1016 82 16093 0.92 296.09 12:42 14.10.2019
6236 Clouds 14 1016 87 16093 1.5 0 12:21 14.10.2019
6237 Clouds 14 1016 87 16093 1.5 0 12:21 14.10.2019
6238 Clouds 13 1015 87 16093 2.6 160 11:59 14.10.2019
6239 Clouds 14 1016 87 16093 0.98 180.352 11:41 14.10.2019
6240 Clouds 14 1015 82 16093 1.5 110 11:22 14.10.2019
6241 Clouds 14 1015 82 16093 1.5 190 10:44 14.10.2019
6242 Clouds 14 1015 82 16093 1.5 190 10:23 14.10.2019
6243 Clouds 14 1015 77 16093 1.5 280 10:00 14.10.2019
6244 Clouds 15 1015 100 16093 1.5 120 09:41 14.10.2019
6245 Clouds 14 1015 100 16093 1.5 120 09:20 14.10.2019
6246 Clouds 14 1015 82 16093 1.5 200 08:49 14.10.2019
6247 Clouds 14 1015 77 16093 3.6 160 08:23 14.10.2019
6248 Clouds 15 1017 77 16093 1.1 199.671 07:47 14.10.2019
6249 Clouds 15 1016 82 16093 1.1 199.671 07:24 14.10.2019
6250 -273 0 0 0 0 0 06:57 14.10.2019
6251 Clouds 15 1016 82 16093 1.1 199.671 06:28 14.10.2019
6252 Clouds 15 1017 82 16093 1.77 180.55 05:55 14.10.2019
6253 Rain 15 1017 82 16093 1.77 180.55 05:25 14.10.2019
6254 Clouds 15 1017 72 16093 1.77 180.55 03:50 14.10.2019
6255 Clouds 15 1017 72 16093 1.58 161.703 03:23 14.10.2019
6256 Clouds 15 1018 59 16093 1.5 0 02:25 14.10.2019
6257 Clouds 15 1018 59 16093 1.7 163.107 01:19 14.10.2019
6258 Clouds 16 1018 59 16093 1.7 163.107 00:42 14.10.2019
6259 Clear 16 1018 55 16093 1.43 166.168 00:18 14.10.2019
6260 Clear 17 1017 42 16093 1.43 166.168 23:40 13.10.2019
6261 Clear 18 1018 52 16093 2.1 230 23:19 13.10.2019
6262 Clouds 18 1018 45 16093 1.43 166.168 23:19 13.10.2019
6263 Clouds 18 1018 59 16093 4.1 200 22:57 13.10.2019
6264 Clouds 18 1017 32 16093 3.1 90 22:57 13.10.2019
6265 Clouds 18 1018 45 16093 1.43 166.168 22:39 13.10.2019
6266 Clear 18 1019 39 16093 1.5 60 22:20 13.10.2019
6267 Clouds 18 1018 45 16093 1.43 166.168 22:20 13.10.2019
6268 Clouds 18 1018 32 16093 3.6 60 21:57 13.10.2019
6269 Clouds 18 1018 42 16093 1.43 166.168 21:36 13.10.2019
6270 Clouds 18 1019 34 16093 0.96 140.225 21:18 13.10.2019
6271 Clouds 18 1018 39 16093 2.6 70 20:56 13.10.2019
6272 Clouds 18 1019 42 16093 1.08 189.094 20:37 13.10.2019
6273 Clear 18 1019 42 16093 2.1 240 20:19 13.10.2019
6274 -273 0 0 0 0 0 19:55 13.10.2019
6275 Clear 18 1019 45 16093 1.08 189.094 19:36 13.10.2019
6276 Clear 17 1020 45 16093 2.6 60 19:18 13.10.2019
6277 Clouds 17 1019 55 16093 2.6 0 18:54 13.10.2019
6278 Clear 17 1020 45 16093 1.08 189.094 18:36 13.10.2019
6279 Clouds 16 1021 55 16093 2.1 0 18:18 13.10.2019
6280 Clear 16 1020 51 16093 1.43 340.209 17:42 13.10.2019
6281 Clear 16 1020 51 16093 1.43 340.209 17:42 13.10.2019
6282 Clear 15 1021 62 16093 1.5 0 17:24 13.10.2019
6283 Clear 15 1020 62 16093 1.43 340.209 16:45 13.10.2019
6284 Clouds 14 1021 67 16093 1.43 340.209 16:20 13.10.2019
6285 Clouds 14 1020 58 16093 3.1 30 15:59 13.10.2019
6286 Clouds 14 1020 58 16093 3.1 30 15:59 13.10.2019
6287 Clouds 13 1020 76 16093 1.5 0 15:39 13.10.2019
6288 Clouds 13 1020 76 16093 1.5 0 15:21 13.10.2019
6289 Clouds 12 1020 62 16093 4.1 10 14:59 13.10.2019
6290 Clear 12 1020 76 16093 1.9 335.105 14:40 13.10.2019
6291 Clouds 11 1019 76 16093 2.1 350 14:22 13.10.2019
6292 Clouds 11 1019 71 16093 3.6 20 13:59 13.10.2019
6293 Clear 10 1019 87 16093 1.9 335.105 13:38 13.10.2019
6294 Clear 10 1019 87 16093 1.9 335.105 13:38 13.10.2019
6295 Clear 10 1019 76 16093 1.88 330.892 13:20 13.10.2019
6296 Clouds 10 1019 93 16093 3.1 320 12:56 13.10.2019
6297 Clear 11 1018 87 16093 1.88 330.892 12:38 13.10.2019
6298 Clear 11 1019 81 16093 2.1 300 12:19 13.10.2019
6299 Clear 11 1018 87 16093 2.05 325.086 11:58 13.10.2019
6300 Clear 11 1018 87 16093 2.05 325.086 11:38 13.10.2019
6301 Clear 11 1018 76 16093 2.05 325.086 11:19 13.10.2019
6302 Clear 12 1017 87 16093 2.05 325.086 10:42 13.10.2019
6303 Clear 12 1017 87 16093 2.05 325.086 10:23 13.10.2019
6304 Clear 12 1017 87 16093 2.05 325.086 10:23 13.10.2019
6305 Clear 12 1017 81 16093 2.05 325.086 09:57 13.10.2019
6306 Clear 12 1017 81 16093 2.05 325.086 09:38 13.10.2019
6307 Clear 12 1017 71 16093 2.6 0 09:19 13.10.2019
6308 Clear 13 1017 76 16093 3.23 325.39 08:43 13.10.2019
6309 Clear 13 1016 72 16093 3.23 325.39 08:23 13.10.2019
6310 Clouds 13 1016 77 16093 5.1 320 07:50 13.10.2019
6311 Clear 14 1016 76 16093 3.23 325.39 07:30 13.10.2019
6312 Clear 14 1016 71 16093 3.23 325.39 06:48 13.10.2019
6313 Clouds 15 1015 59 16093 5.7 290 05:57 13.10.2019
6314 Clear 15 1016 67 16093 3.7 309.998 04:59 13.10.2019
6315 Clear 15 1016 67 16093 3.7 309.998 04:33 13.10.2019
6316 Clouds 16 1015 72 16093 5.1 240 02:50 13.10.2019
6317 Clear 17 1015 55 16093 2.88 285.322 02:25 13.10.2019
6318 Clear 17 1015 52 16093 5.1 290 01:34 13.10.2019
6319 Clouds 18 1014 72 16093 1.5 170 00:53 13.10.2019
6320 Clouds 19 1014 63 16093 1.5 240 00:23 13.10.2019
6321 Clouds 19 1013 49 16093 2.29 272.654 23:59 12.10.2019
6322 Clear 19 1014 46 16093 4.6 300 23:40 12.10.2019
6323 Clear 20 1014 46 16093 4.6 300 23:22 12.10.2019
6324 Clouds 20 1013 52 16093 2.29 272.654 22:58 12.10.2019
6325 Clouds 20 1013 52 16093 2.29 272.654 22:58 12.10.2019
6326 Clouds 20 1014 52 16093 2.1 180 22:40 12.10.2019
6327 Clear 20 1014 55 16093 2.29 272.654 22:22 12.10.2019
6328 Clouds 20 1013 45 16093 2.29 272.654 21:57 12.10.2019
6329 Clear 20 1014 49 16093 2.29 272.654 21:39 12.10.2019
6330 Clear 20 1014 52 16093 1.69 305.482 21:20 12.10.2019
6331 Clear 19 1015 59 16093 1.5 140 20:46 12.10.2019
6332 Clear 19 1015 59 16093 1.5 140 20:28 12.10.2019
6333 Clouds 19 1014 55 16093 2.6 350 19:56 12.10.2019
6334 Clouds 19 1015 67 16093 3.6 310 19:36 12.10.2019
6335 Clouds 18 1016 59 16093 1.72 281.14 19:18 12.10.2019
6336 Clear 17 1016 59 16093 1.72 281.14 18:42 12.10.2019
6337 Clouds 16 1016 67 16093 1.5 0 18:24 12.10.2019
6338 Clear 15 1016 59 16093 1.6 11.802 17:46 12.10.2019
6339 Clouds 15 1016 71 16093 3.6 40 17:21 12.10.2019
6340 Clouds 15 1016 67 16093 3.1 10 16:58 12.10.2019
6341 Clear 14 1016 62 16093 1.6 11.802 16:40 12.10.2019
6342 Clouds 14 1017 67 16093 1.5 0 16:20 12.10.2019
6343 Clouds 14 1016 67 16093 4.1 350 15:56 12.10.2019
6344 Clouds 14 1016 67 16093 2.6 360 15:37 12.10.2019
6345 Clouds 13 1017 71 16093 2 12.135 15:18 12.10.2019
6346 Clouds 13 1016 71 16093 2 12.135 14:39 12.10.2019
6347 Clouds 13 1016 71 16093 1.5 0 14:20 12.10.2019
6348 Clouds 12 1016 71 16093 2 12.135 13:50 12.10.2019
6349 Clouds 12 1016 71 16093 1.8 357.839 13:32 12.10.2019
6350 Clouds 12 1015 71 16093 3.6 360 12:55 12.10.2019
6351 Clouds 13 1015 66 16093 1.8 357.839 12:37 12.10.2019
6352 Clouds 13 1016 71 16093 3.6 30 12:19 12.10.2019
6353 Clouds 13 1015 66 16093 2.6 50 11:43 12.10.2019
6354 Clouds 13 1015 66 16093 2.6 50 11:43 12.10.2019
6355 Clouds 13 1016 71 16093 2.1 60 11:22 12.10.2019
6356 Clouds 13 1015 71 16093 3.6 20 10:58 12.10.2019
6357 Clouds 13 1015 62 16093 3.1 30 10:39 12.10.2019
6358 Clouds 13 1016 66 16093 3.1 0 10:20 12.10.2019
6359 Clouds 13 1015 62 16093 3.6 10 09:57 12.10.2019
6360 Clouds 13 1016 58 16093 2.6 30 09:37 12.10.2019
6361 Clouds 13 1017 62 16093 2.6 0 09:19 12.10.2019
6362 Clouds 13 1016 62 16093 5.7 20 08:44 12.10.2019
6363 Clouds 13 1016 58 16093 2.6 30 08:23 12.10.2019
6364 Clouds 13 1016 76 16093 4.6 10 07:50 12.10.2019
6365 Clear 13 1017 58 16093 3.6 50 07:30 12.10.2019
6366 Clouds 14 1017 54 16093 5.7 50 06:27 12.10.2019
6367 Clouds 14 1018 54 16093 4.6 50 05:42 12.10.2019
6368 Clouds 15 1018 55 16093 4.6 70 04:34 12.10.2019
6369 Clouds 15 1018 67 16093 7.2 30 03:53 12.10.2019
6370 Clouds 15 1018 48 16093 6.7 60 02:45 12.10.2019
6371 Clouds 16 1019 48 16093 5.1 50 01:32 12.10.2019
6372 Clouds 16 1018 63 16093 7.2 20 00:55 12.10.2019
6373 Clouds 16 1019 51 16093 5.1 40 00:37 12.10.2019
6374 Clouds 17 1018 42 16093 5.1 50 23:55 11.10.2019
6375 Clouds 17 1018 42 16093 5.1 50 23:36 11.10.2019
6376 Clouds 17 1019 48 16093 3.6 20 23:18 11.10.2019
6377 Clouds 17 1018 45 16093 5.7 50 22:38 11.10.2019
6378 Clouds 17 1019 48 16093 3.1 0 22:19 11.10.2019
6379 Clouds 17 1019 55 16093 6.2 40 21:43 11.10.2019
6380 Clouds 17 1019 63 16093 5.7 20 21:22 11.10.2019
6381 Clouds 17 1018 51 16093 8.2 10 20:57 11.10.2019
6382 Clouds 17 1018 51 16093 8.2 10 20:57 11.10.2019
6383 Clouds 17 1019 48 16093 6.7 60 20:39 11.10.2019
6384 Clouds 17 1020 51 16093 5.1 40 20:20 11.10.2019
6385 Clouds 17 1019 48 16093 9.3 30 19:55 11.10.2019
6386 Clouds 17 1019 45 16093 6.2 50 19:37 11.10.2019
6387 Clouds 17 1019 45 16093 6.2 50 19:37 11.10.2019
6388 Clouds 17 1020 51 16093 4.1 20 19:18 11.10.2019
6389 Clouds 17 1020 51 16093 4.1 20 19:18 11.10.2019
6390 Clouds 17 1020 51 16093 4.1 20 19:18 11.10.2019
6391 Clouds 17 1019 48 16093 6.7 30 18:56 11.10.2019
6392 Clouds 17 1020 42 16093 7.7 60 18:37 11.10.2019
6393 Clouds 16 1020 51 16093 7.7 50 18:18 11.10.2019
6394 Clouds 16 1020 51 16093 8.7 40 17:57 11.10.2019
6395 Clouds 16 1020 39 16093 7.2 50 17:37 11.10.2019
6396 Clouds 16 1021 41 16093 5.7 50 17:18 11.10.2019
6397 Clouds 15 1020 36 16093 2.6 50 16:42 11.10.2019
6398 Clouds 15 1020 36 16093 2.6 50 16:21 11.10.2019
6399 Clouds 15 1020 47 16093 6.7 10 15:59 11.10.2019
6400 Clouds 14 1021 50 16093 2.6 0 15:39 11.10.2019
6401 Clouds 14 1021 50 16093 2.6 0 15:19 11.10.2019
6402 Clear 13 1021 44 16093 3.6 20 14:48 11.10.2019
6403 Clear 13 1021 44 16093 3.6 20 14:29 11.10.2019
6404 Clouds 12 1021 50 16093 6.2 20 13:57 11.10.2019
6405 Clear 12 1021 43 16093 4.1 30 13:39 11.10.2019
6406 Clear 12 1021 50 16093 4.1 40 13:21 11.10.2019
6407 Clear 12 1021 50 16093 4.1 40 13:21 11.10.2019
6408 Clear 12 1021 74 16093 3.1 30 12:56 11.10.2019
6409 Clear 12 1021 74 16093 3.1 30 12:38 11.10.2019
6410 Clear 13 1021 50 16093 2.6 0 12:19 11.10.2019
6411 Clear 13 1021 60 16093 3.6 20 11:41 11.10.2019
6412 Clear 13 1021 60 16093 3.6 20 11:41 11.10.2019
6413 Clear 13 1020 50 16093 1.5 0 11:22 11.10.2019
6414 Clouds 13 1020 50 16093 5.7 10 10:59 11.10.2019
6415 Clouds 13 1020 50 16093 5.7 10 10:59 11.10.2019
6416 Clear 13 1020 60 16093 4.6 30 10:41 11.10.2019
6417 Clear 13 1021 43 16093 3.6 50 10:23 11.10.2019
6418 Clouds 13 1020 44 16093 4.6 20 09:56 11.10.2019
6419 Clear 13 1021 64 16093 4.6 50 09:37 11.10.2019
6420 Clear 13 1021 64 16093 4.6 50 09:37 11.10.2019
6421 Clouds 14 1022 41 16093 3.1 0 09:19 11.10.2019
6422 Clouds 14 1021 44 16093 7.7 20 08:55 11.10.2019
6423 Clouds 14 1021 66 16093 4.1 50 08:37 11.10.2019
6424 Clear 14 1022 41 16093 4.1 30 08:19 11.10.2019
6425 Clouds 14 1022 33 16093 5.1 50 07:44 11.10.2019
6426 Clouds 14 1022 33 16093 5.1 50 07:44 11.10.2019
6427 Clouds 15 1023 66 16093 3.1 0 07:25 11.10.2019
6428 Clouds 15 1022 31 16093 6.2 50 06:49 11.10.2019
6429 Clouds 15 1022 44 16093 5.1 30 06:24 11.10.2019
6430 Clouds 15 1022 29 16093 7.7 60 05:41 11.10.2019
6431 Clouds 15 1023 31 16093 4.1 30 05:20 11.10.2019
6432 Clouds 16 1022 39 16093 7.7 30 04:28 11.10.2019
6433 Clouds 17 1021 24 16093 5.7 50 02:41 11.10.2019
6434 Clouds 18 1022 39 16093 7.2 40 00:52 11.10.2019
6435 Rain 19 1022 32 16093 4.6 40 00:29 11.10.2019
6436 Clouds 20 1022 32 16093 3.6 360 23:48 10.10.2019
6437 Clouds 20 1022 32 16093 3.6 360 23:23 10.10.2019
6438 Clouds 20 1021 28 16093 8.2 20 22:58 10.10.2019
6439 Clear 21 1021 28 16093 4.6 40 22:40 10.10.2019
6440 Clear 21 1022 32 16093 4.6 360 22:21 10.10.2019
6441 Clear 21 1022 32 16093 4.6 360 22:21 10.10.2019
6442 Clear 21 1022 32 16093 4.6 360 22:21 10.10.2019
6443 Clouds 21 1021 28 16093 8.7 360 21:59 10.10.2019
6444 Clear 21 1021 30 16093 5.7 360 21:40 10.10.2019
6445 Clear 21 1021 30 16093 5.7 360 21:22 10.10.2019
6446 Clouds 20 1021 35 16093 8.2 360 20:57 10.10.2019
6447 Clouds 20 1023 42 16093 3.6 30 20:39 10.10.2019
6448 Clouds 20 1023 42 16093 3.6 30 20:19 10.10.2019
6449 Clouds 20 1023 42 16093 3.6 30 20:19 10.10.2019
6450 Clouds 20 1022 32 16093 5.7 40 19:55 10.10.2019
6451 Clouds 19 1022 32 16093 5.7 40 19:37 10.10.2019
6452 Clouds 19 1023 37 16093 9.3 20 19:19 10.10.2019
6453 Clouds 18 1023 34 16093 5.7 30 18:42 10.10.2019
6454 Clouds 18 1024 48 16093 5.1 30 18:20 10.10.2019
6455 Clouds 17 1023 42 16093 8.2 10 17:57 10.10.2019
6456 Clouds 17 1023 36 16093 5.1 50 17:37 10.10.2019
6457 Clouds 17 1024 48 16093 3.1 0 17:18 10.10.2019
6458 Clouds 17 1024 48 16093 3.1 0 17:18 10.10.2019
6459 Clouds 16 1023 45 16093 7.2 350 16:54 10.10.2019
6460 Clouds 16 1023 42 16093 4.6 10 16:36 10.10.2019
6461 Clouds 16 1024 51 16093 3.6 10 16:18 10.10.2019
6462 Clouds 14 1024 51 16093 5.1 30 15:39 10.10.2019
6463 Clear 14 1025 58 16093 4.1 50 15:21 10.10.2019
6464 Clouds 14 1024 58 16093 4.6 40 14:56 10.10.2019
6465 Clouds 13 1024 58 16093 4.6 40 14:37 10.10.2019
6466 Clouds 13 1024 66 16093 5.1 30 14:19 10.10.2019
6467 Clouds 13 1023 66 16093 6.7 20 13:55 10.10.2019
6468 Clouds 13 1023 62 16093 3.1 40 13:37 10.10.2019
6469 Clouds 13 1024 66 16093 5.34 14.869 13:18 10.10.2019
6470 Clouds 12 1024 71 16093 4.6 360 12:42 10.10.2019
6471 Clouds 12 1023 66 16093 7.7 20 12:21 10.10.2019
6472 Clouds 12 1023 66 16093 6.2 10 11:58 10.10.2019
6473 Clouds 12 1024 66 16093 4.1 40 11:40 10.10.2019
6474 Clouds 12 1025 71 16093 2.1 0 11:19 10.10.2019
6475 Clouds 12 1024 66 16093 3.6 30 10:47 10.10.2019
6476 Clouds 12 1024 66 16093 3.6 30 10:28 10.10.2019
6477 Clouds 12 1023 71 16093 5.1 360 09:59 10.10.2019
6478 Clouds 12 1024 71 16093 3.6 350 09:41 10.10.2019
6479 Clouds 12 1025 66 16093 5.1 20 09:23 10.10.2019
6480 Drizzle 12 1023 71 16093 5.1 360 08:59 10.10.2019
6481 Drizzle 12 1023 71 16093 5.1 360 08:59 10.10.2019
6482 Drizzle 12 1024 71 16093 3.6 20 08:39 10.10.2019
6483 Drizzle 12 1025 71 16093 2.6 0 08:20 10.10.2019
6484 Rain 12 1024 76 16093 6.2 10 07:47 10.10.2019
6485 Rain 12 1024 76 16093 6.2 10 07:26 10.10.2019
6486 Rain 11 1024 76 16093 5.7 10 06:55 10.10.2019
6487 Rain 12 1025 71 16093 3.1 50 06:36 10.10.2019
6488 Rain 12 1026 76 16093 4.1 30 05:50 10.10.2019
6489 Rain 12 1026 76 16093 3.6 20 05:19 10.10.2019
6490 Rain 12 1025 71 16093 5.1 50 04:35 10.10.2019
6491 Rain 12 1025 76 16093 3.1 50 02:29 10.10.2019
6492 Clouds 12 1024 71 16093 4.1 50 01:37 10.10.2019
6493 Clouds 12 1025 81 16093 4.1 40 01:18 10.10.2019
6494 Clouds 12 1025 81 16093 4.1 40 01:18 10.10.2019
6495 Clouds 12 1024 76 16093 6.2 30 00:39 10.10.2019
6496 Rain 12 1024 76 16093 5.7 20 23:55 09.10.2019
6497 Rain 12 1025 76 16093 5.1 20 23:36 09.10.2019
6498 Rain 13 1025 81 16093 4.6 40 23:18 09.10.2019
6499 Rain 13 1025 81 16093 4.6 40 23:18 09.10.2019
6500 Rain 13 1024 82 16093 5.1 50 22:41 09.10.2019
6501 Rain 13 1025 81 16093 3.1 0 22:22 09.10.2019
6502 Rain 13 1024 76 16093 7.2 30 21:58 09.10.2019
6503 Rain 13 1024 82 8047 5.1 50 21:39 09.10.2019
6504 Rain 13 1025 87 16093 5.7 20 21:19 09.10.2019
6505 Rain 12 1024 76 16093 6.7 20 20:55 09.10.2019
6506 Rain 12 1025 87 11265 3.6 40 20:37 09.10.2019
6507 Rain 12 1025 93 8047 3.6 40 20:18 09.10.2019
6508 Rain 12 1025 93 8047 3.6 40 20:18 09.10.2019
6509 Rain 12 1025 93 8047 3.6 40 20:18 09.10.2019
6510 Rain 12 1025 87 4828 6.2 30 19:45 09.10.2019
6511 Rain 12 1025 87 4828 6.2 30 19:23 09.10.2019
6512 Rain 12 1025 81 4023 8.2 30 18:58 09.10.2019
6513 Rain 11 1025 93 4023 6.7 30 18:37 09.10.2019
6514 Rain 12 1026 93 2012 4.1 40 18:18 09.10.2019
6515 Rain 12 1026 81 16093 5.1 40 17:55 09.10.2019
6516 Rain 12 1026 81 3219 4.1 20 17:36 09.10.2019
6517 Rain 12 1027 87 3219 7.7 40 17:18 09.10.2019
6518 Rain 13 1027 87 4023 5.7 50 16:40 09.10.2019
6519 Rain 13 1027 71 12874 6.2 60 16:22 09.10.2019
6520 Rain 13 1026 76 6437 10.3 60 15:58 09.10.2019
6521 Rain 13 1026 62 16093 5.7 50 15:39 09.10.2019
6522 Rain 13 1026 62 16093 5.7 50 15:39 09.10.2019
6523 Rain 14 1026 62 16093 3.6 50 15:20 09.10.2019
6524 Rain 14 1025 76 16093 9.8 50 14:58 09.10.2019
6525 Clouds 14 1024 58 16093 3.6 40 14:39 09.10.2019
6526 Clouds 14 1025 62 16093 7.2 50 14:18 09.10.2019
6527 Clouds 14 1025 62 16093 4.1 50 13:40 09.10.2019
6528 Clouds 14 1025 62 16093 4.1 50 13:21 09.10.2019
6529 Clouds 14 1024 58 16093 5.1 20 12:59 09.10.2019
6530 Clouds 14 1023 62 16093 4.6 60 12:40 09.10.2019
6531 Clouds 14 1024 62 16093 4.1 50 12:21 09.10.2019
6532 Clouds 14 1023 62 16093 6.7 40 11:55 09.10.2019
6533 Clouds 14 1023 58 16093 6.2 60 11:37 09.10.2019
6534 Clouds 14 1024 62 16093 4.6 50 11:19 09.10.2019
6535 Rain 14 1023 71 16093 2.6 10 10:43 09.10.2019
6536 Rain 14 1023 71 16093 2.6 10 10:43 09.10.2019
6537 Rain 14 1023 63 16093 6.7 30 10:21 09.10.2019
6538 Rain 14 1023 62 16093 6.7 30 09:59 09.10.2019
6539 Rain 14 1023 58 16093 4.6 30 09:40 09.10.2019
6540 Rain 14 1023 58 16093 4.6 30 09:40 09.10.2019
6541 Rain 14 1023 58 16093 4.6 30 09:40 09.10.2019
6542 Rain 14 1023 63 16093 5.7 20 09:19 09.10.2019
6543 Clouds 14 1023 58 16093 3.1 40 08:41 09.10.2019
6544 Clouds 15 1023 58 16093 3.1 40 08:23 09.10.2019
6545 Clouds 15 1023 63 16093 8.2 40 07:58 09.10.2019
6546 Clouds 15 1023 62 16093 3.6 40 07:39 09.10.2019
6547 Clouds 15 1023 63 16093 6.7 40 07:20 09.10.2019
6548 Clouds 15 1023 62 16093 3.6 40 06:51 09.10.2019
6549 Clouds 15 1023 63 16093 6.7 30 05:56 09.10.2019
6550 Clouds 15 1024 63 16093 4.6 40 05:37 09.10.2019
6551 Clouds 15 1023 63 16093 4.6 40 04:25 09.10.2019
6552 Clouds 15 1023 55 16093 8.7 40 02:53 09.10.2019
6553 Clouds 15 1023 51 16093 4.6 50 01:43 09.10.2019
6554 Clear 16 1024 48 16093 3.6 50 01:20 09.10.2019
6555 Clouds 16 1023 48 16093 6.7 40 00:57 09.10.2019
6556 Clouds 16 1023 48 16093 4.6 50 00:38 09.10.2019
6557 Clouds 17 1024 55 16093 4.1 40 00:20 09.10.2019
6558 Clouds 17 1023 48 16093 4.1 50 23:39 08.10.2019
6559 Clouds 17 1023 59 16093 5.1 40 23:19 08.10.2019
6560 Clouds 17 1023 52 16093 6.2 40 22:57 08.10.2019
6561 Clouds 17 1023 51 16093 3.84 28.624 22:38 08.10.2019
6562 Clouds 17 1024 59 16093 2.6 0 22:19 08.10.2019
6563 Clouds 17 1023 52 16093 6.2 30 21:57 08.10.2019
6564 Clouds 17 1023 51 16093 3.6 40 21:39 08.10.2019
6565 Clouds 17 1023 51 16093 3.6 40 21:39 08.10.2019
6566 Clouds 17 1024 55 16093 2.6 0 21:19 08.10.2019
6567 Clouds 17 1023 52 16093 5.1 30 20:56 08.10.2019
6568 Clouds 17 1023 51 16093 3.88 34.525 20:38 08.10.2019
6569 Clouds 17 1024 55 16093 4.1 40 20:20 08.10.2019
6570 Clouds 17 1024 48 16093 3.1 40 19:58 08.10.2019
6571 Clouds 17 1024 48 16093 3.1 40 19:40 08.10.2019
6572 Clouds 17 1025 55 16093 3.1 0 19:21 08.10.2019
6573 Clouds 16 1024 51 16093 6.2 60 18:55 08.10.2019
6574 Clouds 16 1024 51 16093 6.2 60 18:36 08.10.2019
6575 Clouds 16 1025 59 16093 4.1 40 18:18 08.10.2019
6576 Clouds 16 1025 63 16093 4.6 40 17:40 08.10.2019
6577 Clouds 16 1025 63 16093 3.6 40 17:21 08.10.2019
6578 Clouds 15 1024 59 16093 4.6 40 16:59 08.10.2019
6579 Clouds 15 1025 67 16093 4.6 50 16:40 08.10.2019
6580 Clouds 15 1026 67 16093 3.6 30 16:21 08.10.2019
6581 Rain 15 1025 77 16093 4.6 50 15:41 08.10.2019
6582 Rain 14 1025 77 16093 3.6 50 15:22 08.10.2019
6583 Rain 14 1025 77 16093 3.6 50 15:22 08.10.2019
6584 Rain 14 1024 72 16093 5.7 40 14:59 08.10.2019
6585 Rain 14 1024 77 16093 1.5 40 14:41 08.10.2019
6586 Rain 14 1025 82 16093 3.1 0 14:21 08.10.2019
6587 Rain 14 1024 72 16093 3.6 20 13:57 08.10.2019
6588 Rain 14 1024 87 16093 1.9 16.823 13:39 08.10.2019
6589 Rain 14 1024 87 16093 1.9 16.823 13:20 08.10.2019
6590 Rain 14 1023 77 16093 3.1 20 12:59 08.10.2019
6591 Rain 14 1024 82 16093 2.2 25.666 12:38 08.10.2019
6592 Clouds 14 1024 82 16093 2.6 30 12:19 08.10.2019
6593 Clouds 14 1023 87 16093 2.1 50 11:43 08.10.2019
6594 Clouds 14 1023 87 16093 2.1 50 11:24 08.10.2019
6595 Rain 14 1023 82 16093 3.6 360 10:59 08.10.2019
6596 Rain 14 1024 87 16093 4.1 30 10:40 08.10.2019
6597 Rain 14 1022 87 16093 3.1 20 10:20 08.10.2019
6598 Rain 14 1022 77 16093 4.6 20 09:58 08.10.2019
6599 Rain 15 1023 93 16093 3.6 40 09:39 08.10.2019
6600 Rain 15 1023 93 6437 3.1 30 09:20 08.10.2019
6601 Rain 15 1023 93 9656 3.1 20 08:43 08.10.2019
6602 Rain 15 1023 93 16093 3.6 50 08:25 08.10.2019
6603 Rain 15 1022 87 16093 3.6 360 07:46 08.10.2019
6604 Rain 15 1023 87 6437 3.1 0 07:23 08.10.2019
6605 Rain 15 1022 87 16093 5.1 10 06:57 08.10.2019
6606 Rain 15 1023 87 6437 1.5 0 06:34 08.10.2019
6607 Rain 15 1022 87 8047 4.6 30 05:57 08.10.2019
6608 Rain 15 1022 87 8047 4.6 30 05:57 08.10.2019
6609 Rain 16 1022 82 16093 4.6 50 05:38 08.10.2019
6610 Rain 16 1022 87 4828 4.1 20 05:38 08.10.2019
6611 Rain 16 1021 93 6437 4.1 30 04:42 08.10.2019
6612 Rain 17 1021 88 11265 4.1 20 03:30 08.10.2019
6613 Rain 19 1019 82 16093 7.2 330 02:40 08.10.2019
6614 Rain 21 1019 83 8047 4.6 320 01:51 08.10.2019
6615 Clouds 21 1018 64 16093 3.66 350.353 01:32 08.10.2019
6616 Clouds 22 1018 64 16093 4.1 200 00:55 08.10.2019
6617 Clouds 22 1019 73 16093 2.1 0 00:22 08.10.2019
6618 Clouds 23 1018 44 16093 2.1 210 23:43 07.10.2019
6619 Clouds 23 1019 73 16093 2.1 0 23:21 07.10.2019
6620 Clouds 24 1018 44 16093 3.27 239.692 22:58 07.10.2019
6621 Clouds 24 1018 44 16093 3.27 239.692 22:58 07.10.2019
6622 Clouds 24 1018 44 16093 3.27 239.692 22:40 07.10.2019
6623 Clouds 24 1018 44 16093 3.27 239.692 22:21 07.10.2019
6624 Clouds 24 1018 61 16093 7.7 170 21:59 07.10.2019
6625 Clouds 25 1018 42 16093 1.5 220 21:40 07.10.2019
6626 Clouds 25 1019 50 16093 1.5 0 21:20 07.10.2019
6627 Clouds 25 1018 57 16093 7.2 150 20:58 07.10.2019
6628 Clouds 25 1018 44 16093 2.1 270 20:39 07.10.2019
6629 Clouds 25 1018 44 16093 2.1 270 20:39 07.10.2019
6630 Clouds 25 1018 44 16093 2.1 270 20:39 07.10.2019
6631 Clouds 24 1020 53 16093 1.5 0 20:21 07.10.2019
6632 Clouds 24 1019 54 16093 3.6 170 19:59 07.10.2019
6633 Clouds 24 1019 47 16093 7.2 220 19:41 07.10.2019
6634 Clouds 24 1019 47 16093 7.2 220 19:41 07.10.2019
6635 Clouds 24 1021 60 16093 5.02 214.834 19:20 07.10.2019
6636 Clouds 24 1020 50 16093 6.7 220 18:59 07.10.2019
6637 Clouds 24 1020 53 16093 1.5 210 18:39 07.10.2019
6638 Clouds 24 1021 57 16093 2.6 0 18:19 07.10.2019
6639 Clouds 24 1020 53 16093 8.2 220 17:54 07.10.2019
6640 Clouds 24 1020 53 16093 8.2 220 17:54 07.10.2019
6641 Clouds 23 1021 57 16093 1.5 260 17:36 07.10.2019
6642 Clouds 23 1022 64 16093 2.1 0 17:18 07.10.2019
6643 Clouds 22 1022 68 16093 6.18 209.247 16:43 07.10.2019
6644 Clouds 22 1022 68 16093 6.18 209.247 16:25 07.10.2019
6645 Clouds 21 1022 73 16093 1.5 0 15:46 07.10.2019
6646 Clouds 21 1022 73 16093 1.5 0 15:26 07.10.2019
6647 Clouds 21 1022 73 16093 5.42 198.716 14:58 07.10.2019
6648 Clouds 21 1022 73 16093 2.1 210 14:40 07.10.2019
6649 Clouds 21 1022 73 16093 1.5 0 14:22 07.10.2019
6650 Clouds 20 1022 68 16093 4.1 200 13:44 07.10.2019
6651 Clouds 20 1022 73 16093 2.1 0 13:21 07.10.2019
6652 Clouds 20 1022 73 16093 5.1 190 12:57 07.10.2019
6653 Clouds 20 1022 68 16093 5.53 198.94 12:39 07.10.2019
6654 Clouds 20 1022 68 16093 4.81 192.029 12:20 07.10.2019
6655 Clouds 20 1021 77 16093 5.1 180 11:59 07.10.2019
6656 Clouds 20 1022 68 16093 1.5 210 11:39 07.10.2019
6657 Clouds 20 1022 68 16093 1.5 210 11:20 07.10.2019
6658 Clouds 20 1022 73 16093 4.81 192.029 10:43 07.10.2019
6659 Clouds 20 1022 73 16093 2.6 0 10:23 07.10.2019
6660 Rain 20 1021 77 16093 4.6 180 09:58 07.10.2019
6661 Rain 20 1022 68 16093 3.6 200 09:38 07.10.2019
6662 Rain 20 1023 73 16093 1.5 0 09:20 07.10.2019
6663 Clouds 20 1022 68 16093 1.5 210 08:44 07.10.2019
6664 Clouds 20 1022 68 16093 1.5 210 08:21 07.10.2019
6665 Drizzle 20 1023 64 16093 5.1 190 07:55 07.10.2019
6666 Drizzle 20 1023 68 16093 4.33 190.389 07:36 07.10.2019
6667 Drizzle 20 1024 73 16093 2.6 0 07:18 07.10.2019
6668 Clouds 20 1023 68 16093 1.5 220 06:43 07.10.2019
6669 Clouds 20 1024 73 16093 3.8 194.142 06:20 07.10.2019
6670 Rain 20 1024 68 16093 3.8 194.142 05:27 07.10.2019
6671 Rain 20 1024 73 16093 4.1 190 04:54 07.10.2019
6672 Clouds 20 1024 73 16093 4.6 180 03:51 07.10.2019
6673 Rain 20 1024 68 16093 3.8 194.142 03:32 07.10.2019
6674 Rain 20 1024 88 16093 7.7 180 02:53 07.10.2019
6675 Rain 20 1025 82 16093 1.5 0 02:19 07.10.2019
6676 Rain 20 1025 82 16093 1.5 0 02:19 07.10.2019
6677 Rain 20 1024 77 16093 2.44 174.638 01:24 07.10.2019
6678 Rain 20 1024 77 16093 4.6 180 00:55 07.10.2019
6679 Drizzle 20 1024 77 16093 2.44 174.638 00:36 07.10.2019
6680 Rain 21 1025 73 16093 4.15 193.233 00:18 07.10.2019
6681 Clouds 21 1024 73 16093 2.6 210 23:40 06.10.2019
6682 Clouds 21 1025 73 16093 4.15 193.233 23:21 06.10.2019
6683 Clouds 21 1024 77 16093 6.2 180 22:58 06.10.2019
6684 Clouds 21 1024 64 16093 3.6 200 22:39 06.10.2019
6685 Clouds 21 1025 77 16093 1.5 0 22:21 06.10.2019
6686 Clouds 21 1025 77 16093 1.5 0 22:21 06.10.2019
6687 Clouds 21 1024 73 16093 6.7 180 21:57 06.10.2019
6688 Clouds 21 1024 64 16093 4.15 193.233 21:37 06.10.2019
6689 Clouds 21 1024 64 16093 4.15 193.233 21:37 06.10.2019
6690 Clouds 21 1025 73 16093 2.1 0 21:19 06.10.2019
6691 Clouds 21 1024 73 16093 8.2 180 20:57 06.10.2019
6692 Clouds 20 1025 68 16093 3.6 200 20:38 06.10.2019
6693 Clouds 20 1026 73 16093 3.98 175.358 20:20 06.10.2019
6694 Clouds 20 1026 83 16093 7.7 180 19:57 06.10.2019
6695 Clouds 20 1026 68 16093 4.1 200 19:37 06.10.2019
6696 Clouds 20 1027 72 16093 1.5 0 19:19 06.10.2019
6697 Clouds 20 1026 64 16093 6.2 190 18:56 06.10.2019
6698 Clouds 19 1026 68 16093 3.98 175.358 18:38 06.10.2019
6699 Clouds 19 1027 72 16093 2.6 0 18:19 06.10.2019
6700 Clouds 19 1027 68 16093 3.6 180 17:43 06.10.2019
6701 Clouds 19 1027 68 16093 3.6 180 17:43 06.10.2019
6702 Clouds 18 1027 72 16093 2.6 0 17:21 06.10.2019
6703 Clouds 18 1027 68 16093 6.2 170 16:59 06.10.2019
6704 Clouds 18 1027 68 16093 3.59 169.178 16:41 06.10.2019
6705 Clouds 17 1027 68 16093 3.59 169.178 16:23 06.10.2019
6706 Clouds 16 1027 72 16093 3.59 169.178 15:45 06.10.2019
6707 Clouds 16 1027 72 16093 3.59 169.178 15:45 06.10.2019
6708 Clouds 16 1027 72 16093 3.18 164.767 15:23 06